<?xml version="1.0" encoding="UTF-8" standalone="no" ?>
<gpx xmlns="http://www.topografix.com/GPX/1/1" xmlns:xsi="http://www.w3.org/2001/XMLSchema-instance" xsi:schemaLocation="http://www.topografix.com/GPX/1/1 http://www.topografix.com/GPX/1/1/gpx.xsd" version="1.1" creator="VisuGPX - https://www.visugpx.com">
  <metadata>
    <name>Kreutzweg - La Charbonnière - Refuge de la Tannhütte</name>
  </metadata>
  <trk>
    <name><![CDATA[2023-01-29 12:08:11]]></name>
    <extensions>
      <line xmlns="http://www.topografix.com/GPX/gpx_style/0/2">
        <color>0000FF</color>
        <width>4</width>
      </line>
    </extensions>
    <trkseg>
      <trkpt lat="48.38822" lon="7.29297">
        <ele>787.59997558594</ele>
        <time>2023-01-29T11:08:11.000Z</time>
      </trkpt>
      <trkpt lat="48.38822" lon="7.29296">
        <ele>787.59997558594</ele>
        <time>2023-01-29T11:08:17.000Z</time>
      </trkpt>
      <trkpt lat="48.38831" lon="7.2929">
        <ele>788.19995117188</ele>
        <time>2023-01-29T11:08:25.000Z</time>
      </trkpt>
      <trkpt lat="48.3884" lon="7.29283">
        <ele>788.80004882812</ele>
        <time>2023-01-29T11:08:30.000Z</time>
      </trkpt>
      <trkpt lat="48.38842" lon="7.29282">
        <ele>788.80004882812</ele>
        <time>2023-01-29T11:08:32.000Z</time>
      </trkpt>
      <trkpt lat="48.38843" lon="7.29279">
        <ele>789</ele>
        <time>2023-01-29T11:08:34.000Z</time>
      </trkpt>
      <trkpt lat="48.38847" lon="7.29277">
        <ele>789.40002441406</ele>
        <time>2023-01-29T11:08:38.000Z</time>
      </trkpt>
      <trkpt lat="48.38852" lon="7.29271">
        <ele>789.80004882812</ele>
        <time>2023-01-29T11:08:42.000Z</time>
      </trkpt>
      <trkpt lat="48.38856" lon="7.29267">
        <ele>790.19995117188</ele>
        <time>2023-01-29T11:08:46.000Z</time>
      </trkpt>
      <trkpt lat="48.38858" lon="7.29266">
        <ele>790.40002441406</ele>
        <time>2023-01-29T11:08:49.000Z</time>
      </trkpt>
      <trkpt lat="48.38859" lon="7.29265">
        <ele>790.80004882812</ele>
        <time>2023-01-29T11:08:51.000Z</time>
      </trkpt>
      <trkpt lat="48.3886" lon="7.29264">
        <ele>791.40002441406</ele>
        <time>2023-01-29T11:08:54.000Z</time>
      </trkpt>
      <trkpt lat="48.38865" lon="7.29259">
        <ele>791.80004882812</ele>
        <time>2023-01-29T11:08:58.000Z</time>
      </trkpt>
      <trkpt lat="48.38866" lon="7.29258">
        <ele>791.80004882812</ele>
        <time>2023-01-29T11:08:59.000Z</time>
      </trkpt>
      <trkpt lat="48.38867" lon="7.29258">
        <ele>792</ele>
        <time>2023-01-29T11:09:00.000Z</time>
      </trkpt>
      <trkpt lat="48.38869" lon="7.29257">
        <ele>792</ele>
        <time>2023-01-29T11:09:03.000Z</time>
      </trkpt>
      <trkpt lat="48.38871" lon="7.29256">
        <ele>792.59997558594</ele>
        <time>2023-01-29T11:09:07.000Z</time>
      </trkpt>
      <trkpt lat="48.38872" lon="7.29254">
        <ele>792.80004882812</ele>
        <time>2023-01-29T11:09:10.000Z</time>
      </trkpt>
      <trkpt lat="48.38873" lon="7.29253">
        <ele>793</ele>
        <time>2023-01-29T11:09:11.000Z</time>
      </trkpt>
      <trkpt lat="48.38874" lon="7.29252">
        <ele>793</ele>
        <time>2023-01-29T11:09:13.000Z</time>
      </trkpt>
      <trkpt lat="48.3888" lon="7.29247">
        <ele>794</ele>
        <time>2023-01-29T11:09:19.000Z</time>
      </trkpt>
      <trkpt lat="48.38885" lon="7.29244">
        <ele>795</ele>
        <time>2023-01-29T11:09:25.000Z</time>
      </trkpt>
      <trkpt lat="48.38888" lon="7.29242">
        <ele>795.59997558594</ele>
        <time>2023-01-29T11:09:31.000Z</time>
      </trkpt>
      <trkpt lat="48.3889" lon="7.29242">
        <ele>796</ele>
        <time>2023-01-29T11:09:34.000Z</time>
      </trkpt>
      <trkpt lat="48.38894" lon="7.29241">
        <ele>796.40002441406</ele>
        <time>2023-01-29T11:09:38.000Z</time>
      </trkpt>
      <trkpt lat="48.38895" lon="7.29241">
        <ele>796.59997558594</ele>
        <time>2023-01-29T11:09:39.000Z</time>
      </trkpt>
      <trkpt lat="48.38899" lon="7.2924">
        <ele>797</ele>
        <time>2023-01-29T11:09:43.000Z</time>
      </trkpt>
      <trkpt lat="48.389" lon="7.29241">
        <ele>797</ele>
        <time>2023-01-29T11:09:46.000Z</time>
      </trkpt>
      <trkpt lat="48.38904" lon="7.29241">
        <ele>797.40002441406</ele>
        <time>2023-01-29T11:09:50.000Z</time>
      </trkpt>
      <trkpt lat="48.38909" lon="7.29237">
        <ele>797.40002441406</ele>
        <time>2023-01-29T11:09:53.000Z</time>
      </trkpt>
      <trkpt lat="48.38913" lon="7.29234">
        <ele>798</ele>
        <time>2023-01-29T11:10:01.000Z</time>
      </trkpt>
      <trkpt lat="48.38914" lon="7.29235">
        <ele>798</ele>
        <time>2023-01-29T11:10:02.000Z</time>
      </trkpt>
      <trkpt lat="48.38916" lon="7.29234">
        <ele>798.59997558594</ele>
        <time>2023-01-29T11:10:05.000Z</time>
      </trkpt>
      <trkpt lat="48.38917" lon="7.29233">
        <ele>799</ele>
        <time>2023-01-29T11:10:07.000Z</time>
      </trkpt>
      <trkpt lat="48.38917" lon="7.29232">
        <ele>799</ele>
        <time>2023-01-29T11:10:08.000Z</time>
      </trkpt>
      <trkpt lat="48.38917" lon="7.29232">
        <ele>799</ele>
        <time>2023-01-29T11:10:09.000Z</time>
      </trkpt>
      <trkpt lat="48.38919" lon="7.29234">
        <ele>799.19995117188</ele>
        <time>2023-01-29T11:10:13.000Z</time>
      </trkpt>
      <trkpt lat="48.38925" lon="7.29229">
        <ele>799.59997558594</ele>
        <time>2023-01-29T11:10:20.000Z</time>
      </trkpt>
      <trkpt lat="48.38927" lon="7.29229">
        <ele>799.80004882812</ele>
        <time>2023-01-29T11:10:22.000Z</time>
      </trkpt>
      <trkpt lat="48.38929" lon="7.2923">
        <ele>800.19995117188</ele>
        <time>2023-01-29T11:10:24.000Z</time>
      </trkpt>
      <trkpt lat="48.38931" lon="7.29229">
        <ele>800.59997558594</ele>
        <time>2023-01-29T11:10:28.000Z</time>
      </trkpt>
      <trkpt lat="48.38933" lon="7.2923">
        <ele>801.40002441406</ele>
        <time>2023-01-29T11:10:32.000Z</time>
      </trkpt>
      <trkpt lat="48.38936" lon="7.29229">
        <ele>801.59997558594</ele>
        <time>2023-01-29T11:10:35.000Z</time>
      </trkpt>
      <trkpt lat="48.38937" lon="7.29229">
        <ele>802</ele>
        <time>2023-01-29T11:10:36.000Z</time>
      </trkpt>
      <trkpt lat="48.38939" lon="7.29229">
        <ele>802.40002441406</ele>
        <time>2023-01-29T11:10:39.000Z</time>
      </trkpt>
      <trkpt lat="48.38942" lon="7.29229">
        <ele>802.59997558594</ele>
        <time>2023-01-29T11:10:41.000Z</time>
      </trkpt>
      <trkpt lat="48.38945" lon="7.29229">
        <ele>803.40002441406</ele>
        <time>2023-01-29T11:10:46.000Z</time>
      </trkpt>
      <trkpt lat="48.38945" lon="7.2923">
        <ele>803.59997558594</ele>
        <time>2023-01-29T11:10:47.000Z</time>
      </trkpt>
      <trkpt lat="48.38952" lon="7.29228">
        <ele>804.19995117188</ele>
        <time>2023-01-29T11:10:53.000Z</time>
      </trkpt>
      <trkpt lat="48.38954" lon="7.29226">
        <ele>804.59997558594</ele>
        <time>2023-01-29T11:10:56.000Z</time>
      </trkpt>
      <trkpt lat="48.38956" lon="7.29226">
        <ele>805.19995117188</ele>
        <time>2023-01-29T11:10:59.000Z</time>
      </trkpt>
      <trkpt lat="48.38961" lon="7.29224">
        <ele>805.80004882812</ele>
        <time>2023-01-29T11:11:05.000Z</time>
      </trkpt>
      <trkpt lat="48.38962" lon="7.29224">
        <ele>805.80004882812</ele>
        <time>2023-01-29T11:11:06.000Z</time>
      </trkpt>
      <trkpt lat="48.38968" lon="7.2922">
        <ele>807</ele>
        <time>2023-01-29T11:11:12.000Z</time>
      </trkpt>
      <trkpt lat="48.3897" lon="7.29217">
        <ele>807.40002441406</ele>
        <time>2023-01-29T11:11:16.000Z</time>
      </trkpt>
      <trkpt lat="48.38972" lon="7.29216">
        <ele>807.80004882812</ele>
        <time>2023-01-29T11:11:18.000Z</time>
      </trkpt>
      <trkpt lat="48.38973" lon="7.29216">
        <ele>808</ele>
        <time>2023-01-29T11:11:19.000Z</time>
      </trkpt>
      <trkpt lat="48.38974" lon="7.29216">
        <ele>808</ele>
        <time>2023-01-29T11:11:20.000Z</time>
      </trkpt>
      <trkpt lat="48.38978" lon="7.29214">
        <ele>808.40002441406</ele>
        <time>2023-01-29T11:11:23.000Z</time>
      </trkpt>
      <trkpt lat="48.3898" lon="7.29213">
        <ele>808.80004882812</ele>
        <time>2023-01-29T11:11:25.000Z</time>
      </trkpt>
      <trkpt lat="48.38983" lon="7.2921">
        <ele>809</ele>
        <time>2023-01-29T11:11:27.000Z</time>
      </trkpt>
      <trkpt lat="48.38986" lon="7.29205">
        <ele>809.40002441406</ele>
        <time>2023-01-29T11:11:31.000Z</time>
      </trkpt>
      <trkpt lat="48.3899" lon="7.29203">
        <ele>810.19995117188</ele>
        <time>2023-01-29T11:11:35.000Z</time>
      </trkpt>
      <trkpt lat="48.38995" lon="7.29198">
        <ele>810.59997558594</ele>
        <time>2023-01-29T11:11:40.000Z</time>
      </trkpt>
      <trkpt lat="48.38998" lon="7.29195">
        <ele>811.19995117188</ele>
        <time>2023-01-29T11:11:43.000Z</time>
      </trkpt>
      <trkpt lat="48.39" lon="7.29193">
        <ele>811.40002441406</ele>
        <time>2023-01-29T11:11:45.000Z</time>
      </trkpt>
      <trkpt lat="48.39003" lon="7.29191">
        <ele>811.80004882812</ele>
        <time>2023-01-29T11:11:50.000Z</time>
      </trkpt>
      <trkpt lat="48.39003" lon="7.2919">
        <ele>811.80004882812</ele>
        <time>2023-01-29T11:11:51.000Z</time>
      </trkpt>
      <trkpt lat="48.39005" lon="7.29186">
        <ele>812.19995117188</ele>
        <time>2023-01-29T11:11:55.000Z</time>
      </trkpt>
      <trkpt lat="48.39007" lon="7.29183">
        <ele>812.40002441406</ele>
        <time>2023-01-29T11:11:57.000Z</time>
      </trkpt>
      <trkpt lat="48.39012" lon="7.29177">
        <ele>813</ele>
        <time>2023-01-29T11:12:03.000Z</time>
      </trkpt>
      <trkpt lat="48.39013" lon="7.29175">
        <ele>813.19995117188</ele>
        <time>2023-01-29T11:12:05.000Z</time>
      </trkpt>
      <trkpt lat="48.39017" lon="7.29172">
        <ele>813.80004882812</ele>
        <time>2023-01-29T11:12:10.000Z</time>
      </trkpt>
      <trkpt lat="48.39021" lon="7.29169">
        <ele>814.40002441406</ele>
        <time>2023-01-29T11:12:16.000Z</time>
      </trkpt>
      <trkpt lat="48.39022" lon="7.29168">
        <ele>814.40002441406</ele>
        <time>2023-01-29T11:12:17.000Z</time>
      </trkpt>
      <trkpt lat="48.39024" lon="7.29165">
        <ele>814.80004882812</ele>
        <time>2023-01-29T11:12:19.000Z</time>
      </trkpt>
      <trkpt lat="48.39028" lon="7.29162">
        <ele>815.19995117188</ele>
        <time>2023-01-29T11:12:23.000Z</time>
      </trkpt>
      <trkpt lat="48.39029" lon="7.29163">
        <ele>815.19995117188</ele>
        <time>2023-01-29T11:12:24.000Z</time>
      </trkpt>
      <trkpt lat="48.39031" lon="7.29164">
        <ele>815.40002441406</ele>
        <time>2023-01-29T11:12:26.000Z</time>
      </trkpt>
      <trkpt lat="48.39034" lon="7.29162">
        <ele>815.80004882812</ele>
        <time>2023-01-29T11:12:29.000Z</time>
      </trkpt>
      <trkpt lat="48.39038" lon="7.29159">
        <ele>816.59997558594</ele>
        <time>2023-01-29T11:12:35.000Z</time>
      </trkpt>
      <trkpt lat="48.3904" lon="7.29159">
        <ele>816.59997558594</ele>
        <time>2023-01-29T11:12:36.000Z</time>
      </trkpt>
      <trkpt lat="48.39044" lon="7.29155">
        <ele>817</ele>
        <time>2023-01-29T11:12:40.000Z</time>
      </trkpt>
      <trkpt lat="48.39047" lon="7.29154">
        <ele>817.40002441406</ele>
        <time>2023-01-29T11:12:42.000Z</time>
      </trkpt>
      <trkpt lat="48.39049" lon="7.29151">
        <ele>817.59997558594</ele>
        <time>2023-01-29T11:12:45.000Z</time>
      </trkpt>
      <trkpt lat="48.39051" lon="7.29149">
        <ele>818.19995117188</ele>
        <time>2023-01-29T11:12:48.000Z</time>
      </trkpt>
      <trkpt lat="48.39052" lon="7.29145">
        <ele>818.40002441406</ele>
        <time>2023-01-29T11:12:50.000Z</time>
      </trkpt>
      <trkpt lat="48.39053" lon="7.29143">
        <ele>818.59997558594</ele>
        <time>2023-01-29T11:12:52.000Z</time>
      </trkpt>
      <trkpt lat="48.39059" lon="7.29137">
        <ele>819.19995117188</ele>
        <time>2023-01-29T11:12:59.000Z</time>
      </trkpt>
      <trkpt lat="48.39062" lon="7.29132">
        <ele>819.80004882812</ele>
        <time>2023-01-29T11:13:03.000Z</time>
      </trkpt>
      <trkpt lat="48.39064" lon="7.2913">
        <ele>820</ele>
        <time>2023-01-29T11:13:06.000Z</time>
      </trkpt>
      <trkpt lat="48.39068" lon="7.29121">
        <ele>820.59997558594</ele>
        <time>2023-01-29T11:13:13.000Z</time>
      </trkpt>
      <trkpt lat="48.39069" lon="7.29119">
        <ele>820.80004882812</ele>
        <time>2023-01-29T11:13:15.000Z</time>
      </trkpt>
      <trkpt lat="48.39071" lon="7.29112">
        <ele>821.40002441406</ele>
        <time>2023-01-29T11:13:21.000Z</time>
      </trkpt>
      <trkpt lat="48.39072" lon="7.29104">
        <ele>822</ele>
        <time>2023-01-29T11:13:26.000Z</time>
      </trkpt>
      <trkpt lat="48.39073" lon="7.29103">
        <ele>822.19995117188</ele>
        <time>2023-01-29T11:13:28.000Z</time>
      </trkpt>
      <trkpt lat="48.39075" lon="7.29098">
        <ele>823</ele>
        <time>2023-01-29T11:13:33.000Z</time>
      </trkpt>
      <trkpt lat="48.39075" lon="7.29094">
        <ele>823.19995117188</ele>
        <time>2023-01-29T11:13:36.000Z</time>
      </trkpt>
      <trkpt lat="48.39077" lon="7.29091">
        <ele>823.59997558594</ele>
        <time>2023-01-29T11:13:38.000Z</time>
      </trkpt>
      <trkpt lat="48.39078" lon="7.29087">
        <ele>824.19995117188</ele>
        <time>2023-01-29T11:13:42.000Z</time>
      </trkpt>
      <trkpt lat="48.39081" lon="7.29079">
        <ele>824.80004882812</ele>
        <time>2023-01-29T11:13:49.000Z</time>
      </trkpt>
      <trkpt lat="48.39083" lon="7.29074">
        <ele>825.19995117188</ele>
        <time>2023-01-29T11:13:54.000Z</time>
      </trkpt>
      <trkpt lat="48.39084" lon="7.29071">
        <ele>825.59997558594</ele>
        <time>2023-01-29T11:13:57.000Z</time>
      </trkpt>
      <trkpt lat="48.39084" lon="7.29066">
        <ele>826.19995117188</ele>
        <time>2023-01-29T11:14:01.000Z</time>
      </trkpt>
      <trkpt lat="48.39085" lon="7.29061">
        <ele>826.59997558594</ele>
        <time>2023-01-29T11:14:05.000Z</time>
      </trkpt>
      <trkpt lat="48.39086" lon="7.29054">
        <ele>827.40002441406</ele>
        <time>2023-01-29T11:14:10.000Z</time>
      </trkpt>
      <trkpt lat="48.39087" lon="7.29048">
        <ele>827.80004882812</ele>
        <time>2023-01-29T11:14:14.000Z</time>
      </trkpt>
      <trkpt lat="48.39087" lon="7.29045">
        <ele>828.40002441406</ele>
        <time>2023-01-29T11:14:16.000Z</time>
      </trkpt>
      <trkpt lat="48.39088" lon="7.29044">
        <ele>828.59997558594</ele>
        <time>2023-01-29T11:14:20.000Z</time>
      </trkpt>
      <trkpt lat="48.39089" lon="7.29049">
        <ele>827.80004882812</ele>
        <time>2023-01-29T11:14:27.000Z</time>
      </trkpt>
      <trkpt lat="48.39092" lon="7.2905">
        <ele>828</ele>
        <time>2023-01-29T11:14:35.000Z</time>
      </trkpt>
      <trkpt lat="48.39092" lon="7.2905">
        <ele>828</ele>
        <time>2023-01-29T11:14:42.000Z</time>
      </trkpt>
      <trkpt lat="48.39094" lon="7.2905">
        <ele>828.19995117188</ele>
        <time>2023-01-29T11:14:56.000Z</time>
      </trkpt>
      <trkpt lat="48.39094" lon="7.29051">
        <ele>828.19995117188</ele>
        <time>2023-01-29T11:15:01.000Z</time>
      </trkpt>
      <trkpt lat="48.39094" lon="7.29051">
        <ele>828.19995117188</ele>
        <time>2023-01-29T11:15:08.000Z</time>
      </trkpt>
      <trkpt lat="48.39093" lon="7.29045">
        <ele>828.40002441406</ele>
        <time>2023-01-29T11:15:14.000Z</time>
      </trkpt>
      <trkpt lat="48.39092" lon="7.29043">
        <ele>828.59997558594</ele>
        <time>2023-01-29T11:15:15.000Z</time>
      </trkpt>
      <trkpt lat="48.39091" lon="7.29033">
        <ele>829.19995117188</ele>
        <time>2023-01-29T11:15:19.000Z</time>
      </trkpt>
      <trkpt lat="48.3909" lon="7.2903">
        <ele>829.40002441406</ele>
        <time>2023-01-29T11:15:21.000Z</time>
      </trkpt>
      <trkpt lat="48.3909" lon="7.29029">
        <ele>829.59997558594</ele>
        <time>2023-01-29T11:15:22.000Z</time>
      </trkpt>
      <trkpt lat="48.39089" lon="7.29015">
        <ele>830.19995117188</ele>
        <time>2023-01-29T11:15:30.000Z</time>
      </trkpt>
      <trkpt lat="48.39089" lon="7.29011">
        <ele>830.40002441406</ele>
        <time>2023-01-29T11:15:32.000Z</time>
      </trkpt>
      <trkpt lat="48.39089" lon="7.29009">
        <ele>830.80004882812</ele>
        <time>2023-01-29T11:15:35.000Z</time>
      </trkpt>
      <trkpt lat="48.39089" lon="7.29001">
        <ele>831.40002441406</ele>
        <time>2023-01-29T11:15:42.000Z</time>
      </trkpt>
      <trkpt lat="48.3909" lon="7.28998">
        <ele>831.59997558594</ele>
        <time>2023-01-29T11:15:43.000Z</time>
      </trkpt>
      <trkpt lat="48.3909" lon="7.28989">
        <ele>832.19995117188</ele>
        <time>2023-01-29T11:15:48.000Z</time>
      </trkpt>
      <trkpt lat="48.3909" lon="7.28988">
        <ele>832.19995117188</ele>
        <time>2023-01-29T11:15:49.000Z</time>
      </trkpt>
      <trkpt lat="48.39091" lon="7.28983">
        <ele>832.40002441406</ele>
        <time>2023-01-29T11:15:52.000Z</time>
      </trkpt>
      <trkpt lat="48.3909" lon="7.28976">
        <ele>832.59997558594</ele>
        <time>2023-01-29T11:15:57.000Z</time>
      </trkpt>
      <trkpt lat="48.3909" lon="7.28974">
        <ele>832.59997558594</ele>
        <time>2023-01-29T11:15:58.000Z</time>
      </trkpt>
      <trkpt lat="48.3909" lon="7.28968">
        <ele>833.19995117188</ele>
        <time>2023-01-29T11:16:03.000Z</time>
      </trkpt>
      <trkpt lat="48.3909" lon="7.28964">
        <ele>833.59997558594</ele>
        <time>2023-01-29T11:16:06.000Z</time>
      </trkpt>
      <trkpt lat="48.3909" lon="7.28959">
        <ele>833.80004882812</ele>
        <time>2023-01-29T11:16:09.000Z</time>
      </trkpt>
      <trkpt lat="48.3909" lon="7.28948">
        <ele>834.59997558594</ele>
        <time>2023-01-29T11:16:17.000Z</time>
      </trkpt>
      <trkpt lat="48.3909" lon="7.28945">
        <ele>834.80004882812</ele>
        <time>2023-01-29T11:16:19.000Z</time>
      </trkpt>
      <trkpt lat="48.39092" lon="7.28937">
        <ele>835.40002441406</ele>
        <time>2023-01-29T11:16:25.000Z</time>
      </trkpt>
      <trkpt lat="48.39093" lon="7.28932">
        <ele>835.40002441406</ele>
        <time>2023-01-29T11:16:29.000Z</time>
      </trkpt>
      <trkpt lat="48.39093" lon="7.28927">
        <ele>835.59997558594</ele>
        <time>2023-01-29T11:16:32.000Z</time>
      </trkpt>
      <trkpt lat="48.39092" lon="7.28923">
        <ele>835.80004882812</ele>
        <time>2023-01-29T11:16:35.000Z</time>
      </trkpt>
      <trkpt lat="48.39092" lon="7.28919">
        <ele>836</ele>
        <time>2023-01-29T11:16:38.000Z</time>
      </trkpt>
      <trkpt lat="48.39091" lon="7.28909">
        <ele>836.80004882812</ele>
        <time>2023-01-29T11:16:46.000Z</time>
      </trkpt>
      <trkpt lat="48.39091" lon="7.28906">
        <ele>837</ele>
        <time>2023-01-29T11:16:48.000Z</time>
      </trkpt>
      <trkpt lat="48.39089" lon="7.28897">
        <ele>837.80004882812</ele>
        <time>2023-01-29T11:16:55.000Z</time>
      </trkpt>
      <trkpt lat="48.39087" lon="7.2889">
        <ele>838</ele>
        <time>2023-01-29T11:16:59.000Z</time>
      </trkpt>
      <trkpt lat="48.39084" lon="7.28883">
        <ele>838.40002441406</ele>
        <time>2023-01-29T11:17:03.000Z</time>
      </trkpt>
      <trkpt lat="48.39083" lon="7.28878">
        <ele>839</ele>
        <time>2023-01-29T11:17:09.000Z</time>
      </trkpt>
      <trkpt lat="48.39083" lon="7.28878">
        <ele>839.19995117188</ele>
        <time>2023-01-29T11:17:10.000Z</time>
      </trkpt>
      <trkpt lat="48.39084" lon="7.28876">
        <ele>839.19995117188</ele>
        <time>2023-01-29T11:17:18.000Z</time>
      </trkpt>
      <trkpt lat="48.39081" lon="7.28879">
        <ele>839.19995117188</ele>
        <time>2023-01-29T11:17:25.000Z</time>
      </trkpt>
      <trkpt lat="48.39081" lon="7.28879">
        <ele>839.19995117188</ele>
        <time>2023-01-29T11:17:28.000Z</time>
      </trkpt>
      <trkpt lat="48.39081" lon="7.2888">
        <ele>839.19995117188</ele>
        <time>2023-01-29T11:17:32.000Z</time>
      </trkpt>
      <trkpt lat="48.39078" lon="7.28875">
        <ele>839.59997558594</ele>
        <time>2023-01-29T11:17:42.000Z</time>
      </trkpt>
      <trkpt lat="48.39074" lon="7.28867">
        <ele>840.19995117188</ele>
        <time>2023-01-29T11:17:47.000Z</time>
      </trkpt>
      <trkpt lat="48.39073" lon="7.28863">
        <ele>840.40002441406</ele>
        <time>2023-01-29T11:17:50.000Z</time>
      </trkpt>
      <trkpt lat="48.39072" lon="7.28862">
        <ele>840.80004882812</ele>
        <time>2023-01-29T11:17:51.000Z</time>
      </trkpt>
      <trkpt lat="48.3907" lon="7.28855">
        <ele>841.19995117188</ele>
        <time>2023-01-29T11:17:57.000Z</time>
      </trkpt>
      <trkpt lat="48.39068" lon="7.28851">
        <ele>841.59997558594</ele>
        <time>2023-01-29T11:18:00.000Z</time>
      </trkpt>
      <trkpt lat="48.39064" lon="7.28842">
        <ele>842.19995117188</ele>
        <time>2023-01-29T11:18:08.000Z</time>
      </trkpt>
      <trkpt lat="48.39063" lon="7.28841">
        <ele>842.19995117188</ele>
        <time>2023-01-29T11:18:09.000Z</time>
      </trkpt>
      <trkpt lat="48.39063" lon="7.28839">
        <ele>842.40002441406</ele>
        <time>2023-01-29T11:18:10.000Z</time>
      </trkpt>
      <trkpt lat="48.3906" lon="7.28829">
        <ele>843.19995117188</ele>
        <time>2023-01-29T11:18:17.000Z</time>
      </trkpt>
      <trkpt lat="48.3906" lon="7.28828">
        <ele>843.19995117188</ele>
        <time>2023-01-29T11:18:18.000Z</time>
      </trkpt>
      <trkpt lat="48.39059" lon="7.28827">
        <ele>843.19995117188</ele>
        <time>2023-01-29T11:18:19.000Z</time>
      </trkpt>
      <trkpt lat="48.39057" lon="7.28823">
        <ele>843.59997558594</ele>
        <time>2023-01-29T11:18:22.000Z</time>
      </trkpt>
      <trkpt lat="48.39055" lon="7.28819">
        <ele>843.80004882812</ele>
        <time>2023-01-29T11:18:25.000Z</time>
      </trkpt>
      <trkpt lat="48.39053" lon="7.28814">
        <ele>844.19995117188</ele>
        <time>2023-01-29T11:18:29.000Z</time>
      </trkpt>
      <trkpt lat="48.39052" lon="7.28813">
        <ele>844.40002441406</ele>
        <time>2023-01-29T11:18:30.000Z</time>
      </trkpt>
      <trkpt lat="48.39049" lon="7.28806">
        <ele>845</ele>
        <time>2023-01-29T11:18:35.000Z</time>
      </trkpt>
      <trkpt lat="48.39048" lon="7.28804">
        <ele>845.40002441406</ele>
        <time>2023-01-29T11:18:37.000Z</time>
      </trkpt>
      <trkpt lat="48.39046" lon="7.28801">
        <ele>845.59997558594</ele>
        <time>2023-01-29T11:18:40.000Z</time>
      </trkpt>
      <trkpt lat="48.39044" lon="7.28799">
        <ele>845.80004882812</ele>
        <time>2023-01-29T11:18:42.000Z</time>
      </trkpt>
      <trkpt lat="48.39041" lon="7.28793">
        <ele>846.19995117188</ele>
        <time>2023-01-29T11:18:48.000Z</time>
      </trkpt>
      <trkpt lat="48.39039" lon="7.28791">
        <ele>846.40002441406</ele>
        <time>2023-01-29T11:18:51.000Z</time>
      </trkpt>
      <trkpt lat="48.39036" lon="7.28787">
        <ele>846.59997558594</ele>
        <time>2023-01-29T11:18:55.000Z</time>
      </trkpt>
      <trkpt lat="48.39031" lon="7.28779">
        <ele>847.19995117188</ele>
        <time>2023-01-29T11:19:02.000Z</time>
      </trkpt>
      <trkpt lat="48.3903" lon="7.28777">
        <ele>847.59997558594</ele>
        <time>2023-01-29T11:19:04.000Z</time>
      </trkpt>
      <trkpt lat="48.39027" lon="7.28771">
        <ele>848.19995117188</ele>
        <time>2023-01-29T11:19:09.000Z</time>
      </trkpt>
      <trkpt lat="48.39026" lon="7.28763">
        <ele>848.59997558594</ele>
        <time>2023-01-29T11:19:14.000Z</time>
      </trkpt>
      <trkpt lat="48.39024" lon="7.28758">
        <ele>849</ele>
        <time>2023-01-29T11:19:18.000Z</time>
      </trkpt>
      <trkpt lat="48.39023" lon="7.28754">
        <ele>849.19995117188</ele>
        <time>2023-01-29T11:19:20.000Z</time>
      </trkpt>
      <trkpt lat="48.3902" lon="7.2875">
        <ele>849.59997558594</ele>
        <time>2023-01-29T11:19:24.000Z</time>
      </trkpt>
      <trkpt lat="48.39012" lon="7.28741">
        <ele>850.59997558594</ele>
        <time>2023-01-29T11:19:32.000Z</time>
      </trkpt>
      <trkpt lat="48.39012" lon="7.2874">
        <ele>850.59997558594</ele>
        <time>2023-01-29T11:19:33.000Z</time>
      </trkpt>
      <trkpt lat="48.39007" lon="7.28732">
        <ele>851.59997558594</ele>
        <time>2023-01-29T11:19:41.000Z</time>
      </trkpt>
      <trkpt lat="48.39006" lon="7.2873">
        <ele>851.80004882812</ele>
        <time>2023-01-29T11:19:43.000Z</time>
      </trkpt>
      <trkpt lat="48.39003" lon="7.28725">
        <ele>852.19995117188</ele>
        <time>2023-01-29T11:19:48.000Z</time>
      </trkpt>
      <trkpt lat="48.39" lon="7.28716">
        <ele>852.80004882812</ele>
        <time>2023-01-29T11:19:54.000Z</time>
      </trkpt>
      <trkpt lat="48.39" lon="7.28711">
        <ele>853</ele>
        <time>2023-01-29T11:19:57.000Z</time>
      </trkpt>
      <trkpt lat="48.39001" lon="7.28705">
        <ele>853.19995117188</ele>
        <time>2023-01-29T11:20:03.000Z</time>
      </trkpt>
      <trkpt lat="48.39" lon="7.28704">
        <ele>853.40002441406</ele>
        <time>2023-01-29T11:20:04.000Z</time>
      </trkpt>
      <trkpt lat="48.38997" lon="7.28698">
        <ele>853.80004882812</ele>
        <time>2023-01-29T11:20:09.000Z</time>
      </trkpt>
      <trkpt lat="48.38996" lon="7.28699">
        <ele>854</ele>
        <time>2023-01-29T11:20:11.000Z</time>
      </trkpt>
      <trkpt lat="48.38993" lon="7.28693">
        <ele>854.19995117188</ele>
        <time>2023-01-29T11:20:15.000Z</time>
      </trkpt>
      <trkpt lat="48.38991" lon="7.28689">
        <ele>854.59997558594</ele>
        <time>2023-01-29T11:20:18.000Z</time>
      </trkpt>
      <trkpt lat="48.3899" lon="7.28683">
        <ele>854.80004882812</ele>
        <time>2023-01-29T11:20:22.000Z</time>
      </trkpt>
      <trkpt lat="48.3899" lon="7.28681">
        <ele>855</ele>
        <time>2023-01-29T11:20:23.000Z</time>
      </trkpt>
      <trkpt lat="48.38988" lon="7.28675">
        <ele>855.40002441406</ele>
        <time>2023-01-29T11:20:27.000Z</time>
      </trkpt>
      <trkpt lat="48.38987" lon="7.28673">
        <ele>855.59997558594</ele>
        <time>2023-01-29T11:20:29.000Z</time>
      </trkpt>
      <trkpt lat="48.38985" lon="7.28666">
        <ele>856</ele>
        <time>2023-01-29T11:20:34.000Z</time>
      </trkpt>
      <trkpt lat="48.38984" lon="7.28664">
        <ele>856</ele>
        <time>2023-01-29T11:20:35.000Z</time>
      </trkpt>
      <trkpt lat="48.38981" lon="7.28656">
        <ele>856.59997558594</ele>
        <time>2023-01-29T11:20:42.000Z</time>
      </trkpt>
      <trkpt lat="48.38978" lon="7.28648">
        <ele>857.19995117188</ele>
        <time>2023-01-29T11:20:49.000Z</time>
      </trkpt>
      <trkpt lat="48.38978" lon="7.28647">
        <ele>857.19995117188</ele>
        <time>2023-01-29T11:20:50.000Z</time>
      </trkpt>
      <trkpt lat="48.38974" lon="7.28641">
        <ele>857.59997558594</ele>
        <time>2023-01-29T11:20:55.000Z</time>
      </trkpt>
      <trkpt lat="48.38973" lon="7.28638">
        <ele>857.80004882812</ele>
        <time>2023-01-29T11:20:57.000Z</time>
      </trkpt>
      <trkpt lat="48.38971" lon="7.28633">
        <ele>858.19995117188</ele>
        <time>2023-01-29T11:21:01.000Z</time>
      </trkpt>
      <trkpt lat="48.38968" lon="7.28627">
        <ele>858.59997558594</ele>
        <time>2023-01-29T11:21:06.000Z</time>
      </trkpt>
      <trkpt lat="48.38966" lon="7.2862">
        <ele>859.19995117188</ele>
        <time>2023-01-29T11:21:11.000Z</time>
      </trkpt>
      <trkpt lat="48.38965" lon="7.28616">
        <ele>859.40002441406</ele>
        <time>2023-01-29T11:21:14.000Z</time>
      </trkpt>
      <trkpt lat="48.3896" lon="7.28609">
        <ele>859.59997558594</ele>
        <time>2023-01-29T11:21:20.000Z</time>
      </trkpt>
      <trkpt lat="48.38961" lon="7.28606">
        <ele>860.19995117188</ele>
        <time>2023-01-29T11:21:24.000Z</time>
      </trkpt>
      <trkpt lat="48.38962" lon="7.28606">
        <ele>860.19995117188</ele>
        <time>2023-01-29T11:21:26.000Z</time>
      </trkpt>
      <trkpt lat="48.38964" lon="7.28602">
        <ele>860.19995117188</ele>
        <time>2023-01-29T11:21:28.000Z</time>
      </trkpt>
      <trkpt lat="48.38965" lon="7.28599">
        <ele>860.19995117188</ele>
        <time>2023-01-29T11:21:30.000Z</time>
      </trkpt>
      <trkpt lat="48.3896" lon="7.28594">
        <ele>860.59997558594</ele>
        <time>2023-01-29T11:21:37.000Z</time>
      </trkpt>
      <trkpt lat="48.38959" lon="7.28591">
        <ele>860.59997558594</ele>
        <time>2023-01-29T11:21:39.000Z</time>
      </trkpt>
      <trkpt lat="48.38957" lon="7.2859">
        <ele>860.80004882812</ele>
        <time>2023-01-29T11:21:41.000Z</time>
      </trkpt>
      <trkpt lat="48.38955" lon="7.28588">
        <ele>861</ele>
        <time>2023-01-29T11:21:43.000Z</time>
      </trkpt>
      <trkpt lat="48.38954" lon="7.28587">
        <ele>861</ele>
        <time>2023-01-29T11:21:44.000Z</time>
      </trkpt>
      <trkpt lat="48.38952" lon="7.28585">
        <ele>861.19995117188</ele>
        <time>2023-01-29T11:21:46.000Z</time>
      </trkpt>
      <trkpt lat="48.3895" lon="7.28583">
        <ele>861.40002441406</ele>
        <time>2023-01-29T11:21:48.000Z</time>
      </trkpt>
      <trkpt lat="48.38947" lon="7.28581">
        <ele>861.59997558594</ele>
        <time>2023-01-29T11:21:50.000Z</time>
      </trkpt>
      <trkpt lat="48.38946" lon="7.28579">
        <ele>861.59997558594</ele>
        <time>2023-01-29T11:21:51.000Z</time>
      </trkpt>
      <trkpt lat="48.38942" lon="7.28573">
        <ele>861.80004882812</ele>
        <time>2023-01-29T11:21:56.000Z</time>
      </trkpt>
      <trkpt lat="48.38938" lon="7.28568">
        <ele>862.19995117188</ele>
        <time>2023-01-29T11:22:03.000Z</time>
      </trkpt>
      <trkpt lat="48.38937" lon="7.28567">
        <ele>862.19995117188</ele>
        <time>2023-01-29T11:22:04.000Z</time>
      </trkpt>
      <trkpt lat="48.38937" lon="7.28566">
        <ele>862.19995117188</ele>
        <time>2023-01-29T11:22:05.000Z</time>
      </trkpt>
      <trkpt lat="48.38934" lon="7.28567">
        <ele>862.59997558594</ele>
        <time>2023-01-29T11:22:11.000Z</time>
      </trkpt>
      <trkpt lat="48.38935" lon="7.28574">
        <ele>862.59997558594</ele>
        <time>2023-01-29T11:22:19.000Z</time>
      </trkpt>
      <trkpt lat="48.38935" lon="7.28575">
        <ele>862.40002441406</ele>
        <time>2023-01-29T11:22:20.000Z</time>
      </trkpt>
      <trkpt lat="48.38936" lon="7.28576">
        <ele>862.40002441406</ele>
        <time>2023-01-29T11:22:21.000Z</time>
      </trkpt>
      <trkpt lat="48.38937" lon="7.28578">
        <ele>862.19995117188</ele>
        <time>2023-01-29T11:22:23.000Z</time>
      </trkpt>
      <trkpt lat="48.38938" lon="7.28579">
        <ele>862.19995117188</ele>
        <time>2023-01-29T11:22:24.000Z</time>
      </trkpt>
      <trkpt lat="48.38939" lon="7.28579">
        <ele>862.19995117188</ele>
        <time>2023-01-29T11:22:25.000Z</time>
      </trkpt>
      <trkpt lat="48.38943" lon="7.28583">
        <ele>862.40002441406</ele>
        <time>2023-01-29T11:22:30.000Z</time>
      </trkpt>
      <trkpt lat="48.38945" lon="7.28587">
        <ele>862.59997558594</ele>
        <time>2023-01-29T11:22:33.000Z</time>
      </trkpt>
      <trkpt lat="48.38946" lon="7.28591">
        <ele>862.80004882812</ele>
        <time>2023-01-29T11:22:35.000Z</time>
      </trkpt>
      <trkpt lat="48.3895" lon="7.28595">
        <ele>863.19995117188</ele>
        <time>2023-01-29T11:22:39.000Z</time>
      </trkpt>
      <trkpt lat="48.38951" lon="7.28596">
        <ele>863.40002441406</ele>
        <time>2023-01-29T11:22:40.000Z</time>
      </trkpt>
      <trkpt lat="48.38953" lon="7.28608">
        <ele>864.19995117188</ele>
        <time>2023-01-29T11:22:49.000Z</time>
      </trkpt>
      <trkpt lat="48.38954" lon="7.28609">
        <ele>864.40002441406</ele>
        <time>2023-01-29T11:22:50.000Z</time>
      </trkpt>
      <trkpt lat="48.38955" lon="7.28611">
        <ele>864.59997558594</ele>
        <time>2023-01-29T11:22:53.000Z</time>
      </trkpt>
      <trkpt lat="48.38955" lon="7.28615">
        <ele>864.80004882812</ele>
        <time>2023-01-29T11:22:55.000Z</time>
      </trkpt>
      <trkpt lat="48.38955" lon="7.2862">
        <ele>865</ele>
        <time>2023-01-29T11:22:58.000Z</time>
      </trkpt>
      <trkpt lat="48.38956" lon="7.28624">
        <ele>865</ele>
        <time>2023-01-29T11:23:01.000Z</time>
      </trkpt>
      <trkpt lat="48.38956" lon="7.28625">
        <ele>865</ele>
        <time>2023-01-29T11:23:02.000Z</time>
      </trkpt>
      <trkpt lat="48.38954" lon="7.28626">
        <ele>865</ele>
        <time>2023-01-29T11:23:04.000Z</time>
      </trkpt>
      <trkpt lat="48.38954" lon="7.28627">
        <ele>865</ele>
        <time>2023-01-29T11:23:05.000Z</time>
      </trkpt>
      <trkpt lat="48.38956" lon="7.28629">
        <ele>865</ele>
        <time>2023-01-29T11:23:06.000Z</time>
      </trkpt>
      <trkpt lat="48.3896" lon="7.28633">
        <ele>865</ele>
        <time>2023-01-29T11:23:10.000Z</time>
      </trkpt>
      <trkpt lat="48.38961" lon="7.28635">
        <ele>864.80004882812</ele>
        <time>2023-01-29T11:23:11.000Z</time>
      </trkpt>
      <trkpt lat="48.38964" lon="7.2865">
        <ele>864.80004882812</ele>
        <time>2023-01-29T11:23:18.000Z</time>
      </trkpt>
      <trkpt lat="48.38964" lon="7.28652">
        <ele>864.80004882812</ele>
        <time>2023-01-29T11:23:19.000Z</time>
      </trkpt>
      <trkpt lat="48.38966" lon="7.28656">
        <ele>864.80004882812</ele>
        <time>2023-01-29T11:23:22.000Z</time>
      </trkpt>
      <trkpt lat="48.38965" lon="7.28658">
        <ele>864.80004882812</ele>
        <time>2023-01-29T11:23:24.000Z</time>
      </trkpt>
      <trkpt lat="48.38965" lon="7.28669">
        <ele>864.59997558594</ele>
        <time>2023-01-29T11:23:30.000Z</time>
      </trkpt>
      <trkpt lat="48.38966" lon="7.28671">
        <ele>864.59997558594</ele>
        <time>2023-01-29T11:23:31.000Z</time>
      </trkpt>
      <trkpt lat="48.38968" lon="7.2868">
        <ele>864.59997558594</ele>
        <time>2023-01-29T11:23:36.000Z</time>
      </trkpt>
      <trkpt lat="48.38968" lon="7.28687">
        <ele>864.59997558594</ele>
        <time>2023-01-29T11:23:40.000Z</time>
      </trkpt>
      <trkpt lat="48.3897" lon="7.28704">
        <ele>864.80004882812</ele>
        <time>2023-01-29T11:23:50.000Z</time>
      </trkpt>
      <trkpt lat="48.38971" lon="7.28719">
        <ele>865.19995117188</ele>
        <time>2023-01-29T11:23:59.000Z</time>
      </trkpt>
      <trkpt lat="48.38971" lon="7.2872">
        <ele>865.19995117188</ele>
        <time>2023-01-29T11:24:00.000Z</time>
      </trkpt>
      <trkpt lat="48.3897" lon="7.28734">
        <ele>865.40002441406</ele>
        <time>2023-01-29T11:24:08.000Z</time>
      </trkpt>
      <trkpt lat="48.38973" lon="7.28746">
        <ele>865.19995117188</ele>
        <time>2023-01-29T11:24:16.000Z</time>
      </trkpt>
      <trkpt lat="48.38972" lon="7.28745">
        <ele>865.40002441406</ele>
        <time>2023-01-29T11:24:22.000Z</time>
      </trkpt>
      <trkpt lat="48.38972" lon="7.28745">
        <ele>865.19995117188</ele>
        <time>2023-01-29T11:24:24.000Z</time>
      </trkpt>
      <trkpt lat="48.38972" lon="7.28746">
        <ele>865.19995117188</ele>
        <time>2023-01-29T11:24:29.000Z</time>
      </trkpt>
      <trkpt lat="48.38972" lon="7.28746">
        <ele>865</ele>
        <time>2023-01-29T11:24:42.000Z</time>
      </trkpt>
      <trkpt lat="48.38972" lon="7.28746">
        <ele>865</ele>
        <time>2023-01-29T11:24:43.000Z</time>
      </trkpt>
      <trkpt lat="48.38971" lon="7.28749">
        <ele>865.40002441406</ele>
        <time>2023-01-29T11:24:55.000Z</time>
      </trkpt>
      <trkpt lat="48.3897" lon="7.28766">
        <ele>865.59997558594</ele>
        <time>2023-01-29T11:25:01.000Z</time>
      </trkpt>
      <trkpt lat="48.38968" lon="7.2879">
        <ele>866.40002441406</ele>
        <time>2023-01-29T11:25:09.000Z</time>
      </trkpt>
      <trkpt lat="48.38967" lon="7.28791">
        <ele>866.40002441406</ele>
        <time>2023-01-29T11:25:10.000Z</time>
      </trkpt>
      <trkpt lat="48.38965" lon="7.28799">
        <ele>866.80004882812</ele>
        <time>2023-01-29T11:25:15.000Z</time>
      </trkpt>
      <trkpt lat="48.38963" lon="7.28802">
        <ele>867</ele>
        <time>2023-01-29T11:25:17.000Z</time>
      </trkpt>
      <trkpt lat="48.3896" lon="7.28801">
        <ele>867.19995117188</ele>
        <time>2023-01-29T11:25:24.000Z</time>
      </trkpt>
      <trkpt lat="48.38957" lon="7.28799">
        <ele>867</ele>
        <time>2023-01-29T11:25:32.000Z</time>
      </trkpt>
      <trkpt lat="48.38956" lon="7.28793">
        <ele>867.59997558594</ele>
        <time>2023-01-29T11:25:36.000Z</time>
      </trkpt>
      <trkpt lat="48.38955" lon="7.28788">
        <ele>868</ele>
        <time>2023-01-29T11:25:40.000Z</time>
      </trkpt>
      <trkpt lat="48.38954" lon="7.28781">
        <ele>868.19995117188</ele>
        <time>2023-01-29T11:25:46.000Z</time>
      </trkpt>
      <trkpt lat="48.3895" lon="7.28777">
        <ele>868.19995117188</ele>
        <time>2023-01-29T11:25:50.000Z</time>
      </trkpt>
      <trkpt lat="48.38948" lon="7.28777">
        <ele>868.40002441406</ele>
        <time>2023-01-29T11:25:54.000Z</time>
      </trkpt>
      <trkpt lat="48.38946" lon="7.28777">
        <ele>868.59997558594</ele>
        <time>2023-01-29T11:25:58.000Z</time>
      </trkpt>
      <trkpt lat="48.38945" lon="7.28775">
        <ele>868.40002441406</ele>
        <time>2023-01-29T11:26:02.000Z</time>
      </trkpt>
      <trkpt lat="48.38943" lon="7.28771">
        <ele>868.19995117188</ele>
        <time>2023-01-29T11:26:08.000Z</time>
      </trkpt>
      <trkpt lat="48.38943" lon="7.28771">
        <ele>868.19995117188</ele>
        <time>2023-01-29T11:26:09.000Z</time>
      </trkpt>
      <trkpt lat="48.38944" lon="7.28767">
        <ele>868.19995117188</ele>
        <time>2023-01-29T11:26:12.000Z</time>
      </trkpt>
      <trkpt lat="48.38943" lon="7.28762">
        <ele>868.40002441406</ele>
        <time>2023-01-29T11:26:16.000Z</time>
      </trkpt>
      <trkpt lat="48.38942" lon="7.2875">
        <ele>869</ele>
        <time>2023-01-29T11:26:25.000Z</time>
      </trkpt>
      <trkpt lat="48.38938" lon="7.28731">
        <ele>869.40002441406</ele>
        <time>2023-01-29T11:26:35.000Z</time>
      </trkpt>
      <trkpt lat="48.38937" lon="7.2873">
        <ele>869.59997558594</ele>
        <time>2023-01-29T11:26:36.000Z</time>
      </trkpt>
      <trkpt lat="48.38937" lon="7.28722">
        <ele>870.19995117188</ele>
        <time>2023-01-29T11:26:41.000Z</time>
      </trkpt>
      <trkpt lat="48.38939" lon="7.28717">
        <ele>870.40002441406</ele>
        <time>2023-01-29T11:26:51.000Z</time>
      </trkpt>
      <trkpt lat="48.38935" lon="7.28712">
        <ele>870.19995117188</ele>
        <time>2023-01-29T11:27:02.000Z</time>
      </trkpt>
      <trkpt lat="48.38933" lon="7.28707">
        <ele>870.80004882812</ele>
        <time>2023-01-29T11:27:08.000Z</time>
      </trkpt>
      <trkpt lat="48.38932" lon="7.28706">
        <ele>870.80004882812</ele>
        <time>2023-01-29T11:27:09.000Z</time>
      </trkpt>
      <trkpt lat="48.38927" lon="7.287">
        <ele>871.59997558594</ele>
        <time>2023-01-29T11:27:14.000Z</time>
      </trkpt>
      <trkpt lat="48.38924" lon="7.28694">
        <ele>871.80004882812</ele>
        <time>2023-01-29T11:27:18.000Z</time>
      </trkpt>
      <trkpt lat="48.38923" lon="7.28693">
        <ele>871.80004882812</ele>
        <time>2023-01-29T11:27:19.000Z</time>
      </trkpt>
      <trkpt lat="48.3892" lon="7.28688">
        <ele>871.80004882812</ele>
        <time>2023-01-29T11:27:25.000Z</time>
      </trkpt>
      <trkpt lat="48.38918" lon="7.28681">
        <ele>871.80004882812</ele>
        <time>2023-01-29T11:27:28.000Z</time>
      </trkpt>
      <trkpt lat="48.38916" lon="7.28678">
        <ele>872</ele>
        <time>2023-01-29T11:27:32.000Z</time>
      </trkpt>
      <trkpt lat="48.38913" lon="7.28663">
        <ele>872.19995117188</ele>
        <time>2023-01-29T11:27:41.000Z</time>
      </trkpt>
      <trkpt lat="48.38912" lon="7.28661">
        <ele>872.19995117188</ele>
        <time>2023-01-29T11:27:42.000Z</time>
      </trkpt>
      <trkpt lat="48.3891" lon="7.28655">
        <ele>872.59997558594</ele>
        <time>2023-01-29T11:27:46.000Z</time>
      </trkpt>
      <trkpt lat="48.3891" lon="7.28654">
        <ele>872.59997558594</ele>
        <time>2023-01-29T11:27:48.000Z</time>
      </trkpt>
      <trkpt lat="48.38909" lon="7.28651">
        <ele>872.80004882812</ele>
        <time>2023-01-29T11:27:52.000Z</time>
      </trkpt>
      <trkpt lat="48.38904" lon="7.28644">
        <ele>873</ele>
        <time>2023-01-29T11:27:57.000Z</time>
      </trkpt>
      <trkpt lat="48.38899" lon="7.28635">
        <ele>873.40002441406</ele>
        <time>2023-01-29T11:28:06.000Z</time>
      </trkpt>
      <trkpt lat="48.38897" lon="7.2863">
        <ele>873.80004882812</ele>
        <time>2023-01-29T11:28:12.000Z</time>
      </trkpt>
      <trkpt lat="48.38897" lon="7.28629">
        <ele>873.80004882812</ele>
        <time>2023-01-29T11:28:13.000Z</time>
      </trkpt>
      <trkpt lat="48.38896" lon="7.28625">
        <ele>873.80004882812</ele>
        <time>2023-01-29T11:28:15.000Z</time>
      </trkpt>
      <trkpt lat="48.38894" lon="7.28621">
        <ele>874.19995117188</ele>
        <time>2023-01-29T11:28:19.000Z</time>
      </trkpt>
      <trkpt lat="48.38891" lon="7.28611">
        <ele>874.59997558594</ele>
        <time>2023-01-29T11:28:26.000Z</time>
      </trkpt>
      <trkpt lat="48.3889" lon="7.2861">
        <ele>874.80004882812</ele>
        <time>2023-01-29T11:28:29.000Z</time>
      </trkpt>
      <trkpt lat="48.38888" lon="7.28599">
        <ele>875.19995117188</ele>
        <time>2023-01-29T11:28:35.000Z</time>
      </trkpt>
      <trkpt lat="48.38885" lon="7.28589">
        <ele>875.59997558594</ele>
        <time>2023-01-29T11:28:41.000Z</time>
      </trkpt>
      <trkpt lat="48.38885" lon="7.28585">
        <ele>875.80004882812</ele>
        <time>2023-01-29T11:28:45.000Z</time>
      </trkpt>
      <trkpt lat="48.38884" lon="7.28579">
        <ele>876.19995117188</ele>
        <time>2023-01-29T11:28:50.000Z</time>
      </trkpt>
      <trkpt lat="48.38881" lon="7.2857">
        <ele>876.59997558594</ele>
        <time>2023-01-29T11:28:57.000Z</time>
      </trkpt>
      <trkpt lat="48.38878" lon="7.28565">
        <ele>876.80004882812</ele>
        <time>2023-01-29T11:28:59.000Z</time>
      </trkpt>
      <trkpt lat="48.38876" lon="7.28559">
        <ele>877.19995117188</ele>
        <time>2023-01-29T11:29:05.000Z</time>
      </trkpt>
      <trkpt lat="48.3887" lon="7.28549">
        <ele>877.59997558594</ele>
        <time>2023-01-29T11:29:12.000Z</time>
      </trkpt>
      <trkpt lat="48.3887" lon="7.28546">
        <ele>878</ele>
        <time>2023-01-29T11:29:15.000Z</time>
      </trkpt>
      <trkpt lat="48.38867" lon="7.28538">
        <ele>878.40002441406</ele>
        <time>2023-01-29T11:29:20.000Z</time>
      </trkpt>
      <trkpt lat="48.38862" lon="7.28529">
        <ele>879</ele>
        <time>2023-01-29T11:29:28.000Z</time>
      </trkpt>
      <trkpt lat="48.3886" lon="7.28522">
        <ele>879.40002441406</ele>
        <time>2023-01-29T11:29:33.000Z</time>
      </trkpt>
      <trkpt lat="48.38857" lon="7.28519">
        <ele>880</ele>
        <time>2023-01-29T11:29:37.000Z</time>
      </trkpt>
      <trkpt lat="48.38857" lon="7.28514">
        <ele>880.40002441406</ele>
        <time>2023-01-29T11:29:40.000Z</time>
      </trkpt>
      <trkpt lat="48.38855" lon="7.28503">
        <ele>881</ele>
        <time>2023-01-29T11:29:47.000Z</time>
      </trkpt>
      <trkpt lat="48.38854" lon="7.28502">
        <ele>881.40002441406</ele>
        <time>2023-01-29T11:29:49.000Z</time>
      </trkpt>
      <trkpt lat="48.38853" lon="7.28497">
        <ele>881.59997558594</ele>
        <time>2023-01-29T11:29:52.000Z</time>
      </trkpt>
      <trkpt lat="48.38852" lon="7.28495">
        <ele>882</ele>
        <time>2023-01-29T11:29:55.000Z</time>
      </trkpt>
      <trkpt lat="48.38852" lon="7.28494">
        <ele>882.19995117188</ele>
        <time>2023-01-29T11:29:56.000Z</time>
      </trkpt>
      <trkpt lat="48.38849" lon="7.28492">
        <ele>882.59997558594</ele>
        <time>2023-01-29T11:30:00.000Z</time>
      </trkpt>
      <trkpt lat="48.38847" lon="7.28485">
        <ele>883</ele>
        <time>2023-01-29T11:30:06.000Z</time>
      </trkpt>
      <trkpt lat="48.38847" lon="7.28481">
        <ele>883.19995117188</ele>
        <time>2023-01-29T11:30:09.000Z</time>
      </trkpt>
      <trkpt lat="48.38846" lon="7.28477">
        <ele>883.40002441406</ele>
        <time>2023-01-29T11:30:12.000Z</time>
      </trkpt>
      <trkpt lat="48.38847" lon="7.28473">
        <ele>883.59997558594</ele>
        <time>2023-01-29T11:30:15.000Z</time>
      </trkpt>
      <trkpt lat="48.38849" lon="7.28465">
        <ele>884.19995117188</ele>
        <time>2023-01-29T11:30:21.000Z</time>
      </trkpt>
      <trkpt lat="48.3885" lon="7.28463">
        <ele>884.19995117188</ele>
        <time>2023-01-29T11:30:24.000Z</time>
      </trkpt>
      <trkpt lat="48.38851" lon="7.2846">
        <ele>884.19995117188</ele>
        <time>2023-01-29T11:30:26.000Z</time>
      </trkpt>
      <trkpt lat="48.3885" lon="7.28453">
        <ele>884.40002441406</ele>
        <time>2023-01-29T11:30:31.000Z</time>
      </trkpt>
      <trkpt lat="48.3885" lon="7.28451">
        <ele>884.59997558594</ele>
        <time>2023-01-29T11:30:33.000Z</time>
      </trkpt>
      <trkpt lat="48.38849" lon="7.28447">
        <ele>884.59997558594</ele>
        <time>2023-01-29T11:30:36.000Z</time>
      </trkpt>
      <trkpt lat="48.38848" lon="7.28442">
        <ele>885</ele>
        <time>2023-01-29T11:30:40.000Z</time>
      </trkpt>
      <trkpt lat="48.38847" lon="7.2844">
        <ele>885.19995117188</ele>
        <time>2023-01-29T11:30:41.000Z</time>
      </trkpt>
      <trkpt lat="48.38847" lon="7.28438">
        <ele>885.19995117188</ele>
        <time>2023-01-29T11:30:42.000Z</time>
      </trkpt>
      <trkpt lat="48.38844" lon="7.28427">
        <ele>886.19995117188</ele>
        <time>2023-01-29T11:30:51.000Z</time>
      </trkpt>
      <trkpt lat="48.38844" lon="7.28423">
        <ele>886.19995117188</ele>
        <time>2023-01-29T11:30:53.000Z</time>
      </trkpt>
      <trkpt lat="48.38843" lon="7.2841">
        <ele>887.19995117188</ele>
        <time>2023-01-29T11:31:01.000Z</time>
      </trkpt>
      <trkpt lat="48.38843" lon="7.28407">
        <ele>887.40002441406</ele>
        <time>2023-01-29T11:31:03.000Z</time>
      </trkpt>
      <trkpt lat="48.38842" lon="7.28402">
        <ele>888.19995117188</ele>
        <time>2023-01-29T11:31:08.000Z</time>
      </trkpt>
      <trkpt lat="48.38841" lon="7.284">
        <ele>888.59997558594</ele>
        <time>2023-01-29T11:31:11.000Z</time>
      </trkpt>
      <trkpt lat="48.38842" lon="7.28398">
        <ele>889.19995117188</ele>
        <time>2023-01-29T11:31:15.000Z</time>
      </trkpt>
      <trkpt lat="48.38841" lon="7.28398">
        <ele>889.19995117188</ele>
        <time>2023-01-29T11:31:21.000Z</time>
      </trkpt>
      <trkpt lat="48.38841" lon="7.28392">
        <ele>889.40002441406</ele>
        <time>2023-01-29T11:31:26.000Z</time>
      </trkpt>
      <trkpt lat="48.3884" lon="7.28391">
        <ele>889.59997558594</ele>
        <time>2023-01-29T11:31:27.000Z</time>
      </trkpt>
      <trkpt lat="48.3884" lon="7.2839">
        <ele>889.59997558594</ele>
        <time>2023-01-29T11:31:28.000Z</time>
      </trkpt>
      <trkpt lat="48.38838" lon="7.28388">
        <ele>890.19995117188</ele>
        <time>2023-01-29T11:31:32.000Z</time>
      </trkpt>
      <trkpt lat="48.38837" lon="7.28384">
        <ele>890.59997558594</ele>
        <time>2023-01-29T11:31:35.000Z</time>
      </trkpt>
      <trkpt lat="48.38835" lon="7.28376">
        <ele>891.19995117188</ele>
        <time>2023-01-29T11:31:41.000Z</time>
      </trkpt>
      <trkpt lat="48.38834" lon="7.28373">
        <ele>891.80004882812</ele>
        <time>2023-01-29T11:31:44.000Z</time>
      </trkpt>
      <trkpt lat="48.38833" lon="7.2837">
        <ele>892.40002441406</ele>
        <time>2023-01-29T11:31:48.000Z</time>
      </trkpt>
      <trkpt lat="48.38832" lon="7.28368">
        <ele>893</ele>
        <time>2023-01-29T11:31:51.000Z</time>
      </trkpt>
      <trkpt lat="48.38832" lon="7.28364">
        <ele>893.59997558594</ele>
        <time>2023-01-29T11:31:55.000Z</time>
      </trkpt>
      <trkpt lat="48.38832" lon="7.28363">
        <ele>893.59997558594</ele>
        <time>2023-01-29T11:31:56.000Z</time>
      </trkpt>
      <trkpt lat="48.38829" lon="7.28361">
        <ele>894</ele>
        <time>2023-01-29T11:31:59.000Z</time>
      </trkpt>
      <trkpt lat="48.38825" lon="7.28357">
        <ele>894.59997558594</ele>
        <time>2023-01-29T11:32:03.000Z</time>
      </trkpt>
      <trkpt lat="48.38822" lon="7.2835">
        <ele>895.19995117188</ele>
        <time>2023-01-29T11:32:09.000Z</time>
      </trkpt>
      <trkpt lat="48.38818" lon="7.28346">
        <ele>895.59997558594</ele>
        <time>2023-01-29T11:32:13.000Z</time>
      </trkpt>
      <trkpt lat="48.38816" lon="7.2834">
        <ele>896.19995117188</ele>
        <time>2023-01-29T11:32:18.000Z</time>
      </trkpt>
      <trkpt lat="48.38814" lon="7.28337">
        <ele>896.59997558594</ele>
        <time>2023-01-29T11:32:22.000Z</time>
      </trkpt>
      <trkpt lat="48.38813" lon="7.2833">
        <ele>897.19995117188</ele>
        <time>2023-01-29T11:32:29.000Z</time>
      </trkpt>
      <trkpt lat="48.38813" lon="7.28329">
        <ele>897.40002441406</ele>
        <time>2023-01-29T11:32:30.000Z</time>
      </trkpt>
      <trkpt lat="48.38813" lon="7.28326">
        <ele>897.80004882812</ele>
        <time>2023-01-29T11:32:36.000Z</time>
      </trkpt>
      <trkpt lat="48.38812" lon="7.28322">
        <ele>897.80004882812</ele>
        <time>2023-01-29T11:32:42.000Z</time>
      </trkpt>
      <trkpt lat="48.38815" lon="7.28316">
        <ele>898.19995117188</ele>
        <time>2023-01-29T11:32:47.000Z</time>
      </trkpt>
      <trkpt lat="48.38816" lon="7.28314">
        <ele>898.19995117188</ele>
        <time>2023-01-29T11:32:48.000Z</time>
      </trkpt>
      <trkpt lat="48.38818" lon="7.28305">
        <ele>898.19995117188</ele>
        <time>2023-01-29T11:32:55.000Z</time>
      </trkpt>
      <trkpt lat="48.38818" lon="7.28304">
        <ele>898.19995117188</ele>
        <time>2023-01-29T11:32:56.000Z</time>
      </trkpt>
      <trkpt lat="48.38821" lon="7.28297">
        <ele>898.19995117188</ele>
        <time>2023-01-29T11:33:03.000Z</time>
      </trkpt>
      <trkpt lat="48.38823" lon="7.28289">
        <ele>898.40002441406</ele>
        <time>2023-01-29T11:33:09.000Z</time>
      </trkpt>
      <trkpt lat="48.38826" lon="7.28286">
        <ele>898.40002441406</ele>
        <time>2023-01-29T11:33:14.000Z</time>
      </trkpt>
      <trkpt lat="48.38825" lon="7.28285">
        <ele>898.40002441406</ele>
        <time>2023-01-29T11:33:21.000Z</time>
      </trkpt>
      <trkpt lat="48.38825" lon="7.28285">
        <ele>898.40002441406</ele>
        <time>2023-01-29T11:33:24.000Z</time>
      </trkpt>
      <trkpt lat="48.38824" lon="7.28283">
        <ele>898.19995117188</ele>
        <time>2023-01-29T11:33:28.000Z</time>
      </trkpt>
      <trkpt lat="48.38827" lon="7.2828">
        <ele>898</ele>
        <time>2023-01-29T11:33:34.000Z</time>
      </trkpt>
      <trkpt lat="48.38828" lon="7.28279">
        <ele>898</ele>
        <time>2023-01-29T11:33:38.000Z</time>
      </trkpt>
      <trkpt lat="48.38829" lon="7.28279">
        <ele>897.59997558594</ele>
        <time>2023-01-29T11:33:41.000Z</time>
      </trkpt>
      <trkpt lat="48.38831" lon="7.28279">
        <ele>897.19995117188</ele>
        <time>2023-01-29T11:33:44.000Z</time>
      </trkpt>
      <trkpt lat="48.38835" lon="7.28278">
        <ele>896.59997558594</ele>
        <time>2023-01-29T11:33:49.000Z</time>
      </trkpt>
      <trkpt lat="48.38838" lon="7.28278">
        <ele>896.19995117188</ele>
        <time>2023-01-29T11:33:56.000Z</time>
      </trkpt>
      <trkpt lat="48.38838" lon="7.28278">
        <ele>896.19995117188</ele>
        <time>2023-01-29T11:33:57.000Z</time>
      </trkpt>
      <trkpt lat="48.3884" lon="7.28279">
        <ele>896.19995117188</ele>
        <time>2023-01-29T11:34:05.000Z</time>
      </trkpt>
      <trkpt lat="48.38839" lon="7.28278">
        <ele>896.40002441406</ele>
        <time>2023-01-29T11:34:10.000Z</time>
      </trkpt>
      <trkpt lat="48.38839" lon="7.28275">
        <ele>896.40002441406</ele>
        <time>2023-01-29T11:34:15.000Z</time>
      </trkpt>
      <trkpt lat="48.38839" lon="7.28273">
        <ele>896.59997558594</ele>
        <time>2023-01-29T11:34:18.000Z</time>
      </trkpt>
      <trkpt lat="48.38839" lon="7.28273">
        <ele>896.19995117188</ele>
        <time>2023-01-29T11:34:33.000Z</time>
      </trkpt>
      <trkpt lat="48.3884" lon="7.28272">
        <ele>896.40002441406</ele>
        <time>2023-01-29T11:34:43.000Z</time>
      </trkpt>
      <trkpt lat="48.3884" lon="7.28271">
        <ele>896.19995117188</ele>
        <time>2023-01-29T11:34:53.000Z</time>
      </trkpt>
      <trkpt lat="48.38839" lon="7.2827">
        <ele>897.19995117188</ele>
        <time>2023-01-29T11:35:07.000Z</time>
      </trkpt>
      <trkpt lat="48.38838" lon="7.28272">
        <ele>898.19995117188</ele>
        <time>2023-01-29T11:35:14.000Z</time>
      </trkpt>
      <trkpt lat="48.38838" lon="7.28274">
        <ele>898.59997558594</ele>
        <time>2023-01-29T11:35:18.000Z</time>
      </trkpt>
      <trkpt lat="48.38827" lon="7.28279">
        <ele>899</ele>
        <time>2023-01-29T11:35:41.000Z</time>
      </trkpt>
      <trkpt lat="48.38825" lon="7.28278">
        <ele>899</ele>
        <time>2023-01-29T11:35:46.000Z</time>
      </trkpt>
      <trkpt lat="48.38826" lon="7.28277">
        <ele>898.80004882812</ele>
        <time>2023-01-29T11:35:52.000Z</time>
      </trkpt>
      <trkpt lat="48.3883" lon="7.28278">
        <ele>898.59997558594</ele>
        <time>2023-01-29T11:35:58.000Z</time>
      </trkpt>
      <trkpt lat="48.38828" lon="7.28281">
        <ele>898.59997558594</ele>
        <time>2023-01-29T11:36:04.000Z</time>
      </trkpt>
      <trkpt lat="48.38828" lon="7.28281">
        <ele>898.80004882812</ele>
        <time>2023-01-29T11:36:10.000Z</time>
      </trkpt>
      <trkpt lat="48.38821" lon="7.28285">
        <ele>898.80004882812</ele>
        <time>2023-01-29T11:36:55.000Z</time>
      </trkpt>
      <trkpt lat="48.3882" lon="7.28294">
        <ele>898.80004882812</ele>
        <time>2023-01-29T11:37:21.000Z</time>
      </trkpt>
      <trkpt lat="48.3882" lon="7.28294">
        <ele>899</ele>
        <time>2023-01-29T11:37:27.000Z</time>
      </trkpt>
      <trkpt lat="48.38821" lon="7.28293">
        <ele>899</ele>
        <time>2023-01-29T11:37:32.000Z</time>
      </trkpt>
      <trkpt lat="48.38822" lon="7.28293">
        <ele>899</ele>
        <time>2023-01-29T11:37:35.000Z</time>
      </trkpt>
      <trkpt lat="48.38823" lon="7.283">
        <ele>898.80004882812</ele>
        <time>2023-01-29T11:37:41.000Z</time>
      </trkpt>
      <trkpt lat="48.38824" lon="7.28313">
        <ele>898.80004882812</ele>
        <time>2023-01-29T11:37:47.000Z</time>
      </trkpt>
      <trkpt lat="48.3882" lon="7.28323">
        <ele>898.40002441406</ele>
        <time>2023-01-29T11:37:53.000Z</time>
      </trkpt>
      <trkpt lat="48.38817" lon="7.28324">
        <ele>898.40002441406</ele>
        <time>2023-01-29T11:37:55.000Z</time>
      </trkpt>
      <trkpt lat="48.38816" lon="7.28325">
        <ele>898.40002441406</ele>
        <time>2023-01-29T11:37:56.000Z</time>
      </trkpt>
      <trkpt lat="48.38813" lon="7.28324">
        <ele>898.59997558594</ele>
        <time>2023-01-29T11:38:01.000Z</time>
      </trkpt>
      <trkpt lat="48.38812" lon="7.28321">
        <ele>898.40002441406</ele>
        <time>2023-01-29T11:38:06.000Z</time>
      </trkpt>
      <trkpt lat="48.38805" lon="7.28314">
        <ele>898.80004882812</ele>
        <time>2023-01-29T11:38:12.000Z</time>
      </trkpt>
      <trkpt lat="48.38801" lon="7.28308">
        <ele>899.19995117188</ele>
        <time>2023-01-29T11:38:16.000Z</time>
      </trkpt>
      <trkpt lat="48.388" lon="7.28305">
        <ele>899.59997558594</ele>
        <time>2023-01-29T11:38:19.000Z</time>
      </trkpt>
      <trkpt lat="48.38799" lon="7.28303">
        <ele>900.40002441406</ele>
        <time>2023-01-29T11:38:24.000Z</time>
      </trkpt>
      <trkpt lat="48.38799" lon="7.28302">
        <ele>900.40002441406</ele>
        <time>2023-01-29T11:38:25.000Z</time>
      </trkpt>
      <trkpt lat="48.38796" lon="7.28296">
        <ele>901.19995117188</ele>
        <time>2023-01-29T11:38:30.000Z</time>
      </trkpt>
      <trkpt lat="48.38795" lon="7.28294">
        <ele>901.59997558594</ele>
        <time>2023-01-29T11:38:32.000Z</time>
      </trkpt>
      <trkpt lat="48.38792" lon="7.28289">
        <ele>902.59997558594</ele>
        <time>2023-01-29T11:38:39.000Z</time>
      </trkpt>
      <trkpt lat="48.38789" lon="7.28286">
        <ele>903.19995117188</ele>
        <time>2023-01-29T11:38:45.000Z</time>
      </trkpt>
      <trkpt lat="48.38787" lon="7.28284">
        <ele>903.59997558594</ele>
        <time>2023-01-29T11:38:50.000Z</time>
      </trkpt>
      <trkpt lat="48.38787" lon="7.28283">
        <ele>903.59997558594</ele>
        <time>2023-01-29T11:38:51.000Z</time>
      </trkpt>
      <trkpt lat="48.38784" lon="7.28277">
        <ele>904</ele>
        <time>2023-01-29T11:38:56.000Z</time>
      </trkpt>
      <trkpt lat="48.38781" lon="7.28271">
        <ele>904.80004882812</ele>
        <time>2023-01-29T11:39:01.000Z</time>
      </trkpt>
      <trkpt lat="48.3878" lon="7.28267">
        <ele>905.19995117188</ele>
        <time>2023-01-29T11:39:04.000Z</time>
      </trkpt>
      <trkpt lat="48.38778" lon="7.28262">
        <ele>905.80004882812</ele>
        <time>2023-01-29T11:39:09.000Z</time>
      </trkpt>
      <trkpt lat="48.38776" lon="7.28259">
        <ele>906.19995117188</ele>
        <time>2023-01-29T11:39:12.000Z</time>
      </trkpt>
      <trkpt lat="48.38776" lon="7.28258">
        <ele>906.19995117188</ele>
        <time>2023-01-29T11:39:14.000Z</time>
      </trkpt>
      <trkpt lat="48.38775" lon="7.28252">
        <ele>906.80004882812</ele>
        <time>2023-01-29T11:39:20.000Z</time>
      </trkpt>
      <trkpt lat="48.38775" lon="7.28251">
        <ele>906.80004882812</ele>
        <time>2023-01-29T11:39:21.000Z</time>
      </trkpt>
      <trkpt lat="48.38772" lon="7.28242">
        <ele>907.80004882812</ele>
        <time>2023-01-29T11:39:29.000Z</time>
      </trkpt>
      <trkpt lat="48.38771" lon="7.28241">
        <ele>908</ele>
        <time>2023-01-29T11:39:30.000Z</time>
      </trkpt>
      <trkpt lat="48.38768" lon="7.28237">
        <ele>908.59997558594</ele>
        <time>2023-01-29T11:39:36.000Z</time>
      </trkpt>
      <trkpt lat="48.38764" lon="7.28231">
        <ele>909</ele>
        <time>2023-01-29T11:39:42.000Z</time>
      </trkpt>
      <trkpt lat="48.38761" lon="7.28223">
        <ele>909.80004882812</ele>
        <time>2023-01-29T11:39:49.000Z</time>
      </trkpt>
      <trkpt lat="48.38761" lon="7.2822">
        <ele>910</ele>
        <time>2023-01-29T11:39:51.000Z</time>
      </trkpt>
      <trkpt lat="48.3876" lon="7.28214">
        <ele>910.80004882812</ele>
        <time>2023-01-29T11:39:56.000Z</time>
      </trkpt>
      <trkpt lat="48.38762" lon="7.28205">
        <ele>911</ele>
        <time>2023-01-29T11:40:04.000Z</time>
      </trkpt>
      <trkpt lat="48.38762" lon="7.28202">
        <ele>911</ele>
        <time>2023-01-29T11:40:09.000Z</time>
      </trkpt>
      <trkpt lat="48.38761" lon="7.28202">
        <ele>911</ele>
        <time>2023-01-29T11:40:12.000Z</time>
      </trkpt>
      <trkpt lat="48.3876" lon="7.28202">
        <ele>911</ele>
        <time>2023-01-29T11:40:20.000Z</time>
      </trkpt>
      <trkpt lat="48.3876" lon="7.28202">
        <ele>911</ele>
        <time>2023-01-29T11:40:26.000Z</time>
      </trkpt>
      <trkpt lat="48.3876" lon="7.28202">
        <ele>911</ele>
        <time>2023-01-29T11:40:31.000Z</time>
      </trkpt>
      <trkpt lat="48.3876" lon="7.28203">
        <ele>911.19995117188</ele>
        <time>2023-01-29T11:40:33.000Z</time>
      </trkpt>
      <trkpt lat="48.38761" lon="7.28203">
        <ele>911.19995117188</ele>
        <time>2023-01-29T11:40:40.000Z</time>
      </trkpt>
      <trkpt lat="48.38761" lon="7.28203">
        <ele>911.40002441406</ele>
        <time>2023-01-29T11:40:47.000Z</time>
      </trkpt>
      <trkpt lat="48.38762" lon="7.28203">
        <ele>911.40002441406</ele>
        <time>2023-01-29T11:40:55.000Z</time>
      </trkpt>
      <trkpt lat="48.38762" lon="7.282">
        <ele>912.19995117188</ele>
        <time>2023-01-29T11:41:18.000Z</time>
      </trkpt>
      <trkpt lat="48.38759" lon="7.28197">
        <ele>912.19995117188</ele>
        <time>2023-01-29T11:41:20.000Z</time>
      </trkpt>
      <trkpt lat="48.38752" lon="7.28189">
        <ele>912.59997558594</ele>
        <time>2023-01-29T11:41:27.000Z</time>
      </trkpt>
      <trkpt lat="48.38748" lon="7.2818">
        <ele>913.19995117188</ele>
        <time>2023-01-29T11:41:34.000Z</time>
      </trkpt>
      <trkpt lat="48.38748" lon="7.28179">
        <ele>913.19995117188</ele>
        <time>2023-01-29T11:41:35.000Z</time>
      </trkpt>
      <trkpt lat="48.38746" lon="7.28171">
        <ele>913.80004882812</ele>
        <time>2023-01-29T11:41:42.000Z</time>
      </trkpt>
      <trkpt lat="48.38743" lon="7.28166">
        <ele>914.19995117188</ele>
        <time>2023-01-29T11:41:47.000Z</time>
      </trkpt>
      <trkpt lat="48.38743" lon="7.28165">
        <ele>914.19995117188</ele>
        <time>2023-01-29T11:41:48.000Z</time>
      </trkpt>
      <trkpt lat="48.38742" lon="7.28162">
        <ele>914.40002441406</ele>
        <time>2023-01-29T11:41:50.000Z</time>
      </trkpt>
      <trkpt lat="48.38741" lon="7.28159">
        <ele>914.59997558594</ele>
        <time>2023-01-29T11:41:52.000Z</time>
      </trkpt>
      <trkpt lat="48.38741" lon="7.28159">
        <ele>914.59997558594</ele>
        <time>2023-01-29T11:41:53.000Z</time>
      </trkpt>
      <trkpt lat="48.38738" lon="7.28152">
        <ele>915</ele>
        <time>2023-01-29T11:42:00.000Z</time>
      </trkpt>
      <trkpt lat="48.38737" lon="7.28147">
        <ele>915.19995117188</ele>
        <time>2023-01-29T11:42:03.000Z</time>
      </trkpt>
      <trkpt lat="48.38737" lon="7.28141">
        <ele>915.59997558594</ele>
        <time>2023-01-29T11:42:07.000Z</time>
      </trkpt>
      <trkpt lat="48.38735" lon="7.28138">
        <ele>915.80004882812</ele>
        <time>2023-01-29T11:42:11.000Z</time>
      </trkpt>
      <trkpt lat="48.38733" lon="7.28136">
        <ele>915.80004882812</ele>
        <time>2023-01-29T11:42:13.000Z</time>
      </trkpt>
      <trkpt lat="48.38729" lon="7.28131">
        <ele>915.80004882812</ele>
        <time>2023-01-29T11:42:18.000Z</time>
      </trkpt>
      <trkpt lat="48.38727" lon="7.28126">
        <ele>916</ele>
        <time>2023-01-29T11:42:22.000Z</time>
      </trkpt>
      <trkpt lat="48.38726" lon="7.28123">
        <ele>916.40002441406</ele>
        <time>2023-01-29T11:42:24.000Z</time>
      </trkpt>
      <trkpt lat="48.38726" lon="7.28122">
        <ele>916.40002441406</ele>
        <time>2023-01-29T11:42:25.000Z</time>
      </trkpt>
      <trkpt lat="48.38722" lon="7.28114">
        <ele>917</ele>
        <time>2023-01-29T11:42:33.000Z</time>
      </trkpt>
      <trkpt lat="48.38719" lon="7.28102">
        <ele>917.40002441406</ele>
        <time>2023-01-29T11:42:42.000Z</time>
      </trkpt>
      <trkpt lat="48.38718" lon="7.28098">
        <ele>917.59997558594</ele>
        <time>2023-01-29T11:42:47.000Z</time>
      </trkpt>
      <trkpt lat="48.38718" lon="7.28098">
        <ele>917.80004882812</ele>
        <time>2023-01-29T11:42:50.000Z</time>
      </trkpt>
      <trkpt lat="48.38717" lon="7.28092">
        <ele>918</ele>
        <time>2023-01-29T11:42:57.000Z</time>
      </trkpt>
      <trkpt lat="48.38717" lon="7.28087">
        <ele>918.40002441406</ele>
        <time>2023-01-29T11:43:04.000Z</time>
      </trkpt>
      <trkpt lat="48.38717" lon="7.28088">
        <ele>918.40002441406</ele>
        <time>2023-01-29T11:43:05.000Z</time>
      </trkpt>
      <trkpt lat="48.38717" lon="7.28089">
        <ele>918.40002441406</ele>
        <time>2023-01-29T11:43:09.000Z</time>
      </trkpt>
      <trkpt lat="48.38716" lon="7.28088">
        <ele>918.40002441406</ele>
        <time>2023-01-29T11:43:28.000Z</time>
      </trkpt>
      <trkpt lat="48.38715" lon="7.28088">
        <ele>918.59997558594</ele>
        <time>2023-01-29T11:43:36.000Z</time>
      </trkpt>
      <trkpt lat="48.38715" lon="7.28088">
        <ele>918.59997558594</ele>
        <time>2023-01-29T11:43:39.000Z</time>
      </trkpt>
      <trkpt lat="48.38715" lon="7.28087">
        <ele>918.59997558594</ele>
        <time>2023-01-29T11:43:42.000Z</time>
      </trkpt>
      <trkpt lat="48.38715" lon="7.28087">
        <ele>918.80004882812</ele>
        <time>2023-01-29T11:43:46.000Z</time>
      </trkpt>
      <trkpt lat="48.38714" lon="7.28087">
        <ele>919.40002441406</ele>
        <time>2023-01-29T11:43:53.000Z</time>
      </trkpt>
      <trkpt lat="48.38713" lon="7.28085">
        <ele>919.59997558594</ele>
        <time>2023-01-29T11:43:59.000Z</time>
      </trkpt>
      <trkpt lat="48.38713" lon="7.28084">
        <ele>919.59997558594</ele>
        <time>2023-01-29T11:44:00.000Z</time>
      </trkpt>
      <trkpt lat="48.38712" lon="7.28084">
        <ele>919.80004882812</ele>
        <time>2023-01-29T11:44:01.000Z</time>
      </trkpt>
      <trkpt lat="48.38711" lon="7.28083">
        <ele>919.80004882812</ele>
        <time>2023-01-29T11:44:03.000Z</time>
      </trkpt>
      <trkpt lat="48.3871" lon="7.28082">
        <ele>920</ele>
        <time>2023-01-29T11:44:05.000Z</time>
      </trkpt>
      <trkpt lat="48.38703" lon="7.28076">
        <ele>920.40002441406</ele>
        <time>2023-01-29T11:44:11.000Z</time>
      </trkpt>
      <trkpt lat="48.38701" lon="7.28072">
        <ele>920.59997558594</ele>
        <time>2023-01-29T11:44:13.000Z</time>
      </trkpt>
      <trkpt lat="48.38697" lon="7.28058">
        <ele>921.40002441406</ele>
        <time>2023-01-29T11:44:21.000Z</time>
      </trkpt>
      <trkpt lat="48.38695" lon="7.28054">
        <ele>921.40002441406</ele>
        <time>2023-01-29T11:44:25.000Z</time>
      </trkpt>
      <trkpt lat="48.38694" lon="7.28053">
        <ele>921.59997558594</ele>
        <time>2023-01-29T11:44:26.000Z</time>
      </trkpt>
      <trkpt lat="48.38693" lon="7.28051">
        <ele>921.59997558594</ele>
        <time>2023-01-29T11:44:28.000Z</time>
      </trkpt>
      <trkpt lat="48.38692" lon="7.2805">
        <ele>922</ele>
        <time>2023-01-29T11:44:33.000Z</time>
      </trkpt>
      <trkpt lat="48.38692" lon="7.28051">
        <ele>922.19995117188</ele>
        <time>2023-01-29T11:44:34.000Z</time>
      </trkpt>
      <trkpt lat="48.3869" lon="7.28045">
        <ele>922.40002441406</ele>
        <time>2023-01-29T11:44:40.000Z</time>
      </trkpt>
      <trkpt lat="48.3869" lon="7.28043">
        <ele>922.59997558594</ele>
        <time>2023-01-29T11:44:42.000Z</time>
      </trkpt>
      <trkpt lat="48.38691" lon="7.28043">
        <ele>922.80004882812</ele>
        <time>2023-01-29T11:44:46.000Z</time>
      </trkpt>
      <trkpt lat="48.3869" lon="7.28043">
        <ele>923</ele>
        <time>2023-01-29T11:44:52.000Z</time>
      </trkpt>
      <trkpt lat="48.38689" lon="7.28043">
        <ele>923</ele>
        <time>2023-01-29T11:44:57.000Z</time>
      </trkpt>
      <trkpt lat="48.38689" lon="7.28042">
        <ele>923.59997558594</ele>
        <time>2023-01-29T11:45:14.000Z</time>
      </trkpt>
      <trkpt lat="48.38685" lon="7.28035">
        <ele>924.59997558594</ele>
        <time>2023-01-29T11:45:24.000Z</time>
      </trkpt>
      <trkpt lat="48.38677" lon="7.28022">
        <ele>925</ele>
        <time>2023-01-29T11:45:29.000Z</time>
      </trkpt>
      <trkpt lat="48.3867" lon="7.28011">
        <ele>925.19995117188</ele>
        <time>2023-01-29T11:45:34.000Z</time>
      </trkpt>
      <trkpt lat="48.38667" lon="7.28009">
        <ele>925.19995117188</ele>
        <time>2023-01-29T11:45:37.000Z</time>
      </trkpt>
      <trkpt lat="48.38664" lon="7.28004">
        <ele>925.40002441406</ele>
        <time>2023-01-29T11:45:42.000Z</time>
      </trkpt>
      <trkpt lat="48.38662" lon="7.27999">
        <ele>925.80004882812</ele>
        <time>2023-01-29T11:45:46.000Z</time>
      </trkpt>
      <trkpt lat="48.38662" lon="7.27996">
        <ele>926.19995117188</ele>
        <time>2023-01-29T11:45:49.000Z</time>
      </trkpt>
      <trkpt lat="48.38657" lon="7.27988">
        <ele>926.59997558594</ele>
        <time>2023-01-29T11:45:56.000Z</time>
      </trkpt>
      <trkpt lat="48.38656" lon="7.27987">
        <ele>926.80004882812</ele>
        <time>2023-01-29T11:45:57.000Z</time>
      </trkpt>
      <trkpt lat="48.38654" lon="7.27984">
        <ele>927</ele>
        <time>2023-01-29T11:45:59.000Z</time>
      </trkpt>
      <trkpt lat="48.38651" lon="7.27976">
        <ele>927.59997558594</ele>
        <time>2023-01-29T11:46:05.000Z</time>
      </trkpt>
      <trkpt lat="48.38649" lon="7.27974">
        <ele>928</ele>
        <time>2023-01-29T11:46:09.000Z</time>
      </trkpt>
      <trkpt lat="48.38649" lon="7.27973">
        <ele>928.19995117188</ele>
        <time>2023-01-29T11:46:11.000Z</time>
      </trkpt>
      <trkpt lat="48.38646" lon="7.27969">
        <ele>928.59997558594</ele>
        <time>2023-01-29T11:46:17.000Z</time>
      </trkpt>
      <trkpt lat="48.38643" lon="7.27967">
        <ele>929</ele>
        <time>2023-01-29T11:46:23.000Z</time>
      </trkpt>
      <trkpt lat="48.38642" lon="7.27967">
        <ele>929.19995117188</ele>
        <time>2023-01-29T11:46:24.000Z</time>
      </trkpt>
      <trkpt lat="48.38641" lon="7.27966">
        <ele>929.40002441406</ele>
        <time>2023-01-29T11:46:25.000Z</time>
      </trkpt>
      <trkpt lat="48.38641" lon="7.27963">
        <ele>930</ele>
        <time>2023-01-29T11:46:30.000Z</time>
      </trkpt>
      <trkpt lat="48.38641" lon="7.27963">
        <ele>930</ele>
        <time>2023-01-29T11:46:34.000Z</time>
      </trkpt>
      <trkpt lat="48.38639" lon="7.2796">
        <ele>930</ele>
        <time>2023-01-29T11:46:37.000Z</time>
      </trkpt>
      <trkpt lat="48.38639" lon="7.2796">
        <ele>930.19995117188</ele>
        <time>2023-01-29T11:46:49.000Z</time>
      </trkpt>
      <trkpt lat="48.38632" lon="7.27951">
        <ele>931</ele>
        <time>2023-01-29T11:47:02.000Z</time>
      </trkpt>
      <trkpt lat="48.38627" lon="7.27946">
        <ele>931.19995117188</ele>
        <time>2023-01-29T11:47:05.000Z</time>
      </trkpt>
      <trkpt lat="48.38625" lon="7.27943">
        <ele>931.40002441406</ele>
        <time>2023-01-29T11:47:09.000Z</time>
      </trkpt>
      <trkpt lat="48.38622" lon="7.27941">
        <ele>931.59997558594</ele>
        <time>2023-01-29T11:47:13.000Z</time>
      </trkpt>
      <trkpt lat="48.38621" lon="7.2794">
        <ele>931.80004882812</ele>
        <time>2023-01-29T11:47:14.000Z</time>
      </trkpt>
      <trkpt lat="48.38619" lon="7.27936">
        <ele>932</ele>
        <time>2023-01-29T11:47:17.000Z</time>
      </trkpt>
      <trkpt lat="48.38618" lon="7.27935">
        <ele>932.19995117188</ele>
        <time>2023-01-29T11:47:19.000Z</time>
      </trkpt>
      <trkpt lat="48.38617" lon="7.27925">
        <ele>933</ele>
        <time>2023-01-29T11:47:25.000Z</time>
      </trkpt>
      <trkpt lat="48.38617" lon="7.2792">
        <ele>933.40002441406</ele>
        <time>2023-01-29T11:47:29.000Z</time>
      </trkpt>
      <trkpt lat="48.38616" lon="7.27919">
        <ele>933.59997558594</ele>
        <time>2023-01-29T11:47:31.000Z</time>
      </trkpt>
      <trkpt lat="48.38615" lon="7.27914">
        <ele>934.19995117188</ele>
        <time>2023-01-29T11:47:36.000Z</time>
      </trkpt>
      <trkpt lat="48.38614" lon="7.27913">
        <ele>934.59997558594</ele>
        <time>2023-01-29T11:47:39.000Z</time>
      </trkpt>
      <trkpt lat="48.38614" lon="7.27909">
        <ele>935</ele>
        <time>2023-01-29T11:47:41.000Z</time>
      </trkpt>
      <trkpt lat="48.38615" lon="7.27909">
        <ele>935.19995117188</ele>
        <time>2023-01-29T11:47:47.000Z</time>
      </trkpt>
      <trkpt lat="48.38614" lon="7.27907">
        <ele>935.19995117188</ele>
        <time>2023-01-29T11:47:51.000Z</time>
      </trkpt>
      <trkpt lat="48.38615" lon="7.27909">
        <ele>935.19995117188</ele>
        <time>2023-01-29T11:47:55.000Z</time>
      </trkpt>
      <trkpt lat="48.38615" lon="7.27908">
        <ele>935.19995117188</ele>
        <time>2023-01-29T11:47:57.000Z</time>
      </trkpt>
      <trkpt lat="48.38615" lon="7.27907">
        <ele>935.19995117188</ele>
        <time>2023-01-29T11:48:02.000Z</time>
      </trkpt>
      <trkpt lat="48.38615" lon="7.27907">
        <ele>935.19995117188</ele>
        <time>2023-01-29T11:48:08.000Z</time>
      </trkpt>
      <trkpt lat="48.38613" lon="7.27906">
        <ele>935.59997558594</ele>
        <time>2023-01-29T11:48:20.000Z</time>
      </trkpt>
      <trkpt lat="48.38612" lon="7.27906">
        <ele>935.59997558594</ele>
        <time>2023-01-29T11:48:21.000Z</time>
      </trkpt>
      <trkpt lat="48.38612" lon="7.27906">
        <ele>936</ele>
        <time>2023-01-29T11:48:25.000Z</time>
      </trkpt>
      <trkpt lat="48.38612" lon="7.27906">
        <ele>936</ele>
        <time>2023-01-29T11:48:27.000Z</time>
      </trkpt>
      <trkpt lat="48.38613" lon="7.27904">
        <ele>936.19995117188</ele>
        <time>2023-01-29T11:48:45.000Z</time>
      </trkpt>
      <trkpt lat="48.38613" lon="7.27899">
        <ele>936.59997558594</ele>
        <time>2023-01-29T11:48:48.000Z</time>
      </trkpt>
      <trkpt lat="48.38614" lon="7.27897">
        <ele>936.80004882812</ele>
        <time>2023-01-29T11:48:49.000Z</time>
      </trkpt>
      <trkpt lat="48.38616" lon="7.27887">
        <ele>937</ele>
        <time>2023-01-29T11:48:56.000Z</time>
      </trkpt>
      <trkpt lat="48.38616" lon="7.27879">
        <ele>937.80004882812</ele>
        <time>2023-01-29T11:49:01.000Z</time>
      </trkpt>
      <trkpt lat="48.38617" lon="7.27874">
        <ele>938.19995117188</ele>
        <time>2023-01-29T11:49:05.000Z</time>
      </trkpt>
      <trkpt lat="48.38621" lon="7.27869">
        <ele>938.59997558594</ele>
        <time>2023-01-29T11:49:13.000Z</time>
      </trkpt>
      <trkpt lat="48.3862" lon="7.27861">
        <ele>938.80004882812</ele>
        <time>2023-01-29T11:49:18.000Z</time>
      </trkpt>
      <trkpt lat="48.3862" lon="7.27856">
        <ele>939.19995117188</ele>
        <time>2023-01-29T11:49:21.000Z</time>
      </trkpt>
      <trkpt lat="48.38619" lon="7.2785">
        <ele>939.59997558594</ele>
        <time>2023-01-29T11:49:25.000Z</time>
      </trkpt>
      <trkpt lat="48.38618" lon="7.27844">
        <ele>940</ele>
        <time>2023-01-29T11:49:28.000Z</time>
      </trkpt>
      <trkpt lat="48.38618" lon="7.27844">
        <ele>940.19995117188</ele>
        <time>2023-01-29T11:49:29.000Z</time>
      </trkpt>
      <trkpt lat="48.38618" lon="7.2784">
        <ele>940.59997558594</ele>
        <time>2023-01-29T11:49:33.000Z</time>
      </trkpt>
      <trkpt lat="48.38616" lon="7.27838">
        <ele>940.80004882812</ele>
        <time>2023-01-29T11:49:35.000Z</time>
      </trkpt>
      <trkpt lat="48.38616" lon="7.27835">
        <ele>941</ele>
        <time>2023-01-29T11:49:37.000Z</time>
      </trkpt>
      <trkpt lat="48.38617" lon="7.27833">
        <ele>941.59997558594</ele>
        <time>2023-01-29T11:49:41.000Z</time>
      </trkpt>
      <trkpt lat="48.38617" lon="7.27833">
        <ele>941.59997558594</ele>
        <time>2023-01-29T11:49:42.000Z</time>
      </trkpt>
      <trkpt lat="48.38617" lon="7.27836">
        <ele>941.59997558594</ele>
        <time>2023-01-29T11:49:47.000Z</time>
      </trkpt>
      <trkpt lat="48.38617" lon="7.27836">
        <ele>941.59997558594</ele>
        <time>2023-01-29T11:49:57.000Z</time>
      </trkpt>
      <trkpt lat="48.38617" lon="7.27836">
        <ele>941.59997558594</ele>
        <time>2023-01-29T11:49:58.000Z</time>
      </trkpt>
      <trkpt lat="48.38617" lon="7.27836">
        <ele>941.59997558594</ele>
        <time>2023-01-29T11:50:01.000Z</time>
      </trkpt>
      <trkpt lat="48.38618" lon="7.27831">
        <ele>942</ele>
        <time>2023-01-29T11:50:12.000Z</time>
      </trkpt>
      <trkpt lat="48.38618" lon="7.27826">
        <ele>942.19995117188</ele>
        <time>2023-01-29T11:50:14.000Z</time>
      </trkpt>
      <trkpt lat="48.38618" lon="7.27814">
        <ele>943.19995117188</ele>
        <time>2023-01-29T11:50:20.000Z</time>
      </trkpt>
      <trkpt lat="48.38617" lon="7.27812">
        <ele>943.59997558594</ele>
        <time>2023-01-29T11:50:23.000Z</time>
      </trkpt>
      <trkpt lat="48.38618" lon="7.2781">
        <ele>944</ele>
        <time>2023-01-29T11:50:30.000Z</time>
      </trkpt>
      <trkpt lat="48.38616" lon="7.27803">
        <ele>944.40002441406</ele>
        <time>2023-01-29T11:50:35.000Z</time>
      </trkpt>
      <trkpt lat="48.38616" lon="7.27802">
        <ele>944.40002441406</ele>
        <time>2023-01-29T11:50:36.000Z</time>
      </trkpt>
      <trkpt lat="48.38617" lon="7.27799">
        <ele>945.40002441406</ele>
        <time>2023-01-29T11:50:42.000Z</time>
      </trkpt>
      <trkpt lat="48.38618" lon="7.27794">
        <ele>946.40002441406</ele>
        <time>2023-01-29T11:50:48.000Z</time>
      </trkpt>
      <trkpt lat="48.38619" lon="7.27792">
        <ele>946.80004882812</ele>
        <time>2023-01-29T11:50:51.000Z</time>
      </trkpt>
      <trkpt lat="48.38621" lon="7.27789">
        <ele>947.59997558594</ele>
        <time>2023-01-29T11:50:54.000Z</time>
      </trkpt>
      <trkpt lat="48.3862" lon="7.2778">
        <ele>948.40002441406</ele>
        <time>2023-01-29T11:51:00.000Z</time>
      </trkpt>
      <trkpt lat="48.3862" lon="7.27777">
        <ele>949</ele>
        <time>2023-01-29T11:51:03.000Z</time>
      </trkpt>
      <trkpt lat="48.38619" lon="7.27771">
        <ele>949.80004882812</ele>
        <time>2023-01-29T11:51:08.000Z</time>
      </trkpt>
      <trkpt lat="48.3862" lon="7.2777">
        <ele>950</ele>
        <time>2023-01-29T11:51:09.000Z</time>
      </trkpt>
      <trkpt lat="48.38619" lon="7.27762">
        <ele>951</ele>
        <time>2023-01-29T11:51:15.000Z</time>
      </trkpt>
      <trkpt lat="48.38619" lon="7.27761">
        <ele>951.19995117188</ele>
        <time>2023-01-29T11:51:16.000Z</time>
      </trkpt>
      <trkpt lat="48.3862" lon="7.27754">
        <ele>952.40002441406</ele>
        <time>2023-01-29T11:51:23.000Z</time>
      </trkpt>
      <trkpt lat="48.38621" lon="7.27751">
        <ele>953</ele>
        <time>2023-01-29T11:51:27.000Z</time>
      </trkpt>
      <trkpt lat="48.38621" lon="7.27749">
        <ele>953.40002441406</ele>
        <time>2023-01-29T11:51:29.000Z</time>
      </trkpt>
      <trkpt lat="48.38622" lon="7.27746">
        <ele>954.19995117188</ele>
        <time>2023-01-29T11:51:32.000Z</time>
      </trkpt>
      <trkpt lat="48.38622" lon="7.27744">
        <ele>954.59997558594</ele>
        <time>2023-01-29T11:51:34.000Z</time>
      </trkpt>
      <trkpt lat="48.38623" lon="7.27741">
        <ele>955</ele>
        <time>2023-01-29T11:51:37.000Z</time>
      </trkpt>
      <trkpt lat="48.38624" lon="7.27737">
        <ele>955.59997558594</ele>
        <time>2023-01-29T11:51:40.000Z</time>
      </trkpt>
      <trkpt lat="48.38625" lon="7.27731">
        <ele>956.40002441406</ele>
        <time>2023-01-29T11:51:44.000Z</time>
      </trkpt>
      <trkpt lat="48.38626" lon="7.27729">
        <ele>956.80004882812</ele>
        <time>2023-01-29T11:51:46.000Z</time>
      </trkpt>
      <trkpt lat="48.38629" lon="7.27731">
        <ele>957.59997558594</ele>
        <time>2023-01-29T11:51:51.000Z</time>
      </trkpt>
      <trkpt lat="48.38628" lon="7.27733">
        <ele>957.59997558594</ele>
        <time>2023-01-29T11:51:56.000Z</time>
      </trkpt>
      <trkpt lat="48.38628" lon="7.2773">
        <ele>957.80004882812</ele>
        <time>2023-01-29T11:52:00.000Z</time>
      </trkpt>
      <trkpt lat="48.38627" lon="7.27728">
        <ele>958.19995117188</ele>
        <time>2023-01-29T11:52:02.000Z</time>
      </trkpt>
      <trkpt lat="48.38628" lon="7.27724">
        <ele>958.80004882812</ele>
        <time>2023-01-29T11:52:07.000Z</time>
      </trkpt>
      <trkpt lat="48.38629" lon="7.27723">
        <ele>959</ele>
        <time>2023-01-29T11:52:08.000Z</time>
      </trkpt>
      <trkpt lat="48.38629" lon="7.27722">
        <ele>959</ele>
        <time>2023-01-29T11:52:09.000Z</time>
      </trkpt>
      <trkpt lat="48.3863" lon="7.27718">
        <ele>960</ele>
        <time>2023-01-29T11:52:14.000Z</time>
      </trkpt>
      <trkpt lat="48.38631" lon="7.27719">
        <ele>960.19995117188</ele>
        <time>2023-01-29T11:52:17.000Z</time>
      </trkpt>
      <trkpt lat="48.38631" lon="7.2772">
        <ele>960.40002441406</ele>
        <time>2023-01-29T11:52:22.000Z</time>
      </trkpt>
      <trkpt lat="48.38631" lon="7.2772">
        <ele>960.59997558594</ele>
        <time>2023-01-29T11:52:31.000Z</time>
      </trkpt>
      <trkpt lat="48.38633" lon="7.27719">
        <ele>960.80004882812</ele>
        <time>2023-01-29T11:52:52.000Z</time>
      </trkpt>
      <trkpt lat="48.38633" lon="7.27719">
        <ele>961.19995117188</ele>
        <time>2023-01-29T11:52:57.000Z</time>
      </trkpt>
      <trkpt lat="48.38633" lon="7.27719">
        <ele>961.40002441406</ele>
        <time>2023-01-29T11:52:58.000Z</time>
      </trkpt>
      <trkpt lat="48.38633" lon="7.27719">
        <ele>961.40002441406</ele>
        <time>2023-01-29T11:53:04.000Z</time>
      </trkpt>
      <trkpt lat="48.38631" lon="7.27723">
        <ele>961.40002441406</ele>
        <time>2023-01-29T11:53:29.000Z</time>
      </trkpt>
      <trkpt lat="48.38631" lon="7.27723">
        <ele>961.40002441406</ele>
        <time>2023-01-29T11:53:34.000Z</time>
      </trkpt>
      <trkpt lat="48.38633" lon="7.27723">
        <ele>961.19995117188</ele>
        <time>2023-01-29T11:53:42.000Z</time>
      </trkpt>
      <trkpt lat="48.38635" lon="7.27718">
        <ele>961</ele>
        <time>2023-01-29T11:53:57.000Z</time>
      </trkpt>
      <trkpt lat="48.38637" lon="7.27711">
        <ele>961.80004882812</ele>
        <time>2023-01-29T11:54:02.000Z</time>
      </trkpt>
      <trkpt lat="48.38637" lon="7.27709">
        <ele>962.19995117188</ele>
        <time>2023-01-29T11:54:04.000Z</time>
      </trkpt>
      <trkpt lat="48.38637" lon="7.27703">
        <ele>963</ele>
        <time>2023-01-29T11:54:08.000Z</time>
      </trkpt>
      <trkpt lat="48.38637" lon="7.27702">
        <ele>963.19995117188</ele>
        <time>2023-01-29T11:54:09.000Z</time>
      </trkpt>
      <trkpt lat="48.38634" lon="7.27694">
        <ele>964.19995117188</ele>
        <time>2023-01-29T11:54:14.000Z</time>
      </trkpt>
      <trkpt lat="48.38634" lon="7.27693">
        <ele>964.59997558594</ele>
        <time>2023-01-29T11:54:15.000Z</time>
      </trkpt>
      <trkpt lat="48.38633" lon="7.27689">
        <ele>965.59997558594</ele>
        <time>2023-01-29T11:54:19.000Z</time>
      </trkpt>
      <trkpt lat="48.38634" lon="7.27688">
        <ele>966.19995117188</ele>
        <time>2023-01-29T11:54:23.000Z</time>
      </trkpt>
      <trkpt lat="48.38634" lon="7.27689">
        <ele>966.40002441406</ele>
        <time>2023-01-29T11:54:24.000Z</time>
      </trkpt>
      <trkpt lat="48.38634" lon="7.2769">
        <ele>966.59997558594</ele>
        <time>2023-01-29T11:54:25.000Z</time>
      </trkpt>
      <trkpt lat="48.38632" lon="7.27693">
        <ele>967</ele>
        <time>2023-01-29T11:54:29.000Z</time>
      </trkpt>
      <trkpt lat="48.38633" lon="7.27698">
        <ele>967.59997558594</ele>
        <time>2023-01-29T11:54:36.000Z</time>
      </trkpt>
      <trkpt lat="48.38635" lon="7.27698">
        <ele>967.59997558594</ele>
        <time>2023-01-29T11:54:49.000Z</time>
      </trkpt>
      <trkpt lat="48.38635" lon="7.27698">
        <ele>967.59997558594</ele>
        <time>2023-01-29T11:54:51.000Z</time>
      </trkpt>
      <trkpt lat="48.38636" lon="7.27697">
        <ele>967.80004882812</ele>
        <time>2023-01-29T11:54:59.000Z</time>
      </trkpt>
      <trkpt lat="48.38637" lon="7.27697">
        <ele>967.80004882812</ele>
        <time>2023-01-29T11:55:06.000Z</time>
      </trkpt>
      <trkpt lat="48.38637" lon="7.27697">
        <ele>967.80004882812</ele>
        <time>2023-01-29T11:55:12.000Z</time>
      </trkpt>
      <trkpt lat="48.38638" lon="7.27697">
        <ele>968.19995117188</ele>
        <time>2023-01-29T11:55:23.000Z</time>
      </trkpt>
      <trkpt lat="48.38638" lon="7.27697">
        <ele>968.40002441406</ele>
        <time>2023-01-29T11:55:26.000Z</time>
      </trkpt>
      <trkpt lat="48.3864" lon="7.27694">
        <ele>968.59997558594</ele>
        <time>2023-01-29T11:55:31.000Z</time>
      </trkpt>
      <trkpt lat="48.38643" lon="7.27691">
        <ele>968.80004882812</ele>
        <time>2023-01-29T11:55:35.000Z</time>
      </trkpt>
      <trkpt lat="48.38644" lon="7.2769">
        <ele>969</ele>
        <time>2023-01-29T11:55:36.000Z</time>
      </trkpt>
      <trkpt lat="48.38649" lon="7.27686">
        <ele>969.59997558594</ele>
        <time>2023-01-29T11:55:42.000Z</time>
      </trkpt>
      <trkpt lat="48.38651" lon="7.27684">
        <ele>969.80004882812</ele>
        <time>2023-01-29T11:55:45.000Z</time>
      </trkpt>
      <trkpt lat="48.38653" lon="7.27682">
        <ele>970.19995117188</ele>
        <time>2023-01-29T11:55:47.000Z</time>
      </trkpt>
      <trkpt lat="48.38654" lon="7.27681">
        <ele>970.40002441406</ele>
        <time>2023-01-29T11:55:48.000Z</time>
      </trkpt>
      <trkpt lat="48.38658" lon="7.27677">
        <ele>971</ele>
        <time>2023-01-29T11:55:53.000Z</time>
      </trkpt>
      <trkpt lat="48.38659" lon="7.27676">
        <ele>971</ele>
        <time>2023-01-29T11:55:54.000Z</time>
      </trkpt>
      <trkpt lat="48.38663" lon="7.2767">
        <ele>971.80004882812</ele>
        <time>2023-01-29T11:55:59.000Z</time>
      </trkpt>
      <trkpt lat="48.38664" lon="7.2767">
        <ele>972</ele>
        <time>2023-01-29T11:56:00.000Z</time>
      </trkpt>
      <trkpt lat="48.38664" lon="7.2767">
        <ele>972.59997558594</ele>
        <time>2023-01-29T11:56:04.000Z</time>
      </trkpt>
      <trkpt lat="48.38662" lon="7.27672">
        <ele>972.80004882812</ele>
        <time>2023-01-29T11:56:10.000Z</time>
      </trkpt>
      <trkpt lat="48.38661" lon="7.27671">
        <ele>972.80004882812</ele>
        <time>2023-01-29T11:56:14.000Z</time>
      </trkpt>
      <trkpt lat="48.38661" lon="7.27671">
        <ele>972.80004882812</ele>
        <time>2023-01-29T11:56:19.000Z</time>
      </trkpt>
      <trkpt lat="48.38661" lon="7.27671">
        <ele>972.80004882812</ele>
        <time>2023-01-29T11:56:23.000Z</time>
      </trkpt>
      <trkpt lat="48.38661" lon="7.27672">
        <ele>973</ele>
        <time>2023-01-29T11:56:30.000Z</time>
      </trkpt>
      <trkpt lat="48.38661" lon="7.27673">
        <ele>973.19995117188</ele>
        <time>2023-01-29T11:56:31.000Z</time>
      </trkpt>
      <trkpt lat="48.38662" lon="7.27674">
        <ele>973.80004882812</ele>
        <time>2023-01-29T11:56:37.000Z</time>
      </trkpt>
      <trkpt lat="48.38663" lon="7.27674">
        <ele>974.19995117188</ele>
        <time>2023-01-29T11:56:41.000Z</time>
      </trkpt>
      <trkpt lat="48.38666" lon="7.27674">
        <ele>975</ele>
        <time>2023-01-29T11:56:45.000Z</time>
      </trkpt>
      <trkpt lat="48.38668" lon="7.27673">
        <ele>975.19995117188</ele>
        <time>2023-01-29T11:56:49.000Z</time>
      </trkpt>
      <trkpt lat="48.38669" lon="7.27671">
        <ele>975.19995117188</ele>
        <time>2023-01-29T11:56:52.000Z</time>
      </trkpt>
      <trkpt lat="48.3867" lon="7.27668">
        <ele>975.19995117188</ele>
        <time>2023-01-29T11:56:56.000Z</time>
      </trkpt>
      <trkpt lat="48.3867" lon="7.27667">
        <ele>975.19995117188</ele>
        <time>2023-01-29T11:56:58.000Z</time>
      </trkpt>
      <trkpt lat="48.3867" lon="7.27666">
        <ele>975.59997558594</ele>
        <time>2023-01-29T11:57:01.000Z</time>
      </trkpt>
      <trkpt lat="48.38672" lon="7.27662">
        <ele>976.19995117188</ele>
        <time>2023-01-29T11:57:04.000Z</time>
      </trkpt>
      <trkpt lat="48.38673" lon="7.27661">
        <ele>976.40002441406</ele>
        <time>2023-01-29T11:57:05.000Z</time>
      </trkpt>
      <trkpt lat="48.3868" lon="7.2765">
        <ele>977</ele>
        <time>2023-01-29T11:57:10.000Z</time>
      </trkpt>
      <trkpt lat="48.38682" lon="7.27654">
        <ele>977.40002441406</ele>
        <time>2023-01-29T11:57:15.000Z</time>
      </trkpt>
      <trkpt lat="48.38682" lon="7.27654">
        <ele>977.40002441406</ele>
        <time>2023-01-29T11:57:16.000Z</time>
      </trkpt>
      <trkpt lat="48.38679" lon="7.27657">
        <ele>977.19995117188</ele>
        <time>2023-01-29T11:57:23.000Z</time>
      </trkpt>
      <trkpt lat="48.38676" lon="7.27662">
        <ele>976.59997558594</ele>
        <time>2023-01-29T11:57:26.000Z</time>
      </trkpt>
      <trkpt lat="48.38674" lon="7.27664">
        <ele>976.40002441406</ele>
        <time>2023-01-29T11:57:29.000Z</time>
      </trkpt>
      <trkpt lat="48.38673" lon="7.27665">
        <ele>976.19995117188</ele>
        <time>2023-01-29T11:57:30.000Z</time>
      </trkpt>
      <trkpt lat="48.3867" lon="7.27671">
        <ele>975.40002441406</ele>
        <time>2023-01-29T11:57:36.000Z</time>
      </trkpt>
      <trkpt lat="48.3867" lon="7.27671">
        <ele>975.19995117188</ele>
        <time>2023-01-29T11:57:37.000Z</time>
      </trkpt>
      <trkpt lat="48.38667" lon="7.27672">
        <ele>974.19995117188</ele>
        <time>2023-01-29T11:57:43.000Z</time>
      </trkpt>
      <trkpt lat="48.38666" lon="7.27672">
        <ele>974</ele>
        <time>2023-01-29T11:57:44.000Z</time>
      </trkpt>
      <trkpt lat="48.38663" lon="7.27675">
        <ele>973.19995117188</ele>
        <time>2023-01-29T11:57:49.000Z</time>
      </trkpt>
      <trkpt lat="48.38663" lon="7.27676">
        <ele>972.80004882812</ele>
        <time>2023-01-29T11:57:51.000Z</time>
      </trkpt>
      <trkpt lat="48.38658" lon="7.27679">
        <ele>972.19995117188</ele>
        <time>2023-01-29T11:57:57.000Z</time>
      </trkpt>
      <trkpt lat="48.38657" lon="7.27681">
        <ele>971.80004882812</ele>
        <time>2023-01-29T11:57:59.000Z</time>
      </trkpt>
      <trkpt lat="48.38656" lon="7.27683">
        <ele>971.59997558594</ele>
        <time>2023-01-29T11:58:03.000Z</time>
      </trkpt>
      <trkpt lat="48.38655" lon="7.27684">
        <ele>971.59997558594</ele>
        <time>2023-01-29T11:58:06.000Z</time>
      </trkpt>
      <trkpt lat="48.38652" lon="7.27688">
        <ele>971.40002441406</ele>
        <time>2023-01-29T11:58:13.000Z</time>
      </trkpt>
      <trkpt lat="48.38649" lon="7.2769">
        <ele>971.19995117188</ele>
        <time>2023-01-29T11:58:20.000Z</time>
      </trkpt>
      <trkpt lat="48.38648" lon="7.27692">
        <ele>971.19995117188</ele>
        <time>2023-01-29T11:58:22.000Z</time>
      </trkpt>
      <trkpt lat="48.38647" lon="7.27693">
        <ele>970.59997558594</ele>
        <time>2023-01-29T11:58:27.000Z</time>
      </trkpt>
      <trkpt lat="48.38645" lon="7.27696">
        <ele>970</ele>
        <time>2023-01-29T11:58:30.000Z</time>
      </trkpt>
      <trkpt lat="48.38641" lon="7.27696">
        <ele>969.59997558594</ele>
        <time>2023-01-29T11:58:34.000Z</time>
      </trkpt>
      <trkpt lat="48.38639" lon="7.27696">
        <ele>969</ele>
        <time>2023-01-29T11:58:38.000Z</time>
      </trkpt>
      <trkpt lat="48.38633" lon="7.27699">
        <ele>968.59997558594</ele>
        <time>2023-01-29T11:58:43.000Z</time>
      </trkpt>
      <trkpt lat="48.38624" lon="7.277">
        <ele>968.19995117188</ele>
        <time>2023-01-29T11:58:53.000Z</time>
      </trkpt>
      <trkpt lat="48.38623" lon="7.277">
        <ele>968.19995117188</ele>
        <time>2023-01-29T11:58:54.000Z</time>
      </trkpt>
      <trkpt lat="48.38618" lon="7.27699">
        <ele>968.40002441406</ele>
        <time>2023-01-29T11:58:59.000Z</time>
      </trkpt>
      <trkpt lat="48.38615" lon="7.27695">
        <ele>968.59997558594</ele>
        <time>2023-01-29T11:59:03.000Z</time>
      </trkpt>
      <trkpt lat="48.38613" lon="7.27695">
        <ele>968.59997558594</ele>
        <time>2023-01-29T11:59:05.000Z</time>
      </trkpt>
      <trkpt lat="48.38613" lon="7.27694">
        <ele>968.80004882812</ele>
        <time>2023-01-29T11:59:07.000Z</time>
      </trkpt>
      <trkpt lat="48.38609" lon="7.27689">
        <ele>969</ele>
        <time>2023-01-29T11:59:13.000Z</time>
      </trkpt>
      <trkpt lat="48.38606" lon="7.27686">
        <ele>969</ele>
        <time>2023-01-29T11:59:18.000Z</time>
      </trkpt>
      <trkpt lat="48.38599" lon="7.27685">
        <ele>969.19995117188</ele>
        <time>2023-01-29T11:59:25.000Z</time>
      </trkpt>
      <trkpt lat="48.38594" lon="7.27681">
        <ele>969.19995117188</ele>
        <time>2023-01-29T11:59:30.000Z</time>
      </trkpt>
      <trkpt lat="48.38594" lon="7.2768">
        <ele>969.19995117188</ele>
        <time>2023-01-29T11:59:31.000Z</time>
      </trkpt>
      <trkpt lat="48.38589" lon="7.27672">
        <ele>969.40002441406</ele>
        <time>2023-01-29T11:59:37.000Z</time>
      </trkpt>
      <trkpt lat="48.38581" lon="7.2767">
        <ele>969.59997558594</ele>
        <time>2023-01-29T11:59:43.000Z</time>
      </trkpt>
      <trkpt lat="48.38577" lon="7.27668">
        <ele>969.59997558594</ele>
        <time>2023-01-29T11:59:47.000Z</time>
      </trkpt>
      <trkpt lat="48.38575" lon="7.27669">
        <ele>969.59997558594</ele>
        <time>2023-01-29T11:59:52.000Z</time>
      </trkpt>
      <trkpt lat="48.38577" lon="7.27666">
        <ele>970.19995117188</ele>
        <time>2023-01-29T11:59:56.000Z</time>
      </trkpt>
      <trkpt lat="48.38578" lon="7.27665">
        <ele>970.19995117188</ele>
        <time>2023-01-29T11:59:58.000Z</time>
      </trkpt>
      <trkpt lat="48.38576" lon="7.27662">
        <ele>969.80004882812</ele>
        <time>2023-01-29T12:00:04.000Z</time>
      </trkpt>
      <trkpt lat="48.38573" lon="7.27659">
        <ele>969.59997558594</ele>
        <time>2023-01-29T12:00:09.000Z</time>
      </trkpt>
      <trkpt lat="48.38569" lon="7.27654">
        <ele>969.80004882812</ele>
        <time>2023-01-29T12:00:16.000Z</time>
      </trkpt>
      <trkpt lat="48.3856" lon="7.27652">
        <ele>969.80004882812</ele>
        <time>2023-01-29T12:00:22.000Z</time>
      </trkpt>
      <trkpt lat="48.3856" lon="7.27651">
        <ele>970</ele>
        <time>2023-01-29T12:00:26.000Z</time>
      </trkpt>
      <trkpt lat="48.38558" lon="7.27649">
        <ele>970</ele>
        <time>2023-01-29T12:00:29.000Z</time>
      </trkpt>
      <trkpt lat="48.38555" lon="7.27645">
        <ele>970</ele>
        <time>2023-01-29T12:00:33.000Z</time>
      </trkpt>
      <trkpt lat="48.38551" lon="7.27641">
        <ele>970.40002441406</ele>
        <time>2023-01-29T12:00:39.000Z</time>
      </trkpt>
      <trkpt lat="48.38547" lon="7.27638">
        <ele>970.59997558594</ele>
        <time>2023-01-29T12:00:45.000Z</time>
      </trkpt>
      <trkpt lat="48.38544" lon="7.27635">
        <ele>970.80004882812</ele>
        <time>2023-01-29T12:00:49.000Z</time>
      </trkpt>
      <trkpt lat="48.38544" lon="7.27634">
        <ele>970.80004882812</ele>
        <time>2023-01-29T12:00:50.000Z</time>
      </trkpt>
      <trkpt lat="48.38543" lon="7.2763">
        <ele>971</ele>
        <time>2023-01-29T12:00:53.000Z</time>
      </trkpt>
      <trkpt lat="48.38541" lon="7.27626">
        <ele>971.19995117188</ele>
        <time>2023-01-29T12:00:56.000Z</time>
      </trkpt>
      <trkpt lat="48.3854" lon="7.27626">
        <ele>971.19995117188</ele>
        <time>2023-01-29T12:00:57.000Z</time>
      </trkpt>
      <trkpt lat="48.38534" lon="7.27619">
        <ele>971.59997558594</ele>
        <time>2023-01-29T12:01:02.000Z</time>
      </trkpt>
      <trkpt lat="48.38535" lon="7.27616">
        <ele>972</ele>
        <time>2023-01-29T12:01:07.000Z</time>
      </trkpt>
      <trkpt lat="48.38532" lon="7.27616">
        <ele>972</ele>
        <time>2023-01-29T12:01:11.000Z</time>
      </trkpt>
      <trkpt lat="48.38531" lon="7.27615">
        <ele>972</ele>
        <time>2023-01-29T12:01:13.000Z</time>
      </trkpt>
      <trkpt lat="48.38528" lon="7.27614">
        <ele>972.19995117188</ele>
        <time>2023-01-29T12:01:17.000Z</time>
      </trkpt>
      <trkpt lat="48.38528" lon="7.27614">
        <ele>972.19995117188</ele>
        <time>2023-01-29T12:01:18.000Z</time>
      </trkpt>
      <trkpt lat="48.38524" lon="7.27614">
        <ele>972.40002441406</ele>
        <time>2023-01-29T12:01:25.000Z</time>
      </trkpt>
      <trkpt lat="48.3852" lon="7.27605">
        <ele>972.80004882812</ele>
        <time>2023-01-29T12:01:32.000Z</time>
      </trkpt>
      <trkpt lat="48.38517" lon="7.276">
        <ele>973</ele>
        <time>2023-01-29T12:01:35.000Z</time>
      </trkpt>
      <trkpt lat="48.38517" lon="7.27599">
        <ele>973.19995117188</ele>
        <time>2023-01-29T12:01:36.000Z</time>
      </trkpt>
      <trkpt lat="48.38516" lon="7.27597">
        <ele>973.40002441406</ele>
        <time>2023-01-29T12:01:37.000Z</time>
      </trkpt>
      <trkpt lat="48.38516" lon="7.27595">
        <ele>973.80004882812</ele>
        <time>2023-01-29T12:01:42.000Z</time>
      </trkpt>
      <trkpt lat="48.3851" lon="7.27586">
        <ele>974.19995117188</ele>
        <time>2023-01-29T12:01:50.000Z</time>
      </trkpt>
      <trkpt lat="48.3851" lon="7.27585">
        <ele>974.40002441406</ele>
        <time>2023-01-29T12:01:51.000Z</time>
      </trkpt>
      <trkpt lat="48.38505" lon="7.27581">
        <ele>974.80004882812</ele>
        <time>2023-01-29T12:01:56.000Z</time>
      </trkpt>
      <trkpt lat="48.38511" lon="7.27573">
        <ele>975.40002441406</ele>
        <time>2023-01-29T12:02:04.000Z</time>
      </trkpt>
      <trkpt lat="48.38513" lon="7.2757">
        <ele>975.40002441406</ele>
        <time>2023-01-29T12:02:12.000Z</time>
      </trkpt>
      <trkpt lat="48.38508" lon="7.27564">
        <ele>975.40002441406</ele>
        <time>2023-01-29T12:02:18.000Z</time>
      </trkpt>
      <trkpt lat="48.38507" lon="7.27561">
        <ele>975.40002441406</ele>
        <time>2023-01-29T12:02:20.000Z</time>
      </trkpt>
      <trkpt lat="48.38505" lon="7.27556">
        <ele>976.19995117188</ele>
        <time>2023-01-29T12:02:26.000Z</time>
      </trkpt>
      <trkpt lat="48.38503" lon="7.27552">
        <ele>976.40002441406</ele>
        <time>2023-01-29T12:02:29.000Z</time>
      </trkpt>
      <trkpt lat="48.38501" lon="7.27549">
        <ele>976.59997558594</ele>
        <time>2023-01-29T12:02:32.000Z</time>
      </trkpt>
      <trkpt lat="48.38497" lon="7.27545">
        <ele>977</ele>
        <time>2023-01-29T12:02:36.000Z</time>
      </trkpt>
      <trkpt lat="48.38494" lon="7.2754">
        <ele>977.19995117188</ele>
        <time>2023-01-29T12:02:40.000Z</time>
      </trkpt>
      <trkpt lat="48.38492" lon="7.2753">
        <ele>977.59997558594</ele>
        <time>2023-01-29T12:02:47.000Z</time>
      </trkpt>
      <trkpt lat="48.38493" lon="7.27523">
        <ele>978</ele>
        <time>2023-01-29T12:02:52.000Z</time>
      </trkpt>
      <trkpt lat="48.38494" lon="7.27519">
        <ele>978.19995117188</ele>
        <time>2023-01-29T12:02:54.000Z</time>
      </trkpt>
      <trkpt lat="48.38492" lon="7.27516">
        <ele>978.19995117188</ele>
        <time>2023-01-29T12:02:55.000Z</time>
      </trkpt>
      <trkpt lat="48.38491" lon="7.27509">
        <ele>978.59997558594</ele>
        <time>2023-01-29T12:02:59.000Z</time>
      </trkpt>
      <trkpt lat="48.38492" lon="7.2751">
        <ele>978.80004882812</ele>
        <time>2023-01-29T12:03:00.000Z</time>
      </trkpt>
      <trkpt lat="48.38495" lon="7.27515">
        <ele>979</ele>
        <time>2023-01-29T12:03:08.000Z</time>
      </trkpt>
      <trkpt lat="48.38498" lon="7.27518">
        <ele>979</ele>
        <time>2023-01-29T12:03:17.000Z</time>
      </trkpt>
      <trkpt lat="48.38499" lon="7.27509">
        <ele>978.80004882812</ele>
        <time>2023-01-29T12:03:23.000Z</time>
      </trkpt>
      <trkpt lat="48.385" lon="7.27506">
        <ele>979</ele>
        <time>2023-01-29T12:03:25.000Z</time>
      </trkpt>
      <trkpt lat="48.38502" lon="7.275">
        <ele>979.19995117188</ele>
        <time>2023-01-29T12:03:29.000Z</time>
      </trkpt>
      <trkpt lat="48.38506" lon="7.2749">
        <ele>979.80004882812</ele>
        <time>2023-01-29T12:03:35.000Z</time>
      </trkpt>
      <trkpt lat="48.38509" lon="7.27479">
        <ele>980.19995117188</ele>
        <time>2023-01-29T12:03:42.000Z</time>
      </trkpt>
      <trkpt lat="48.38509" lon="7.27478">
        <ele>980.19995117188</ele>
        <time>2023-01-29T12:03:43.000Z</time>
      </trkpt>
      <trkpt lat="48.38512" lon="7.27471">
        <ele>980.40002441406</ele>
        <time>2023-01-29T12:03:46.000Z</time>
      </trkpt>
      <trkpt lat="48.38513" lon="7.27468">
        <ele>980.80004882812</ele>
        <time>2023-01-29T12:03:48.000Z</time>
      </trkpt>
      <trkpt lat="48.38515" lon="7.27469">
        <ele>981</ele>
        <time>2023-01-29T12:03:52.000Z</time>
      </trkpt>
      <trkpt lat="48.38517" lon="7.27461">
        <ele>981.40002441406</ele>
        <time>2023-01-29T12:03:59.000Z</time>
      </trkpt>
      <trkpt lat="48.3852" lon="7.27459">
        <ele>981.80004882812</ele>
        <time>2023-01-29T12:04:03.000Z</time>
      </trkpt>
      <trkpt lat="48.38522" lon="7.27458">
        <ele>982</ele>
        <time>2023-01-29T12:04:05.000Z</time>
      </trkpt>
      <trkpt lat="48.38524" lon="7.2745">
        <ele>982.19995117188</ele>
        <time>2023-01-29T12:04:12.000Z</time>
      </trkpt>
      <trkpt lat="48.3853" lon="7.27443">
        <ele>982.80004882812</ele>
        <time>2023-01-29T12:04:20.000Z</time>
      </trkpt>
      <trkpt lat="48.38535" lon="7.27439">
        <ele>983.19995117188</ele>
        <time>2023-01-29T12:04:27.000Z</time>
      </trkpt>
      <trkpt lat="48.38539" lon="7.27431">
        <ele>983.80004882812</ele>
        <time>2023-01-29T12:04:33.000Z</time>
      </trkpt>
      <trkpt lat="48.38539" lon="7.2743">
        <ele>983.80004882812</ele>
        <time>2023-01-29T12:04:34.000Z</time>
      </trkpt>
      <trkpt lat="48.38539" lon="7.27429">
        <ele>983.80004882812</ele>
        <time>2023-01-29T12:04:35.000Z</time>
      </trkpt>
      <trkpt lat="48.38543" lon="7.27424">
        <ele>984</ele>
        <time>2023-01-29T12:04:39.000Z</time>
      </trkpt>
      <trkpt lat="48.38545" lon="7.27424">
        <ele>984</ele>
        <time>2023-01-29T12:04:41.000Z</time>
      </trkpt>
      <trkpt lat="48.38546" lon="7.27428">
        <ele>984.40002441406</ele>
        <time>2023-01-29T12:04:45.000Z</time>
      </trkpt>
      <trkpt lat="48.3855" lon="7.27426">
        <ele>984.59997558594</ele>
        <time>2023-01-29T12:04:53.000Z</time>
      </trkpt>
      <trkpt lat="48.38553" lon="7.27424">
        <ele>984.80004882812</ele>
        <time>2023-01-29T12:04:56.000Z</time>
      </trkpt>
      <trkpt lat="48.38557" lon="7.27418">
        <ele>985.59997558594</ele>
        <time>2023-01-29T12:05:03.000Z</time>
      </trkpt>
      <trkpt lat="48.38558" lon="7.27416">
        <ele>985.80004882812</ele>
        <time>2023-01-29T12:05:05.000Z</time>
      </trkpt>
      <trkpt lat="48.3856" lon="7.27412">
        <ele>986.19995117188</ele>
        <time>2023-01-29T12:05:08.000Z</time>
      </trkpt>
      <trkpt lat="48.38564" lon="7.27403">
        <ele>987</ele>
        <time>2023-01-29T12:05:14.000Z</time>
      </trkpt>
      <trkpt lat="48.38565" lon="7.27401">
        <ele>987</ele>
        <time>2023-01-29T12:05:15.000Z</time>
      </trkpt>
      <trkpt lat="48.38568" lon="7.27395">
        <ele>987.40002441406</ele>
        <time>2023-01-29T12:05:19.000Z</time>
      </trkpt>
      <trkpt lat="48.38569" lon="7.27392">
        <ele>988</ele>
        <time>2023-01-29T12:05:22.000Z</time>
      </trkpt>
      <trkpt lat="48.38571" lon="7.27385">
        <ele>988.59997558594</ele>
        <time>2023-01-29T12:05:28.000Z</time>
      </trkpt>
      <trkpt lat="48.38572" lon="7.27388">
        <ele>989</ele>
        <time>2023-01-29T12:05:32.000Z</time>
      </trkpt>
      <trkpt lat="48.38574" lon="7.27388">
        <ele>989.19995117188</ele>
        <time>2023-01-29T12:05:42.000Z</time>
      </trkpt>
      <trkpt lat="48.38579" lon="7.27392">
        <ele>989.19995117188</ele>
        <time>2023-01-29T12:05:50.000Z</time>
      </trkpt>
      <trkpt lat="48.3858" lon="7.27394">
        <ele>989.19995117188</ele>
        <time>2023-01-29T12:05:51.000Z</time>
      </trkpt>
      <trkpt lat="48.38584" lon="7.27393">
        <ele>989</ele>
        <time>2023-01-29T12:05:58.000Z</time>
      </trkpt>
      <trkpt lat="48.38583" lon="7.27395">
        <ele>989.19995117188</ele>
        <time>2023-01-29T12:06:03.000Z</time>
      </trkpt>
      <trkpt lat="48.38583" lon="7.27395">
        <ele>989.19995117188</ele>
        <time>2023-01-29T12:06:07.000Z</time>
      </trkpt>
      <trkpt lat="48.38583" lon="7.27395">
        <ele>989.19995117188</ele>
        <time>2023-01-29T12:06:08.000Z</time>
      </trkpt>
      <trkpt lat="48.38584" lon="7.27389">
        <ele>989.40002441406</ele>
        <time>2023-01-29T12:06:14.000Z</time>
      </trkpt>
      <trkpt lat="48.38585" lon="7.27381">
        <ele>989.80004882812</ele>
        <time>2023-01-29T12:06:19.000Z</time>
      </trkpt>
      <trkpt lat="48.38587" lon="7.27378">
        <ele>990.19995117188</ele>
        <time>2023-01-29T12:06:21.000Z</time>
      </trkpt>
      <trkpt lat="48.38588" lon="7.27376">
        <ele>990.19995117188</ele>
        <time>2023-01-29T12:06:22.000Z</time>
      </trkpt>
      <trkpt lat="48.38587" lon="7.27375">
        <ele>990.40002441406</ele>
        <time>2023-01-29T12:06:23.000Z</time>
      </trkpt>
      <trkpt lat="48.38587" lon="7.27374">
        <ele>990.40002441406</ele>
        <time>2023-01-29T12:06:24.000Z</time>
      </trkpt>
      <trkpt lat="48.38585" lon="7.27371">
        <ele>990.80004882812</ele>
        <time>2023-01-29T12:06:29.000Z</time>
      </trkpt>
      <trkpt lat="48.38585" lon="7.27367">
        <ele>991.19995117188</ele>
        <time>2023-01-29T12:06:33.000Z</time>
      </trkpt>
      <trkpt lat="48.38585" lon="7.27366">
        <ele>991.40002441406</ele>
        <time>2023-01-29T12:06:34.000Z</time>
      </trkpt>
      <trkpt lat="48.38587" lon="7.2736">
        <ele>991.80004882812</ele>
        <time>2023-01-29T12:06:39.000Z</time>
      </trkpt>
      <trkpt lat="48.38587" lon="7.27359">
        <ele>992.19995117188</ele>
        <time>2023-01-29T12:06:42.000Z</time>
      </trkpt>
      <trkpt lat="48.38586" lon="7.27361">
        <ele>992.40002441406</ele>
        <time>2023-01-29T12:06:43.000Z</time>
      </trkpt>
      <trkpt lat="48.38586" lon="7.27362">
        <ele>992.40002441406</ele>
        <time>2023-01-29T12:06:44.000Z</time>
      </trkpt>
      <trkpt lat="48.38585" lon="7.27361">
        <ele>992.59997558594</ele>
        <time>2023-01-29T12:06:48.000Z</time>
      </trkpt>
      <trkpt lat="48.38587" lon="7.27359">
        <ele>992.80004882812</ele>
        <time>2023-01-29T12:06:50.000Z</time>
      </trkpt>
      <trkpt lat="48.38587" lon="7.27352">
        <ele>993.19995117188</ele>
        <time>2023-01-29T12:06:55.000Z</time>
      </trkpt>
      <trkpt lat="48.38587" lon="7.27351">
        <ele>993.40002441406</ele>
        <time>2023-01-29T12:06:56.000Z</time>
      </trkpt>
      <trkpt lat="48.38586" lon="7.27345">
        <ele>994</ele>
        <time>2023-01-29T12:07:01.000Z</time>
      </trkpt>
      <trkpt lat="48.38587" lon="7.2734">
        <ele>994.19995117188</ele>
        <time>2023-01-29T12:07:03.000Z</time>
      </trkpt>
      <trkpt lat="48.38588" lon="7.27339">
        <ele>994.40002441406</ele>
        <time>2023-01-29T12:07:04.000Z</time>
      </trkpt>
      <trkpt lat="48.38586" lon="7.27334">
        <ele>995</ele>
        <time>2023-01-29T12:07:09.000Z</time>
      </trkpt>
      <trkpt lat="48.38585" lon="7.27333">
        <ele>995</ele>
        <time>2023-01-29T12:07:10.000Z</time>
      </trkpt>
      <trkpt lat="48.38585" lon="7.27331">
        <ele>995.40002441406</ele>
        <time>2023-01-29T12:07:13.000Z</time>
      </trkpt>
      <trkpt lat="48.38586" lon="7.27326">
        <ele>995.80004882812</ele>
        <time>2023-01-29T12:07:16.000Z</time>
      </trkpt>
      <trkpt lat="48.38586" lon="7.27315">
        <ele>996.40002441406</ele>
        <time>2023-01-29T12:07:22.000Z</time>
      </trkpt>
      <trkpt lat="48.38587" lon="7.2731">
        <ele>996.80004882812</ele>
        <time>2023-01-29T12:07:28.000Z</time>
      </trkpt>
      <trkpt lat="48.38587" lon="7.27305">
        <ele>996.80004882812</ele>
        <time>2023-01-29T12:07:33.000Z</time>
      </trkpt>
      <trkpt lat="48.38587" lon="7.27301">
        <ele>997.19995117188</ele>
        <time>2023-01-29T12:07:43.000Z</time>
      </trkpt>
      <trkpt lat="48.38587" lon="7.27293">
        <ele>997.40002441406</ele>
        <time>2023-01-29T12:07:48.000Z</time>
      </trkpt>
      <trkpt lat="48.38587" lon="7.27289">
        <ele>997.59997558594</ele>
        <time>2023-01-29T12:07:50.000Z</time>
      </trkpt>
      <trkpt lat="48.38587" lon="7.27286">
        <ele>998</ele>
        <time>2023-01-29T12:07:55.000Z</time>
      </trkpt>
      <trkpt lat="48.38588" lon="7.27287">
        <ele>997.80004882812</ele>
        <time>2023-01-29T12:08:00.000Z</time>
      </trkpt>
      <trkpt lat="48.3859" lon="7.27285">
        <ele>998</ele>
        <time>2023-01-29T12:08:06.000Z</time>
      </trkpt>
      <trkpt lat="48.3859" lon="7.27282">
        <ele>998</ele>
        <time>2023-01-29T12:08:12.000Z</time>
      </trkpt>
      <trkpt lat="48.3859" lon="7.27275">
        <ele>998.19995117188</ele>
        <time>2023-01-29T12:08:18.000Z</time>
      </trkpt>
      <trkpt lat="48.3859" lon="7.27274">
        <ele>998.19995117188</ele>
        <time>2023-01-29T12:08:19.000Z</time>
      </trkpt>
      <trkpt lat="48.38589" lon="7.27266">
        <ele>998.59997558594</ele>
        <time>2023-01-29T12:08:24.000Z</time>
      </trkpt>
      <trkpt lat="48.38589" lon="7.27264">
        <ele>998.80004882812</ele>
        <time>2023-01-29T12:08:25.000Z</time>
      </trkpt>
      <trkpt lat="48.38591" lon="7.2726">
        <ele>999.19995117188</ele>
        <time>2023-01-29T12:08:30.000Z</time>
      </trkpt>
      <trkpt lat="48.38589" lon="7.27254">
        <ele>999.59997558594</ele>
        <time>2023-01-29T12:08:35.000Z</time>
      </trkpt>
      <trkpt lat="48.38589" lon="7.2725">
        <ele>999.59997558594</ele>
        <time>2023-01-29T12:08:37.000Z</time>
      </trkpt>
      <trkpt lat="48.38589" lon="7.27244">
        <ele>1000.1999511719</ele>
        <time>2023-01-29T12:08:42.000Z</time>
      </trkpt>
      <trkpt lat="48.38589" lon="7.27237">
        <ele>1000.5999755859</ele>
        <time>2023-01-29T12:08:47.000Z</time>
      </trkpt>
      <trkpt lat="48.38589" lon="7.27234">
        <ele>1001</ele>
        <time>2023-01-29T12:08:49.000Z</time>
      </trkpt>
      <trkpt lat="48.38588" lon="7.27229">
        <ele>1001.5999755859</ele>
        <time>2023-01-29T12:08:55.000Z</time>
      </trkpt>
      <trkpt lat="48.38588" lon="7.27226">
        <ele>1002</ele>
        <time>2023-01-29T12:08:58.000Z</time>
      </trkpt>
      <trkpt lat="48.38588" lon="7.27221">
        <ele>1002.1999511719</ele>
        <time>2023-01-29T12:09:01.000Z</time>
      </trkpt>
      <trkpt lat="48.38589" lon="7.27224">
        <ele>1002.5999755859</ele>
        <time>2023-01-29T12:09:04.000Z</time>
      </trkpt>
      <trkpt lat="48.38588" lon="7.27227">
        <ele>1002.5999755859</ele>
        <time>2023-01-29T12:09:06.000Z</time>
      </trkpt>
      <trkpt lat="48.38588" lon="7.27227">
        <ele>1002.5999755859</ele>
        <time>2023-01-29T12:09:08.000Z</time>
      </trkpt>
      <trkpt lat="48.38588" lon="7.27226">
        <ele>1002.5999755859</ele>
        <time>2023-01-29T12:09:12.000Z</time>
      </trkpt>
      <trkpt lat="48.38588" lon="7.27225">
        <ele>1002.5999755859</ele>
        <time>2023-01-29T12:09:24.000Z</time>
      </trkpt>
      <trkpt lat="48.38588" lon="7.27222">
        <ele>1002.8000488281</ele>
        <time>2023-01-29T12:09:28.000Z</time>
      </trkpt>
      <trkpt lat="48.38589" lon="7.2722">
        <ele>1002.8000488281</ele>
        <time>2023-01-29T12:09:29.000Z</time>
      </trkpt>
      <trkpt lat="48.38589" lon="7.2721">
        <ele>1003.4000244141</ele>
        <time>2023-01-29T12:09:35.000Z</time>
      </trkpt>
      <trkpt lat="48.38591" lon="7.27202">
        <ele>1003.8000488281</ele>
        <time>2023-01-29T12:09:40.000Z</time>
      </trkpt>
      <trkpt lat="48.38591" lon="7.27199">
        <ele>1004.1999511719</ele>
        <time>2023-01-29T12:09:42.000Z</time>
      </trkpt>
      <trkpt lat="48.38591" lon="7.27192">
        <ele>1004.1999511719</ele>
        <time>2023-01-29T12:09:46.000Z</time>
      </trkpt>
      <trkpt lat="48.38592" lon="7.2719">
        <ele>1004.4000244141</ele>
        <time>2023-01-29T12:09:48.000Z</time>
      </trkpt>
      <trkpt lat="48.38592" lon="7.2719">
        <ele>1004.5999755859</ele>
        <time>2023-01-29T12:09:52.000Z</time>
      </trkpt>
      <trkpt lat="48.38591" lon="7.27183">
        <ele>1004.8000488281</ele>
        <time>2023-01-29T12:09:57.000Z</time>
      </trkpt>
      <trkpt lat="48.38591" lon="7.27181">
        <ele>1005</ele>
        <time>2023-01-29T12:09:58.000Z</time>
      </trkpt>
      <trkpt lat="48.38591" lon="7.27177">
        <ele>1005.5999755859</ele>
        <time>2023-01-29T12:10:04.000Z</time>
      </trkpt>
      <trkpt lat="48.38594" lon="7.27171">
        <ele>1005.8000488281</ele>
        <time>2023-01-29T12:10:09.000Z</time>
      </trkpt>
      <trkpt lat="48.38594" lon="7.2717">
        <ele>1006</ele>
        <time>2023-01-29T12:10:10.000Z</time>
      </trkpt>
      <trkpt lat="48.38596" lon="7.27166">
        <ele>1006.4000244141</ele>
        <time>2023-01-29T12:10:15.000Z</time>
      </trkpt>
      <trkpt lat="48.38596" lon="7.2716">
        <ele>1006.5999755859</ele>
        <time>2023-01-29T12:10:19.000Z</time>
      </trkpt>
      <trkpt lat="48.38596" lon="7.27158">
        <ele>1006.8000488281</ele>
        <time>2023-01-29T12:10:20.000Z</time>
      </trkpt>
      <trkpt lat="48.38596" lon="7.27156">
        <ele>1007</ele>
        <time>2023-01-29T12:10:21.000Z</time>
      </trkpt>
      <trkpt lat="48.38598" lon="7.27153">
        <ele>1007.5999755859</ele>
        <time>2023-01-29T12:10:25.000Z</time>
      </trkpt>
      <trkpt lat="48.38597" lon="7.27155">
        <ele>1007.5999755859</ele>
        <time>2023-01-29T12:10:27.000Z</time>
      </trkpt>
      <trkpt lat="48.38598" lon="7.27155">
        <ele>1007.8000488281</ele>
        <time>2023-01-29T12:10:31.000Z</time>
      </trkpt>
      <trkpt lat="48.386" lon="7.27148">
        <ele>1008</ele>
        <time>2023-01-29T12:10:37.000Z</time>
      </trkpt>
      <trkpt lat="48.38601" lon="7.27144">
        <ele>1008</ele>
        <time>2023-01-29T12:10:39.000Z</time>
      </trkpt>
      <trkpt lat="48.38603" lon="7.27139">
        <ele>1008.4000244141</ele>
        <time>2023-01-29T12:10:44.000Z</time>
      </trkpt>
      <trkpt lat="48.38601" lon="7.27122">
        <ele>1008.8000488281</ele>
        <time>2023-01-29T12:10:52.000Z</time>
      </trkpt>
      <trkpt lat="48.38601" lon="7.2712">
        <ele>1009</ele>
        <time>2023-01-29T12:10:53.000Z</time>
      </trkpt>
      <trkpt lat="48.38601" lon="7.27118">
        <ele>1009</ele>
        <time>2023-01-29T12:10:55.000Z</time>
      </trkpt>
      <trkpt lat="48.386" lon="7.27116">
        <ele>1009.1999511719</ele>
        <time>2023-01-29T12:10:57.000Z</time>
      </trkpt>
      <trkpt lat="48.38602" lon="7.27107">
        <ele>1009.4000244141</ele>
        <time>2023-01-29T12:11:02.000Z</time>
      </trkpt>
      <trkpt lat="48.38602" lon="7.27104">
        <ele>1009.4000244141</ele>
        <time>2023-01-29T12:11:03.000Z</time>
      </trkpt>
      <trkpt lat="48.38604" lon="7.27093">
        <ele>1009.5999755859</ele>
        <time>2023-01-29T12:11:09.000Z</time>
      </trkpt>
      <trkpt lat="48.38605" lon="7.27092">
        <ele>1009.5999755859</ele>
        <time>2023-01-29T12:11:10.000Z</time>
      </trkpt>
      <trkpt lat="48.3861" lon="7.27086">
        <ele>1009.5999755859</ele>
        <time>2023-01-29T12:11:14.000Z</time>
      </trkpt>
      <trkpt lat="48.3861" lon="7.27083">
        <ele>1009.8000488281</ele>
        <time>2023-01-29T12:11:20.000Z</time>
      </trkpt>
      <trkpt lat="48.38609" lon="7.2708">
        <ele>1009.8000488281</ele>
        <time>2023-01-29T12:11:23.000Z</time>
      </trkpt>
      <trkpt lat="48.3861" lon="7.27075">
        <ele>1009.8000488281</ele>
        <time>2023-01-29T12:11:29.000Z</time>
      </trkpt>
      <trkpt lat="48.38608" lon="7.27071">
        <ele>1010.1999511719</ele>
        <time>2023-01-29T12:11:34.000Z</time>
      </trkpt>
      <trkpt lat="48.38608" lon="7.27068">
        <ele>1010.1999511719</ele>
        <time>2023-01-29T12:11:36.000Z</time>
      </trkpt>
      <trkpt lat="48.38609" lon="7.27063">
        <ele>1010.5999755859</ele>
        <time>2023-01-29T12:11:40.000Z</time>
      </trkpt>
      <trkpt lat="48.38607" lon="7.27062">
        <ele>1010.8000488281</ele>
        <time>2023-01-29T12:11:43.000Z</time>
      </trkpt>
      <trkpt lat="48.38606" lon="7.27054">
        <ele>1011.1999511719</ele>
        <time>2023-01-29T12:11:48.000Z</time>
      </trkpt>
      <trkpt lat="48.38605" lon="7.2705">
        <ele>1011.4000244141</ele>
        <time>2023-01-29T12:11:50.000Z</time>
      </trkpt>
      <trkpt lat="48.38607" lon="7.27046">
        <ele>1011.8000488281</ele>
        <time>2023-01-29T12:11:56.000Z</time>
      </trkpt>
      <trkpt lat="48.38606" lon="7.27043">
        <ele>1011.8000488281</ele>
        <time>2023-01-29T12:12:02.000Z</time>
      </trkpt>
      <trkpt lat="48.38606" lon="7.27034">
        <ele>1012</ele>
        <time>2023-01-29T12:12:11.000Z</time>
      </trkpt>
      <trkpt lat="48.38606" lon="7.27032">
        <ele>1012</ele>
        <time>2023-01-29T12:12:12.000Z</time>
      </trkpt>
      <trkpt lat="48.38604" lon="7.27022">
        <ele>1012.1999511719</ele>
        <time>2023-01-29T12:12:17.000Z</time>
      </trkpt>
      <trkpt lat="48.38601" lon="7.27012">
        <ele>1012</ele>
        <time>2023-01-29T12:12:24.000Z</time>
      </trkpt>
      <trkpt lat="48.38599" lon="7.27">
        <ele>1012</ele>
        <time>2023-01-29T12:12:31.000Z</time>
      </trkpt>
      <trkpt lat="48.38599" lon="7.26997">
        <ele>1012</ele>
        <time>2023-01-29T12:12:34.000Z</time>
      </trkpt>
      <trkpt lat="48.38598" lon="7.26993">
        <ele>1012</ele>
        <time>2023-01-29T12:12:37.000Z</time>
      </trkpt>
      <trkpt lat="48.38596" lon="7.26986">
        <ele>1012</ele>
        <time>2023-01-29T12:12:43.000Z</time>
      </trkpt>
      <trkpt lat="48.38595" lon="7.26977">
        <ele>1011.5999755859</ele>
        <time>2023-01-29T12:12:49.000Z</time>
      </trkpt>
      <trkpt lat="48.38596" lon="7.26976">
        <ele>1011.5999755859</ele>
        <time>2023-01-29T12:12:54.000Z</time>
      </trkpt>
      <trkpt lat="48.38595" lon="7.26977">
        <ele>1011.5999755859</ele>
        <time>2023-01-29T12:12:59.000Z</time>
      </trkpt>
      <trkpt lat="48.38594" lon="7.26974">
        <ele>1011.5999755859</ele>
        <time>2023-01-29T12:13:03.000Z</time>
      </trkpt>
      <trkpt lat="48.38593" lon="7.26971">
        <ele>1011.5999755859</ele>
        <time>2023-01-29T12:13:05.000Z</time>
      </trkpt>
      <trkpt lat="48.38594" lon="7.26966">
        <ele>1011.4000244141</ele>
        <time>2023-01-29T12:13:10.000Z</time>
      </trkpt>
      <trkpt lat="48.38593" lon="7.26958">
        <ele>1011.1999511719</ele>
        <time>2023-01-29T12:13:16.000Z</time>
      </trkpt>
      <trkpt lat="48.38592" lon="7.26952">
        <ele>1011.1999511719</ele>
        <time>2023-01-29T12:13:21.000Z</time>
      </trkpt>
      <trkpt lat="48.38592" lon="7.26938">
        <ele>1011.1999511719</ele>
        <time>2023-01-29T12:13:28.000Z</time>
      </trkpt>
      <trkpt lat="48.38589" lon="7.26921">
        <ele>1011</ele>
        <time>2023-01-29T12:13:35.000Z</time>
      </trkpt>
      <trkpt lat="48.38587" lon="7.2692">
        <ele>1011</ele>
        <time>2023-01-29T12:13:38.000Z</time>
      </trkpt>
      <trkpt lat="48.38586" lon="7.26915">
        <ele>1011.1999511719</ele>
        <time>2023-01-29T12:13:45.000Z</time>
      </trkpt>
      <trkpt lat="48.38587" lon="7.26912">
        <ele>1011.4000244141</ele>
        <time>2023-01-29T12:13:53.000Z</time>
      </trkpt>
      <trkpt lat="48.38587" lon="7.2691">
        <ele>1011.4000244141</ele>
        <time>2023-01-29T12:14:04.000Z</time>
      </trkpt>
      <trkpt lat="48.38587" lon="7.26899">
        <ele>1011.5999755859</ele>
        <time>2023-01-29T12:14:17.000Z</time>
      </trkpt>
      <trkpt lat="48.38587" lon="7.26885">
        <ele>1011.1999511719</ele>
        <time>2023-01-29T12:14:23.000Z</time>
      </trkpt>
      <trkpt lat="48.38588" lon="7.26871">
        <ele>1011.1999511719</ele>
        <time>2023-01-29T12:14:34.000Z</time>
      </trkpt>
      <trkpt lat="48.38589" lon="7.26868">
        <ele>1011.1999511719</ele>
        <time>2023-01-29T12:14:37.000Z</time>
      </trkpt>
      <trkpt lat="48.38589" lon="7.26864">
        <ele>1011</ele>
        <time>2023-01-29T12:14:40.000Z</time>
      </trkpt>
      <trkpt lat="48.3859" lon="7.26859">
        <ele>1010.8000488281</ele>
        <time>2023-01-29T12:14:42.000Z</time>
      </trkpt>
      <trkpt lat="48.38592" lon="7.26854">
        <ele>1010.5999755859</ele>
        <time>2023-01-29T12:14:45.000Z</time>
      </trkpt>
      <trkpt lat="48.38597" lon="7.26846">
        <ele>1010.4000244141</ele>
        <time>2023-01-29T12:14:52.000Z</time>
      </trkpt>
      <trkpt lat="48.38598" lon="7.26845">
        <ele>1010.1999511719</ele>
        <time>2023-01-29T12:14:54.000Z</time>
      </trkpt>
      <trkpt lat="48.386" lon="7.2684">
        <ele>1010</ele>
        <time>2023-01-29T12:14:58.000Z</time>
      </trkpt>
      <trkpt lat="48.386" lon="7.26832">
        <ele>1009.8000488281</ele>
        <time>2023-01-29T12:15:03.000Z</time>
      </trkpt>
      <trkpt lat="48.386" lon="7.2683">
        <ele>1009.8000488281</ele>
        <time>2023-01-29T12:15:04.000Z</time>
      </trkpt>
      <trkpt lat="48.386" lon="7.26826">
        <ele>1009.8000488281</ele>
        <time>2023-01-29T12:15:06.000Z</time>
      </trkpt>
      <trkpt lat="48.386" lon="7.26823">
        <ele>1010</ele>
        <time>2023-01-29T12:15:08.000Z</time>
      </trkpt>
      <trkpt lat="48.38602" lon="7.26818">
        <ele>1009.8000488281</ele>
        <time>2023-01-29T12:15:11.000Z</time>
      </trkpt>
      <trkpt lat="48.38602" lon="7.26817">
        <ele>1009.8000488281</ele>
        <time>2023-01-29T12:15:12.000Z</time>
      </trkpt>
      <trkpt lat="48.38603" lon="7.26813">
        <ele>1009.8000488281</ele>
        <time>2023-01-29T12:15:14.000Z</time>
      </trkpt>
      <trkpt lat="48.38604" lon="7.26809">
        <ele>1009.8000488281</ele>
        <time>2023-01-29T12:15:17.000Z</time>
      </trkpt>
      <trkpt lat="48.38608" lon="7.26801">
        <ele>1009.5999755859</ele>
        <time>2023-01-29T12:15:23.000Z</time>
      </trkpt>
      <trkpt lat="48.38613" lon="7.26792">
        <ele>1009.4000244141</ele>
        <time>2023-01-29T12:15:30.000Z</time>
      </trkpt>
      <trkpt lat="48.38613" lon="7.2679">
        <ele>1009.4000244141</ele>
        <time>2023-01-29T12:15:31.000Z</time>
      </trkpt>
      <trkpt lat="48.38614" lon="7.26789">
        <ele>1009.1999511719</ele>
        <time>2023-01-29T12:15:32.000Z</time>
      </trkpt>
      <trkpt lat="48.38614" lon="7.26783">
        <ele>1009.1999511719</ele>
        <time>2023-01-29T12:15:35.000Z</time>
      </trkpt>
      <trkpt lat="48.38615" lon="7.26781">
        <ele>1009.1999511719</ele>
        <time>2023-01-29T12:15:37.000Z</time>
      </trkpt>
      <trkpt lat="48.38619" lon="7.26776">
        <ele>1009</ele>
        <time>2023-01-29T12:15:41.000Z</time>
      </trkpt>
      <trkpt lat="48.3862" lon="7.26774">
        <ele>1009</ele>
        <time>2023-01-29T12:15:42.000Z</time>
      </trkpt>
      <trkpt lat="48.3862" lon="7.26773">
        <ele>1009</ele>
        <time>2023-01-29T12:15:43.000Z</time>
      </trkpt>
      <trkpt lat="48.3862" lon="7.26768">
        <ele>1008.8000488281</ele>
        <time>2023-01-29T12:15:46.000Z</time>
      </trkpt>
      <trkpt lat="48.38623" lon="7.26761">
        <ele>1008.8000488281</ele>
        <time>2023-01-29T12:15:51.000Z</time>
      </trkpt>
      <trkpt lat="48.38627" lon="7.26748">
        <ele>1008.5999755859</ele>
        <time>2023-01-29T12:15:58.000Z</time>
      </trkpt>
      <trkpt lat="48.38628" lon="7.26744">
        <ele>1008.1999511719</ele>
        <time>2023-01-29T12:16:04.000Z</time>
      </trkpt>
      <trkpt lat="48.38629" lon="7.26742">
        <ele>1008</ele>
        <time>2023-01-29T12:16:05.000Z</time>
      </trkpt>
      <trkpt lat="48.38629" lon="7.2674">
        <ele>1008</ele>
        <time>2023-01-29T12:16:06.000Z</time>
      </trkpt>
      <trkpt lat="48.3863" lon="7.26732">
        <ele>1007.8000488281</ele>
        <time>2023-01-29T12:16:12.000Z</time>
      </trkpt>
      <trkpt lat="48.38632" lon="7.26724">
        <ele>1007.5999755859</ele>
        <time>2023-01-29T12:16:19.000Z</time>
      </trkpt>
      <trkpt lat="48.38635" lon="7.26715">
        <ele>1007.4000244141</ele>
        <time>2023-01-29T12:16:25.000Z</time>
      </trkpt>
      <trkpt lat="48.38639" lon="7.26706">
        <ele>1007.4000244141</ele>
        <time>2023-01-29T12:16:32.000Z</time>
      </trkpt>
      <trkpt lat="48.38641" lon="7.26701">
        <ele>1007.4000244141</ele>
        <time>2023-01-29T12:16:37.000Z</time>
      </trkpt>
      <trkpt lat="48.38643" lon="7.26698">
        <ele>1007.5999755859</ele>
        <time>2023-01-29T12:16:39.000Z</time>
      </trkpt>
      <trkpt lat="48.38644" lon="7.26696">
        <ele>1007.4000244141</ele>
        <time>2023-01-29T12:16:40.000Z</time>
      </trkpt>
      <trkpt lat="48.38646" lon="7.26687">
        <ele>1007.1999511719</ele>
        <time>2023-01-29T12:16:46.000Z</time>
      </trkpt>
      <trkpt lat="48.38647" lon="7.26685">
        <ele>1007.1999511719</ele>
        <time>2023-01-29T12:16:48.000Z</time>
      </trkpt>
      <trkpt lat="48.38649" lon="7.26681">
        <ele>1007</ele>
        <time>2023-01-29T12:16:50.000Z</time>
      </trkpt>
      <trkpt lat="48.38649" lon="7.26678">
        <ele>1007</ele>
        <time>2023-01-29T12:16:52.000Z</time>
      </trkpt>
      <trkpt lat="48.3865" lon="7.26676">
        <ele>1006.8000488281</ele>
        <time>2023-01-29T12:16:53.000Z</time>
      </trkpt>
      <trkpt lat="48.38652" lon="7.26669">
        <ele>1006.5999755859</ele>
        <time>2023-01-29T12:16:58.000Z</time>
      </trkpt>
      <trkpt lat="48.38652" lon="7.26668">
        <ele>1006.5999755859</ele>
        <time>2023-01-29T12:16:59.000Z</time>
      </trkpt>
      <trkpt lat="48.38653" lon="7.26663">
        <ele>1006.8000488281</ele>
        <time>2023-01-29T12:17:02.000Z</time>
      </trkpt>
      <trkpt lat="48.38654" lon="7.26661">
        <ele>1006.8000488281</ele>
        <time>2023-01-29T12:17:03.000Z</time>
      </trkpt>
      <trkpt lat="48.38656" lon="7.26657">
        <ele>1006.8000488281</ele>
        <time>2023-01-29T12:17:06.000Z</time>
      </trkpt>
      <trkpt lat="48.3866" lon="7.2665">
        <ele>1006.5999755859</ele>
        <time>2023-01-29T12:17:12.000Z</time>
      </trkpt>
      <trkpt lat="48.38661" lon="7.26648">
        <ele>1006.5999755859</ele>
        <time>2023-01-29T12:17:13.000Z</time>
      </trkpt>
      <trkpt lat="48.38663" lon="7.26643">
        <ele>1006.8000488281</ele>
        <time>2023-01-29T12:17:20.000Z</time>
      </trkpt>
      <trkpt lat="48.38665" lon="7.26641">
        <ele>1007</ele>
        <time>2023-01-29T12:17:27.000Z</time>
      </trkpt>
      <trkpt lat="48.38665" lon="7.26641">
        <ele>1006.8000488281</ele>
        <time>2023-01-29T12:17:38.000Z</time>
      </trkpt>
      <trkpt lat="48.38665" lon="7.2664">
        <ele>1007</ele>
        <time>2023-01-29T12:17:49.000Z</time>
      </trkpt>
      <trkpt lat="48.38668" lon="7.26639">
        <ele>1007</ele>
        <time>2023-01-29T12:17:55.000Z</time>
      </trkpt>
      <trkpt lat="48.38668" lon="7.26639">
        <ele>1007</ele>
        <time>2023-01-29T12:17:57.000Z</time>
      </trkpt>
      <trkpt lat="48.38668" lon="7.26639">
        <ele>1007</ele>
        <time>2023-01-29T12:18:00.000Z</time>
      </trkpt>
      <trkpt lat="48.3867" lon="7.2664">
        <ele>1006.5999755859</ele>
        <time>2023-01-29T12:18:15.000Z</time>
      </trkpt>
      <trkpt lat="48.38672" lon="7.26631">
        <ele>1006.4000244141</ele>
        <time>2023-01-29T12:18:22.000Z</time>
      </trkpt>
      <trkpt lat="48.38674" lon="7.26618">
        <ele>1006.4000244141</ele>
        <time>2023-01-29T12:18:28.000Z</time>
      </trkpt>
      <trkpt lat="48.38674" lon="7.26614">
        <ele>1006.4000244141</ele>
        <time>2023-01-29T12:18:33.000Z</time>
      </trkpt>
      <trkpt lat="48.38679" lon="7.26606">
        <ele>1006.1999511719</ele>
        <time>2023-01-29T12:18:39.000Z</time>
      </trkpt>
      <trkpt lat="48.38681" lon="7.26593">
        <ele>1006.1999511719</ele>
        <time>2023-01-29T12:18:47.000Z</time>
      </trkpt>
      <trkpt lat="48.38683" lon="7.26589">
        <ele>1005.8000488281</ele>
        <time>2023-01-29T12:18:49.000Z</time>
      </trkpt>
      <trkpt lat="48.38685" lon="7.26585">
        <ele>1005.5999755859</ele>
        <time>2023-01-29T12:18:51.000Z</time>
      </trkpt>
      <trkpt lat="48.38685" lon="7.26582">
        <ele>1005.5999755859</ele>
        <time>2023-01-29T12:18:53.000Z</time>
      </trkpt>
      <trkpt lat="48.38686" lon="7.26565">
        <ele>1005.1999511719</ele>
        <time>2023-01-29T12:19:04.000Z</time>
      </trkpt>
      <trkpt lat="48.38687" lon="7.26551">
        <ele>1005</ele>
        <time>2023-01-29T12:19:12.000Z</time>
      </trkpt>
      <trkpt lat="48.38687" lon="7.26549">
        <ele>1005</ele>
        <time>2023-01-29T12:19:13.000Z</time>
      </trkpt>
      <trkpt lat="48.38689" lon="7.26541">
        <ele>1005.1999511719</ele>
        <time>2023-01-29T12:19:20.000Z</time>
      </trkpt>
      <trkpt lat="48.3869" lon="7.26538">
        <ele>1005.1999511719</ele>
        <time>2023-01-29T12:19:25.000Z</time>
      </trkpt>
      <trkpt lat="48.38691" lon="7.26537">
        <ele>1005.1999511719</ele>
        <time>2023-01-29T12:19:26.000Z</time>
      </trkpt>
      <trkpt lat="48.38691" lon="7.26537">
        <ele>1005.1999511719</ele>
        <time>2023-01-29T12:19:27.000Z</time>
      </trkpt>
      <trkpt lat="48.38691" lon="7.26537">
        <ele>1005.1999511719</ele>
        <time>2023-01-29T12:19:32.000Z</time>
      </trkpt>
      <trkpt lat="48.38691" lon="7.26537">
        <ele>1005</ele>
        <time>2023-01-29T12:19:49.000Z</time>
      </trkpt>
      <trkpt lat="48.38691" lon="7.26537">
        <ele>1005</ele>
        <time>2023-01-29T12:19:50.000Z</time>
      </trkpt>
      <trkpt lat="48.38688" lon="7.26529">
        <ele>1004.8000488281</ele>
        <time>2023-01-29T12:20:09.000Z</time>
      </trkpt>
      <trkpt lat="48.38686" lon="7.26523">
        <ele>1004.5999755859</ele>
        <time>2023-01-29T12:20:15.000Z</time>
      </trkpt>
      <trkpt lat="48.38684" lon="7.26509">
        <ele>1004.1999511719</ele>
        <time>2023-01-29T12:20:22.000Z</time>
      </trkpt>
      <trkpt lat="48.38682" lon="7.26501">
        <ele>1004.1999511719</ele>
        <time>2023-01-29T12:20:28.000Z</time>
      </trkpt>
      <trkpt lat="48.38682" lon="7.26499">
        <ele>1004.1999511719</ele>
        <time>2023-01-29T12:20:29.000Z</time>
      </trkpt>
      <trkpt lat="48.38684" lon="7.26488">
        <ele>1004.1999511719</ele>
        <time>2023-01-29T12:20:35.000Z</time>
      </trkpt>
      <trkpt lat="48.38685" lon="7.26478">
        <ele>1004</ele>
        <time>2023-01-29T12:20:39.000Z</time>
      </trkpt>
      <trkpt lat="48.38686" lon="7.26466">
        <ele>1003.5999755859</ele>
        <time>2023-01-29T12:20:44.000Z</time>
      </trkpt>
      <trkpt lat="48.38687" lon="7.26463">
        <ele>1003.5999755859</ele>
        <time>2023-01-29T12:20:46.000Z</time>
      </trkpt>
      <trkpt lat="48.38686" lon="7.26451">
        <ele>1003.4000244141</ele>
        <time>2023-01-29T12:20:50.000Z</time>
      </trkpt>
      <trkpt lat="48.38689" lon="7.26439">
        <ele>1003.1999511719</ele>
        <time>2023-01-29T12:20:57.000Z</time>
      </trkpt>
      <trkpt lat="48.38691" lon="7.26425">
        <ele>1003.1999511719</ele>
        <time>2023-01-29T12:21:04.000Z</time>
      </trkpt>
      <trkpt lat="48.38694" lon="7.26411">
        <ele>1003</ele>
        <time>2023-01-29T12:21:12.000Z</time>
      </trkpt>
      <trkpt lat="48.38695" lon="7.26402">
        <ele>1002.8000488281</ele>
        <time>2023-01-29T12:21:18.000Z</time>
      </trkpt>
      <trkpt lat="48.38695" lon="7.26397">
        <ele>1002.8000488281</ele>
        <time>2023-01-29T12:21:21.000Z</time>
      </trkpt>
      <trkpt lat="48.38695" lon="7.26393">
        <ele>1002.5999755859</ele>
        <time>2023-01-29T12:21:24.000Z</time>
      </trkpt>
      <trkpt lat="48.38695" lon="7.26376">
        <ele>1002.4000244141</ele>
        <time>2023-01-29T12:21:31.000Z</time>
      </trkpt>
      <trkpt lat="48.38692" lon="7.26364">
        <ele>1002.4000244141</ele>
        <time>2023-01-29T12:21:36.000Z</time>
      </trkpt>
      <trkpt lat="48.38691" lon="7.26361">
        <ele>1002.1999511719</ele>
        <time>2023-01-29T12:21:40.000Z</time>
      </trkpt>
      <trkpt lat="48.38691" lon="7.26354">
        <ele>1002</ele>
        <time>2023-01-29T12:21:46.000Z</time>
      </trkpt>
      <trkpt lat="48.3869" lon="7.2635">
        <ele>1002</ele>
        <time>2023-01-29T12:21:48.000Z</time>
      </trkpt>
      <trkpt lat="48.3869" lon="7.26348">
        <ele>1002</ele>
        <time>2023-01-29T12:21:49.000Z</time>
      </trkpt>
      <trkpt lat="48.38691" lon="7.26347">
        <ele>1002</ele>
        <time>2023-01-29T12:21:50.000Z</time>
      </trkpt>
      <trkpt lat="48.3869" lon="7.26343">
        <ele>1002</ele>
        <time>2023-01-29T12:21:53.000Z</time>
      </trkpt>
      <trkpt lat="48.3869" lon="7.26341">
        <ele>1002</ele>
        <time>2023-01-29T12:21:54.000Z</time>
      </trkpt>
      <trkpt lat="48.38689" lon="7.26337">
        <ele>1001.8000488281</ele>
        <time>2023-01-29T12:21:56.000Z</time>
      </trkpt>
      <trkpt lat="48.38688" lon="7.2633">
        <ele>1001.8000488281</ele>
        <time>2023-01-29T12:22:00.000Z</time>
      </trkpt>
      <trkpt lat="48.38689" lon="7.26329">
        <ele>1001.8000488281</ele>
        <time>2023-01-29T12:22:01.000Z</time>
      </trkpt>
      <trkpt lat="48.38688" lon="7.26319">
        <ele>1001.8000488281</ele>
        <time>2023-01-29T12:22:08.000Z</time>
      </trkpt>
      <trkpt lat="48.38685" lon="7.26303">
        <ele>1001.5999755859</ele>
        <time>2023-01-29T12:22:16.000Z</time>
      </trkpt>
      <trkpt lat="48.38684" lon="7.263">
        <ele>1001.5999755859</ele>
        <time>2023-01-29T12:22:18.000Z</time>
      </trkpt>
      <trkpt lat="48.38682" lon="7.26291">
        <ele>1001.4000244141</ele>
        <time>2023-01-29T12:22:23.000Z</time>
      </trkpt>
      <trkpt lat="48.38681" lon="7.2629">
        <ele>1001.4000244141</ele>
        <time>2023-01-29T12:22:24.000Z</time>
      </trkpt>
      <trkpt lat="48.3868" lon="7.26274">
        <ele>1001.1999511719</ele>
        <time>2023-01-29T12:22:32.000Z</time>
      </trkpt>
      <trkpt lat="48.38678" lon="7.26266">
        <ele>1001</ele>
        <time>2023-01-29T12:22:37.000Z</time>
      </trkpt>
      <trkpt lat="48.38677" lon="7.26261">
        <ele>1001</ele>
        <time>2023-01-29T12:22:40.000Z</time>
      </trkpt>
      <trkpt lat="48.38673" lon="7.26248">
        <ele>1000.5999755859</ele>
        <time>2023-01-29T12:22:48.000Z</time>
      </trkpt>
      <trkpt lat="48.38666" lon="7.26234">
        <ele>1000.4000244141</ele>
        <time>2023-01-29T12:22:56.000Z</time>
      </trkpt>
      <trkpt lat="48.38665" lon="7.26231">
        <ele>1000.1999511719</ele>
        <time>2023-01-29T12:22:57.000Z</time>
      </trkpt>
      <trkpt lat="48.38664" lon="7.26229">
        <ele>1000.1999511719</ele>
        <time>2023-01-29T12:22:58.000Z</time>
      </trkpt>
      <trkpt lat="48.38661" lon="7.26223">
        <ele>1000</ele>
        <time>2023-01-29T12:23:02.000Z</time>
      </trkpt>
      <trkpt lat="48.38661" lon="7.26222">
        <ele>1000</ele>
        <time>2023-01-29T12:23:04.000Z</time>
      </trkpt>
      <trkpt lat="48.3866" lon="7.26219">
        <ele>999.80004882812</ele>
        <time>2023-01-29T12:23:07.000Z</time>
      </trkpt>
      <trkpt lat="48.38657" lon="7.2621">
        <ele>999.59997558594</ele>
        <time>2023-01-29T12:23:14.000Z</time>
      </trkpt>
      <trkpt lat="48.38656" lon="7.26209">
        <ele>999.40002441406</ele>
        <time>2023-01-29T12:23:15.000Z</time>
      </trkpt>
      <trkpt lat="48.38653" lon="7.26201">
        <ele>999.40002441406</ele>
        <time>2023-01-29T12:23:21.000Z</time>
      </trkpt>
      <trkpt lat="48.38649" lon="7.26195">
        <ele>999.40002441406</ele>
        <time>2023-01-29T12:23:27.000Z</time>
      </trkpt>
      <trkpt lat="48.38642" lon="7.2619">
        <ele>999</ele>
        <time>2023-01-29T12:23:34.000Z</time>
      </trkpt>
      <trkpt lat="48.3864" lon="7.26189">
        <ele>999</ele>
        <time>2023-01-29T12:23:36.000Z</time>
      </trkpt>
      <trkpt lat="48.38636" lon="7.26176">
        <ele>998.59997558594</ele>
        <time>2023-01-29T12:23:43.000Z</time>
      </trkpt>
      <trkpt lat="48.38636" lon="7.26175">
        <ele>998.59997558594</ele>
        <time>2023-01-29T12:23:44.000Z</time>
      </trkpt>
      <trkpt lat="48.38635" lon="7.26174">
        <ele>998.59997558594</ele>
        <time>2023-01-29T12:23:45.000Z</time>
      </trkpt>
      <trkpt lat="48.38631" lon="7.2617">
        <ele>998.40002441406</ele>
        <time>2023-01-29T12:23:49.000Z</time>
      </trkpt>
      <trkpt lat="48.38628" lon="7.26167">
        <ele>998.19995117188</ele>
        <time>2023-01-29T12:23:52.000Z</time>
      </trkpt>
      <trkpt lat="48.38625" lon="7.26161">
        <ele>998.19995117188</ele>
        <time>2023-01-29T12:23:56.000Z</time>
      </trkpt>
      <trkpt lat="48.3862" lon="7.26153">
        <ele>997.80004882812</ele>
        <time>2023-01-29T12:24:01.000Z</time>
      </trkpt>
      <trkpt lat="48.38619" lon="7.26152">
        <ele>997.80004882812</ele>
        <time>2023-01-29T12:24:03.000Z</time>
      </trkpt>
      <trkpt lat="48.38613" lon="7.26144">
        <ele>997.59997558594</ele>
        <time>2023-01-29T12:24:09.000Z</time>
      </trkpt>
      <trkpt lat="48.3861" lon="7.26141">
        <ele>997.59997558594</ele>
        <time>2023-01-29T12:24:12.000Z</time>
      </trkpt>
      <trkpt lat="48.38607" lon="7.26136">
        <ele>997.59997558594</ele>
        <time>2023-01-29T12:24:15.000Z</time>
      </trkpt>
      <trkpt lat="48.38604" lon="7.26132">
        <ele>997.59997558594</ele>
        <time>2023-01-29T12:24:18.000Z</time>
      </trkpt>
      <trkpt lat="48.38606" lon="7.26127">
        <ele>997.59997558594</ele>
        <time>2023-01-29T12:24:21.000Z</time>
      </trkpt>
      <trkpt lat="48.38605" lon="7.26121">
        <ele>997.59997558594</ele>
        <time>2023-01-29T12:24:26.000Z</time>
      </trkpt>
      <trkpt lat="48.38604" lon="7.26121">
        <ele>997.59997558594</ele>
        <time>2023-01-29T12:24:27.000Z</time>
      </trkpt>
      <trkpt lat="48.38603" lon="7.26121">
        <ele>997.59997558594</ele>
        <time>2023-01-29T12:24:28.000Z</time>
      </trkpt>
      <trkpt lat="48.38601" lon="7.26118">
        <ele>997.40002441406</ele>
        <time>2023-01-29T12:24:33.000Z</time>
      </trkpt>
      <trkpt lat="48.38594" lon="7.26112">
        <ele>997</ele>
        <time>2023-01-29T12:24:41.000Z</time>
      </trkpt>
      <trkpt lat="48.38588" lon="7.26106">
        <ele>996.80004882812</ele>
        <time>2023-01-29T12:24:46.000Z</time>
      </trkpt>
      <trkpt lat="48.38587" lon="7.26104">
        <ele>996.59997558594</ele>
        <time>2023-01-29T12:24:48.000Z</time>
      </trkpt>
      <trkpt lat="48.38584" lon="7.26098">
        <ele>996.40002441406</ele>
        <time>2023-01-29T12:24:53.000Z</time>
      </trkpt>
      <trkpt lat="48.38582" lon="7.26097">
        <ele>996.40002441406</ele>
        <time>2023-01-29T12:24:54.000Z</time>
      </trkpt>
      <trkpt lat="48.38581" lon="7.26096">
        <ele>996.40002441406</ele>
        <time>2023-01-29T12:24:55.000Z</time>
      </trkpt>
      <trkpt lat="48.38576" lon="7.26095">
        <ele>996.19995117188</ele>
        <time>2023-01-29T12:24:59.000Z</time>
      </trkpt>
      <trkpt lat="48.38574" lon="7.26095">
        <ele>996.19995117188</ele>
        <time>2023-01-29T12:25:00.000Z</time>
      </trkpt>
      <trkpt lat="48.3857" lon="7.26094">
        <ele>995.80004882812</ele>
        <time>2023-01-29T12:25:05.000Z</time>
      </trkpt>
      <trkpt lat="48.38569" lon="7.26093">
        <ele>995.59997558594</ele>
        <time>2023-01-29T12:25:06.000Z</time>
      </trkpt>
      <trkpt lat="48.38567" lon="7.26091">
        <ele>995.40002441406</ele>
        <time>2023-01-29T12:25:08.000Z</time>
      </trkpt>
      <trkpt lat="48.38564" lon="7.26087">
        <ele>995.19995117188</ele>
        <time>2023-01-29T12:25:12.000Z</time>
      </trkpt>
      <trkpt lat="48.38558" lon="7.26084">
        <ele>994.80004882812</ele>
        <time>2023-01-29T12:25:17.000Z</time>
      </trkpt>
      <trkpt lat="48.38556" lon="7.26082">
        <ele>994.59997558594</ele>
        <time>2023-01-29T12:25:19.000Z</time>
      </trkpt>
      <trkpt lat="48.38554" lon="7.2608">
        <ele>994.59997558594</ele>
        <time>2023-01-29T12:25:21.000Z</time>
      </trkpt>
      <trkpt lat="48.38546" lon="7.26077">
        <ele>994</ele>
        <time>2023-01-29T12:25:29.000Z</time>
      </trkpt>
      <trkpt lat="48.38541" lon="7.26076">
        <ele>993.59997558594</ele>
        <time>2023-01-29T12:25:34.000Z</time>
      </trkpt>
      <trkpt lat="48.38535" lon="7.26073">
        <ele>993.19995117188</ele>
        <time>2023-01-29T12:25:40.000Z</time>
      </trkpt>
      <trkpt lat="48.38532" lon="7.26069">
        <ele>993</ele>
        <time>2023-01-29T12:25:43.000Z</time>
      </trkpt>
      <trkpt lat="48.38532" lon="7.26068">
        <ele>993</ele>
        <time>2023-01-29T12:25:44.000Z</time>
      </trkpt>
      <trkpt lat="48.38531" lon="7.26068">
        <ele>993</ele>
        <time>2023-01-29T12:25:45.000Z</time>
      </trkpt>
      <trkpt lat="48.3853" lon="7.26067">
        <ele>993</ele>
        <time>2023-01-29T12:25:46.000Z</time>
      </trkpt>
      <trkpt lat="48.38521" lon="7.26066">
        <ele>992.59997558594</ele>
        <time>2023-01-29T12:25:52.000Z</time>
      </trkpt>
      <trkpt lat="48.38512" lon="7.26063">
        <ele>992.19995117188</ele>
        <time>2023-01-29T12:25:59.000Z</time>
      </trkpt>
      <trkpt lat="48.38506" lon="7.26061">
        <ele>991.80004882812</ele>
        <time>2023-01-29T12:26:05.000Z</time>
      </trkpt>
      <trkpt lat="48.38503" lon="7.26059">
        <ele>991.59997558594</ele>
        <time>2023-01-29T12:26:07.000Z</time>
      </trkpt>
      <trkpt lat="48.38496" lon="7.26055">
        <ele>991</ele>
        <time>2023-01-29T12:26:13.000Z</time>
      </trkpt>
      <trkpt lat="48.38492" lon="7.26048">
        <ele>990.80004882812</ele>
        <time>2023-01-29T12:26:19.000Z</time>
      </trkpt>
      <trkpt lat="48.3849" lon="7.26048">
        <ele>990.80004882812</ele>
        <time>2023-01-29T12:26:20.000Z</time>
      </trkpt>
      <trkpt lat="48.38488" lon="7.26048">
        <ele>990.59997558594</ele>
        <time>2023-01-29T12:26:21.000Z</time>
      </trkpt>
      <trkpt lat="48.3848" lon="7.26043">
        <ele>990.19995117188</ele>
        <time>2023-01-29T12:26:28.000Z</time>
      </trkpt>
      <trkpt lat="48.38474" lon="7.26037">
        <ele>990</ele>
        <time>2023-01-29T12:26:34.000Z</time>
      </trkpt>
      <trkpt lat="48.38473" lon="7.26036">
        <ele>989.80004882812</ele>
        <time>2023-01-29T12:26:35.000Z</time>
      </trkpt>
      <trkpt lat="48.38471" lon="7.26035">
        <ele>989.80004882812</ele>
        <time>2023-01-29T12:26:36.000Z</time>
      </trkpt>
      <trkpt lat="48.38469" lon="7.26034">
        <ele>989.40002441406</ele>
        <time>2023-01-29T12:26:38.000Z</time>
      </trkpt>
      <trkpt lat="48.38464" lon="7.26029">
        <ele>989.19995117188</ele>
        <time>2023-01-29T12:26:41.000Z</time>
      </trkpt>
      <trkpt lat="48.38459" lon="7.26028">
        <ele>989</ele>
        <time>2023-01-29T12:26:44.000Z</time>
      </trkpt>
      <trkpt lat="48.38454" lon="7.26026">
        <ele>988.80004882812</ele>
        <time>2023-01-29T12:26:48.000Z</time>
      </trkpt>
      <trkpt lat="48.38452" lon="7.26024">
        <ele>988.40002441406</ele>
        <time>2023-01-29T12:26:50.000Z</time>
      </trkpt>
      <trkpt lat="48.38446" lon="7.2602">
        <ele>988</ele>
        <time>2023-01-29T12:26:55.000Z</time>
      </trkpt>
      <trkpt lat="48.38443" lon="7.26014">
        <ele>987.59997558594</ele>
        <time>2023-01-29T12:27:01.000Z</time>
      </trkpt>
      <trkpt lat="48.38439" lon="7.26012">
        <ele>987.40002441406</ele>
        <time>2023-01-29T12:27:04.000Z</time>
      </trkpt>
      <trkpt lat="48.38438" lon="7.26011">
        <ele>987.40002441406</ele>
        <time>2023-01-29T12:27:05.000Z</time>
      </trkpt>
      <trkpt lat="48.38437" lon="7.2601">
        <ele>987.19995117188</ele>
        <time>2023-01-29T12:27:06.000Z</time>
      </trkpt>
      <trkpt lat="48.38435" lon="7.26009">
        <ele>987</ele>
        <time>2023-01-29T12:27:08.000Z</time>
      </trkpt>
      <trkpt lat="48.38434" lon="7.26008">
        <ele>987</ele>
        <time>2023-01-29T12:27:09.000Z</time>
      </trkpt>
      <trkpt lat="48.38432" lon="7.26005">
        <ele>986.80004882812</ele>
        <time>2023-01-29T12:27:11.000Z</time>
      </trkpt>
      <trkpt lat="48.38429" lon="7.26002">
        <ele>986.59997558594</ele>
        <time>2023-01-29T12:27:14.000Z</time>
      </trkpt>
      <trkpt lat="48.38422" lon="7.25992">
        <ele>986.40002441406</ele>
        <time>2023-01-29T12:27:19.000Z</time>
      </trkpt>
      <trkpt lat="48.3842" lon="7.25989">
        <ele>986.19995117188</ele>
        <time>2023-01-29T12:27:21.000Z</time>
      </trkpt>
      <trkpt lat="48.38411" lon="7.25979">
        <ele>985.59997558594</ele>
        <time>2023-01-29T12:27:29.000Z</time>
      </trkpt>
      <trkpt lat="48.38408" lon="7.25976">
        <ele>985.19995117188</ele>
        <time>2023-01-29T12:27:32.000Z</time>
      </trkpt>
      <trkpt lat="48.38407" lon="7.25973">
        <ele>985</ele>
        <time>2023-01-29T12:27:34.000Z</time>
      </trkpt>
      <trkpt lat="48.38406" lon="7.25972">
        <ele>985</ele>
        <time>2023-01-29T12:27:35.000Z</time>
      </trkpt>
      <trkpt lat="48.38405" lon="7.25971">
        <ele>985</ele>
        <time>2023-01-29T12:27:36.000Z</time>
      </trkpt>
      <trkpt lat="48.38404" lon="7.25969">
        <ele>984.80004882812</ele>
        <time>2023-01-29T12:27:37.000Z</time>
      </trkpt>
      <trkpt lat="48.38397" lon="7.25959">
        <ele>984.40002441406</ele>
        <time>2023-01-29T12:27:44.000Z</time>
      </trkpt>
      <trkpt lat="48.38396" lon="7.25958">
        <ele>984.40002441406</ele>
        <time>2023-01-29T12:27:45.000Z</time>
      </trkpt>
      <trkpt lat="48.38395" lon="7.25955">
        <ele>984.19995117188</ele>
        <time>2023-01-29T12:27:47.000Z</time>
      </trkpt>
      <trkpt lat="48.38393" lon="7.25951">
        <ele>983.80004882812</ele>
        <time>2023-01-29T12:27:50.000Z</time>
      </trkpt>
      <trkpt lat="48.38391" lon="7.25943">
        <ele>983</ele>
        <time>2023-01-29T12:27:55.000Z</time>
      </trkpt>
      <trkpt lat="48.38389" lon="7.2594">
        <ele>982.59997558594</ele>
        <time>2023-01-29T12:27:57.000Z</time>
      </trkpt>
      <trkpt lat="48.38382" lon="7.25933">
        <ele>982</ele>
        <time>2023-01-29T12:28:02.000Z</time>
      </trkpt>
      <trkpt lat="48.38379" lon="7.25926">
        <ele>981.59997558594</ele>
        <time>2023-01-29T12:28:06.000Z</time>
      </trkpt>
      <trkpt lat="48.38377" lon="7.2592">
        <ele>981.19995117188</ele>
        <time>2023-01-29T12:28:09.000Z</time>
      </trkpt>
      <trkpt lat="48.38372" lon="7.25912">
        <ele>981</ele>
        <time>2023-01-29T12:28:13.000Z</time>
      </trkpt>
      <trkpt lat="48.3837" lon="7.25911">
        <ele>981</ele>
        <time>2023-01-29T12:28:14.000Z</time>
      </trkpt>
      <trkpt lat="48.38369" lon="7.25906">
        <ele>980.59997558594</ele>
        <time>2023-01-29T12:28:16.000Z</time>
      </trkpt>
      <trkpt lat="48.38367" lon="7.25901">
        <ele>980.40002441406</ele>
        <time>2023-01-29T12:28:19.000Z</time>
      </trkpt>
      <trkpt lat="48.38365" lon="7.25897">
        <ele>980.19995117188</ele>
        <time>2023-01-29T12:28:21.000Z</time>
      </trkpt>
      <trkpt lat="48.38364" lon="7.25894">
        <ele>980</ele>
        <time>2023-01-29T12:28:23.000Z</time>
      </trkpt>
      <trkpt lat="48.3836" lon="7.25887">
        <ele>979.80004882812</ele>
        <time>2023-01-29T12:28:26.000Z</time>
      </trkpt>
      <trkpt lat="48.3836" lon="7.25883">
        <ele>979.59997558594</ele>
        <time>2023-01-29T12:28:28.000Z</time>
      </trkpt>
      <trkpt lat="48.3836" lon="7.25873">
        <ele>978.80004882812</ele>
        <time>2023-01-29T12:28:33.000Z</time>
      </trkpt>
      <trkpt lat="48.3836" lon="7.25871">
        <ele>978.40002441406</ele>
        <time>2023-01-29T12:28:35.000Z</time>
      </trkpt>
      <trkpt lat="48.3836" lon="7.2587">
        <ele>978.40002441406</ele>
        <time>2023-01-29T12:28:36.000Z</time>
      </trkpt>
      <trkpt lat="48.38361" lon="7.25861">
        <ele>977.59997558594</ele>
        <time>2023-01-29T12:28:43.000Z</time>
      </trkpt>
      <trkpt lat="48.38361" lon="7.25859">
        <ele>977.40002441406</ele>
        <time>2023-01-29T12:28:44.000Z</time>
      </trkpt>
      <trkpt lat="48.3836" lon="7.25852">
        <ele>976.80004882812</ele>
        <time>2023-01-29T12:28:48.000Z</time>
      </trkpt>
      <trkpt lat="48.3836" lon="7.2585">
        <ele>976.80004882812</ele>
        <time>2023-01-29T12:28:49.000Z</time>
      </trkpt>
      <trkpt lat="48.38361" lon="7.25846">
        <ele>976.59997558594</ele>
        <time>2023-01-29T12:28:51.000Z</time>
      </trkpt>
      <trkpt lat="48.3836" lon="7.25844">
        <ele>976.40002441406</ele>
        <time>2023-01-29T12:28:52.000Z</time>
      </trkpt>
      <trkpt lat="48.3836" lon="7.25843">
        <ele>976.19995117188</ele>
        <time>2023-01-29T12:28:53.000Z</time>
      </trkpt>
      <trkpt lat="48.3836" lon="7.25842">
        <ele>976</ele>
        <time>2023-01-29T12:28:54.000Z</time>
      </trkpt>
      <trkpt lat="48.38358" lon="7.25838">
        <ele>975.80004882812</ele>
        <time>2023-01-29T12:28:56.000Z</time>
      </trkpt>
      <trkpt lat="48.38357" lon="7.25836">
        <ele>975.40002441406</ele>
        <time>2023-01-29T12:28:57.000Z</time>
      </trkpt>
      <trkpt lat="48.38357" lon="7.25834">
        <ele>975.19995117188</ele>
        <time>2023-01-29T12:28:58.000Z</time>
      </trkpt>
      <trkpt lat="48.38357" lon="7.25824">
        <ele>974.40002441406</ele>
        <time>2023-01-29T12:29:04.000Z</time>
      </trkpt>
      <trkpt lat="48.38357" lon="7.25819">
        <ele>974</ele>
        <time>2023-01-29T12:29:07.000Z</time>
      </trkpt>
      <trkpt lat="48.38357" lon="7.25811">
        <ele>973.40002441406</ele>
        <time>2023-01-29T12:29:12.000Z</time>
      </trkpt>
      <trkpt lat="48.38357" lon="7.25806">
        <ele>973</ele>
        <time>2023-01-29T12:29:15.000Z</time>
      </trkpt>
      <trkpt lat="48.3836" lon="7.25798">
        <ele>972.19995117188</ele>
        <time>2023-01-29T12:29:20.000Z</time>
      </trkpt>
      <trkpt lat="48.38359" lon="7.25794">
        <ele>972</ele>
        <time>2023-01-29T12:29:23.000Z</time>
      </trkpt>
      <trkpt lat="48.38354" lon="7.2579">
        <ele>971.80004882812</ele>
        <time>2023-01-29T12:29:30.000Z</time>
      </trkpt>
      <trkpt lat="48.38351" lon="7.25784">
        <ele>971.59997558594</ele>
        <time>2023-01-29T12:29:35.000Z</time>
      </trkpt>
      <trkpt lat="48.38351" lon="7.2578">
        <ele>971.40002441406</ele>
        <time>2023-01-29T12:29:39.000Z</time>
      </trkpt>
      <trkpt lat="48.38351" lon="7.25778">
        <ele>971.19995117188</ele>
        <time>2023-01-29T12:29:41.000Z</time>
      </trkpt>
      <trkpt lat="48.38352" lon="7.25773">
        <ele>971.19995117188</ele>
        <time>2023-01-29T12:29:46.000Z</time>
      </trkpt>
      <trkpt lat="48.38352" lon="7.25763">
        <ele>971.59997558594</ele>
        <time>2023-01-29T12:29:52.000Z</time>
      </trkpt>
      <trkpt lat="48.38351" lon="7.25762">
        <ele>971.59997558594</ele>
        <time>2023-01-29T12:29:53.000Z</time>
      </trkpt>
      <trkpt lat="48.38351" lon="7.25762">
        <ele>971.59997558594</ele>
        <time>2023-01-29T12:29:54.000Z</time>
      </trkpt>
      <trkpt lat="48.3835" lon="7.25761">
        <ele>971.59997558594</ele>
        <time>2023-01-29T12:29:55.000Z</time>
      </trkpt>
      <trkpt lat="48.38347" lon="7.25761">
        <ele>971.40002441406</ele>
        <time>2023-01-29T12:30:00.000Z</time>
      </trkpt>
      <trkpt lat="48.38342" lon="7.25765">
        <ele>970.80004882812</ele>
        <time>2023-01-29T12:30:07.000Z</time>
      </trkpt>
      <trkpt lat="48.38341" lon="7.25765">
        <ele>970.80004882812</ele>
        <time>2023-01-29T12:30:09.000Z</time>
      </trkpt>
      <trkpt lat="48.38342" lon="7.25766">
        <ele>970.80004882812</ele>
        <time>2023-01-29T12:30:12.000Z</time>
      </trkpt>
      <trkpt lat="48.38342" lon="7.25771">
        <ele>970.59997558594</ele>
        <time>2023-01-29T12:30:15.000Z</time>
      </trkpt>
      <trkpt lat="48.38341" lon="7.25781">
        <ele>970.19995117188</ele>
        <time>2023-01-29T12:30:20.000Z</time>
      </trkpt>
      <trkpt lat="48.38341" lon="7.25785">
        <ele>970</ele>
        <time>2023-01-29T12:30:23.000Z</time>
      </trkpt>
      <trkpt lat="48.3834" lon="7.25792">
        <ele>969.40002441406</ele>
        <time>2023-01-29T12:30:28.000Z</time>
      </trkpt>
      <trkpt lat="48.38339" lon="7.25796">
        <ele>969</ele>
        <time>2023-01-29T12:30:31.000Z</time>
      </trkpt>
      <trkpt lat="48.38336" lon="7.258">
        <ele>968.80004882812</ele>
        <time>2023-01-29T12:30:34.000Z</time>
      </trkpt>
      <trkpt lat="48.38334" lon="7.25801">
        <ele>968.80004882812</ele>
        <time>2023-01-29T12:30:35.000Z</time>
      </trkpt>
      <trkpt lat="48.38331" lon="7.258">
        <ele>968.59997558594</ele>
        <time>2023-01-29T12:30:38.000Z</time>
      </trkpt>
      <trkpt lat="48.38327" lon="7.258">
        <ele>968.40002441406</ele>
        <time>2023-01-29T12:30:45.000Z</time>
      </trkpt>
      <trkpt lat="48.38326" lon="7.25797">
        <ele>968.19995117188</ele>
        <time>2023-01-29T12:30:53.000Z</time>
      </trkpt>
      <trkpt lat="48.38326" lon="7.25797">
        <ele>968.40002441406</ele>
        <time>2023-01-29T12:31:00.000Z</time>
      </trkpt>
      <trkpt lat="48.38326" lon="7.25797">
        <ele>968</ele>
        <time>2023-01-29T12:31:05.000Z</time>
      </trkpt>
      <trkpt lat="48.38323" lon="7.25802">
        <ele>968</ele>
        <time>2023-01-29T12:31:09.000Z</time>
      </trkpt>
      <trkpt lat="48.38321" lon="7.25805">
        <ele>968.19995117188</ele>
        <time>2023-01-29T12:31:17.000Z</time>
      </trkpt>
      <trkpt lat="48.38322" lon="7.25811">
        <ele>967.59997558594</ele>
        <time>2023-01-29T12:31:22.000Z</time>
      </trkpt>
      <trkpt lat="48.3832" lon="7.25816">
        <ele>967.40002441406</ele>
        <time>2023-01-29T12:31:28.000Z</time>
      </trkpt>
      <trkpt lat="48.38315" lon="7.25823">
        <ele>967</ele>
        <time>2023-01-29T12:31:34.000Z</time>
      </trkpt>
      <trkpt lat="48.38314" lon="7.25824">
        <ele>967</ele>
        <time>2023-01-29T12:31:35.000Z</time>
      </trkpt>
      <trkpt lat="48.38307" lon="7.2583">
        <ele>966.59997558594</ele>
        <time>2023-01-29T12:31:41.000Z</time>
      </trkpt>
      <trkpt lat="48.38298" lon="7.25837">
        <ele>966.19995117188</ele>
        <time>2023-01-29T12:31:50.000Z</time>
      </trkpt>
      <trkpt lat="48.38298" lon="7.25837">
        <ele>966</ele>
        <time>2023-01-29T12:31:55.000Z</time>
      </trkpt>
      <trkpt lat="48.38298" lon="7.25837">
        <ele>966</ele>
        <time>2023-01-29T12:31:56.000Z</time>
      </trkpt>
      <trkpt lat="48.383" lon="7.25837">
        <ele>965.80004882812</ele>
        <time>2023-01-29T12:32:03.000Z</time>
      </trkpt>
      <trkpt lat="48.383" lon="7.25837">
        <ele>965.80004882812</ele>
        <time>2023-01-29T12:32:04.000Z</time>
      </trkpt>
      <trkpt lat="48.38301" lon="7.25838">
        <ele>966</ele>
        <time>2023-01-29T12:32:19.000Z</time>
      </trkpt>
      <trkpt lat="48.38303" lon="7.25838">
        <ele>966</ele>
        <time>2023-01-29T12:32:24.000Z</time>
      </trkpt>
      <trkpt lat="48.38299" lon="7.25841">
        <ele>966</ele>
        <time>2023-01-29T12:32:38.000Z</time>
      </trkpt>
      <trkpt lat="48.38297" lon="7.25846">
        <ele>966</ele>
        <time>2023-01-29T12:32:42.000Z</time>
      </trkpt>
      <trkpt lat="48.38295" lon="7.25852">
        <ele>965.59997558594</ele>
        <time>2023-01-29T12:32:46.000Z</time>
      </trkpt>
      <trkpt lat="48.38291" lon="7.25859">
        <ele>965.19995117188</ele>
        <time>2023-01-29T12:32:52.000Z</time>
      </trkpt>
      <trkpt lat="48.38287" lon="7.25863">
        <ele>965</ele>
        <time>2023-01-29T12:32:57.000Z</time>
      </trkpt>
      <trkpt lat="48.38286" lon="7.25864">
        <ele>965</ele>
        <time>2023-01-29T12:32:58.000Z</time>
      </trkpt>
      <trkpt lat="48.38285" lon="7.25867">
        <ele>964.59997558594</ele>
        <time>2023-01-29T12:33:00.000Z</time>
      </trkpt>
      <trkpt lat="48.3828" lon="7.25876">
        <ele>964.59997558594</ele>
        <time>2023-01-29T12:33:05.000Z</time>
      </trkpt>
      <trkpt lat="48.38278" lon="7.25879">
        <ele>964.59997558594</ele>
        <time>2023-01-29T12:33:07.000Z</time>
      </trkpt>
      <trkpt lat="48.38271" lon="7.25878">
        <ele>964.59997558594</ele>
        <time>2023-01-29T12:33:13.000Z</time>
      </trkpt>
      <trkpt lat="48.38265" lon="7.25881">
        <ele>964.40002441406</ele>
        <time>2023-01-29T12:33:18.000Z</time>
      </trkpt>
      <trkpt lat="48.38264" lon="7.25882">
        <ele>964.19995117188</ele>
        <time>2023-01-29T12:33:19.000Z</time>
      </trkpt>
      <trkpt lat="48.3826" lon="7.25883">
        <ele>964.19995117188</ele>
        <time>2023-01-29T12:33:23.000Z</time>
      </trkpt>
      <trkpt lat="48.38259" lon="7.25883">
        <ele>964.19995117188</ele>
        <time>2023-01-29T12:33:25.000Z</time>
      </trkpt>
      <trkpt lat="48.38258" lon="7.25883">
        <ele>964.19995117188</ele>
        <time>2023-01-29T12:33:26.000Z</time>
      </trkpt>
      <trkpt lat="48.38255" lon="7.25883">
        <ele>963.80004882812</ele>
        <time>2023-01-29T12:33:28.000Z</time>
      </trkpt>
      <trkpt lat="48.38248" lon="7.25886">
        <ele>963.59997558594</ele>
        <time>2023-01-29T12:33:34.000Z</time>
      </trkpt>
      <trkpt lat="48.38248" lon="7.25886">
        <ele>963.59997558594</ele>
        <time>2023-01-29T12:33:36.000Z</time>
      </trkpt>
      <trkpt lat="48.38248" lon="7.25887">
        <ele>963.59997558594</ele>
        <time>2023-01-29T12:33:37.000Z</time>
      </trkpt>
      <trkpt lat="48.38247" lon="7.25886">
        <ele>963.40002441406</ele>
        <time>2023-01-29T12:33:41.000Z</time>
      </trkpt>
      <trkpt lat="48.38247" lon="7.25881">
        <ele>963.40002441406</ele>
        <time>2023-01-29T12:33:46.000Z</time>
      </trkpt>
      <trkpt lat="48.38247" lon="7.25881">
        <ele>963.19995117188</ele>
        <time>2023-01-29T12:33:54.000Z</time>
      </trkpt>
      <trkpt lat="48.38247" lon="7.25881">
        <ele>963.19995117188</ele>
        <time>2023-01-29T12:34:00.000Z</time>
      </trkpt>
      <trkpt lat="48.38245" lon="7.2588">
        <ele>963.40002441406</ele>
        <time>2023-01-29T12:34:09.000Z</time>
      </trkpt>
      <trkpt lat="48.38244" lon="7.25879">
        <ele>963.19995117188</ele>
        <time>2023-01-29T12:34:14.000Z</time>
      </trkpt>
      <trkpt lat="48.3824" lon="7.25879">
        <ele>963</ele>
        <time>2023-01-29T12:34:19.000Z</time>
      </trkpt>
      <trkpt lat="48.38229" lon="7.25882">
        <ele>962.80004882812</ele>
        <time>2023-01-29T12:34:26.000Z</time>
      </trkpt>
      <trkpt lat="48.38229" lon="7.25879">
        <ele>962.59997558594</ele>
        <time>2023-01-29T12:34:32.000Z</time>
      </trkpt>
      <trkpt lat="48.38229" lon="7.25878">
        <ele>962.59997558594</ele>
        <time>2023-01-29T12:34:38.000Z</time>
      </trkpt>
      <trkpt lat="48.38226" lon="7.25878">
        <ele>962.40002441406</ele>
        <time>2023-01-29T12:34:40.000Z</time>
      </trkpt>
      <trkpt lat="48.3822" lon="7.25876">
        <ele>962.40002441406</ele>
        <time>2023-01-29T12:34:45.000Z</time>
      </trkpt>
      <trkpt lat="48.38206" lon="7.25879">
        <ele>962.19995117188</ele>
        <time>2023-01-29T12:34:52.000Z</time>
      </trkpt>
      <trkpt lat="48.38201" lon="7.25875">
        <ele>962.40002441406</ele>
        <time>2023-01-29T12:34:58.000Z</time>
      </trkpt>
      <trkpt lat="48.38198" lon="7.2587">
        <ele>962.40002441406</ele>
        <time>2023-01-29T12:35:04.000Z</time>
      </trkpt>
      <trkpt lat="48.38199" lon="7.25868">
        <ele>962.19995117188</ele>
        <time>2023-01-29T12:35:10.000Z</time>
      </trkpt>
      <trkpt lat="48.38199" lon="7.25868">
        <ele>962.40002441406</ele>
        <time>2023-01-29T12:35:13.000Z</time>
      </trkpt>
      <trkpt lat="48.38199" lon="7.25867">
        <ele>962.59997558594</ele>
        <time>2023-01-29T12:35:23.000Z</time>
      </trkpt>
      <trkpt lat="48.38197" lon="7.25867">
        <ele>962.40002441406</ele>
        <time>2023-01-29T12:35:40.000Z</time>
      </trkpt>
      <trkpt lat="48.38193" lon="7.25866">
        <ele>962.40002441406</ele>
        <time>2023-01-29T12:35:43.000Z</time>
      </trkpt>
      <trkpt lat="48.38183" lon="7.25861">
        <ele>962</ele>
        <time>2023-01-29T12:35:51.000Z</time>
      </trkpt>
      <trkpt lat="48.38182" lon="7.25859">
        <ele>962.19995117188</ele>
        <time>2023-01-29T12:35:57.000Z</time>
      </trkpt>
      <trkpt lat="48.38181" lon="7.25859">
        <ele>962.19995117188</ele>
        <time>2023-01-29T12:36:06.000Z</time>
      </trkpt>
      <trkpt lat="48.38181" lon="7.2586">
        <ele>962.19995117188</ele>
        <time>2023-01-29T12:36:24.000Z</time>
      </trkpt>
      <trkpt lat="48.38173" lon="7.25858">
        <ele>962.19995117188</ele>
        <time>2023-01-29T12:36:31.000Z</time>
      </trkpt>
      <trkpt lat="48.38167" lon="7.25859">
        <ele>962.19995117188</ele>
        <time>2023-01-29T12:36:35.000Z</time>
      </trkpt>
      <trkpt lat="48.38164" lon="7.25857">
        <ele>962.19995117188</ele>
        <time>2023-01-29T12:36:37.000Z</time>
      </trkpt>
      <trkpt lat="48.38151" lon="7.2585">
        <ele>962.59997558594</ele>
        <time>2023-01-29T12:36:47.000Z</time>
      </trkpt>
      <trkpt lat="48.38142" lon="7.25848">
        <ele>962.80004882812</ele>
        <time>2023-01-29T12:36:53.000Z</time>
      </trkpt>
      <trkpt lat="48.38136" lon="7.25842">
        <ele>963</ele>
        <time>2023-01-29T12:37:00.000Z</time>
      </trkpt>
      <trkpt lat="48.38134" lon="7.25841">
        <ele>963</ele>
        <time>2023-01-29T12:37:02.000Z</time>
      </trkpt>
      <trkpt lat="48.38129" lon="7.25836">
        <ele>963.19995117188</ele>
        <time>2023-01-29T12:37:07.000Z</time>
      </trkpt>
      <trkpt lat="48.38124" lon="7.25831">
        <ele>963.40002441406</ele>
        <time>2023-01-29T12:37:10.000Z</time>
      </trkpt>
      <trkpt lat="48.38119" lon="7.25824">
        <ele>963.40002441406</ele>
        <time>2023-01-29T12:37:13.000Z</time>
      </trkpt>
      <trkpt lat="48.38118" lon="7.2582">
        <ele>963.40002441406</ele>
        <time>2023-01-29T12:37:20.000Z</time>
      </trkpt>
      <trkpt lat="48.38115" lon="7.25815">
        <ele>963.40002441406</ele>
        <time>2023-01-29T12:37:27.000Z</time>
      </trkpt>
      <trkpt lat="48.38113" lon="7.25813">
        <ele>963.40002441406</ele>
        <time>2023-01-29T12:37:29.000Z</time>
      </trkpt>
      <trkpt lat="48.38107" lon="7.25807">
        <ele>963.40002441406</ele>
        <time>2023-01-29T12:37:35.000Z</time>
      </trkpt>
      <trkpt lat="48.38105" lon="7.25804">
        <ele>963.40002441406</ele>
        <time>2023-01-29T12:37:39.000Z</time>
      </trkpt>
      <trkpt lat="48.381" lon="7.25799">
        <ele>963.59997558594</ele>
        <time>2023-01-29T12:37:44.000Z</time>
      </trkpt>
      <trkpt lat="48.38096" lon="7.25784">
        <ele>963.40002441406</ele>
        <time>2023-01-29T12:37:53.000Z</time>
      </trkpt>
      <trkpt lat="48.38093" lon="7.25778">
        <ele>963.40002441406</ele>
        <time>2023-01-29T12:37:58.000Z</time>
      </trkpt>
      <trkpt lat="48.38092" lon="7.25773">
        <ele>963.40002441406</ele>
        <time>2023-01-29T12:38:01.000Z</time>
      </trkpt>
      <trkpt lat="48.38092" lon="7.25771">
        <ele>963.40002441406</ele>
        <time>2023-01-29T12:38:02.000Z</time>
      </trkpt>
      <trkpt lat="48.38093" lon="7.25766">
        <ele>963.80004882812</ele>
        <time>2023-01-29T12:38:06.000Z</time>
      </trkpt>
      <trkpt lat="48.38093" lon="7.25766">
        <ele>963.80004882812</ele>
        <time>2023-01-29T12:38:08.000Z</time>
      </trkpt>
      <trkpt lat="48.3809" lon="7.25761">
        <ele>963.80004882812</ele>
        <time>2023-01-29T12:38:15.000Z</time>
      </trkpt>
      <trkpt lat="48.38087" lon="7.25758">
        <ele>963.80004882812</ele>
        <time>2023-01-29T12:38:21.000Z</time>
      </trkpt>
      <trkpt lat="48.38086" lon="7.25754">
        <ele>963.80004882812</ele>
        <time>2023-01-29T12:38:26.000Z</time>
      </trkpt>
      <trkpt lat="48.38084" lon="7.2575">
        <ele>963.80004882812</ele>
        <time>2023-01-29T12:38:29.000Z</time>
      </trkpt>
      <trkpt lat="48.38077" lon="7.25744">
        <ele>963.59997558594</ele>
        <time>2023-01-29T12:38:36.000Z</time>
      </trkpt>
      <trkpt lat="48.38073" lon="7.2574">
        <ele>963.40002441406</ele>
        <time>2023-01-29T12:38:40.000Z</time>
      </trkpt>
      <trkpt lat="48.38066" lon="7.25731">
        <ele>963.59997558594</ele>
        <time>2023-01-29T12:38:46.000Z</time>
      </trkpt>
      <trkpt lat="48.38065" lon="7.2573">
        <ele>963.40002441406</ele>
        <time>2023-01-29T12:38:47.000Z</time>
      </trkpt>
      <trkpt lat="48.38061" lon="7.25717">
        <ele>963.40002441406</ele>
        <time>2023-01-29T12:38:54.000Z</time>
      </trkpt>
      <trkpt lat="48.38052" lon="7.25703">
        <ele>963.19995117188</ele>
        <time>2023-01-29T12:39:05.000Z</time>
      </trkpt>
      <trkpt lat="48.38052" lon="7.25701">
        <ele>963.40002441406</ele>
        <time>2023-01-29T12:39:12.000Z</time>
      </trkpt>
      <trkpt lat="48.38047" lon="7.25696">
        <ele>963.19995117188</ele>
        <time>2023-01-29T12:39:17.000Z</time>
      </trkpt>
      <trkpt lat="48.38045" lon="7.25693">
        <ele>963</ele>
        <time>2023-01-29T12:39:20.000Z</time>
      </trkpt>
      <trkpt lat="48.3804" lon="7.25684">
        <ele>962.80004882812</ele>
        <time>2023-01-29T12:39:27.000Z</time>
      </trkpt>
      <trkpt lat="48.38036" lon="7.25678">
        <ele>962.40002441406</ele>
        <time>2023-01-29T12:39:33.000Z</time>
      </trkpt>
      <trkpt lat="48.38029" lon="7.2567">
        <ele>962</ele>
        <time>2023-01-29T12:39:40.000Z</time>
      </trkpt>
      <trkpt lat="48.38027" lon="7.25667">
        <ele>962</ele>
        <time>2023-01-29T12:39:42.000Z</time>
      </trkpt>
      <trkpt lat="48.38027" lon="7.25664">
        <ele>961.80004882812</ele>
        <time>2023-01-29T12:39:43.000Z</time>
      </trkpt>
      <trkpt lat="48.38023" lon="7.25656">
        <ele>961.40002441406</ele>
        <time>2023-01-29T12:39:47.000Z</time>
      </trkpt>
      <trkpt lat="48.38022" lon="7.25653">
        <ele>961.19995117188</ele>
        <time>2023-01-29T12:39:49.000Z</time>
      </trkpt>
      <trkpt lat="48.38021" lon="7.25651">
        <ele>961</ele>
        <time>2023-01-29T12:39:50.000Z</time>
      </trkpt>
      <trkpt lat="48.38019" lon="7.25649">
        <ele>961</ele>
        <time>2023-01-29T12:39:52.000Z</time>
      </trkpt>
      <trkpt lat="48.38017" lon="7.25647">
        <ele>960.80004882812</ele>
        <time>2023-01-29T12:39:54.000Z</time>
      </trkpt>
      <trkpt lat="48.38015" lon="7.25645">
        <ele>960.59997558594</ele>
        <time>2023-01-29T12:39:57.000Z</time>
      </trkpt>
      <trkpt lat="48.38013" lon="7.25641">
        <ele>960.40002441406</ele>
        <time>2023-01-29T12:40:01.000Z</time>
      </trkpt>
      <trkpt lat="48.3801" lon="7.25632">
        <ele>960.19995117188</ele>
        <time>2023-01-29T12:40:07.000Z</time>
      </trkpt>
      <trkpt lat="48.38009" lon="7.25628">
        <ele>959.80004882812</ele>
        <time>2023-01-29T12:40:13.000Z</time>
      </trkpt>
      <trkpt lat="48.38007" lon="7.25626">
        <ele>959.80004882812</ele>
        <time>2023-01-29T12:40:15.000Z</time>
      </trkpt>
      <trkpt lat="48.38005" lon="7.25622">
        <ele>959.40002441406</ele>
        <time>2023-01-29T12:40:19.000Z</time>
      </trkpt>
      <trkpt lat="48.38005" lon="7.25621">
        <ele>959.19995117188</ele>
        <time>2023-01-29T12:40:20.000Z</time>
      </trkpt>
      <trkpt lat="48.38002" lon="7.25611">
        <ele>958.80004882812</ele>
        <time>2023-01-29T12:40:25.000Z</time>
      </trkpt>
      <trkpt lat="48.38001" lon="7.25606">
        <ele>958.59997558594</ele>
        <time>2023-01-29T12:40:27.000Z</time>
      </trkpt>
      <trkpt lat="48.37997" lon="7.25598">
        <ele>958.19995117188</ele>
        <time>2023-01-29T12:40:32.000Z</time>
      </trkpt>
      <trkpt lat="48.37993" lon="7.25591">
        <ele>957.80004882812</ele>
        <time>2023-01-29T12:40:36.000Z</time>
      </trkpt>
      <trkpt lat="48.37993" lon="7.25589">
        <ele>957.59997558594</ele>
        <time>2023-01-29T12:40:37.000Z</time>
      </trkpt>
      <trkpt lat="48.37992" lon="7.25584">
        <ele>957.40002441406</ele>
        <time>2023-01-29T12:40:40.000Z</time>
      </trkpt>
      <trkpt lat="48.37985" lon="7.25574">
        <ele>957</ele>
        <time>2023-01-29T12:40:47.000Z</time>
      </trkpt>
      <trkpt lat="48.3798" lon="7.25564">
        <ele>956.59997558594</ele>
        <time>2023-01-29T12:40:52.000Z</time>
      </trkpt>
      <trkpt lat="48.37979" lon="7.2556">
        <ele>956.40002441406</ele>
        <time>2023-01-29T12:40:54.000Z</time>
      </trkpt>
      <trkpt lat="48.37976" lon="7.25549">
        <ele>956.19995117188</ele>
        <time>2023-01-29T12:41:01.000Z</time>
      </trkpt>
      <trkpt lat="48.37975" lon="7.25547">
        <ele>956</ele>
        <time>2023-01-29T12:41:03.000Z</time>
      </trkpt>
      <trkpt lat="48.37974" lon="7.25544">
        <ele>955.80004882812</ele>
        <time>2023-01-29T12:41:05.000Z</time>
      </trkpt>
      <trkpt lat="48.37973" lon="7.25543">
        <ele>955.59997558594</ele>
        <time>2023-01-29T12:41:06.000Z</time>
      </trkpt>
      <trkpt lat="48.37972" lon="7.25542">
        <ele>955.40002441406</ele>
        <time>2023-01-29T12:41:07.000Z</time>
      </trkpt>
      <trkpt lat="48.37972" lon="7.2554">
        <ele>955.40002441406</ele>
        <time>2023-01-29T12:41:08.000Z</time>
      </trkpt>
      <trkpt lat="48.37965" lon="7.25533">
        <ele>954.59997558594</ele>
        <time>2023-01-29T12:41:14.000Z</time>
      </trkpt>
      <trkpt lat="48.37964" lon="7.25532">
        <ele>954.40002441406</ele>
        <time>2023-01-29T12:41:15.000Z</time>
      </trkpt>
      <trkpt lat="48.37962" lon="7.25529">
        <ele>953.59997558594</ele>
        <time>2023-01-29T12:41:21.000Z</time>
      </trkpt>
      <trkpt lat="48.37962" lon="7.2553">
        <ele>953.40002441406</ele>
        <time>2023-01-29T12:41:22.000Z</time>
      </trkpt>
      <trkpt lat="48.37959" lon="7.25528">
        <ele>952.80004882812</ele>
        <time>2023-01-29T12:41:28.000Z</time>
      </trkpt>
      <trkpt lat="48.37958" lon="7.25526">
        <ele>952.19995117188</ele>
        <time>2023-01-29T12:41:31.000Z</time>
      </trkpt>
      <trkpt lat="48.37954" lon="7.25526">
        <ele>951.40002441406</ele>
        <time>2023-01-29T12:41:35.000Z</time>
      </trkpt>
      <trkpt lat="48.37953" lon="7.25526">
        <ele>951.19995117188</ele>
        <time>2023-01-29T12:41:36.000Z</time>
      </trkpt>
      <trkpt lat="48.37951" lon="7.25526">
        <ele>950.40002441406</ele>
        <time>2023-01-29T12:41:41.000Z</time>
      </trkpt>
      <trkpt lat="48.37948" lon="7.25522">
        <ele>950</ele>
        <time>2023-01-29T12:41:45.000Z</time>
      </trkpt>
      <trkpt lat="48.37946" lon="7.25521">
        <ele>949.80004882812</ele>
        <time>2023-01-29T12:41:47.000Z</time>
      </trkpt>
      <trkpt lat="48.37943" lon="7.25519">
        <ele>949</ele>
        <time>2023-01-29T12:41:52.000Z</time>
      </trkpt>
      <trkpt lat="48.37941" lon="7.25518">
        <ele>948.19995117188</ele>
        <time>2023-01-29T12:41:55.000Z</time>
      </trkpt>
      <trkpt lat="48.37941" lon="7.25514">
        <ele>947.80004882812</ele>
        <time>2023-01-29T12:41:57.000Z</time>
      </trkpt>
      <trkpt lat="48.3794" lon="7.25508">
        <ele>946.59997558594</ele>
        <time>2023-01-29T12:42:02.000Z</time>
      </trkpt>
      <trkpt lat="48.37939" lon="7.25507">
        <ele>946.40002441406</ele>
        <time>2023-01-29T12:42:03.000Z</time>
      </trkpt>
      <trkpt lat="48.37934" lon="7.25505">
        <ele>945.59997558594</ele>
        <time>2023-01-29T12:42:07.000Z</time>
      </trkpt>
      <trkpt lat="48.37932" lon="7.255">
        <ele>944.59997558594</ele>
        <time>2023-01-29T12:42:12.000Z</time>
      </trkpt>
      <trkpt lat="48.3793" lon="7.25498">
        <ele>943.40002441406</ele>
        <time>2023-01-29T12:42:16.000Z</time>
      </trkpt>
      <trkpt lat="48.37929" lon="7.25496">
        <ele>943</ele>
        <time>2023-01-29T12:42:19.000Z</time>
      </trkpt>
      <trkpt lat="48.37924" lon="7.25492">
        <ele>942.19995117188</ele>
        <time>2023-01-29T12:42:24.000Z</time>
      </trkpt>
      <trkpt lat="48.3792" lon="7.25487">
        <ele>941.80004882812</ele>
        <time>2023-01-29T12:42:28.000Z</time>
      </trkpt>
      <trkpt lat="48.37916" lon="7.25482">
        <ele>941.19995117188</ele>
        <time>2023-01-29T12:42:32.000Z</time>
      </trkpt>
      <trkpt lat="48.37915" lon="7.25477">
        <ele>940.59997558594</ele>
        <time>2023-01-29T12:42:35.000Z</time>
      </trkpt>
      <trkpt lat="48.37915" lon="7.25476">
        <ele>940.40002441406</ele>
        <time>2023-01-29T12:42:36.000Z</time>
      </trkpt>
      <trkpt lat="48.37914" lon="7.25475">
        <ele>940.40002441406</ele>
        <time>2023-01-29T12:42:37.000Z</time>
      </trkpt>
      <trkpt lat="48.37911" lon="7.25471">
        <ele>940.19995117188</ele>
        <time>2023-01-29T12:42:39.000Z</time>
      </trkpt>
      <trkpt lat="48.37909" lon="7.25466">
        <ele>939.80004882812</ele>
        <time>2023-01-29T12:42:43.000Z</time>
      </trkpt>
      <trkpt lat="48.37908" lon="7.25462">
        <ele>939.59997558594</ele>
        <time>2023-01-29T12:42:45.000Z</time>
      </trkpt>
      <trkpt lat="48.37904" lon="7.25457">
        <ele>939.19995117188</ele>
        <time>2023-01-29T12:42:48.000Z</time>
      </trkpt>
      <trkpt lat="48.37902" lon="7.25455">
        <ele>939</ele>
        <time>2023-01-29T12:42:50.000Z</time>
      </trkpt>
      <trkpt lat="48.37901" lon="7.25453">
        <ele>938.40002441406</ele>
        <time>2023-01-29T12:42:53.000Z</time>
      </trkpt>
      <trkpt lat="48.37899" lon="7.25451">
        <ele>938</ele>
        <time>2023-01-29T12:42:56.000Z</time>
      </trkpt>
      <trkpt lat="48.37894" lon="7.25444">
        <ele>937</ele>
        <time>2023-01-29T12:43:04.000Z</time>
      </trkpt>
      <trkpt lat="48.37893" lon="7.25444">
        <ele>936.80004882812</ele>
        <time>2023-01-29T12:43:05.000Z</time>
      </trkpt>
      <trkpt lat="48.37887" lon="7.25434">
        <ele>936</ele>
        <time>2023-01-29T12:43:14.000Z</time>
      </trkpt>
      <trkpt lat="48.37886" lon="7.25433">
        <ele>935.80004882812</ele>
        <time>2023-01-29T12:43:15.000Z</time>
      </trkpt>
      <trkpt lat="48.3788" lon="7.25425">
        <ele>935</ele>
        <time>2023-01-29T12:43:22.000Z</time>
      </trkpt>
      <trkpt lat="48.37879" lon="7.25423">
        <ele>934.59997558594</ele>
        <time>2023-01-29T12:43:24.000Z</time>
      </trkpt>
      <trkpt lat="48.37872" lon="7.25414">
        <ele>933.80004882812</ele>
        <time>2023-01-29T12:43:32.000Z</time>
      </trkpt>
      <trkpt lat="48.37871" lon="7.25412">
        <ele>933.40002441406</ele>
        <time>2023-01-29T12:43:34.000Z</time>
      </trkpt>
      <trkpt lat="48.37867" lon="7.25405">
        <ele>932.80004882812</ele>
        <time>2023-01-29T12:43:38.000Z</time>
      </trkpt>
      <trkpt lat="48.37866" lon="7.25403">
        <ele>932.59997558594</ele>
        <time>2023-01-29T12:43:40.000Z</time>
      </trkpt>
      <trkpt lat="48.37863" lon="7.254">
        <ele>932.19995117188</ele>
        <time>2023-01-29T12:43:43.000Z</time>
      </trkpt>
      <trkpt lat="48.37862" lon="7.25398">
        <ele>932</ele>
        <time>2023-01-29T12:43:45.000Z</time>
      </trkpt>
      <trkpt lat="48.37862" lon="7.25396">
        <ele>931.80004882812</ele>
        <time>2023-01-29T12:43:46.000Z</time>
      </trkpt>
      <trkpt lat="48.37857" lon="7.25388">
        <ele>931.40002441406</ele>
        <time>2023-01-29T12:43:51.000Z</time>
      </trkpt>
      <trkpt lat="48.37855" lon="7.25383">
        <ele>930.80004882812</ele>
        <time>2023-01-29T12:43:54.000Z</time>
      </trkpt>
      <trkpt lat="48.37851" lon="7.25375">
        <ele>929.80004882812</ele>
        <time>2023-01-29T12:43:59.000Z</time>
      </trkpt>
      <trkpt lat="48.3785" lon="7.25373">
        <ele>929.59997558594</ele>
        <time>2023-01-29T12:44:00.000Z</time>
      </trkpt>
      <trkpt lat="48.37844" lon="7.25368">
        <ele>928.59997558594</ele>
        <time>2023-01-29T12:44:06.000Z</time>
      </trkpt>
      <trkpt lat="48.37843" lon="7.25369">
        <ele>928.59997558594</ele>
        <time>2023-01-29T12:44:07.000Z</time>
      </trkpt>
      <trkpt lat="48.37841" lon="7.2537">
        <ele>928</ele>
        <time>2023-01-29T12:44:11.000Z</time>
      </trkpt>
      <trkpt lat="48.3784" lon="7.25371">
        <ele>927.59997558594</ele>
        <time>2023-01-29T12:44:13.000Z</time>
      </trkpt>
      <trkpt lat="48.37838" lon="7.25375">
        <ele>927</ele>
        <time>2023-01-29T12:44:16.000Z</time>
      </trkpt>
      <trkpt lat="48.37839" lon="7.25377">
        <ele>926.80004882812</ele>
        <time>2023-01-29T12:44:17.000Z</time>
      </trkpt>
      <trkpt lat="48.37839" lon="7.25378">
        <ele>926.80004882812</ele>
        <time>2023-01-29T12:44:18.000Z</time>
      </trkpt>
      <trkpt lat="48.37839" lon="7.2538">
        <ele>926.40002441406</ele>
        <time>2023-01-29T12:44:20.000Z</time>
      </trkpt>
      <trkpt lat="48.3784" lon="7.25382">
        <ele>926.40002441406</ele>
        <time>2023-01-29T12:44:22.000Z</time>
      </trkpt>
      <trkpt lat="48.37842" lon="7.25385">
        <ele>926.19995117188</ele>
        <time>2023-01-29T12:44:25.000Z</time>
      </trkpt>
      <trkpt lat="48.37843" lon="7.25386">
        <ele>926</ele>
        <time>2023-01-29T12:44:27.000Z</time>
      </trkpt>
      <trkpt lat="48.37845" lon="7.25389">
        <ele>925.80004882812</ele>
        <time>2023-01-29T12:44:32.000Z</time>
      </trkpt>
      <trkpt lat="48.37845" lon="7.25392">
        <ele>925.80004882812</ele>
        <time>2023-01-29T12:44:34.000Z</time>
      </trkpt>
      <trkpt lat="48.37847" lon="7.25398">
        <ele>925.59997558594</ele>
        <time>2023-01-29T12:44:39.000Z</time>
      </trkpt>
      <trkpt lat="48.37851" lon="7.25401">
        <ele>925.40002441406</ele>
        <time>2023-01-29T12:44:42.000Z</time>
      </trkpt>
      <trkpt lat="48.37851" lon="7.25405">
        <ele>925</ele>
        <time>2023-01-29T12:44:45.000Z</time>
      </trkpt>
      <trkpt lat="48.37852" lon="7.25412">
        <ele>924.40002441406</ele>
        <time>2023-01-29T12:44:49.000Z</time>
      </trkpt>
      <trkpt lat="48.37852" lon="7.25413">
        <ele>924.40002441406</ele>
        <time>2023-01-29T12:44:50.000Z</time>
      </trkpt>
      <trkpt lat="48.37854" lon="7.25418">
        <ele>924</ele>
        <time>2023-01-29T12:44:54.000Z</time>
      </trkpt>
      <trkpt lat="48.37859" lon="7.25428">
        <ele>923.19995117188</ele>
        <time>2023-01-29T12:44:59.000Z</time>
      </trkpt>
      <trkpt lat="48.3786" lon="7.2543">
        <ele>923.19995117188</ele>
        <time>2023-01-29T12:45:00.000Z</time>
      </trkpt>
      <trkpt lat="48.37862" lon="7.25434">
        <ele>922.59997558594</ele>
        <time>2023-01-29T12:45:07.000Z</time>
      </trkpt>
      <trkpt lat="48.37863" lon="7.25433">
        <ele>922.59997558594</ele>
        <time>2023-01-29T12:45:14.000Z</time>
      </trkpt>
      <trkpt lat="48.37864" lon="7.25436">
        <ele>922.40002441406</ele>
        <time>2023-01-29T12:45:19.000Z</time>
      </trkpt>
      <trkpt lat="48.37864" lon="7.25436">
        <ele>922.19995117188</ele>
        <time>2023-01-29T12:45:20.000Z</time>
      </trkpt>
      <trkpt lat="48.37863" lon="7.25435">
        <ele>922</ele>
        <time>2023-01-29T12:45:25.000Z</time>
      </trkpt>
      <trkpt lat="48.37865" lon="7.25442">
        <ele>921.40002441406</ele>
        <time>2023-01-29T12:45:30.000Z</time>
      </trkpt>
      <trkpt lat="48.37863" lon="7.25449">
        <ele>921.19995117188</ele>
        <time>2023-01-29T12:45:35.000Z</time>
      </trkpt>
      <trkpt lat="48.37864" lon="7.25451">
        <ele>921</ele>
        <time>2023-01-29T12:45:37.000Z</time>
      </trkpt>
      <trkpt lat="48.37866" lon="7.25458">
        <ele>920.40002441406</ele>
        <time>2023-01-29T12:45:43.000Z</time>
      </trkpt>
      <trkpt lat="48.37867" lon="7.25461">
        <ele>920</ele>
        <time>2023-01-29T12:45:46.000Z</time>
      </trkpt>
      <trkpt lat="48.37868" lon="7.25464">
        <ele>919.80004882812</ele>
        <time>2023-01-29T12:45:48.000Z</time>
      </trkpt>
      <trkpt lat="48.37872" lon="7.25477">
        <ele>919</ele>
        <time>2023-01-29T12:45:56.000Z</time>
      </trkpt>
      <trkpt lat="48.37865" lon="7.25481">
        <ele>918.80004882812</ele>
        <time>2023-01-29T12:46:03.000Z</time>
      </trkpt>
      <trkpt lat="48.37864" lon="7.25486">
        <ele>918.40002441406</ele>
        <time>2023-01-29T12:46:09.000Z</time>
      </trkpt>
      <trkpt lat="48.37868" lon="7.25493">
        <ele>917.80004882812</ele>
        <time>2023-01-29T12:46:15.000Z</time>
      </trkpt>
      <trkpt lat="48.37872" lon="7.25499">
        <ele>917.19995117188</ele>
        <time>2023-01-29T12:46:21.000Z</time>
      </trkpt>
      <trkpt lat="48.37876" lon="7.25505">
        <ele>916.80004882812</ele>
        <time>2023-01-29T12:46:24.000Z</time>
      </trkpt>
      <trkpt lat="48.37877" lon="7.25514">
        <ele>916.19995117188</ele>
        <time>2023-01-29T12:46:29.000Z</time>
      </trkpt>
      <trkpt lat="48.37883" lon="7.25524">
        <ele>915.59997558594</ele>
        <time>2023-01-29T12:46:34.000Z</time>
      </trkpt>
      <trkpt lat="48.37885" lon="7.25527">
        <ele>915.59997558594</ele>
        <time>2023-01-29T12:46:36.000Z</time>
      </trkpt>
      <trkpt lat="48.37885" lon="7.25529">
        <ele>915.40002441406</ele>
        <time>2023-01-29T12:46:37.000Z</time>
      </trkpt>
      <trkpt lat="48.37887" lon="7.25535">
        <ele>914.80004882812</ele>
        <time>2023-01-29T12:46:42.000Z</time>
      </trkpt>
      <trkpt lat="48.37887" lon="7.25537">
        <ele>914.40002441406</ele>
        <time>2023-01-29T12:46:43.000Z</time>
      </trkpt>
      <trkpt lat="48.37891" lon="7.25547">
        <ele>913.80004882812</ele>
        <time>2023-01-29T12:46:49.000Z</time>
      </trkpt>
      <trkpt lat="48.3789" lon="7.25552">
        <ele>913.40002441406</ele>
        <time>2023-01-29T12:46:52.000Z</time>
      </trkpt>
      <trkpt lat="48.37891" lon="7.25556">
        <ele>913.19995117188</ele>
        <time>2023-01-29T12:46:54.000Z</time>
      </trkpt>
      <trkpt lat="48.37891" lon="7.25558">
        <ele>913</ele>
        <time>2023-01-29T12:46:55.000Z</time>
      </trkpt>
      <trkpt lat="48.37891" lon="7.2556">
        <ele>912.80004882812</ele>
        <time>2023-01-29T12:46:56.000Z</time>
      </trkpt>
      <trkpt lat="48.37893" lon="7.25565">
        <ele>912.59997558594</ele>
        <time>2023-01-29T12:46:59.000Z</time>
      </trkpt>
      <trkpt lat="48.37893" lon="7.25566">
        <ele>912.40002441406</ele>
        <time>2023-01-29T12:47:00.000Z</time>
      </trkpt>
      <trkpt lat="48.37893" lon="7.25568">
        <ele>912.40002441406</ele>
        <time>2023-01-29T12:47:01.000Z</time>
      </trkpt>
      <trkpt lat="48.37894" lon="7.2557">
        <ele>912.19995117188</ele>
        <time>2023-01-29T12:47:02.000Z</time>
      </trkpt>
      <trkpt lat="48.37895" lon="7.25574">
        <ele>912</ele>
        <time>2023-01-29T12:47:04.000Z</time>
      </trkpt>
      <trkpt lat="48.37895" lon="7.25576">
        <ele>912</ele>
        <time>2023-01-29T12:47:06.000Z</time>
      </trkpt>
      <trkpt lat="48.37897" lon="7.25582">
        <ele>911.59997558594</ele>
        <time>2023-01-29T12:47:10.000Z</time>
      </trkpt>
      <trkpt lat="48.37897" lon="7.25584">
        <ele>911.40002441406</ele>
        <time>2023-01-29T12:47:11.000Z</time>
      </trkpt>
      <trkpt lat="48.37898" lon="7.25588">
        <ele>911</ele>
        <time>2023-01-29T12:47:13.000Z</time>
      </trkpt>
      <trkpt lat="48.37899" lon="7.25593">
        <ele>910.59997558594</ele>
        <time>2023-01-29T12:47:16.000Z</time>
      </trkpt>
      <trkpt lat="48.37899" lon="7.25595">
        <ele>910.40002441406</ele>
        <time>2023-01-29T12:47:18.000Z</time>
      </trkpt>
      <trkpt lat="48.37899" lon="7.25597">
        <ele>910.40002441406</ele>
        <time>2023-01-29T12:47:19.000Z</time>
      </trkpt>
      <trkpt lat="48.37901" lon="7.25605">
        <ele>909.59997558594</ele>
        <time>2023-01-29T12:47:25.000Z</time>
      </trkpt>
      <trkpt lat="48.37903" lon="7.2561">
        <ele>909.40002441406</ele>
        <time>2023-01-29T12:47:28.000Z</time>
      </trkpt>
      <trkpt lat="48.37902" lon="7.25611">
        <ele>909.19995117188</ele>
        <time>2023-01-29T12:47:29.000Z</time>
      </trkpt>
      <trkpt lat="48.37902" lon="7.25613">
        <ele>909</ele>
        <time>2023-01-29T12:47:30.000Z</time>
      </trkpt>
      <trkpt lat="48.37903" lon="7.25615">
        <ele>908.80004882812</ele>
        <time>2023-01-29T12:47:31.000Z</time>
      </trkpt>
      <trkpt lat="48.37905" lon="7.25619">
        <ele>908.59997558594</ele>
        <time>2023-01-29T12:47:33.000Z</time>
      </trkpt>
      <trkpt lat="48.37905" lon="7.25623">
        <ele>908.19995117188</ele>
        <time>2023-01-29T12:47:35.000Z</time>
      </trkpt>
      <trkpt lat="48.37905" lon="7.25624">
        <ele>908.19995117188</ele>
        <time>2023-01-29T12:47:36.000Z</time>
      </trkpt>
      <trkpt lat="48.37905" lon="7.25625">
        <ele>908</ele>
        <time>2023-01-29T12:47:37.000Z</time>
      </trkpt>
      <trkpt lat="48.37908" lon="7.25631">
        <ele>907.40002441406</ele>
        <time>2023-01-29T12:47:41.000Z</time>
      </trkpt>
      <trkpt lat="48.37909" lon="7.25632">
        <ele>907.19995117188</ele>
        <time>2023-01-29T12:47:42.000Z</time>
      </trkpt>
      <trkpt lat="48.3791" lon="7.25634">
        <ele>907.19995117188</ele>
        <time>2023-01-29T12:47:43.000Z</time>
      </trkpt>
      <trkpt lat="48.37911" lon="7.25638">
        <ele>906.80004882812</ele>
        <time>2023-01-29T12:47:45.000Z</time>
      </trkpt>
      <trkpt lat="48.37911" lon="7.25644">
        <ele>906.40002441406</ele>
        <time>2023-01-29T12:47:49.000Z</time>
      </trkpt>
      <trkpt lat="48.37911" lon="7.25645">
        <ele>906.19995117188</ele>
        <time>2023-01-29T12:47:50.000Z</time>
      </trkpt>
      <trkpt lat="48.37912" lon="7.25646">
        <ele>906</ele>
        <time>2023-01-29T12:47:51.000Z</time>
      </trkpt>
      <trkpt lat="48.37913" lon="7.25654">
        <ele>905.19995117188</ele>
        <time>2023-01-29T12:47:56.000Z</time>
      </trkpt>
      <trkpt lat="48.37914" lon="7.25655">
        <ele>905</ele>
        <time>2023-01-29T12:47:57.000Z</time>
      </trkpt>
      <trkpt lat="48.37915" lon="7.25656">
        <ele>905</ele>
        <time>2023-01-29T12:47:58.000Z</time>
      </trkpt>
      <trkpt lat="48.37915" lon="7.25662">
        <ele>904.40002441406</ele>
        <time>2023-01-29T12:48:02.000Z</time>
      </trkpt>
      <trkpt lat="48.37913" lon="7.25668">
        <ele>904</ele>
        <time>2023-01-29T12:48:05.000Z</time>
      </trkpt>
      <trkpt lat="48.37914" lon="7.25669">
        <ele>903.80004882812</ele>
        <time>2023-01-29T12:48:06.000Z</time>
      </trkpt>
      <trkpt lat="48.37915" lon="7.25672">
        <ele>903.59997558594</ele>
        <time>2023-01-29T12:48:08.000Z</time>
      </trkpt>
      <trkpt lat="48.37917" lon="7.25676">
        <ele>903.19995117188</ele>
        <time>2023-01-29T12:48:11.000Z</time>
      </trkpt>
      <trkpt lat="48.37918" lon="7.25677">
        <ele>903</ele>
        <time>2023-01-29T12:48:12.000Z</time>
      </trkpt>
      <trkpt lat="48.37919" lon="7.25679">
        <ele>902.80004882812</ele>
        <time>2023-01-29T12:48:13.000Z</time>
      </trkpt>
      <trkpt lat="48.37922" lon="7.25689">
        <ele>902.19995117188</ele>
        <time>2023-01-29T12:48:19.000Z</time>
      </trkpt>
      <trkpt lat="48.37923" lon="7.25692">
        <ele>901.80004882812</ele>
        <time>2023-01-29T12:48:22.000Z</time>
      </trkpt>
      <trkpt lat="48.37924" lon="7.25693">
        <ele>901.80004882812</ele>
        <time>2023-01-29T12:48:23.000Z</time>
      </trkpt>
      <trkpt lat="48.37926" lon="7.25695">
        <ele>901.80004882812</ele>
        <time>2023-01-29T12:48:24.000Z</time>
      </trkpt>
      <trkpt lat="48.37928" lon="7.25702">
        <ele>901.40002441406</ele>
        <time>2023-01-29T12:48:28.000Z</time>
      </trkpt>
      <trkpt lat="48.37931" lon="7.25705">
        <ele>901</ele>
        <time>2023-01-29T12:48:32.000Z</time>
      </trkpt>
      <trkpt lat="48.37933" lon="7.25706">
        <ele>900.80004882812</ele>
        <time>2023-01-29T12:48:33.000Z</time>
      </trkpt>
      <trkpt lat="48.37934" lon="7.25707">
        <ele>900.80004882812</ele>
        <time>2023-01-29T12:48:34.000Z</time>
      </trkpt>
      <trkpt lat="48.37937" lon="7.25714">
        <ele>899.80004882812</ele>
        <time>2023-01-29T12:48:39.000Z</time>
      </trkpt>
      <trkpt lat="48.37939" lon="7.25718">
        <ele>899.19995117188</ele>
        <time>2023-01-29T12:48:43.000Z</time>
      </trkpt>
      <trkpt lat="48.37942" lon="7.25724">
        <ele>898.59997558594</ele>
        <time>2023-01-29T12:48:48.000Z</time>
      </trkpt>
      <trkpt lat="48.37943" lon="7.25727">
        <ele>898.40002441406</ele>
        <time>2023-01-29T12:48:50.000Z</time>
      </trkpt>
      <trkpt lat="48.37948" lon="7.25738">
        <ele>897.80004882812</ele>
        <time>2023-01-29T12:48:55.000Z</time>
      </trkpt>
      <trkpt lat="48.37949" lon="7.2574">
        <ele>897.80004882812</ele>
        <time>2023-01-29T12:48:56.000Z</time>
      </trkpt>
      <trkpt lat="48.37949" lon="7.25741">
        <ele>897.59997558594</ele>
        <time>2023-01-29T12:48:57.000Z</time>
      </trkpt>
      <trkpt lat="48.3795" lon="7.25743">
        <ele>897.40002441406</ele>
        <time>2023-01-29T12:48:59.000Z</time>
      </trkpt>
      <trkpt lat="48.37951" lon="7.25746">
        <ele>897</ele>
        <time>2023-01-29T12:49:02.000Z</time>
      </trkpt>
      <trkpt lat="48.3795" lon="7.25754">
        <ele>896.59997558594</ele>
        <time>2023-01-29T12:49:07.000Z</time>
      </trkpt>
      <trkpt lat="48.3795" lon="7.25757">
        <ele>896.40002441406</ele>
        <time>2023-01-29T12:49:09.000Z</time>
      </trkpt>
      <trkpt lat="48.37951" lon="7.25763">
        <ele>895.80004882812</ele>
        <time>2023-01-29T12:49:13.000Z</time>
      </trkpt>
      <trkpt lat="48.37952" lon="7.25766">
        <ele>895.40002441406</ele>
        <time>2023-01-29T12:49:15.000Z</time>
      </trkpt>
      <trkpt lat="48.37952" lon="7.25777">
        <ele>894.40002441406</ele>
        <time>2023-01-29T12:49:23.000Z</time>
      </trkpt>
      <trkpt lat="48.37954" lon="7.25785">
        <ele>894</ele>
        <time>2023-01-29T12:49:29.000Z</time>
      </trkpt>
      <trkpt lat="48.37955" lon="7.25791">
        <ele>893.59997558594</ele>
        <time>2023-01-29T12:49:32.000Z</time>
      </trkpt>
      <trkpt lat="48.37956" lon="7.25793">
        <ele>893.19995117188</ele>
        <time>2023-01-29T12:49:34.000Z</time>
      </trkpt>
      <trkpt lat="48.37956" lon="7.25795">
        <ele>893.19995117188</ele>
        <time>2023-01-29T12:49:35.000Z</time>
      </trkpt>
      <trkpt lat="48.37956" lon="7.25797">
        <ele>893</ele>
        <time>2023-01-29T12:49:36.000Z</time>
      </trkpt>
      <trkpt lat="48.37957" lon="7.25808">
        <ele>892.19995117188</ele>
        <time>2023-01-29T12:49:42.000Z</time>
      </trkpt>
      <trkpt lat="48.37958" lon="7.25814">
        <ele>891.80004882812</ele>
        <time>2023-01-29T12:49:45.000Z</time>
      </trkpt>
      <trkpt lat="48.37959" lon="7.25818">
        <ele>891.19995117188</ele>
        <time>2023-01-29T12:49:49.000Z</time>
      </trkpt>
      <trkpt lat="48.3796" lon="7.25823">
        <ele>891</ele>
        <time>2023-01-29T12:49:51.000Z</time>
      </trkpt>
      <trkpt lat="48.37961" lon="7.25833">
        <ele>890.19995117188</ele>
        <time>2023-01-29T12:49:57.000Z</time>
      </trkpt>
      <trkpt lat="48.37962" lon="7.25838">
        <ele>890.19995117188</ele>
        <time>2023-01-29T12:50:01.000Z</time>
      </trkpt>
      <trkpt lat="48.37964" lon="7.25841">
        <ele>890</ele>
        <time>2023-01-29T12:50:03.000Z</time>
      </trkpt>
      <trkpt lat="48.37964" lon="7.25845">
        <ele>889.40002441406</ele>
        <time>2023-01-29T12:50:06.000Z</time>
      </trkpt>
      <trkpt lat="48.37964" lon="7.2585">
        <ele>889</ele>
        <time>2023-01-29T12:50:09.000Z</time>
      </trkpt>
      <trkpt lat="48.37964" lon="7.25853">
        <ele>888.80004882812</ele>
        <time>2023-01-29T12:50:11.000Z</time>
      </trkpt>
      <trkpt lat="48.37966" lon="7.25856">
        <ele>888.59997558594</ele>
        <time>2023-01-29T12:50:14.000Z</time>
      </trkpt>
      <trkpt lat="48.3797" lon="7.25864">
        <ele>887.80004882812</ele>
        <time>2023-01-29T12:50:20.000Z</time>
      </trkpt>
      <trkpt lat="48.37971" lon="7.25866">
        <ele>887.80004882812</ele>
        <time>2023-01-29T12:50:21.000Z</time>
      </trkpt>
      <trkpt lat="48.37972" lon="7.25867">
        <ele>887.59997558594</ele>
        <time>2023-01-29T12:50:22.000Z</time>
      </trkpt>
      <trkpt lat="48.37973" lon="7.25877">
        <ele>887</ele>
        <time>2023-01-29T12:50:27.000Z</time>
      </trkpt>
      <trkpt lat="48.37973" lon="7.25879">
        <ele>886.80004882812</ele>
        <time>2023-01-29T12:50:28.000Z</time>
      </trkpt>
      <trkpt lat="48.37972" lon="7.25885">
        <ele>886.80004882812</ele>
        <time>2023-01-29T12:50:31.000Z</time>
      </trkpt>
      <trkpt lat="48.37973" lon="7.25886">
        <ele>886.59997558594</ele>
        <time>2023-01-29T12:50:32.000Z</time>
      </trkpt>
      <trkpt lat="48.37974" lon="7.25889">
        <ele>886.19995117188</ele>
        <time>2023-01-29T12:50:34.000Z</time>
      </trkpt>
      <trkpt lat="48.37974" lon="7.25894">
        <ele>885.80004882812</ele>
        <time>2023-01-29T12:50:36.000Z</time>
      </trkpt>
      <trkpt lat="48.37975" lon="7.25898">
        <ele>885.59997558594</ele>
        <time>2023-01-29T12:50:38.000Z</time>
      </trkpt>
      <trkpt lat="48.37978" lon="7.25907">
        <ele>885</ele>
        <time>2023-01-29T12:50:42.000Z</time>
      </trkpt>
      <trkpt lat="48.37979" lon="7.25911">
        <ele>884.59997558594</ele>
        <time>2023-01-29T12:50:44.000Z</time>
      </trkpt>
      <trkpt lat="48.37982" lon="7.2592">
        <ele>883.80004882812</ele>
        <time>2023-01-29T12:50:49.000Z</time>
      </trkpt>
      <trkpt lat="48.37983" lon="7.25921">
        <ele>883.59997558594</ele>
        <time>2023-01-29T12:50:50.000Z</time>
      </trkpt>
      <trkpt lat="48.37983" lon="7.25923">
        <ele>883.59997558594</ele>
        <time>2023-01-29T12:50:51.000Z</time>
      </trkpt>
      <trkpt lat="48.37984" lon="7.25926">
        <ele>883.40002441406</ele>
        <time>2023-01-29T12:50:53.000Z</time>
      </trkpt>
      <trkpt lat="48.37983" lon="7.25932">
        <ele>883</ele>
        <time>2023-01-29T12:50:56.000Z</time>
      </trkpt>
      <trkpt lat="48.37984" lon="7.25933">
        <ele>882.80004882812</ele>
        <time>2023-01-29T12:50:57.000Z</time>
      </trkpt>
      <trkpt lat="48.37984" lon="7.25936">
        <ele>882.80004882812</ele>
        <time>2023-01-29T12:50:59.000Z</time>
      </trkpt>
      <trkpt lat="48.37985" lon="7.25937">
        <ele>882.59997558594</ele>
        <time>2023-01-29T12:51:00.000Z</time>
      </trkpt>
      <trkpt lat="48.37985" lon="7.2594">
        <ele>882.40002441406</ele>
        <time>2023-01-29T12:51:01.000Z</time>
      </trkpt>
      <trkpt lat="48.37986" lon="7.25941">
        <ele>882.40002441406</ele>
        <time>2023-01-29T12:51:02.000Z</time>
      </trkpt>
      <trkpt lat="48.3799" lon="7.25949">
        <ele>881.59997558594</ele>
        <time>2023-01-29T12:51:08.000Z</time>
      </trkpt>
      <trkpt lat="48.37989" lon="7.25963">
        <ele>880.80004882812</ele>
        <time>2023-01-29T12:51:15.000Z</time>
      </trkpt>
      <trkpt lat="48.37989" lon="7.25966">
        <ele>880.59997558594</ele>
        <time>2023-01-29T12:51:17.000Z</time>
      </trkpt>
      <trkpt lat="48.37991" lon="7.25976">
        <ele>880.19995117188</ele>
        <time>2023-01-29T12:51:21.000Z</time>
      </trkpt>
      <trkpt lat="48.37992" lon="7.2598">
        <ele>879.80004882812</ele>
        <time>2023-01-29T12:51:23.000Z</time>
      </trkpt>
      <trkpt lat="48.37992" lon="7.25982">
        <ele>879.59997558594</ele>
        <time>2023-01-29T12:51:25.000Z</time>
      </trkpt>
      <trkpt lat="48.37996" lon="7.25987">
        <ele>879</ele>
        <time>2023-01-29T12:51:29.000Z</time>
      </trkpt>
      <trkpt lat="48.37997" lon="7.25994">
        <ele>878.59997558594</ele>
        <time>2023-01-29T12:51:34.000Z</time>
      </trkpt>
      <trkpt lat="48.37996" lon="7.25996">
        <ele>878.59997558594</ele>
        <time>2023-01-29T12:51:36.000Z</time>
      </trkpt>
      <trkpt lat="48.37996" lon="7.25998">
        <ele>878.40002441406</ele>
        <time>2023-01-29T12:51:37.000Z</time>
      </trkpt>
      <trkpt lat="48.37996" lon="7.26001">
        <ele>878.19995117188</ele>
        <time>2023-01-29T12:51:40.000Z</time>
      </trkpt>
      <trkpt lat="48.37997" lon="7.26002">
        <ele>878</ele>
        <time>2023-01-29T12:51:41.000Z</time>
      </trkpt>
      <trkpt lat="48.37999" lon="7.26007">
        <ele>877.80004882812</ele>
        <time>2023-01-29T12:51:45.000Z</time>
      </trkpt>
      <trkpt lat="48.38001" lon="7.26012">
        <ele>877.40002441406</ele>
        <time>2023-01-29T12:51:48.000Z</time>
      </trkpt>
      <trkpt lat="48.38002" lon="7.26014">
        <ele>877.19995117188</ele>
        <time>2023-01-29T12:51:50.000Z</time>
      </trkpt>
      <trkpt lat="48.38005" lon="7.26021">
        <ele>876.59997558594</ele>
        <time>2023-01-29T12:51:56.000Z</time>
      </trkpt>
      <trkpt lat="48.38005" lon="7.26027">
        <ele>876.40002441406</ele>
        <time>2023-01-29T12:52:02.000Z</time>
      </trkpt>
      <trkpt lat="48.38005" lon="7.26031">
        <ele>876.40002441406</ele>
        <time>2023-01-29T12:52:04.000Z</time>
      </trkpt>
      <trkpt lat="48.38006" lon="7.26035">
        <ele>876.19995117188</ele>
        <time>2023-01-29T12:52:06.000Z</time>
      </trkpt>
      <trkpt lat="48.38008" lon="7.26036">
        <ele>876</ele>
        <time>2023-01-29T12:52:10.000Z</time>
      </trkpt>
      <trkpt lat="48.38007" lon="7.26037">
        <ele>876</ele>
        <time>2023-01-29T12:52:18.000Z</time>
      </trkpt>
      <trkpt lat="48.38008" lon="7.26038">
        <ele>876</ele>
        <time>2023-01-29T12:52:30.000Z</time>
      </trkpt>
      <trkpt lat="48.38008" lon="7.26048">
        <ele>876.19995117188</ele>
        <time>2023-01-29T12:52:48.000Z</time>
      </trkpt>
      <trkpt lat="48.38008" lon="7.26048">
        <ele>876.19995117188</ele>
        <time>2023-01-29T12:52:50.000Z</time>
      </trkpt>
      <trkpt lat="48.38008" lon="7.26048">
        <ele>876.19995117188</ele>
        <time>2023-01-29T12:52:52.000Z</time>
      </trkpt>
      <trkpt lat="48.38008" lon="7.26048">
        <ele>876</ele>
        <time>2023-01-29T12:52:56.000Z</time>
      </trkpt>
      <trkpt lat="48.38008" lon="7.26048">
        <ele>875.40002441406</ele>
        <time>2023-01-29T12:53:00.000Z</time>
      </trkpt>
      <trkpt lat="48.38011" lon="7.26053">
        <ele>875.19995117188</ele>
        <time>2023-01-29T12:53:05.000Z</time>
      </trkpt>
      <trkpt lat="48.38013" lon="7.26054">
        <ele>875</ele>
        <time>2023-01-29T12:53:06.000Z</time>
      </trkpt>
      <trkpt lat="48.38015" lon="7.26067">
        <ele>874.59997558594</ele>
        <time>2023-01-29T12:53:11.000Z</time>
      </trkpt>
      <trkpt lat="48.3802" lon="7.26071">
        <ele>874.19995117188</ele>
        <time>2023-01-29T12:53:16.000Z</time>
      </trkpt>
      <trkpt lat="48.38023" lon="7.26076">
        <ele>873.80004882812</ele>
        <time>2023-01-29T12:53:21.000Z</time>
      </trkpt>
      <trkpt lat="48.38026" lon="7.26078">
        <ele>873.59997558594</ele>
        <time>2023-01-29T12:53:25.000Z</time>
      </trkpt>
      <trkpt lat="48.38028" lon="7.26083">
        <ele>873</ele>
        <time>2023-01-29T12:53:29.000Z</time>
      </trkpt>
      <trkpt lat="48.38032" lon="7.26087">
        <ele>872.59997558594</ele>
        <time>2023-01-29T12:53:35.000Z</time>
      </trkpt>
      <trkpt lat="48.38035" lon="7.26089">
        <ele>872.40002441406</ele>
        <time>2023-01-29T12:53:40.000Z</time>
      </trkpt>
      <trkpt lat="48.38036" lon="7.26089">
        <ele>872.40002441406</ele>
        <time>2023-01-29T12:53:41.000Z</time>
      </trkpt>
      <trkpt lat="48.38039" lon="7.26089">
        <ele>872</ele>
        <time>2023-01-29T12:53:44.000Z</time>
      </trkpt>
      <trkpt lat="48.38039" lon="7.26088">
        <ele>872</ele>
        <time>2023-01-29T12:53:45.000Z</time>
      </trkpt>
      <trkpt lat="48.38041" lon="7.26088">
        <ele>871.80004882812</ele>
        <time>2023-01-29T12:53:50.000Z</time>
      </trkpt>
      <trkpt lat="48.38041" lon="7.26085">
        <ele>871.80004882812</ele>
        <time>2023-01-29T12:53:54.000Z</time>
      </trkpt>
      <trkpt lat="48.3804" lon="7.26084">
        <ele>871.59997558594</ele>
        <time>2023-01-29T12:53:55.000Z</time>
      </trkpt>
      <trkpt lat="48.3804" lon="7.26084">
        <ele>871.40002441406</ele>
        <time>2023-01-29T12:53:56.000Z</time>
      </trkpt>
      <trkpt lat="48.38043" lon="7.26083">
        <ele>871.40002441406</ele>
        <time>2023-01-29T12:53:58.000Z</time>
      </trkpt>
      <trkpt lat="48.38047" lon="7.26084">
        <ele>871</ele>
        <time>2023-01-29T12:54:01.000Z</time>
      </trkpt>
      <trkpt lat="48.38048" lon="7.26084">
        <ele>870.80004882812</ele>
        <time>2023-01-29T12:54:04.000Z</time>
      </trkpt>
      <trkpt lat="48.3805" lon="7.26085">
        <ele>870.59997558594</ele>
        <time>2023-01-29T12:54:06.000Z</time>
      </trkpt>
      <trkpt lat="48.3805" lon="7.26087">
        <ele>870.19995117188</ele>
        <time>2023-01-29T12:54:09.000Z</time>
      </trkpt>
      <trkpt lat="48.38049" lon="7.26089">
        <ele>870</ele>
        <time>2023-01-29T12:54:11.000Z</time>
      </trkpt>
      <trkpt lat="48.38048" lon="7.26094">
        <ele>869.59997558594</ele>
        <time>2023-01-29T12:54:14.000Z</time>
      </trkpt>
      <trkpt lat="48.38047" lon="7.26095">
        <ele>869.40002441406</ele>
        <time>2023-01-29T12:54:15.000Z</time>
      </trkpt>
      <trkpt lat="48.38046" lon="7.26096">
        <ele>869.19995117188</ele>
        <time>2023-01-29T12:54:17.000Z</time>
      </trkpt>
      <trkpt lat="48.38045" lon="7.26097">
        <ele>869</ele>
        <time>2023-01-29T12:54:19.000Z</time>
      </trkpt>
      <trkpt lat="48.38041" lon="7.26104">
        <ele>868.19995117188</ele>
        <time>2023-01-29T12:54:24.000Z</time>
      </trkpt>
      <trkpt lat="48.3804" lon="7.26109">
        <ele>867.80004882812</ele>
        <time>2023-01-29T12:54:27.000Z</time>
      </trkpt>
      <trkpt lat="48.38039" lon="7.26111">
        <ele>867.59997558594</ele>
        <time>2023-01-29T12:54:29.000Z</time>
      </trkpt>
      <trkpt lat="48.38034" lon="7.26116">
        <ele>867.19995117188</ele>
        <time>2023-01-29T12:54:34.000Z</time>
      </trkpt>
      <trkpt lat="48.38033" lon="7.26119">
        <ele>866.80004882812</ele>
        <time>2023-01-29T12:54:36.000Z</time>
      </trkpt>
      <trkpt lat="48.38033" lon="7.26124">
        <ele>866.59997558594</ele>
        <time>2023-01-29T12:54:38.000Z</time>
      </trkpt>
      <trkpt lat="48.38028" lon="7.26135">
        <ele>866</ele>
        <time>2023-01-29T12:54:43.000Z</time>
      </trkpt>
      <trkpt lat="48.38027" lon="7.26136">
        <ele>865.80004882812</ele>
        <time>2023-01-29T12:54:44.000Z</time>
      </trkpt>
      <trkpt lat="48.38025" lon="7.26141">
        <ele>865.19995117188</ele>
        <time>2023-01-29T12:54:48.000Z</time>
      </trkpt>
      <trkpt lat="48.38023" lon="7.26141">
        <ele>865.19995117188</ele>
        <time>2023-01-29T12:54:49.000Z</time>
      </trkpt>
      <trkpt lat="48.38023" lon="7.26142">
        <ele>865</ele>
        <time>2023-01-29T12:54:50.000Z</time>
      </trkpt>
      <trkpt lat="48.38023" lon="7.26144">
        <ele>864.80004882812</ele>
        <time>2023-01-29T12:54:52.000Z</time>
      </trkpt>
      <trkpt lat="48.38023" lon="7.26146">
        <ele>864.59997558594</ele>
        <time>2023-01-29T12:54:53.000Z</time>
      </trkpt>
      <trkpt lat="48.38019" lon="7.26158">
        <ele>864.40002441406</ele>
        <time>2023-01-29T12:54:58.000Z</time>
      </trkpt>
      <trkpt lat="48.38019" lon="7.26169">
        <ele>863.59997558594</ele>
        <time>2023-01-29T12:55:04.000Z</time>
      </trkpt>
      <trkpt lat="48.38018" lon="7.26176">
        <ele>863</ele>
        <time>2023-01-29T12:55:09.000Z</time>
      </trkpt>
      <trkpt lat="48.38017" lon="7.26177">
        <ele>863</ele>
        <time>2023-01-29T12:55:10.000Z</time>
      </trkpt>
      <trkpt lat="48.38015" lon="7.26182">
        <ele>862.59997558594</ele>
        <time>2023-01-29T12:55:14.000Z</time>
      </trkpt>
      <trkpt lat="48.38015" lon="7.26185">
        <ele>862.40002441406</ele>
        <time>2023-01-29T12:55:17.000Z</time>
      </trkpt>
      <trkpt lat="48.38013" lon="7.26187">
        <ele>862.19995117188</ele>
        <time>2023-01-29T12:55:19.000Z</time>
      </trkpt>
      <trkpt lat="48.3801" lon="7.26189">
        <ele>861.80004882812</ele>
        <time>2023-01-29T12:55:21.000Z</time>
      </trkpt>
      <trkpt lat="48.38009" lon="7.26191">
        <ele>861.59997558594</ele>
        <time>2023-01-29T12:55:23.000Z</time>
      </trkpt>
      <trkpt lat="48.38005" lon="7.26199">
        <ele>861.19995117188</ele>
        <time>2023-01-29T12:55:29.000Z</time>
      </trkpt>
      <trkpt lat="48.38006" lon="7.262">
        <ele>861</ele>
        <time>2023-01-29T12:55:30.000Z</time>
      </trkpt>
      <trkpt lat="48.38002" lon="7.26207">
        <ele>860.59997558594</ele>
        <time>2023-01-29T12:55:35.000Z</time>
      </trkpt>
      <trkpt lat="48.38001" lon="7.26217">
        <ele>860</ele>
        <time>2023-01-29T12:55:42.000Z</time>
      </trkpt>
      <trkpt lat="48.37998" lon="7.26222">
        <ele>859.40002441406</ele>
        <time>2023-01-29T12:55:46.000Z</time>
      </trkpt>
      <trkpt lat="48.37998" lon="7.26224">
        <ele>859.19995117188</ele>
        <time>2023-01-29T12:55:48.000Z</time>
      </trkpt>
      <trkpt lat="48.37996" lon="7.2623">
        <ele>858.80004882812</ele>
        <time>2023-01-29T12:55:53.000Z</time>
      </trkpt>
      <trkpt lat="48.37994" lon="7.26236">
        <ele>858.40002441406</ele>
        <time>2023-01-29T12:55:57.000Z</time>
      </trkpt>
      <trkpt lat="48.37992" lon="7.26237">
        <ele>858.19995117188</ele>
        <time>2023-01-29T12:55:59.000Z</time>
      </trkpt>
      <trkpt lat="48.37988" lon="7.26243">
        <ele>857.59997558594</ele>
        <time>2023-01-29T12:56:06.000Z</time>
      </trkpt>
      <trkpt lat="48.37988" lon="7.26246">
        <ele>857.40002441406</ele>
        <time>2023-01-29T12:56:08.000Z</time>
      </trkpt>
      <trkpt lat="48.37988" lon="7.26248">
        <ele>857.19995117188</ele>
        <time>2023-01-29T12:56:09.000Z</time>
      </trkpt>
      <trkpt lat="48.37986" lon="7.26252">
        <ele>857</ele>
        <time>2023-01-29T12:56:12.000Z</time>
      </trkpt>
      <trkpt lat="48.37981" lon="7.26258">
        <ele>856.40002441406</ele>
        <time>2023-01-29T12:56:18.000Z</time>
      </trkpt>
      <trkpt lat="48.37978" lon="7.26262">
        <ele>855.80004882812</ele>
        <time>2023-01-29T12:56:23.000Z</time>
      </trkpt>
      <trkpt lat="48.37975" lon="7.26266">
        <ele>855.40002441406</ele>
        <time>2023-01-29T12:56:27.000Z</time>
      </trkpt>
      <trkpt lat="48.37972" lon="7.26269">
        <ele>855</ele>
        <time>2023-01-29T12:56:29.000Z</time>
      </trkpt>
      <trkpt lat="48.37962" lon="7.26275">
        <ele>854.19995117188</ele>
        <time>2023-01-29T12:56:35.000Z</time>
      </trkpt>
      <trkpt lat="48.37958" lon="7.26283">
        <ele>853.59997558594</ele>
        <time>2023-01-29T12:56:40.000Z</time>
      </trkpt>
      <trkpt lat="48.37956" lon="7.26286">
        <ele>853.19995117188</ele>
        <time>2023-01-29T12:56:45.000Z</time>
      </trkpt>
      <trkpt lat="48.37955" lon="7.26287">
        <ele>853</ele>
        <time>2023-01-29T12:56:46.000Z</time>
      </trkpt>
      <trkpt lat="48.37948" lon="7.26293">
        <ele>852.59997558594</ele>
        <time>2023-01-29T12:56:52.000Z</time>
      </trkpt>
      <trkpt lat="48.37947" lon="7.26296">
        <ele>852.19995117188</ele>
        <time>2023-01-29T12:56:56.000Z</time>
      </trkpt>
      <trkpt lat="48.37946" lon="7.26297">
        <ele>852</ele>
        <time>2023-01-29T12:56:58.000Z</time>
      </trkpt>
      <trkpt lat="48.37938" lon="7.26303">
        <ele>852</ele>
        <time>2023-01-29T12:57:04.000Z</time>
      </trkpt>
      <trkpt lat="48.37933" lon="7.26309">
        <ele>851.59997558594</ele>
        <time>2023-01-29T12:57:10.000Z</time>
      </trkpt>
      <trkpt lat="48.37931" lon="7.26311">
        <ele>851.19995117188</ele>
        <time>2023-01-29T12:57:12.000Z</time>
      </trkpt>
      <trkpt lat="48.3793" lon="7.26312">
        <ele>851</ele>
        <time>2023-01-29T12:57:13.000Z</time>
      </trkpt>
      <trkpt lat="48.3793" lon="7.26313">
        <ele>851</ele>
        <time>2023-01-29T12:57:14.000Z</time>
      </trkpt>
      <trkpt lat="48.37928" lon="7.26315">
        <ele>850.80004882812</ele>
        <time>2023-01-29T12:57:16.000Z</time>
      </trkpt>
      <trkpt lat="48.37926" lon="7.26317">
        <ele>850.59997558594</ele>
        <time>2023-01-29T12:57:18.000Z</time>
      </trkpt>
      <trkpt lat="48.37923" lon="7.2632">
        <ele>850.19995117188</ele>
        <time>2023-01-29T12:57:21.000Z</time>
      </trkpt>
      <trkpt lat="48.37921" lon="7.26322">
        <ele>850.19995117188</ele>
        <time>2023-01-29T12:57:23.000Z</time>
      </trkpt>
      <trkpt lat="48.37919" lon="7.26322">
        <ele>850</ele>
        <time>2023-01-29T12:57:24.000Z</time>
      </trkpt>
      <trkpt lat="48.37918" lon="7.26323">
        <ele>850</ele>
        <time>2023-01-29T12:57:25.000Z</time>
      </trkpt>
      <trkpt lat="48.37917" lon="7.26324">
        <ele>849.80004882812</ele>
        <time>2023-01-29T12:57:26.000Z</time>
      </trkpt>
      <trkpt lat="48.37913" lon="7.26328">
        <ele>849.40002441406</ele>
        <time>2023-01-29T12:57:30.000Z</time>
      </trkpt>
      <trkpt lat="48.37912" lon="7.26333">
        <ele>849.19995117188</ele>
        <time>2023-01-29T12:57:33.000Z</time>
      </trkpt>
      <trkpt lat="48.37911" lon="7.26334">
        <ele>849</ele>
        <time>2023-01-29T12:57:34.000Z</time>
      </trkpt>
      <trkpt lat="48.3791" lon="7.26335">
        <ele>849</ele>
        <time>2023-01-29T12:57:35.000Z</time>
      </trkpt>
      <trkpt lat="48.37908" lon="7.26339">
        <ele>848.59997558594</ele>
        <time>2023-01-29T12:57:38.000Z</time>
      </trkpt>
      <trkpt lat="48.37907" lon="7.2634">
        <ele>848.40002441406</ele>
        <time>2023-01-29T12:57:39.000Z</time>
      </trkpt>
      <trkpt lat="48.37904" lon="7.26344">
        <ele>848</ele>
        <time>2023-01-29T12:57:43.000Z</time>
      </trkpt>
      <trkpt lat="48.37904" lon="7.26346">
        <ele>848</ele>
        <time>2023-01-29T12:57:44.000Z</time>
      </trkpt>
      <trkpt lat="48.37901" lon="7.26352">
        <ele>847.59997558594</ele>
        <time>2023-01-29T12:57:49.000Z</time>
      </trkpt>
      <trkpt lat="48.379" lon="7.26355">
        <ele>847.19995117188</ele>
        <time>2023-01-29T12:57:51.000Z</time>
      </trkpt>
      <trkpt lat="48.379" lon="7.26363">
        <ele>847</ele>
        <time>2023-01-29T12:57:55.000Z</time>
      </trkpt>
      <trkpt lat="48.37899" lon="7.26364">
        <ele>846.80004882812</ele>
        <time>2023-01-29T12:57:56.000Z</time>
      </trkpt>
      <trkpt lat="48.37898" lon="7.26366">
        <ele>846.59997558594</ele>
        <time>2023-01-29T12:57:57.000Z</time>
      </trkpt>
      <trkpt lat="48.37896" lon="7.26372">
        <ele>846.40002441406</ele>
        <time>2023-01-29T12:58:01.000Z</time>
      </trkpt>
      <trkpt lat="48.37895" lon="7.26378">
        <ele>846</ele>
        <time>2023-01-29T12:58:05.000Z</time>
      </trkpt>
      <trkpt lat="48.37894" lon="7.26382">
        <ele>845.80004882812</ele>
        <time>2023-01-29T12:58:07.000Z</time>
      </trkpt>
      <trkpt lat="48.37893" lon="7.26386">
        <ele>845.59997558594</ele>
        <time>2023-01-29T12:58:10.000Z</time>
      </trkpt>
      <trkpt lat="48.37893" lon="7.26388">
        <ele>845.40002441406</ele>
        <time>2023-01-29T12:58:11.000Z</time>
      </trkpt>
      <trkpt lat="48.37892" lon="7.2639">
        <ele>845.40002441406</ele>
        <time>2023-01-29T12:58:12.000Z</time>
      </trkpt>
      <trkpt lat="48.3789" lon="7.26393">
        <ele>845.19995117188</ele>
        <time>2023-01-29T12:58:14.000Z</time>
      </trkpt>
      <trkpt lat="48.37891" lon="7.26397">
        <ele>845</ele>
        <time>2023-01-29T12:58:16.000Z</time>
      </trkpt>
      <trkpt lat="48.3789" lon="7.26398">
        <ele>844.80004882812</ele>
        <time>2023-01-29T12:58:17.000Z</time>
      </trkpt>
      <trkpt lat="48.3789" lon="7.264">
        <ele>844.80004882812</ele>
        <time>2023-01-29T12:58:18.000Z</time>
      </trkpt>
      <trkpt lat="48.37889" lon="7.26411">
        <ele>844.19995117188</ele>
        <time>2023-01-29T12:58:24.000Z</time>
      </trkpt>
      <trkpt lat="48.3789" lon="7.26414">
        <ele>843.80004882812</ele>
        <time>2023-01-29T12:58:26.000Z</time>
      </trkpt>
      <trkpt lat="48.37889" lon="7.26419">
        <ele>843</ele>
        <time>2023-01-29T12:58:29.000Z</time>
      </trkpt>
      <trkpt lat="48.37889" lon="7.26422">
        <ele>843</ele>
        <time>2023-01-29T12:58:31.000Z</time>
      </trkpt>
      <trkpt lat="48.37889" lon="7.26424">
        <ele>843</ele>
        <time>2023-01-29T12:58:32.000Z</time>
      </trkpt>
      <trkpt lat="48.37889" lon="7.26427">
        <ele>843</ele>
        <time>2023-01-29T12:58:34.000Z</time>
      </trkpt>
      <trkpt lat="48.37889" lon="7.26431">
        <ele>843</ele>
        <time>2023-01-29T12:58:36.000Z</time>
      </trkpt>
      <trkpt lat="48.3789" lon="7.26435">
        <ele>842.80004882812</ele>
        <time>2023-01-29T12:58:38.000Z</time>
      </trkpt>
      <trkpt lat="48.37893" lon="7.26441">
        <ele>842.59997558594</ele>
        <time>2023-01-29T12:58:42.000Z</time>
      </trkpt>
      <trkpt lat="48.37895" lon="7.26453">
        <ele>842</ele>
        <time>2023-01-29T12:58:49.000Z</time>
      </trkpt>
      <trkpt lat="48.37895" lon="7.26454">
        <ele>841.80004882812</ele>
        <time>2023-01-29T12:58:50.000Z</time>
      </trkpt>
      <trkpt lat="48.37896" lon="7.26455">
        <ele>841.80004882812</ele>
        <time>2023-01-29T12:58:51.000Z</time>
      </trkpt>
      <trkpt lat="48.37897" lon="7.26459">
        <ele>841.59997558594</ele>
        <time>2023-01-29T12:58:54.000Z</time>
      </trkpt>
      <trkpt lat="48.37898" lon="7.26463">
        <ele>841.40002441406</ele>
        <time>2023-01-29T12:58:57.000Z</time>
      </trkpt>
      <trkpt lat="48.37902" lon="7.26471">
        <ele>841</ele>
        <time>2023-01-29T12:59:01.000Z</time>
      </trkpt>
      <trkpt lat="48.37904" lon="7.26473">
        <ele>840.40002441406</ele>
        <time>2023-01-29T12:59:03.000Z</time>
      </trkpt>
      <trkpt lat="48.37905" lon="7.26474">
        <ele>840.19995117188</ele>
        <time>2023-01-29T12:59:04.000Z</time>
      </trkpt>
      <trkpt lat="48.37911" lon="7.26481">
        <ele>839.40002441406</ele>
        <time>2023-01-29T12:59:11.000Z</time>
      </trkpt>
      <trkpt lat="48.37912" lon="7.26482">
        <ele>839.40002441406</ele>
        <time>2023-01-29T12:59:12.000Z</time>
      </trkpt>
      <trkpt lat="48.37913" lon="7.26485">
        <ele>839.19995117188</ele>
        <time>2023-01-29T12:59:14.000Z</time>
      </trkpt>
      <trkpt lat="48.37918" lon="7.26491">
        <ele>838.80004882812</ele>
        <time>2023-01-29T12:59:19.000Z</time>
      </trkpt>
      <trkpt lat="48.37921" lon="7.26494">
        <ele>838.59997558594</ele>
        <time>2023-01-29T12:59:22.000Z</time>
      </trkpt>
      <trkpt lat="48.37923" lon="7.26496">
        <ele>838.19995117188</ele>
        <time>2023-01-29T12:59:24.000Z</time>
      </trkpt>
      <trkpt lat="48.37929" lon="7.26502">
        <ele>837.80004882812</ele>
        <time>2023-01-29T12:59:30.000Z</time>
      </trkpt>
      <trkpt lat="48.37931" lon="7.26503">
        <ele>837.59997558594</ele>
        <time>2023-01-29T12:59:31.000Z</time>
      </trkpt>
      <trkpt lat="48.37937" lon="7.26511">
        <ele>837.19995117188</ele>
        <time>2023-01-29T12:59:36.000Z</time>
      </trkpt>
      <trkpt lat="48.37938" lon="7.26511">
        <ele>837.19995117188</ele>
        <time>2023-01-29T12:59:37.000Z</time>
      </trkpt>
      <trkpt lat="48.37943" lon="7.26514">
        <ele>836.19995117188</ele>
        <time>2023-01-29T12:59:44.000Z</time>
      </trkpt>
      <trkpt lat="48.37944" lon="7.26516">
        <ele>836</ele>
        <time>2023-01-29T12:59:46.000Z</time>
      </trkpt>
      <trkpt lat="48.37946" lon="7.26518">
        <ele>836</ele>
        <time>2023-01-29T12:59:49.000Z</time>
      </trkpt>
      <trkpt lat="48.37952" lon="7.26526">
        <ele>835.40002441406</ele>
        <time>2023-01-29T12:59:56.000Z</time>
      </trkpt>
      <trkpt lat="48.37957" lon="7.2653">
        <ele>835</ele>
        <time>2023-01-29T13:00:01.000Z</time>
      </trkpt>
      <trkpt lat="48.37959" lon="7.26532">
        <ele>834.59997558594</ele>
        <time>2023-01-29T13:00:03.000Z</time>
      </trkpt>
      <trkpt lat="48.37965" lon="7.26537">
        <ele>834</ele>
        <time>2023-01-29T13:00:10.000Z</time>
      </trkpt>
      <trkpt lat="48.37968" lon="7.26539">
        <ele>833.59997558594</ele>
        <time>2023-01-29T13:00:13.000Z</time>
      </trkpt>
      <trkpt lat="48.37973" lon="7.26543">
        <ele>833.19995117188</ele>
        <time>2023-01-29T13:00:19.000Z</time>
      </trkpt>
      <trkpt lat="48.37978" lon="7.26547">
        <ele>833</ele>
        <time>2023-01-29T13:00:24.000Z</time>
      </trkpt>
      <trkpt lat="48.37978" lon="7.26548">
        <ele>832.80004882812</ele>
        <time>2023-01-29T13:00:26.000Z</time>
      </trkpt>
      <trkpt lat="48.37985" lon="7.26549">
        <ele>832</ele>
        <time>2023-01-29T13:00:34.000Z</time>
      </trkpt>
      <trkpt lat="48.37987" lon="7.26549">
        <ele>832</ele>
        <time>2023-01-29T13:00:35.000Z</time>
      </trkpt>
      <trkpt lat="48.37994" lon="7.2655">
        <ele>831.40002441406</ele>
        <time>2023-01-29T13:00:42.000Z</time>
      </trkpt>
      <trkpt lat="48.38" lon="7.26551">
        <ele>830.80004882812</ele>
        <time>2023-01-29T13:00:47.000Z</time>
      </trkpt>
      <trkpt lat="48.38002" lon="7.26553">
        <ele>830.59997558594</ele>
        <time>2023-01-29T13:00:50.000Z</time>
      </trkpt>
      <trkpt lat="48.38007" lon="7.26554">
        <ele>830</ele>
        <time>2023-01-29T13:00:56.000Z</time>
      </trkpt>
      <trkpt lat="48.3801" lon="7.26555">
        <ele>829.80004882812</ele>
        <time>2023-01-29T13:00:58.000Z</time>
      </trkpt>
      <trkpt lat="48.38016" lon="7.26557">
        <ele>829.19995117188</ele>
        <time>2023-01-29T13:01:04.000Z</time>
      </trkpt>
      <trkpt lat="48.38021" lon="7.26561">
        <ele>828.80004882812</ele>
        <time>2023-01-29T13:01:07.000Z</time>
      </trkpt>
      <trkpt lat="48.38023" lon="7.26563">
        <ele>828.80004882812</ele>
        <time>2023-01-29T13:01:08.000Z</time>
      </trkpt>
      <trkpt lat="48.38027" lon="7.26566">
        <ele>828.59997558594</ele>
        <time>2023-01-29T13:01:10.000Z</time>
      </trkpt>
      <trkpt lat="48.38035" lon="7.2657">
        <ele>827.59997558594</ele>
        <time>2023-01-29T13:01:16.000Z</time>
      </trkpt>
      <trkpt lat="48.38037" lon="7.26572">
        <ele>827.59997558594</ele>
        <time>2023-01-29T13:01:18.000Z</time>
      </trkpt>
      <trkpt lat="48.38043" lon="7.26578">
        <ele>826.59997558594</ele>
        <time>2023-01-29T13:01:25.000Z</time>
      </trkpt>
      <trkpt lat="48.38044" lon="7.26582">
        <ele>826.40002441406</ele>
        <time>2023-01-29T13:01:27.000Z</time>
      </trkpt>
      <trkpt lat="48.38047" lon="7.26585">
        <ele>826.19995117188</ele>
        <time>2023-01-29T13:01:30.000Z</time>
      </trkpt>
      <trkpt lat="48.38049" lon="7.26587">
        <ele>826</ele>
        <time>2023-01-29T13:01:32.000Z</time>
      </trkpt>
      <trkpt lat="48.3805" lon="7.26589">
        <ele>826</ele>
        <time>2023-01-29T13:01:33.000Z</time>
      </trkpt>
      <trkpt lat="48.38057" lon="7.26594">
        <ele>825.80004882812</ele>
        <time>2023-01-29T13:01:37.000Z</time>
      </trkpt>
      <trkpt lat="48.38059" lon="7.26596">
        <ele>825.40002441406</ele>
        <time>2023-01-29T13:01:38.000Z</time>
      </trkpt>
      <trkpt lat="48.38061" lon="7.26596">
        <ele>825.19995117188</ele>
        <time>2023-01-29T13:01:40.000Z</time>
      </trkpt>
      <trkpt lat="48.38065" lon="7.26603">
        <ele>825</ele>
        <time>2023-01-29T13:01:46.000Z</time>
      </trkpt>
      <trkpt lat="48.38067" lon="7.2661">
        <ele>824.40002441406</ele>
        <time>2023-01-29T13:01:51.000Z</time>
      </trkpt>
      <trkpt lat="48.38072" lon="7.26615">
        <ele>824.19995117188</ele>
        <time>2023-01-29T13:01:55.000Z</time>
      </trkpt>
      <trkpt lat="48.38075" lon="7.26617">
        <ele>824.19995117188</ele>
        <time>2023-01-29T13:01:57.000Z</time>
      </trkpt>
      <trkpt lat="48.38079" lon="7.26623">
        <ele>823.80004882812</ele>
        <time>2023-01-29T13:02:03.000Z</time>
      </trkpt>
      <trkpt lat="48.38082" lon="7.26627">
        <ele>823.40002441406</ele>
        <time>2023-01-29T13:02:05.000Z</time>
      </trkpt>
      <trkpt lat="48.38084" lon="7.26631">
        <ele>823.19995117188</ele>
        <time>2023-01-29T13:02:08.000Z</time>
      </trkpt>
      <trkpt lat="48.38085" lon="7.26634">
        <ele>823.19995117188</ele>
        <time>2023-01-29T13:02:10.000Z</time>
      </trkpt>
      <trkpt lat="48.38088" lon="7.26641">
        <ele>822.59997558594</ele>
        <time>2023-01-29T13:02:17.000Z</time>
      </trkpt>
      <trkpt lat="48.38089" lon="7.26643">
        <ele>822.40002441406</ele>
        <time>2023-01-29T13:02:19.000Z</time>
      </trkpt>
      <trkpt lat="48.38092" lon="7.26644">
        <ele>822</ele>
        <time>2023-01-29T13:02:23.000Z</time>
      </trkpt>
      <trkpt lat="48.38094" lon="7.26644">
        <ele>822</ele>
        <time>2023-01-29T13:02:24.000Z</time>
      </trkpt>
      <trkpt lat="48.38101" lon="7.26647">
        <ele>821.40002441406</ele>
        <time>2023-01-29T13:02:31.000Z</time>
      </trkpt>
      <trkpt lat="48.38101" lon="7.26649">
        <ele>821.19995117188</ele>
        <time>2023-01-29T13:02:36.000Z</time>
      </trkpt>
      <trkpt lat="48.38102" lon="7.2665">
        <ele>821.40002441406</ele>
        <time>2023-01-29T13:02:46.000Z</time>
      </trkpt>
      <trkpt lat="48.38102" lon="7.2665">
        <ele>821.59997558594</ele>
        <time>2023-01-29T13:02:52.000Z</time>
      </trkpt>
      <trkpt lat="48.38102" lon="7.2665">
        <ele>821.59997558594</ele>
        <time>2023-01-29T13:02:57.000Z</time>
      </trkpt>
      <trkpt lat="48.38102" lon="7.2665">
        <ele>821.40002441406</ele>
        <time>2023-01-29T13:03:01.000Z</time>
      </trkpt>
      <trkpt lat="48.38102" lon="7.2665">
        <ele>821.40002441406</ele>
        <time>2023-01-29T13:03:02.000Z</time>
      </trkpt>
      <trkpt lat="48.38108" lon="7.26655">
        <ele>820.59997558594</ele>
        <time>2023-01-29T13:03:14.000Z</time>
      </trkpt>
      <trkpt lat="48.38111" lon="7.26658">
        <ele>820.19995117188</ele>
        <time>2023-01-29T13:03:16.000Z</time>
      </trkpt>
      <trkpt lat="48.38114" lon="7.26659">
        <ele>820.19995117188</ele>
        <time>2023-01-29T13:03:19.000Z</time>
      </trkpt>
      <trkpt lat="48.38114" lon="7.26659">
        <ele>820</ele>
        <time>2023-01-29T13:03:21.000Z</time>
      </trkpt>
      <trkpt lat="48.38117" lon="7.26662">
        <ele>819.59997558594</ele>
        <time>2023-01-29T13:03:25.000Z</time>
      </trkpt>
      <trkpt lat="48.38121" lon="7.26664">
        <ele>819.40002441406</ele>
        <time>2023-01-29T13:03:30.000Z</time>
      </trkpt>
      <trkpt lat="48.38122" lon="7.26665">
        <ele>819.19995117188</ele>
        <time>2023-01-29T13:03:31.000Z</time>
      </trkpt>
      <trkpt lat="48.38127" lon="7.26666">
        <ele>818.80004882812</ele>
        <time>2023-01-29T13:03:35.000Z</time>
      </trkpt>
      <trkpt lat="48.38129" lon="7.26667">
        <ele>818.80004882812</ele>
        <time>2023-01-29T13:03:36.000Z</time>
      </trkpt>
      <trkpt lat="48.38131" lon="7.26669">
        <ele>818.59997558594</ele>
        <time>2023-01-29T13:03:37.000Z</time>
      </trkpt>
      <trkpt lat="48.38136" lon="7.26672">
        <ele>818.19995117188</ele>
        <time>2023-01-29T13:03:41.000Z</time>
      </trkpt>
      <trkpt lat="48.38137" lon="7.26672">
        <ele>818.19995117188</ele>
        <time>2023-01-29T13:03:42.000Z</time>
      </trkpt>
      <trkpt lat="48.38137" lon="7.26674">
        <ele>818</ele>
        <time>2023-01-29T13:03:47.000Z</time>
      </trkpt>
      <trkpt lat="48.38139" lon="7.26675">
        <ele>818</ele>
        <time>2023-01-29T13:03:50.000Z</time>
      </trkpt>
      <trkpt lat="48.38139" lon="7.26678">
        <ele>817.80004882812</ele>
        <time>2023-01-29T13:03:54.000Z</time>
      </trkpt>
      <trkpt lat="48.38141" lon="7.2668">
        <ele>817.59997558594</ele>
        <time>2023-01-29T13:04:01.000Z</time>
      </trkpt>
      <trkpt lat="48.38145" lon="7.26684">
        <ele>817</ele>
        <time>2023-01-29T13:04:07.000Z</time>
      </trkpt>
      <trkpt lat="48.38149" lon="7.26686">
        <ele>816.40002441406</ele>
        <time>2023-01-29T13:04:11.000Z</time>
      </trkpt>
      <trkpt lat="48.38156" lon="7.26689">
        <ele>816</ele>
        <time>2023-01-29T13:04:17.000Z</time>
      </trkpt>
      <trkpt lat="48.38157" lon="7.2669">
        <ele>815.80004882812</ele>
        <time>2023-01-29T13:04:19.000Z</time>
      </trkpt>
      <trkpt lat="48.38157" lon="7.26691">
        <ele>815.80004882812</ele>
        <time>2023-01-29T13:04:20.000Z</time>
      </trkpt>
      <trkpt lat="48.38159" lon="7.26694">
        <ele>815.40002441406</ele>
        <time>2023-01-29T13:04:24.000Z</time>
      </trkpt>
      <trkpt lat="48.3816" lon="7.26695">
        <ele>815.40002441406</ele>
        <time>2023-01-29T13:04:25.000Z</time>
      </trkpt>
      <trkpt lat="48.38162" lon="7.26694">
        <ele>815</ele>
        <time>2023-01-29T13:04:27.000Z</time>
      </trkpt>
      <trkpt lat="48.38163" lon="7.26695">
        <ele>815</ele>
        <time>2023-01-29T13:04:29.000Z</time>
      </trkpt>
      <trkpt lat="48.38164" lon="7.26696">
        <ele>814.59997558594</ele>
        <time>2023-01-29T13:04:30.000Z</time>
      </trkpt>
      <trkpt lat="48.38164" lon="7.26696">
        <ele>814.40002441406</ele>
        <time>2023-01-29T13:04:33.000Z</time>
      </trkpt>
      <trkpt lat="48.38167" lon="7.26698">
        <ele>814</ele>
        <time>2023-01-29T13:04:37.000Z</time>
      </trkpt>
      <trkpt lat="48.38168" lon="7.26699">
        <ele>814</ele>
        <time>2023-01-29T13:04:38.000Z</time>
      </trkpt>
      <trkpt lat="48.38168" lon="7.26699">
        <ele>813.80004882812</ele>
        <time>2023-01-29T13:04:39.000Z</time>
      </trkpt>
      <trkpt lat="48.38169" lon="7.26699">
        <ele>813.80004882812</ele>
        <time>2023-01-29T13:04:40.000Z</time>
      </trkpt>
      <trkpt lat="48.38169" lon="7.26702">
        <ele>813.19995117188</ele>
        <time>2023-01-29T13:04:46.000Z</time>
      </trkpt>
      <trkpt lat="48.38171" lon="7.26705">
        <ele>812.80004882812</ele>
        <time>2023-01-29T13:04:49.000Z</time>
      </trkpt>
      <trkpt lat="48.38173" lon="7.26708">
        <ele>812.59997558594</ele>
        <time>2023-01-29T13:04:51.000Z</time>
      </trkpt>
      <trkpt lat="48.38174" lon="7.26709">
        <ele>812.40002441406</ele>
        <time>2023-01-29T13:04:52.000Z</time>
      </trkpt>
      <trkpt lat="48.38174" lon="7.26713">
        <ele>812.19995117188</ele>
        <time>2023-01-29T13:04:56.000Z</time>
      </trkpt>
      <trkpt lat="48.38176" lon="7.26716">
        <ele>812</ele>
        <time>2023-01-29T13:05:02.000Z</time>
      </trkpt>
      <trkpt lat="48.38176" lon="7.26722">
        <ele>811.59997558594</ele>
        <time>2023-01-29T13:05:07.000Z</time>
      </trkpt>
      <trkpt lat="48.38177" lon="7.26726">
        <ele>811.40002441406</ele>
        <time>2023-01-29T13:05:10.000Z</time>
      </trkpt>
      <trkpt lat="48.38179" lon="7.26735">
        <ele>810.80004882812</ele>
        <time>2023-01-29T13:05:15.000Z</time>
      </trkpt>
      <trkpt lat="48.3818" lon="7.26739">
        <ele>810.59997558594</ele>
        <time>2023-01-29T13:05:18.000Z</time>
      </trkpt>
      <trkpt lat="48.38181" lon="7.26742">
        <ele>810.40002441406</ele>
        <time>2023-01-29T13:05:20.000Z</time>
      </trkpt>
      <trkpt lat="48.3818" lon="7.26747">
        <ele>810</ele>
        <time>2023-01-29T13:05:24.000Z</time>
      </trkpt>
      <trkpt lat="48.38181" lon="7.26749">
        <ele>809.80004882812</ele>
        <time>2023-01-29T13:05:26.000Z</time>
      </trkpt>
      <trkpt lat="48.3818" lon="7.26751">
        <ele>809.80004882812</ele>
        <time>2023-01-29T13:05:27.000Z</time>
      </trkpt>
      <trkpt lat="48.38181" lon="7.26754">
        <ele>809.59997558594</ele>
        <time>2023-01-29T13:05:29.000Z</time>
      </trkpt>
      <trkpt lat="48.38181" lon="7.26757">
        <ele>809.40002441406</ele>
        <time>2023-01-29T13:05:31.000Z</time>
      </trkpt>
      <trkpt lat="48.3818" lon="7.2676">
        <ele>809</ele>
        <time>2023-01-29T13:05:33.000Z</time>
      </trkpt>
      <trkpt lat="48.38178" lon="7.26764">
        <ele>808.80004882812</ele>
        <time>2023-01-29T13:05:35.000Z</time>
      </trkpt>
      <trkpt lat="48.38177" lon="7.26765">
        <ele>808.59997558594</ele>
        <time>2023-01-29T13:05:37.000Z</time>
      </trkpt>
      <trkpt lat="48.38177" lon="7.26768">
        <ele>808.40002441406</ele>
        <time>2023-01-29T13:05:39.000Z</time>
      </trkpt>
      <trkpt lat="48.38179" lon="7.26774">
        <ele>808</ele>
        <time>2023-01-29T13:05:43.000Z</time>
      </trkpt>
      <trkpt lat="48.38178" lon="7.26779">
        <ele>807.40002441406</ele>
        <time>2023-01-29T13:05:47.000Z</time>
      </trkpt>
      <trkpt lat="48.38178" lon="7.2678">
        <ele>807.19995117188</ele>
        <time>2023-01-29T13:05:48.000Z</time>
      </trkpt>
      <trkpt lat="48.38177" lon="7.26795">
        <ele>806.59997558594</ele>
        <time>2023-01-29T13:05:56.000Z</time>
      </trkpt>
      <trkpt lat="48.38178" lon="7.26796">
        <ele>806.40002441406</ele>
        <time>2023-01-29T13:05:57.000Z</time>
      </trkpt>
      <trkpt lat="48.38177" lon="7.268">
        <ele>806.40002441406</ele>
        <time>2023-01-29T13:05:59.000Z</time>
      </trkpt>
      <trkpt lat="48.38178" lon="7.26804">
        <ele>806</ele>
        <time>2023-01-29T13:06:02.000Z</time>
      </trkpt>
      <trkpt lat="48.38179" lon="7.26813">
        <ele>805.40002441406</ele>
        <time>2023-01-29T13:06:09.000Z</time>
      </trkpt>
      <trkpt lat="48.38179" lon="7.26823">
        <ele>804.59997558594</ele>
        <time>2023-01-29T13:06:17.000Z</time>
      </trkpt>
      <trkpt lat="48.38181" lon="7.26831">
        <ele>804.19995117188</ele>
        <time>2023-01-29T13:06:22.000Z</time>
      </trkpt>
      <trkpt lat="48.38183" lon="7.26834">
        <ele>804</ele>
        <time>2023-01-29T13:06:25.000Z</time>
      </trkpt>
      <trkpt lat="48.38183" lon="7.26841">
        <ele>803.59997558594</ele>
        <time>2023-01-29T13:06:29.000Z</time>
      </trkpt>
      <trkpt lat="48.38183" lon="7.26843">
        <ele>803.59997558594</ele>
        <time>2023-01-29T13:06:30.000Z</time>
      </trkpt>
      <trkpt lat="48.38184" lon="7.26849">
        <ele>803.40002441406</ele>
        <time>2023-01-29T13:06:33.000Z</time>
      </trkpt>
      <trkpt lat="48.38184" lon="7.2685">
        <ele>803.19995117188</ele>
        <time>2023-01-29T13:06:34.000Z</time>
      </trkpt>
      <trkpt lat="48.38187" lon="7.26862">
        <ele>802.59997558594</ele>
        <time>2023-01-29T13:06:40.000Z</time>
      </trkpt>
      <trkpt lat="48.38189" lon="7.26865">
        <ele>802.40002441406</ele>
        <time>2023-01-29T13:06:43.000Z</time>
      </trkpt>
      <trkpt lat="48.3819" lon="7.26866">
        <ele>802.40002441406</ele>
        <time>2023-01-29T13:06:44.000Z</time>
      </trkpt>
      <trkpt lat="48.3819" lon="7.2687">
        <ele>802.19995117188</ele>
        <time>2023-01-29T13:06:46.000Z</time>
      </trkpt>
      <trkpt lat="48.38191" lon="7.26874">
        <ele>801.80004882812</ele>
        <time>2023-01-29T13:06:49.000Z</time>
      </trkpt>
      <trkpt lat="48.38191" lon="7.26878">
        <ele>801.59997558594</ele>
        <time>2023-01-29T13:06:52.000Z</time>
      </trkpt>
      <trkpt lat="48.38189" lon="7.2688">
        <ele>801.40002441406</ele>
        <time>2023-01-29T13:06:56.000Z</time>
      </trkpt>
      <trkpt lat="48.38188" lon="7.2688">
        <ele>801.40002441406</ele>
        <time>2023-01-29T13:06:58.000Z</time>
      </trkpt>
      <trkpt lat="48.38189" lon="7.26878">
        <ele>801.40002441406</ele>
        <time>2023-01-29T13:07:03.000Z</time>
      </trkpt>
      <trkpt lat="48.3819" lon="7.26881">
        <ele>801.19995117188</ele>
        <time>2023-01-29T13:07:06.000Z</time>
      </trkpt>
      <trkpt lat="48.38192" lon="7.26887">
        <ele>800.80004882812</ele>
        <time>2023-01-29T13:07:11.000Z</time>
      </trkpt>
      <trkpt lat="48.38193" lon="7.2689">
        <ele>800.80004882812</ele>
        <time>2023-01-29T13:07:13.000Z</time>
      </trkpt>
      <trkpt lat="48.38194" lon="7.26896">
        <ele>800.40002441406</ele>
        <time>2023-01-29T13:07:17.000Z</time>
      </trkpt>
      <trkpt lat="48.38195" lon="7.269">
        <ele>800.40002441406</ele>
        <time>2023-01-29T13:07:20.000Z</time>
      </trkpt>
      <trkpt lat="48.38197" lon="7.26903">
        <ele>800</ele>
        <time>2023-01-29T13:07:22.000Z</time>
      </trkpt>
      <trkpt lat="48.38199" lon="7.26909">
        <ele>799.40002441406</ele>
        <time>2023-01-29T13:07:27.000Z</time>
      </trkpt>
      <trkpt lat="48.38203" lon="7.26919">
        <ele>799</ele>
        <time>2023-01-29T13:07:36.000Z</time>
      </trkpt>
      <trkpt lat="48.38203" lon="7.2692">
        <ele>798.80004882812</ele>
        <time>2023-01-29T13:07:37.000Z</time>
      </trkpt>
      <trkpt lat="48.38205" lon="7.26925">
        <ele>798.59997558594</ele>
        <time>2023-01-29T13:07:41.000Z</time>
      </trkpt>
      <trkpt lat="48.38207" lon="7.26929">
        <ele>798.40002441406</ele>
        <time>2023-01-29T13:07:44.000Z</time>
      </trkpt>
      <trkpt lat="48.3821" lon="7.26936">
        <ele>798</ele>
        <time>2023-01-29T13:07:49.000Z</time>
      </trkpt>
      <trkpt lat="48.38211" lon="7.26938">
        <ele>797.59997558594</ele>
        <time>2023-01-29T13:07:51.000Z</time>
      </trkpt>
      <trkpt lat="48.38211" lon="7.26941">
        <ele>797</ele>
        <time>2023-01-29T13:07:57.000Z</time>
      </trkpt>
      <trkpt lat="48.38212" lon="7.26943">
        <ele>796.80004882812</ele>
        <time>2023-01-29T13:08:00.000Z</time>
      </trkpt>
      <trkpt lat="48.38215" lon="7.26944">
        <ele>796.59997558594</ele>
        <time>2023-01-29T13:08:05.000Z</time>
      </trkpt>
      <trkpt lat="48.38219" lon="7.26951">
        <ele>796.19995117188</ele>
        <time>2023-01-29T13:08:11.000Z</time>
      </trkpt>
      <trkpt lat="48.3822" lon="7.26951">
        <ele>796</ele>
        <time>2023-01-29T13:08:12.000Z</time>
      </trkpt>
      <trkpt lat="48.38224" lon="7.26954">
        <ele>795.80004882812</ele>
        <time>2023-01-29T13:08:15.000Z</time>
      </trkpt>
      <trkpt lat="48.38225" lon="7.26959">
        <ele>795.59997558594</ele>
        <time>2023-01-29T13:08:19.000Z</time>
      </trkpt>
      <trkpt lat="48.38228" lon="7.26967">
        <ele>795.19995117188</ele>
        <time>2023-01-29T13:08:25.000Z</time>
      </trkpt>
      <trkpt lat="48.38231" lon="7.26974">
        <ele>794.80004882812</ele>
        <time>2023-01-29T13:08:32.000Z</time>
      </trkpt>
      <trkpt lat="48.38233" lon="7.26976">
        <ele>794.80004882812</ele>
        <time>2023-01-29T13:08:33.000Z</time>
      </trkpt>
      <trkpt lat="48.38234" lon="7.26981">
        <ele>794.59997558594</ele>
        <time>2023-01-29T13:08:35.000Z</time>
      </trkpt>
      <trkpt lat="48.38233" lon="7.26982">
        <ele>794.40002441406</ele>
        <time>2023-01-29T13:08:36.000Z</time>
      </trkpt>
      <trkpt lat="48.38234" lon="7.26984">
        <ele>794.19995117188</ele>
        <time>2023-01-29T13:08:38.000Z</time>
      </trkpt>
      <trkpt lat="48.38235" lon="7.26988">
        <ele>794.19995117188</ele>
        <time>2023-01-29T13:08:40.000Z</time>
      </trkpt>
      <trkpt lat="48.38235" lon="7.26995">
        <ele>793.59997558594</ele>
        <time>2023-01-29T13:08:45.000Z</time>
      </trkpt>
      <trkpt lat="48.38234" lon="7.26999">
        <ele>793.40002441406</ele>
        <time>2023-01-29T13:08:47.000Z</time>
      </trkpt>
      <trkpt lat="48.38232" lon="7.27">
        <ele>793.40002441406</ele>
        <time>2023-01-29T13:08:49.000Z</time>
      </trkpt>
      <trkpt lat="48.38233" lon="7.27009">
        <ele>792.80004882812</ele>
        <time>2023-01-29T13:08:55.000Z</time>
      </trkpt>
      <trkpt lat="48.38233" lon="7.27012">
        <ele>792.59997558594</ele>
        <time>2023-01-29T13:08:57.000Z</time>
      </trkpt>
      <trkpt lat="48.38234" lon="7.27015">
        <ele>792.40002441406</ele>
        <time>2023-01-29T13:08:59.000Z</time>
      </trkpt>
      <trkpt lat="48.38236" lon="7.2702">
        <ele>792.19995117188</ele>
        <time>2023-01-29T13:09:02.000Z</time>
      </trkpt>
      <trkpt lat="48.38237" lon="7.27033">
        <ele>791.80004882812</ele>
        <time>2023-01-29T13:09:08.000Z</time>
      </trkpt>
      <trkpt lat="48.38238" lon="7.27034">
        <ele>791.40002441406</ele>
        <time>2023-01-29T13:09:09.000Z</time>
      </trkpt>
      <trkpt lat="48.3824" lon="7.27037">
        <ele>791.19995117188</ele>
        <time>2023-01-29T13:09:11.000Z</time>
      </trkpt>
      <trkpt lat="48.38241" lon="7.27042">
        <ele>790.80004882812</ele>
        <time>2023-01-29T13:09:14.000Z</time>
      </trkpt>
      <trkpt lat="48.38242" lon="7.27043">
        <ele>790.80004882812</ele>
        <time>2023-01-29T13:09:15.000Z</time>
      </trkpt>
      <trkpt lat="48.38244" lon="7.27049">
        <ele>790.59997558594</ele>
        <time>2023-01-29T13:09:18.000Z</time>
      </trkpt>
      <trkpt lat="48.38243" lon="7.27051">
        <ele>790.59997558594</ele>
        <time>2023-01-29T13:09:19.000Z</time>
      </trkpt>
      <trkpt lat="48.38242" lon="7.27057">
        <ele>790.40002441406</ele>
        <time>2023-01-29T13:09:22.000Z</time>
      </trkpt>
      <trkpt lat="48.38243" lon="7.27061">
        <ele>790.19995117188</ele>
        <time>2023-01-29T13:09:26.000Z</time>
      </trkpt>
      <trkpt lat="48.38244" lon="7.27065">
        <ele>790</ele>
        <time>2023-01-29T13:09:28.000Z</time>
      </trkpt>
      <trkpt lat="48.38245" lon="7.2707">
        <ele>789.80004882812</ele>
        <time>2023-01-29T13:09:31.000Z</time>
      </trkpt>
      <trkpt lat="48.38245" lon="7.27071">
        <ele>789.59997558594</ele>
        <time>2023-01-29T13:09:33.000Z</time>
      </trkpt>
      <trkpt lat="48.38245" lon="7.27075">
        <ele>789.59997558594</ele>
        <time>2023-01-29T13:09:35.000Z</time>
      </trkpt>
      <trkpt lat="48.38245" lon="7.27077">
        <ele>789.40002441406</ele>
        <time>2023-01-29T13:09:36.000Z</time>
      </trkpt>
      <trkpt lat="48.38243" lon="7.27082">
        <ele>789.19995117188</ele>
        <time>2023-01-29T13:09:39.000Z</time>
      </trkpt>
      <trkpt lat="48.3824" lon="7.2709">
        <ele>789.19995117188</ele>
        <time>2023-01-29T13:09:42.000Z</time>
      </trkpt>
      <trkpt lat="48.38236" lon="7.27095">
        <ele>788.80004882812</ele>
        <time>2023-01-29T13:09:46.000Z</time>
      </trkpt>
      <trkpt lat="48.38232" lon="7.27099">
        <ele>788.59997558594</ele>
        <time>2023-01-29T13:09:49.000Z</time>
      </trkpt>
      <trkpt lat="48.38231" lon="7.27102">
        <ele>788.40002441406</ele>
        <time>2023-01-29T13:09:51.000Z</time>
      </trkpt>
      <trkpt lat="48.3823" lon="7.27103">
        <ele>788.40002441406</ele>
        <time>2023-01-29T13:09:52.000Z</time>
      </trkpt>
      <trkpt lat="48.38226" lon="7.27107">
        <ele>788.19995117188</ele>
        <time>2023-01-29T13:09:55.000Z</time>
      </trkpt>
      <trkpt lat="48.38224" lon="7.27108">
        <ele>788.19995117188</ele>
        <time>2023-01-29T13:09:56.000Z</time>
      </trkpt>
      <trkpt lat="48.3822" lon="7.27115">
        <ele>787.59997558594</ele>
        <time>2023-01-29T13:10:00.000Z</time>
      </trkpt>
      <trkpt lat="48.38216" lon="7.27121">
        <ele>787.40002441406</ele>
        <time>2023-01-29T13:10:04.000Z</time>
      </trkpt>
      <trkpt lat="48.38212" lon="7.27125">
        <ele>787.40002441406</ele>
        <time>2023-01-29T13:10:07.000Z</time>
      </trkpt>
      <trkpt lat="48.38211" lon="7.27126">
        <ele>787.19995117188</ele>
        <time>2023-01-29T13:10:08.000Z</time>
      </trkpt>
      <trkpt lat="48.3821" lon="7.27129">
        <ele>787</ele>
        <time>2023-01-29T13:10:10.000Z</time>
      </trkpt>
      <trkpt lat="48.38209" lon="7.27132">
        <ele>787</ele>
        <time>2023-01-29T13:10:12.000Z</time>
      </trkpt>
      <trkpt lat="48.38207" lon="7.27133">
        <ele>786.59997558594</ele>
        <time>2023-01-29T13:10:14.000Z</time>
      </trkpt>
      <trkpt lat="48.38206" lon="7.27135">
        <ele>786.40002441406</ele>
        <time>2023-01-29T13:10:16.000Z</time>
      </trkpt>
      <trkpt lat="48.38206" lon="7.27137">
        <ele>786.19995117188</ele>
        <time>2023-01-29T13:10:17.000Z</time>
      </trkpt>
      <trkpt lat="48.38205" lon="7.27138">
        <ele>786.19995117188</ele>
        <time>2023-01-29T13:10:18.000Z</time>
      </trkpt>
      <trkpt lat="48.38203" lon="7.2714">
        <ele>786.19995117188</ele>
        <time>2023-01-29T13:10:20.000Z</time>
      </trkpt>
      <trkpt lat="48.382" lon="7.27142">
        <ele>786</ele>
        <time>2023-01-29T13:10:22.000Z</time>
      </trkpt>
      <trkpt lat="48.38196" lon="7.27145">
        <ele>785.40002441406</ele>
        <time>2023-01-29T13:10:26.000Z</time>
      </trkpt>
      <trkpt lat="48.38194" lon="7.27145">
        <ele>785.40002441406</ele>
        <time>2023-01-29T13:10:27.000Z</time>
      </trkpt>
      <trkpt lat="48.38193" lon="7.27146">
        <ele>785</ele>
        <time>2023-01-29T13:10:28.000Z</time>
      </trkpt>
      <trkpt lat="48.38189" lon="7.2715">
        <ele>784.59997558594</ele>
        <time>2023-01-29T13:10:31.000Z</time>
      </trkpt>
      <trkpt lat="48.38187" lon="7.27151">
        <ele>784.59997558594</ele>
        <time>2023-01-29T13:10:32.000Z</time>
      </trkpt>
      <trkpt lat="48.38185" lon="7.27153">
        <ele>784.59997558594</ele>
        <time>2023-01-29T13:10:34.000Z</time>
      </trkpt>
      <trkpt lat="48.38183" lon="7.27154">
        <ele>784.40002441406</ele>
        <time>2023-01-29T13:10:36.000Z</time>
      </trkpt>
      <trkpt lat="48.3818" lon="7.27156">
        <ele>784.19995117188</ele>
        <time>2023-01-29T13:10:39.000Z</time>
      </trkpt>
      <trkpt lat="48.38178" lon="7.27158">
        <ele>784</ele>
        <time>2023-01-29T13:10:41.000Z</time>
      </trkpt>
      <trkpt lat="48.38174" lon="7.27159">
        <ele>783.80004882812</ele>
        <time>2023-01-29T13:10:44.000Z</time>
      </trkpt>
      <trkpt lat="48.38173" lon="7.27161">
        <ele>783.59997558594</ele>
        <time>2023-01-29T13:10:46.000Z</time>
      </trkpt>
      <trkpt lat="48.38171" lon="7.27161">
        <ele>783.59997558594</ele>
        <time>2023-01-29T13:10:47.000Z</time>
      </trkpt>
      <trkpt lat="48.3817" lon="7.27161">
        <ele>783.40002441406</ele>
        <time>2023-01-29T13:10:48.000Z</time>
      </trkpt>
      <trkpt lat="48.38167" lon="7.27162">
        <ele>783</ele>
        <time>2023-01-29T13:10:52.000Z</time>
      </trkpt>
      <trkpt lat="48.38166" lon="7.27162">
        <ele>782.80004882812</ele>
        <time>2023-01-29T13:10:53.000Z</time>
      </trkpt>
      <trkpt lat="48.38162" lon="7.27166">
        <ele>782.59997558594</ele>
        <time>2023-01-29T13:10:59.000Z</time>
      </trkpt>
      <trkpt lat="48.38162" lon="7.27167">
        <ele>782.19995117188</ele>
        <time>2023-01-29T13:11:00.000Z</time>
      </trkpt>
      <trkpt lat="48.3816" lon="7.2717">
        <ele>782</ele>
        <time>2023-01-29T13:11:03.000Z</time>
      </trkpt>
      <trkpt lat="48.38157" lon="7.27172">
        <ele>781.80004882812</ele>
        <time>2023-01-29T13:11:05.000Z</time>
      </trkpt>
      <trkpt lat="48.38152" lon="7.27172">
        <ele>781.40002441406</ele>
        <time>2023-01-29T13:11:10.000Z</time>
      </trkpt>
      <trkpt lat="48.38146" lon="7.27162">
        <ele>781.19995117188</ele>
        <time>2023-01-29T13:11:16.000Z</time>
      </trkpt>
      <trkpt lat="48.38143" lon="7.2717">
        <ele>781</ele>
        <time>2023-01-29T13:11:23.000Z</time>
      </trkpt>
      <trkpt lat="48.38143" lon="7.27172">
        <ele>780.80004882812</ele>
        <time>2023-01-29T13:11:26.000Z</time>
      </trkpt>
      <trkpt lat="48.38141" lon="7.27173">
        <ele>780.40002441406</ele>
        <time>2023-01-29T13:11:28.000Z</time>
      </trkpt>
      <trkpt lat="48.38136" lon="7.27179">
        <ele>780.19995117188</ele>
        <time>2023-01-29T13:11:34.000Z</time>
      </trkpt>
      <trkpt lat="48.38133" lon="7.27187">
        <ele>779.80004882812</ele>
        <time>2023-01-29T13:11:40.000Z</time>
      </trkpt>
      <trkpt lat="48.38131" lon="7.27189">
        <ele>779.80004882812</ele>
        <time>2023-01-29T13:11:42.000Z</time>
      </trkpt>
      <trkpt lat="48.3813" lon="7.27194">
        <ele>779.40002441406</ele>
        <time>2023-01-29T13:11:47.000Z</time>
      </trkpt>
      <trkpt lat="48.38126" lon="7.27204">
        <ele>778.80004882812</ele>
        <time>2023-01-29T13:11:54.000Z</time>
      </trkpt>
      <trkpt lat="48.38125" lon="7.27206">
        <ele>778.59997558594</ele>
        <time>2023-01-29T13:11:55.000Z</time>
      </trkpt>
      <trkpt lat="48.38119" lon="7.27213">
        <ele>778.19995117188</ele>
        <time>2023-01-29T13:12:01.000Z</time>
      </trkpt>
      <trkpt lat="48.38117" lon="7.27215">
        <ele>778.19995117188</ele>
        <time>2023-01-29T13:12:03.000Z</time>
      </trkpt>
      <trkpt lat="48.38115" lon="7.27217">
        <ele>778</ele>
        <time>2023-01-29T13:12:05.000Z</time>
      </trkpt>
      <trkpt lat="48.38114" lon="7.2722">
        <ele>777.80004882812</ele>
        <time>2023-01-29T13:12:08.000Z</time>
      </trkpt>
      <trkpt lat="48.38113" lon="7.2722">
        <ele>777.59997558594</ele>
        <time>2023-01-29T13:12:09.000Z</time>
      </trkpt>
      <trkpt lat="48.38111" lon="7.2722">
        <ele>777.19995117188</ele>
        <time>2023-01-29T13:12:13.000Z</time>
      </trkpt>
      <trkpt lat="48.38109" lon="7.27226">
        <ele>777</ele>
        <time>2023-01-29T13:12:17.000Z</time>
      </trkpt>
      <trkpt lat="48.38108" lon="7.27227">
        <ele>777</ele>
        <time>2023-01-29T13:12:19.000Z</time>
      </trkpt>
      <trkpt lat="48.38106" lon="7.27231">
        <ele>776.80004882812</ele>
        <time>2023-01-29T13:12:22.000Z</time>
      </trkpt>
      <trkpt lat="48.38106" lon="7.27235">
        <ele>776.59997558594</ele>
        <time>2023-01-29T13:12:25.000Z</time>
      </trkpt>
      <trkpt lat="48.38107" lon="7.27245">
        <ele>776</ele>
        <time>2023-01-29T13:12:31.000Z</time>
      </trkpt>
      <trkpt lat="48.38106" lon="7.27253">
        <ele>775.40002441406</ele>
        <time>2023-01-29T13:12:37.000Z</time>
      </trkpt>
      <trkpt lat="48.38104" lon="7.27255">
        <ele>775.40002441406</ele>
        <time>2023-01-29T13:12:39.000Z</time>
      </trkpt>
      <trkpt lat="48.38104" lon="7.27257">
        <ele>775.40002441406</ele>
        <time>2023-01-29T13:12:40.000Z</time>
      </trkpt>
      <trkpt lat="48.38102" lon="7.27264">
        <ele>774.80004882812</ele>
        <time>2023-01-29T13:12:46.000Z</time>
      </trkpt>
      <trkpt lat="48.381" lon="7.2727">
        <ele>774.40002441406</ele>
        <time>2023-01-29T13:12:51.000Z</time>
      </trkpt>
      <trkpt lat="48.381" lon="7.27274">
        <ele>774.19995117188</ele>
        <time>2023-01-29T13:12:53.000Z</time>
      </trkpt>
      <trkpt lat="48.38097" lon="7.27279">
        <ele>773.59997558594</ele>
        <time>2023-01-29T13:12:58.000Z</time>
      </trkpt>
      <trkpt lat="48.38098" lon="7.2728">
        <ele>773.59997558594</ele>
        <time>2023-01-29T13:12:59.000Z</time>
      </trkpt>
      <trkpt lat="48.38098" lon="7.27281">
        <ele>773.59997558594</ele>
        <time>2023-01-29T13:13:00.000Z</time>
      </trkpt>
      <trkpt lat="48.38098" lon="7.27281">
        <ele>773.59997558594</ele>
        <time>2023-01-29T13:13:01.000Z</time>
      </trkpt>
      <trkpt lat="48.38099" lon="7.27281">
        <ele>773.19995117188</ele>
        <time>2023-01-29T13:13:03.000Z</time>
      </trkpt>
      <trkpt lat="48.38098" lon="7.27286">
        <ele>773</ele>
        <time>2023-01-29T13:13:07.000Z</time>
      </trkpt>
      <trkpt lat="48.38096" lon="7.27297">
        <ele>772.40002441406</ele>
        <time>2023-01-29T13:13:15.000Z</time>
      </trkpt>
      <trkpt lat="48.38095" lon="7.27301">
        <ele>772.19995117188</ele>
        <time>2023-01-29T13:13:17.000Z</time>
      </trkpt>
      <trkpt lat="48.38095" lon="7.27303">
        <ele>772.19995117188</ele>
        <time>2023-01-29T13:13:19.000Z</time>
      </trkpt>
      <trkpt lat="48.38094" lon="7.27306">
        <ele>772</ele>
        <time>2023-01-29T13:13:21.000Z</time>
      </trkpt>
      <trkpt lat="48.38094" lon="7.2731">
        <ele>771.80004882812</ele>
        <time>2023-01-29T13:13:24.000Z</time>
      </trkpt>
      <trkpt lat="48.38095" lon="7.27314">
        <ele>771.59997558594</ele>
        <time>2023-01-29T13:13:27.000Z</time>
      </trkpt>
      <trkpt lat="48.38093" lon="7.27321">
        <ele>771</ele>
        <time>2023-01-29T13:13:32.000Z</time>
      </trkpt>
      <trkpt lat="48.38093" lon="7.27323">
        <ele>770.80004882812</ele>
        <time>2023-01-29T13:13:34.000Z</time>
      </trkpt>
      <trkpt lat="48.38091" lon="7.27328">
        <ele>770</ele>
        <time>2023-01-29T13:13:40.000Z</time>
      </trkpt>
      <trkpt lat="48.3809" lon="7.27329">
        <ele>770</ele>
        <time>2023-01-29T13:13:41.000Z</time>
      </trkpt>
      <trkpt lat="48.3809" lon="7.2733">
        <ele>769.80004882812</ele>
        <time>2023-01-29T13:13:42.000Z</time>
      </trkpt>
      <trkpt lat="48.38088" lon="7.27333">
        <ele>769.80004882812</ele>
        <time>2023-01-29T13:13:45.000Z</time>
      </trkpt>
      <trkpt lat="48.38087" lon="7.2734">
        <ele>769.59997558594</ele>
        <time>2023-01-29T13:13:51.000Z</time>
      </trkpt>
      <trkpt lat="48.38084" lon="7.27348">
        <ele>769.19995117188</ele>
        <time>2023-01-29T13:13:57.000Z</time>
      </trkpt>
      <trkpt lat="48.38084" lon="7.27349">
        <ele>769</ele>
        <time>2023-01-29T13:13:58.000Z</time>
      </trkpt>
      <trkpt lat="48.38083" lon="7.27351">
        <ele>769</ele>
        <time>2023-01-29T13:13:59.000Z</time>
      </trkpt>
      <trkpt lat="48.38083" lon="7.27356">
        <ele>768.80004882812</ele>
        <time>2023-01-29T13:14:02.000Z</time>
      </trkpt>
      <trkpt lat="48.38082" lon="7.27358">
        <ele>768.59997558594</ele>
        <time>2023-01-29T13:14:03.000Z</time>
      </trkpt>
      <trkpt lat="48.38081" lon="7.27363">
        <ele>768.40002441406</ele>
        <time>2023-01-29T13:14:06.000Z</time>
      </trkpt>
      <trkpt lat="48.3808" lon="7.27365">
        <ele>768</ele>
        <time>2023-01-29T13:14:08.000Z</time>
      </trkpt>
      <trkpt lat="48.38079" lon="7.27367">
        <ele>767.59997558594</ele>
        <time>2023-01-29T13:14:10.000Z</time>
      </trkpt>
      <trkpt lat="48.38074" lon="7.27375">
        <ele>767.40002441406</ele>
        <time>2023-01-29T13:14:16.000Z</time>
      </trkpt>
      <trkpt lat="48.38074" lon="7.27376">
        <ele>767.40002441406</ele>
        <time>2023-01-29T13:14:17.000Z</time>
      </trkpt>
      <trkpt lat="48.38069" lon="7.27383">
        <ele>766.80004882812</ele>
        <time>2023-01-29T13:14:23.000Z</time>
      </trkpt>
      <trkpt lat="48.38069" lon="7.27386">
        <ele>766.80004882812</ele>
        <time>2023-01-29T13:14:24.000Z</time>
      </trkpt>
      <trkpt lat="48.38068" lon="7.27391">
        <ele>766.40002441406</ele>
        <time>2023-01-29T13:14:27.000Z</time>
      </trkpt>
      <trkpt lat="48.38068" lon="7.27398">
        <ele>766</ele>
        <time>2023-01-29T13:14:32.000Z</time>
      </trkpt>
      <trkpt lat="48.38068" lon="7.27399">
        <ele>765.59997558594</ele>
        <time>2023-01-29T13:14:33.000Z</time>
      </trkpt>
      <trkpt lat="48.38068" lon="7.2741">
        <ele>765.19995117188</ele>
        <time>2023-01-29T13:14:39.000Z</time>
      </trkpt>
      <trkpt lat="48.3807" lon="7.27416">
        <ele>765</ele>
        <time>2023-01-29T13:14:42.000Z</time>
      </trkpt>
      <trkpt lat="48.38069" lon="7.27417">
        <ele>765</ele>
        <time>2023-01-29T13:14:43.000Z</time>
      </trkpt>
      <trkpt lat="48.38068" lon="7.27422">
        <ele>764.59997558594</ele>
        <time>2023-01-29T13:14:47.000Z</time>
      </trkpt>
      <trkpt lat="48.38069" lon="7.27424">
        <ele>764.40002441406</ele>
        <time>2023-01-29T13:14:49.000Z</time>
      </trkpt>
      <trkpt lat="48.3807" lon="7.27425">
        <ele>764.19995117188</ele>
        <time>2023-01-29T13:14:50.000Z</time>
      </trkpt>
      <trkpt lat="48.38069" lon="7.27426">
        <ele>764.19995117188</ele>
        <time>2023-01-29T13:14:55.000Z</time>
      </trkpt>
      <trkpt lat="48.38069" lon="7.27429">
        <ele>763.80004882812</ele>
        <time>2023-01-29T13:14:58.000Z</time>
      </trkpt>
      <trkpt lat="48.38067" lon="7.27435">
        <ele>763.59997558594</ele>
        <time>2023-01-29T13:15:02.000Z</time>
      </trkpt>
      <trkpt lat="48.38066" lon="7.27435">
        <ele>763.59997558594</ele>
        <time>2023-01-29T13:15:03.000Z</time>
      </trkpt>
      <trkpt lat="48.38065" lon="7.27439">
        <ele>763.40002441406</ele>
        <time>2023-01-29T13:15:07.000Z</time>
      </trkpt>
      <trkpt lat="48.38065" lon="7.27441">
        <ele>763.19995117188</ele>
        <time>2023-01-29T13:15:08.000Z</time>
      </trkpt>
      <trkpt lat="48.38066" lon="7.27444">
        <ele>763.19995117188</ele>
        <time>2023-01-29T13:15:10.000Z</time>
      </trkpt>
      <trkpt lat="48.38065" lon="7.27446">
        <ele>762.80004882812</ele>
        <time>2023-01-29T13:15:13.000Z</time>
      </trkpt>
      <trkpt lat="48.38065" lon="7.27447">
        <ele>762.80004882812</ele>
        <time>2023-01-29T13:15:14.000Z</time>
      </trkpt>
      <trkpt lat="48.38065" lon="7.27447">
        <ele>762.80004882812</ele>
        <time>2023-01-29T13:15:15.000Z</time>
      </trkpt>
      <trkpt lat="48.38063" lon="7.27446">
        <ele>762.59997558594</ele>
        <time>2023-01-29T13:15:19.000Z</time>
      </trkpt>
      <trkpt lat="48.38062" lon="7.27445">
        <ele>762.40002441406</ele>
        <time>2023-01-29T13:15:22.000Z</time>
      </trkpt>
      <trkpt lat="48.38062" lon="7.27447">
        <ele>762.40002441406</ele>
        <time>2023-01-29T13:15:26.000Z</time>
      </trkpt>
      <trkpt lat="48.38062" lon="7.2745">
        <ele>762.19995117188</ele>
        <time>2023-01-29T13:15:31.000Z</time>
      </trkpt>
      <trkpt lat="48.38056" lon="7.27456">
        <ele>761.80004882812</ele>
        <time>2023-01-29T13:15:38.000Z</time>
      </trkpt>
      <trkpt lat="48.38051" lon="7.27465">
        <ele>761.40002441406</ele>
        <time>2023-01-29T13:15:44.000Z</time>
      </trkpt>
      <trkpt lat="48.3805" lon="7.27466">
        <ele>761.19995117188</ele>
        <time>2023-01-29T13:15:45.000Z</time>
      </trkpt>
      <trkpt lat="48.38049" lon="7.27468">
        <ele>761</ele>
        <time>2023-01-29T13:15:47.000Z</time>
      </trkpt>
      <trkpt lat="48.38046" lon="7.27477">
        <ele>760.59997558594</ele>
        <time>2023-01-29T13:15:52.000Z</time>
      </trkpt>
      <trkpt lat="48.38045" lon="7.27483">
        <ele>760.40002441406</ele>
        <time>2023-01-29T13:15:55.000Z</time>
      </trkpt>
      <trkpt lat="48.38044" lon="7.27484">
        <ele>760</ele>
        <time>2023-01-29T13:15:56.000Z</time>
      </trkpt>
      <trkpt lat="48.38042" lon="7.27486">
        <ele>759.80004882812</ele>
        <time>2023-01-29T13:15:58.000Z</time>
      </trkpt>
      <trkpt lat="48.38037" lon="7.27492">
        <ele>759.40002441406</ele>
        <time>2023-01-29T13:16:04.000Z</time>
      </trkpt>
      <trkpt lat="48.38036" lon="7.27494">
        <ele>759.40002441406</ele>
        <time>2023-01-29T13:16:05.000Z</time>
      </trkpt>
      <trkpt lat="48.38034" lon="7.275">
        <ele>759</ele>
        <time>2023-01-29T13:16:09.000Z</time>
      </trkpt>
      <trkpt lat="48.3803" lon="7.27507">
        <ele>758.59997558594</ele>
        <time>2023-01-29T13:16:15.000Z</time>
      </trkpt>
      <trkpt lat="48.3803" lon="7.27508">
        <ele>758.59997558594</ele>
        <time>2023-01-29T13:16:16.000Z</time>
      </trkpt>
      <trkpt lat="48.3803" lon="7.27512">
        <ele>758.19995117188</ele>
        <time>2023-01-29T13:16:18.000Z</time>
      </trkpt>
      <trkpt lat="48.38029" lon="7.2751">
        <ele>758</ele>
        <time>2023-01-29T13:16:21.000Z</time>
      </trkpt>
      <trkpt lat="48.38029" lon="7.2751">
        <ele>758</ele>
        <time>2023-01-29T13:16:22.000Z</time>
      </trkpt>
      <trkpt lat="48.38027" lon="7.27514">
        <ele>758</ele>
        <time>2023-01-29T13:16:27.000Z</time>
      </trkpt>
      <trkpt lat="48.38026" lon="7.27514">
        <ele>757.80004882812</ele>
        <time>2023-01-29T13:16:32.000Z</time>
      </trkpt>
      <trkpt lat="48.3802" lon="7.27517">
        <ele>757.59997558594</ele>
        <time>2023-01-29T13:16:40.000Z</time>
      </trkpt>
      <trkpt lat="48.38014" lon="7.27519">
        <ele>757.40002441406</ele>
        <time>2023-01-29T13:16:45.000Z</time>
      </trkpt>
      <trkpt lat="48.38011" lon="7.27519">
        <ele>757.19995117188</ele>
        <time>2023-01-29T13:16:47.000Z</time>
      </trkpt>
      <trkpt lat="48.38007" lon="7.27524">
        <ele>756.80004882812</ele>
        <time>2023-01-29T13:16:52.000Z</time>
      </trkpt>
      <trkpt lat="48.38006" lon="7.27525">
        <ele>756.80004882812</ele>
        <time>2023-01-29T13:16:53.000Z</time>
      </trkpt>
      <trkpt lat="48.38001" lon="7.27525">
        <ele>756.59997558594</ele>
        <time>2023-01-29T13:16:58.000Z</time>
      </trkpt>
      <trkpt lat="48.37993" lon="7.27526">
        <ele>755.80004882812</ele>
        <time>2023-01-29T13:17:05.000Z</time>
      </trkpt>
      <trkpt lat="48.37983" lon="7.27522">
        <ele>755</ele>
        <time>2023-01-29T13:17:14.000Z</time>
      </trkpt>
      <trkpt lat="48.37982" lon="7.27522">
        <ele>754.80004882812</ele>
        <time>2023-01-29T13:17:15.000Z</time>
      </trkpt>
      <trkpt lat="48.37979" lon="7.2752">
        <ele>754.59997558594</ele>
        <time>2023-01-29T13:17:17.000Z</time>
      </trkpt>
      <trkpt lat="48.37973" lon="7.27516">
        <ele>754.40002441406</ele>
        <time>2023-01-29T13:17:22.000Z</time>
      </trkpt>
      <trkpt lat="48.37971" lon="7.27517">
        <ele>754</ele>
        <time>2023-01-29T13:17:24.000Z</time>
      </trkpt>
      <trkpt lat="48.37971" lon="7.27517">
        <ele>753.59997558594</ele>
        <time>2023-01-29T13:17:29.000Z</time>
      </trkpt>
      <trkpt lat="48.37971" lon="7.27517">
        <ele>753.59997558594</ele>
        <time>2023-01-29T13:17:30.000Z</time>
      </trkpt>
      <trkpt lat="48.37969" lon="7.27518">
        <ele>753.80004882812</ele>
        <time>2023-01-29T13:17:37.000Z</time>
      </trkpt>
      <trkpt lat="48.3797" lon="7.27517">
        <ele>753.80004882812</ele>
        <time>2023-01-29T13:17:43.000Z</time>
      </trkpt>
      <trkpt lat="48.37967" lon="7.27515">
        <ele>753.59997558594</ele>
        <time>2023-01-29T13:17:46.000Z</time>
      </trkpt>
      <trkpt lat="48.37962" lon="7.27513">
        <ele>753</ele>
        <time>2023-01-29T13:17:51.000Z</time>
      </trkpt>
      <trkpt lat="48.37955" lon="7.27506">
        <ele>752.59997558594</ele>
        <time>2023-01-29T13:17:58.000Z</time>
      </trkpt>
      <trkpt lat="48.37954" lon="7.27506">
        <ele>752.59997558594</ele>
        <time>2023-01-29T13:17:59.000Z</time>
      </trkpt>
      <trkpt lat="48.37952" lon="7.27505">
        <ele>752.59997558594</ele>
        <time>2023-01-29T13:18:01.000Z</time>
      </trkpt>
      <trkpt lat="48.3795" lon="7.27503">
        <ele>752.59997558594</ele>
        <time>2023-01-29T13:18:04.000Z</time>
      </trkpt>
      <trkpt lat="48.37947" lon="7.27502">
        <ele>752.40002441406</ele>
        <time>2023-01-29T13:18:06.000Z</time>
      </trkpt>
      <trkpt lat="48.37942" lon="7.275">
        <ele>752.19995117188</ele>
        <time>2023-01-29T13:18:12.000Z</time>
      </trkpt>
      <trkpt lat="48.37942" lon="7.27499">
        <ele>752</ele>
        <time>2023-01-29T13:18:13.000Z</time>
      </trkpt>
      <trkpt lat="48.37937" lon="7.27496">
        <ele>751.59997558594</ele>
        <time>2023-01-29T13:18:18.000Z</time>
      </trkpt>
      <trkpt lat="48.37936" lon="7.27494">
        <ele>751.59997558594</ele>
        <time>2023-01-29T13:18:19.000Z</time>
      </trkpt>
      <trkpt lat="48.37926" lon="7.27487">
        <ele>750.59997558594</ele>
        <time>2023-01-29T13:18:29.000Z</time>
      </trkpt>
      <trkpt lat="48.37924" lon="7.27487">
        <ele>750.59997558594</ele>
        <time>2023-01-29T13:18:31.000Z</time>
      </trkpt>
      <trkpt lat="48.37919" lon="7.27484">
        <ele>750.40002441406</ele>
        <time>2023-01-29T13:18:36.000Z</time>
      </trkpt>
      <trkpt lat="48.37916" lon="7.27481">
        <ele>749.80004882812</ele>
        <time>2023-01-29T13:18:39.000Z</time>
      </trkpt>
      <trkpt lat="48.37913" lon="7.27479">
        <ele>749.59997558594</ele>
        <time>2023-01-29T13:18:42.000Z</time>
      </trkpt>
      <trkpt lat="48.37912" lon="7.27478">
        <ele>749.40002441406</ele>
        <time>2023-01-29T13:18:43.000Z</time>
      </trkpt>
      <trkpt lat="48.37907" lon="7.27475">
        <ele>749.19995117188</ele>
        <time>2023-01-29T13:18:46.000Z</time>
      </trkpt>
      <trkpt lat="48.37904" lon="7.27473">
        <ele>749</ele>
        <time>2023-01-29T13:18:48.000Z</time>
      </trkpt>
      <trkpt lat="48.37902" lon="7.27472">
        <ele>748.80004882812</ele>
        <time>2023-01-29T13:18:50.000Z</time>
      </trkpt>
      <trkpt lat="48.37898" lon="7.27471">
        <ele>748.40002441406</ele>
        <time>2023-01-29T13:18:54.000Z</time>
      </trkpt>
      <trkpt lat="48.37897" lon="7.27471">
        <ele>748.40002441406</ele>
        <time>2023-01-29T13:18:55.000Z</time>
      </trkpt>
      <trkpt lat="48.37895" lon="7.27469">
        <ele>748</ele>
        <time>2023-01-29T13:19:01.000Z</time>
      </trkpt>
      <trkpt lat="48.37893" lon="7.27465">
        <ele>747.80004882812</ele>
        <time>2023-01-29T13:19:06.000Z</time>
      </trkpt>
      <trkpt lat="48.37891" lon="7.27466">
        <ele>747.59997558594</ele>
        <time>2023-01-29T13:19:11.000Z</time>
      </trkpt>
      <trkpt lat="48.37889" lon="7.27465">
        <ele>747.40002441406</ele>
        <time>2023-01-29T13:19:13.000Z</time>
      </trkpt>
      <trkpt lat="48.37888" lon="7.27464">
        <ele>747.19995117188</ele>
        <time>2023-01-29T13:19:16.000Z</time>
      </trkpt>
      <trkpt lat="48.37883" lon="7.27464">
        <ele>747</ele>
        <time>2023-01-29T13:19:20.000Z</time>
      </trkpt>
      <trkpt lat="48.37881" lon="7.27464">
        <ele>746.80004882812</ele>
        <time>2023-01-29T13:19:22.000Z</time>
      </trkpt>
      <trkpt lat="48.37879" lon="7.27465">
        <ele>746.80004882812</ele>
        <time>2023-01-29T13:19:25.000Z</time>
      </trkpt>
      <trkpt lat="48.37878" lon="7.27465">
        <ele>746.80004882812</ele>
        <time>2023-01-29T13:19:26.000Z</time>
      </trkpt>
      <trkpt lat="48.37877" lon="7.27466">
        <ele>746.59997558594</ele>
        <time>2023-01-29T13:19:28.000Z</time>
      </trkpt>
      <trkpt lat="48.37876" lon="7.27466">
        <ele>746.59997558594</ele>
        <time>2023-01-29T13:19:29.000Z</time>
      </trkpt>
      <trkpt lat="48.37873" lon="7.27465">
        <ele>746.19995117188</ele>
        <time>2023-01-29T13:19:32.000Z</time>
      </trkpt>
      <trkpt lat="48.3787" lon="7.27461">
        <ele>746</ele>
        <time>2023-01-29T13:19:37.000Z</time>
      </trkpt>
      <trkpt lat="48.37863" lon="7.27454">
        <ele>745.40002441406</ele>
        <time>2023-01-29T13:19:44.000Z</time>
      </trkpt>
      <trkpt lat="48.3786" lon="7.2745">
        <ele>745.19995117188</ele>
        <time>2023-01-29T13:19:49.000Z</time>
      </trkpt>
      <trkpt lat="48.37859" lon="7.27448">
        <ele>745</ele>
        <time>2023-01-29T13:19:51.000Z</time>
      </trkpt>
      <trkpt lat="48.37856" lon="7.27441">
        <ele>744.40002441406</ele>
        <time>2023-01-29T13:19:58.000Z</time>
      </trkpt>
      <trkpt lat="48.37853" lon="7.27436">
        <ele>744</ele>
        <time>2023-01-29T13:20:02.000Z</time>
      </trkpt>
      <trkpt lat="48.3785" lon="7.27433">
        <ele>744</ele>
        <time>2023-01-29T13:20:04.000Z</time>
      </trkpt>
      <trkpt lat="48.37849" lon="7.2743">
        <ele>743.40002441406</ele>
        <time>2023-01-29T13:20:08.000Z</time>
      </trkpt>
      <trkpt lat="48.37845" lon="7.27424">
        <ele>743.19995117188</ele>
        <time>2023-01-29T13:20:12.000Z</time>
      </trkpt>
      <trkpt lat="48.37842" lon="7.27421">
        <ele>743</ele>
        <time>2023-01-29T13:20:14.000Z</time>
      </trkpt>
      <trkpt lat="48.37838" lon="7.27417">
        <ele>742.59997558594</ele>
        <time>2023-01-29T13:20:20.000Z</time>
      </trkpt>
      <trkpt lat="48.37837" lon="7.27415">
        <ele>742.59997558594</ele>
        <time>2023-01-29T13:20:24.000Z</time>
      </trkpt>
      <trkpt lat="48.37833" lon="7.27409">
        <ele>742</ele>
        <time>2023-01-29T13:20:29.000Z</time>
      </trkpt>
      <trkpt lat="48.3783" lon="7.27406">
        <ele>741.80004882812</ele>
        <time>2023-01-29T13:20:32.000Z</time>
      </trkpt>
      <trkpt lat="48.37826" lon="7.27401">
        <ele>741.40002441406</ele>
        <time>2023-01-29T13:20:37.000Z</time>
      </trkpt>
      <trkpt lat="48.37821" lon="7.2739">
        <ele>741</ele>
        <time>2023-01-29T13:20:44.000Z</time>
      </trkpt>
      <trkpt lat="48.3782" lon="7.27389">
        <ele>741</ele>
        <time>2023-01-29T13:20:45.000Z</time>
      </trkpt>
      <trkpt lat="48.37812" lon="7.2738">
        <ele>740.40002441406</ele>
        <time>2023-01-29T13:20:51.000Z</time>
      </trkpt>
      <trkpt lat="48.37807" lon="7.27376">
        <ele>740.19995117188</ele>
        <time>2023-01-29T13:20:55.000Z</time>
      </trkpt>
      <trkpt lat="48.37803" lon="7.27374">
        <ele>740</ele>
        <time>2023-01-29T13:20:58.000Z</time>
      </trkpt>
      <trkpt lat="48.37801" lon="7.27373">
        <ele>739.80004882812</ele>
        <time>2023-01-29T13:20:59.000Z</time>
      </trkpt>
      <trkpt lat="48.37798" lon="7.2737">
        <ele>739.40002441406</ele>
        <time>2023-01-29T13:21:05.000Z</time>
      </trkpt>
      <trkpt lat="48.37796" lon="7.27369">
        <ele>739.40002441406</ele>
        <time>2023-01-29T13:21:07.000Z</time>
      </trkpt>
      <trkpt lat="48.37794" lon="7.27372">
        <ele>738.80004882812</ele>
        <time>2023-01-29T13:21:13.000Z</time>
      </trkpt>
      <trkpt lat="48.37793" lon="7.27372">
        <ele>738.80004882812</ele>
        <time>2023-01-29T13:21:14.000Z</time>
      </trkpt>
      <trkpt lat="48.37792" lon="7.27373">
        <ele>738.80004882812</ele>
        <time>2023-01-29T13:21:15.000Z</time>
      </trkpt>
      <trkpt lat="48.37788" lon="7.27381">
        <ele>738.19995117188</ele>
        <time>2023-01-29T13:21:21.000Z</time>
      </trkpt>
      <trkpt lat="48.37786" lon="7.27387">
        <ele>737.80004882812</ele>
        <time>2023-01-29T13:21:26.000Z</time>
      </trkpt>
      <trkpt lat="48.37785" lon="7.27388">
        <ele>737.80004882812</ele>
        <time>2023-01-29T13:21:27.000Z</time>
      </trkpt>
      <trkpt lat="48.37781" lon="7.27393">
        <ele>737.19995117188</ele>
        <time>2023-01-29T13:21:33.000Z</time>
      </trkpt>
      <trkpt lat="48.37779" lon="7.27395">
        <ele>737</ele>
        <time>2023-01-29T13:21:35.000Z</time>
      </trkpt>
      <trkpt lat="48.37776" lon="7.27401">
        <ele>736.80004882812</ele>
        <time>2023-01-29T13:21:40.000Z</time>
      </trkpt>
      <trkpt lat="48.37775" lon="7.27404">
        <ele>736.80004882812</ele>
        <time>2023-01-29T13:21:42.000Z</time>
      </trkpt>
      <trkpt lat="48.37774" lon="7.27399">
        <ele>736.59997558594</ele>
        <time>2023-01-29T13:21:45.000Z</time>
      </trkpt>
      <trkpt lat="48.37772" lon="7.27401">
        <ele>736.59997558594</ele>
        <time>2023-01-29T13:21:50.000Z</time>
      </trkpt>
      <trkpt lat="48.37769" lon="7.27406">
        <ele>736.40002441406</ele>
        <time>2023-01-29T13:21:55.000Z</time>
      </trkpt>
      <trkpt lat="48.37768" lon="7.27406">
        <ele>736.40002441406</ele>
        <time>2023-01-29T13:21:56.000Z</time>
      </trkpt>
      <trkpt lat="48.37763" lon="7.2741">
        <ele>735.80004882812</ele>
        <time>2023-01-29T13:22:02.000Z</time>
      </trkpt>
      <trkpt lat="48.37762" lon="7.27412">
        <ele>735.80004882812</ele>
        <time>2023-01-29T13:22:03.000Z</time>
      </trkpt>
      <trkpt lat="48.37761" lon="7.27423">
        <ele>735.40002441406</ele>
        <time>2023-01-29T13:22:09.000Z</time>
      </trkpt>
      <trkpt lat="48.37761" lon="7.27423">
        <ele>735.40002441406</ele>
        <time>2023-01-29T13:22:10.000Z</time>
      </trkpt>
      <trkpt lat="48.37765" lon="7.27421">
        <ele>735.59997558594</ele>
        <time>2023-01-29T13:22:13.000Z</time>
      </trkpt>
      <trkpt lat="48.37765" lon="7.27421">
        <ele>735.80004882812</ele>
        <time>2023-01-29T13:22:14.000Z</time>
      </trkpt>
      <trkpt lat="48.37764" lon="7.2742">
        <ele>735.80004882812</ele>
        <time>2023-01-29T13:22:15.000Z</time>
      </trkpt>
      <trkpt lat="48.37761" lon="7.27419">
        <ele>736</ele>
        <time>2023-01-29T13:22:20.000Z</time>
      </trkpt>
      <trkpt lat="48.37761" lon="7.27419">
        <ele>736</ele>
        <time>2023-01-29T13:22:24.000Z</time>
      </trkpt>
      <trkpt lat="48.37763" lon="7.2742">
        <ele>736</ele>
        <time>2023-01-29T13:22:30.000Z</time>
      </trkpt>
      <trkpt lat="48.37763" lon="7.27418">
        <ele>736</ele>
        <time>2023-01-29T13:22:36.000Z</time>
      </trkpt>
      <trkpt lat="48.37764" lon="7.27419">
        <ele>736.19995117188</ele>
        <time>2023-01-29T13:22:42.000Z</time>
      </trkpt>
      <trkpt lat="48.37763" lon="7.27418">
        <ele>736.19995117188</ele>
        <time>2023-01-29T13:22:47.000Z</time>
      </trkpt>
      <trkpt lat="48.37763" lon="7.27419">
        <ele>736.19995117188</ele>
        <time>2023-01-29T13:22:48.000Z</time>
      </trkpt>
      <trkpt lat="48.3776" lon="7.27418">
        <ele>736.19995117188</ele>
        <time>2023-01-29T13:22:53.000Z</time>
      </trkpt>
      <trkpt lat="48.37756" lon="7.27412">
        <ele>736.19995117188</ele>
        <time>2023-01-29T13:22:58.000Z</time>
      </trkpt>
      <trkpt lat="48.37756" lon="7.27413">
        <ele>736.19995117188</ele>
        <time>2023-01-29T13:23:02.000Z</time>
      </trkpt>
      <trkpt lat="48.37756" lon="7.27411">
        <ele>736.19995117188</ele>
        <time>2023-01-29T13:23:06.000Z</time>
      </trkpt>
      <trkpt lat="48.37759" lon="7.27418">
        <ele>736.19995117188</ele>
        <time>2023-01-29T13:23:11.000Z</time>
      </trkpt>
      <trkpt lat="48.3776" lon="7.27416">
        <ele>736.19995117188</ele>
        <time>2023-01-29T13:23:14.000Z</time>
      </trkpt>
      <trkpt lat="48.37761" lon="7.27416">
        <ele>736</ele>
        <time>2023-01-29T13:23:18.000Z</time>
      </trkpt>
      <trkpt lat="48.37772" lon="7.27395">
        <ele>736</ele>
        <time>2023-01-29T14:12:18.000Z</time>
      </trkpt>
      <trkpt lat="48.37724" lon="7.27466">
        <ele>735.59997558594</ele>
        <time>2023-01-29T14:12:22.000Z</time>
      </trkpt>
      <trkpt lat="48.37725" lon="7.2746">
        <ele>735.59997558594</ele>
        <time>2023-01-29T14:12:24.000Z</time>
      </trkpt>
      <trkpt lat="48.3774" lon="7.27436">
        <ele>735.40002441406</ele>
        <time>2023-01-29T14:12:33.000Z</time>
      </trkpt>
      <trkpt lat="48.37741" lon="7.27431">
        <ele>735.40002441406</ele>
        <time>2023-01-29T14:12:40.000Z</time>
      </trkpt>
      <trkpt lat="48.37741" lon="7.27428">
        <ele>735.40002441406</ele>
        <time>2023-01-29T14:12:46.000Z</time>
      </trkpt>
      <trkpt lat="48.37748" lon="7.27428">
        <ele>735.59997558594</ele>
        <time>2023-01-29T14:12:54.000Z</time>
      </trkpt>
      <trkpt lat="48.37748" lon="7.27434">
        <ele>735.40002441406</ele>
        <time>2023-01-29T14:13:00.000Z</time>
      </trkpt>
      <trkpt lat="48.37745" lon="7.27435">
        <ele>735</ele>
        <time>2023-01-29T14:13:02.000Z</time>
      </trkpt>
      <trkpt lat="48.37744" lon="7.27436">
        <ele>734.80004882812</ele>
        <time>2023-01-29T14:13:03.000Z</time>
      </trkpt>
      <trkpt lat="48.37743" lon="7.27438">
        <ele>734.59997558594</ele>
        <time>2023-01-29T14:13:06.000Z</time>
      </trkpt>
      <trkpt lat="48.37742" lon="7.27442">
        <ele>734.40002441406</ele>
        <time>2023-01-29T14:13:13.000Z</time>
      </trkpt>
      <trkpt lat="48.3774" lon="7.27438">
        <ele>734.19995117188</ele>
        <time>2023-01-29T14:13:20.000Z</time>
      </trkpt>
      <trkpt lat="48.3774" lon="7.27437">
        <ele>734.19995117188</ele>
        <time>2023-01-29T14:13:22.000Z</time>
      </trkpt>
      <trkpt lat="48.37739" lon="7.27435">
        <ele>734</ele>
        <time>2023-01-29T14:13:27.000Z</time>
      </trkpt>
      <trkpt lat="48.3774" lon="7.27439">
        <ele>734</ele>
        <time>2023-01-29T14:13:33.000Z</time>
      </trkpt>
      <trkpt lat="48.37739" lon="7.27442">
        <ele>733.80004882812</ele>
        <time>2023-01-29T14:13:37.000Z</time>
      </trkpt>
      <trkpt lat="48.3774" lon="7.27445">
        <ele>733.80004882812</ele>
        <time>2023-01-29T14:13:39.000Z</time>
      </trkpt>
      <trkpt lat="48.3774" lon="7.27446">
        <ele>733.59997558594</ele>
        <time>2023-01-29T14:13:40.000Z</time>
      </trkpt>
      <trkpt lat="48.37741" lon="7.27448">
        <ele>733.40002441406</ele>
        <time>2023-01-29T14:13:42.000Z</time>
      </trkpt>
      <trkpt lat="48.37742" lon="7.27452">
        <ele>733.19995117188</ele>
        <time>2023-01-29T14:13:46.000Z</time>
      </trkpt>
      <trkpt lat="48.37744" lon="7.27454">
        <ele>733.19995117188</ele>
        <time>2023-01-29T14:13:47.000Z</time>
      </trkpt>
      <trkpt lat="48.37744" lon="7.27456">
        <ele>733.19995117188</ele>
        <time>2023-01-29T14:13:48.000Z</time>
      </trkpt>
      <trkpt lat="48.37744" lon="7.27466">
        <ele>732.80004882812</ele>
        <time>2023-01-29T14:13:55.000Z</time>
      </trkpt>
      <trkpt lat="48.37744" lon="7.27467">
        <ele>732.59997558594</ele>
        <time>2023-01-29T14:13:56.000Z</time>
      </trkpt>
      <trkpt lat="48.37742" lon="7.27479">
        <ele>732</ele>
        <time>2023-01-29T14:14:03.000Z</time>
      </trkpt>
      <trkpt lat="48.37743" lon="7.27487">
        <ele>732</ele>
        <time>2023-01-29T14:14:10.000Z</time>
      </trkpt>
      <trkpt lat="48.37744" lon="7.27493">
        <ele>731.59997558594</ele>
        <time>2023-01-29T14:14:16.000Z</time>
      </trkpt>
      <trkpt lat="48.37745" lon="7.27494">
        <ele>731.40002441406</ele>
        <time>2023-01-29T14:14:17.000Z</time>
      </trkpt>
      <trkpt lat="48.37745" lon="7.27497">
        <ele>730.80004882812</ele>
        <time>2023-01-29T14:14:21.000Z</time>
      </trkpt>
      <trkpt lat="48.37745" lon="7.27505">
        <ele>730.40002441406</ele>
        <time>2023-01-29T14:14:27.000Z</time>
      </trkpt>
      <trkpt lat="48.37747" lon="7.27514">
        <ele>730.19995117188</ele>
        <time>2023-01-29T14:14:34.000Z</time>
      </trkpt>
      <trkpt lat="48.37747" lon="7.27516">
        <ele>730.19995117188</ele>
        <time>2023-01-29T14:14:35.000Z</time>
      </trkpt>
      <trkpt lat="48.37747" lon="7.2752">
        <ele>730</ele>
        <time>2023-01-29T14:14:38.000Z</time>
      </trkpt>
      <trkpt lat="48.37748" lon="7.27526">
        <ele>729.59997558594</ele>
        <time>2023-01-29T14:14:41.000Z</time>
      </trkpt>
      <trkpt lat="48.37748" lon="7.27528">
        <ele>729.40002441406</ele>
        <time>2023-01-29T14:14:42.000Z</time>
      </trkpt>
      <trkpt lat="48.3775" lon="7.27537">
        <ele>728.19995117188</ele>
        <time>2023-01-29T14:14:49.000Z</time>
      </trkpt>
      <trkpt lat="48.37748" lon="7.2754">
        <ele>728</ele>
        <time>2023-01-29T14:14:51.000Z</time>
      </trkpt>
      <trkpt lat="48.37748" lon="7.27543">
        <ele>727.80004882812</ele>
        <time>2023-01-29T14:14:54.000Z</time>
      </trkpt>
      <trkpt lat="48.37747" lon="7.27545">
        <ele>727.19995117188</ele>
        <time>2023-01-29T14:14:56.000Z</time>
      </trkpt>
      <trkpt lat="48.37746" lon="7.27548">
        <ele>726.59997558594</ele>
        <time>2023-01-29T14:15:01.000Z</time>
      </trkpt>
      <trkpt lat="48.37742" lon="7.27556">
        <ele>726.59997558594</ele>
        <time>2023-01-29T14:15:07.000Z</time>
      </trkpt>
      <trkpt lat="48.37737" lon="7.27567">
        <ele>725.80004882812</ele>
        <time>2023-01-29T14:15:12.000Z</time>
      </trkpt>
      <trkpt lat="48.37733" lon="7.2757">
        <ele>725.40002441406</ele>
        <time>2023-01-29T14:15:18.000Z</time>
      </trkpt>
      <trkpt lat="48.37728" lon="7.27575">
        <ele>725</ele>
        <time>2023-01-29T14:15:25.000Z</time>
      </trkpt>
      <trkpt lat="48.37726" lon="7.27579">
        <ele>724.80004882812</ele>
        <time>2023-01-29T14:15:28.000Z</time>
      </trkpt>
      <trkpt lat="48.37724" lon="7.27583">
        <ele>724.40002441406</ele>
        <time>2023-01-29T14:15:32.000Z</time>
      </trkpt>
      <trkpt lat="48.37723" lon="7.27585">
        <ele>724</ele>
        <time>2023-01-29T14:15:34.000Z</time>
      </trkpt>
      <trkpt lat="48.37722" lon="7.27587">
        <ele>723.80004882812</ele>
        <time>2023-01-29T14:15:35.000Z</time>
      </trkpt>
      <trkpt lat="48.3772" lon="7.2759">
        <ele>723.40002441406</ele>
        <time>2023-01-29T14:15:38.000Z</time>
      </trkpt>
      <trkpt lat="48.37717" lon="7.27593">
        <ele>722.80004882812</ele>
        <time>2023-01-29T14:15:42.000Z</time>
      </trkpt>
      <trkpt lat="48.37716" lon="7.27595">
        <ele>722.80004882812</ele>
        <time>2023-01-29T14:15:45.000Z</time>
      </trkpt>
      <trkpt lat="48.37716" lon="7.27597">
        <ele>722.19995117188</ele>
        <time>2023-01-29T14:15:51.000Z</time>
      </trkpt>
      <trkpt lat="48.37713" lon="7.27601">
        <ele>721.80004882812</ele>
        <time>2023-01-29T14:15:56.000Z</time>
      </trkpt>
      <trkpt lat="48.37712" lon="7.27602">
        <ele>721.59997558594</ele>
        <time>2023-01-29T14:15:58.000Z</time>
      </trkpt>
      <trkpt lat="48.37709" lon="7.27602">
        <ele>721.40002441406</ele>
        <time>2023-01-29T14:16:02.000Z</time>
      </trkpt>
      <trkpt lat="48.37706" lon="7.27603">
        <ele>721</ele>
        <time>2023-01-29T14:16:06.000Z</time>
      </trkpt>
      <trkpt lat="48.37706" lon="7.27604">
        <ele>720.80004882812</ele>
        <time>2023-01-29T14:16:07.000Z</time>
      </trkpt>
      <trkpt lat="48.37705" lon="7.27604">
        <ele>720.59997558594</ele>
        <time>2023-01-29T14:16:08.000Z</time>
      </trkpt>
      <trkpt lat="48.37701" lon="7.27611">
        <ele>719.80004882812</ele>
        <time>2023-01-29T14:16:16.000Z</time>
      </trkpt>
      <trkpt lat="48.377" lon="7.27615">
        <ele>719.40002441406</ele>
        <time>2023-01-29T14:16:19.000Z</time>
      </trkpt>
      <trkpt lat="48.37699" lon="7.2762">
        <ele>719</ele>
        <time>2023-01-29T14:16:23.000Z</time>
      </trkpt>
      <trkpt lat="48.37694" lon="7.27626">
        <ele>718.59997558594</ele>
        <time>2023-01-29T14:16:30.000Z</time>
      </trkpt>
      <trkpt lat="48.37693" lon="7.27628">
        <ele>718.19995117188</ele>
        <time>2023-01-29T14:16:32.000Z</time>
      </trkpt>
      <trkpt lat="48.37691" lon="7.27633">
        <ele>717.40002441406</ele>
        <time>2023-01-29T14:16:35.000Z</time>
      </trkpt>
      <trkpt lat="48.3769" lon="7.27635">
        <ele>717.19995117188</ele>
        <time>2023-01-29T14:16:37.000Z</time>
      </trkpt>
      <trkpt lat="48.37687" lon="7.27642">
        <ele>716.80004882812</ele>
        <time>2023-01-29T14:16:42.000Z</time>
      </trkpt>
      <trkpt lat="48.37684" lon="7.27648">
        <ele>716.19995117188</ele>
        <time>2023-01-29T14:16:48.000Z</time>
      </trkpt>
      <trkpt lat="48.37684" lon="7.27649">
        <ele>716</ele>
        <time>2023-01-29T14:16:49.000Z</time>
      </trkpt>
      <trkpt lat="48.37681" lon="7.27656">
        <ele>715.40002441406</ele>
        <time>2023-01-29T14:16:56.000Z</time>
      </trkpt>
      <trkpt lat="48.3768" lon="7.27658">
        <ele>715.19995117188</ele>
        <time>2023-01-29T14:16:58.000Z</time>
      </trkpt>
      <trkpt lat="48.37677" lon="7.27663">
        <ele>714.80004882812</ele>
        <time>2023-01-29T14:17:02.000Z</time>
      </trkpt>
      <trkpt lat="48.37676" lon="7.27664">
        <ele>714.59997558594</ele>
        <time>2023-01-29T14:17:03.000Z</time>
      </trkpt>
      <trkpt lat="48.37675" lon="7.27666">
        <ele>714.40002441406</ele>
        <time>2023-01-29T14:17:06.000Z</time>
      </trkpt>
      <trkpt lat="48.37673" lon="7.27672">
        <ele>714.19995117188</ele>
        <time>2023-01-29T14:17:10.000Z</time>
      </trkpt>
      <trkpt lat="48.37672" lon="7.27673">
        <ele>714</ele>
        <time>2023-01-29T14:17:11.000Z</time>
      </trkpt>
      <trkpt lat="48.37671" lon="7.27675">
        <ele>714</ele>
        <time>2023-01-29T14:17:12.000Z</time>
      </trkpt>
      <trkpt lat="48.37671" lon="7.27676">
        <ele>713.80004882812</ele>
        <time>2023-01-29T14:17:13.000Z</time>
      </trkpt>
      <trkpt lat="48.37668" lon="7.2768">
        <ele>713.19995117188</ele>
        <time>2023-01-29T14:17:18.000Z</time>
      </trkpt>
      <trkpt lat="48.37666" lon="7.27682">
        <ele>713.19995117188</ele>
        <time>2023-01-29T14:17:20.000Z</time>
      </trkpt>
      <trkpt lat="48.37665" lon="7.27685">
        <ele>713</ele>
        <time>2023-01-29T14:17:22.000Z</time>
      </trkpt>
      <trkpt lat="48.3766" lon="7.27691">
        <ele>712.40002441406</ele>
        <time>2023-01-29T14:17:28.000Z</time>
      </trkpt>
      <trkpt lat="48.37658" lon="7.27694">
        <ele>712.19995117188</ele>
        <time>2023-01-29T14:17:30.000Z</time>
      </trkpt>
      <trkpt lat="48.37656" lon="7.27696">
        <ele>712</ele>
        <time>2023-01-29T14:17:32.000Z</time>
      </trkpt>
      <trkpt lat="48.37655" lon="7.27697">
        <ele>711.80004882812</ele>
        <time>2023-01-29T14:17:33.000Z</time>
      </trkpt>
      <trkpt lat="48.37647" lon="7.27706">
        <ele>711.19995117188</ele>
        <time>2023-01-29T14:17:40.000Z</time>
      </trkpt>
      <trkpt lat="48.37644" lon="7.27707">
        <ele>711</ele>
        <time>2023-01-29T14:17:43.000Z</time>
      </trkpt>
      <trkpt lat="48.37641" lon="7.2771">
        <ele>710.40002441406</ele>
        <time>2023-01-29T14:17:47.000Z</time>
      </trkpt>
      <trkpt lat="48.37636" lon="7.27715">
        <ele>710</ele>
        <time>2023-01-29T14:17:53.000Z</time>
      </trkpt>
      <trkpt lat="48.37635" lon="7.27716">
        <ele>709.80004882812</ele>
        <time>2023-01-29T14:17:54.000Z</time>
      </trkpt>
      <trkpt lat="48.37631" lon="7.27719">
        <ele>709.40002441406</ele>
        <time>2023-01-29T14:17:58.000Z</time>
      </trkpt>
      <trkpt lat="48.3763" lon="7.27719">
        <ele>709.40002441406</ele>
        <time>2023-01-29T14:17:59.000Z</time>
      </trkpt>
      <trkpt lat="48.37628" lon="7.27719">
        <ele>708.80004882812</ele>
        <time>2023-01-29T14:18:03.000Z</time>
      </trkpt>
      <trkpt lat="48.37627" lon="7.2772">
        <ele>708.59997558594</ele>
        <time>2023-01-29T14:18:04.000Z</time>
      </trkpt>
      <trkpt lat="48.37625" lon="7.27722">
        <ele>708.40002441406</ele>
        <time>2023-01-29T14:18:06.000Z</time>
      </trkpt>
      <trkpt lat="48.37624" lon="7.27722">
        <ele>708.40002441406</ele>
        <time>2023-01-29T14:18:07.000Z</time>
      </trkpt>
      <trkpt lat="48.37623" lon="7.27722">
        <ele>708.19995117188</ele>
        <time>2023-01-29T14:18:09.000Z</time>
      </trkpt>
      <trkpt lat="48.3762" lon="7.27722">
        <ele>707.80004882812</ele>
        <time>2023-01-29T14:18:13.000Z</time>
      </trkpt>
      <trkpt lat="48.37619" lon="7.27722">
        <ele>707.59997558594</ele>
        <time>2023-01-29T14:18:14.000Z</time>
      </trkpt>
      <trkpt lat="48.37619" lon="7.27721">
        <ele>707.40002441406</ele>
        <time>2023-01-29T14:18:15.000Z</time>
      </trkpt>
      <trkpt lat="48.37614" lon="7.27725">
        <ele>706.80004882812</ele>
        <time>2023-01-29T14:18:20.000Z</time>
      </trkpt>
      <trkpt lat="48.37612" lon="7.27726">
        <ele>706.59997558594</ele>
        <time>2023-01-29T14:18:21.000Z</time>
      </trkpt>
      <trkpt lat="48.37606" lon="7.27727">
        <ele>706.19995117188</ele>
        <time>2023-01-29T14:18:26.000Z</time>
      </trkpt>
      <trkpt lat="48.37601" lon="7.27724">
        <ele>705.59997558594</ele>
        <time>2023-01-29T14:18:30.000Z</time>
      </trkpt>
      <trkpt lat="48.37596" lon="7.27726">
        <ele>705</ele>
        <time>2023-01-29T14:18:35.000Z</time>
      </trkpt>
      <trkpt lat="48.37595" lon="7.27726">
        <ele>704.80004882812</ele>
        <time>2023-01-29T14:18:36.000Z</time>
      </trkpt>
      <trkpt lat="48.37592" lon="7.27726">
        <ele>704.59997558594</ele>
        <time>2023-01-29T14:18:40.000Z</time>
      </trkpt>
      <trkpt lat="48.37591" lon="7.27727">
        <ele>704.40002441406</ele>
        <time>2023-01-29T14:18:41.000Z</time>
      </trkpt>
      <trkpt lat="48.3759" lon="7.27727">
        <ele>704.19995117188</ele>
        <time>2023-01-29T14:18:43.000Z</time>
      </trkpt>
      <trkpt lat="48.37587" lon="7.27727">
        <ele>703.80004882812</ele>
        <time>2023-01-29T14:18:46.000Z</time>
      </trkpt>
      <trkpt lat="48.37583" lon="7.27727">
        <ele>703.40002441406</ele>
        <time>2023-01-29T14:18:50.000Z</time>
      </trkpt>
      <trkpt lat="48.3758" lon="7.27729">
        <ele>703.19995117188</ele>
        <time>2023-01-29T14:18:52.000Z</time>
      </trkpt>
      <trkpt lat="48.37574" lon="7.2773">
        <ele>702.40002441406</ele>
        <time>2023-01-29T14:18:58.000Z</time>
      </trkpt>
      <trkpt lat="48.37573" lon="7.2773">
        <ele>702.19995117188</ele>
        <time>2023-01-29T14:19:00.000Z</time>
      </trkpt>
      <trkpt lat="48.3757" lon="7.2773">
        <ele>701.80004882812</ele>
        <time>2023-01-29T14:19:03.000Z</time>
      </trkpt>
      <trkpt lat="48.37567" lon="7.2773">
        <ele>701.40002441406</ele>
        <time>2023-01-29T14:19:06.000Z</time>
      </trkpt>
      <trkpt lat="48.37561" lon="7.27733">
        <ele>701</ele>
        <time>2023-01-29T14:19:12.000Z</time>
      </trkpt>
      <trkpt lat="48.37554" lon="7.27735">
        <ele>700.19995117188</ele>
        <time>2023-01-29T14:19:18.000Z</time>
      </trkpt>
      <trkpt lat="48.37553" lon="7.27736">
        <ele>700.19995117188</ele>
        <time>2023-01-29T14:19:19.000Z</time>
      </trkpt>
      <trkpt lat="48.37545" lon="7.2774">
        <ele>699.40002441406</ele>
        <time>2023-01-29T14:19:27.000Z</time>
      </trkpt>
      <trkpt lat="48.37544" lon="7.2774">
        <ele>699.19995117188</ele>
        <time>2023-01-29T14:19:28.000Z</time>
      </trkpt>
      <trkpt lat="48.37539" lon="7.2774">
        <ele>698.40002441406</ele>
        <time>2023-01-29T14:19:35.000Z</time>
      </trkpt>
      <trkpt lat="48.37536" lon="7.27741">
        <ele>698</ele>
        <time>2023-01-29T14:19:38.000Z</time>
      </trkpt>
      <trkpt lat="48.37534" lon="7.27744">
        <ele>697.59997558594</ele>
        <time>2023-01-29T14:19:42.000Z</time>
      </trkpt>
      <trkpt lat="48.37526" lon="7.27746">
        <ele>697</ele>
        <time>2023-01-29T14:19:48.000Z</time>
      </trkpt>
      <trkpt lat="48.37519" lon="7.27752">
        <ele>696.19995117188</ele>
        <time>2023-01-29T14:19:55.000Z</time>
      </trkpt>
      <trkpt lat="48.37517" lon="7.27752">
        <ele>695.80004882812</ele>
        <time>2023-01-29T14:19:57.000Z</time>
      </trkpt>
      <trkpt lat="48.37514" lon="7.27753">
        <ele>695.19995117188</ele>
        <time>2023-01-29T14:20:02.000Z</time>
      </trkpt>
      <trkpt lat="48.37511" lon="7.27755">
        <ele>694.80004882812</ele>
        <time>2023-01-29T14:20:05.000Z</time>
      </trkpt>
      <trkpt lat="48.37506" lon="7.27755">
        <ele>694.40002441406</ele>
        <time>2023-01-29T14:20:08.000Z</time>
      </trkpt>
      <trkpt lat="48.37497" lon="7.27756">
        <ele>693.59997558594</ele>
        <time>2023-01-29T14:20:15.000Z</time>
      </trkpt>
      <trkpt lat="48.37496" lon="7.27756">
        <ele>693.40002441406</ele>
        <time>2023-01-29T14:20:16.000Z</time>
      </trkpt>
      <trkpt lat="48.37493" lon="7.27757">
        <ele>693.19995117188</ele>
        <time>2023-01-29T14:20:19.000Z</time>
      </trkpt>
      <trkpt lat="48.37492" lon="7.27757">
        <ele>693.19995117188</ele>
        <time>2023-01-29T14:20:20.000Z</time>
      </trkpt>
      <trkpt lat="48.37488" lon="7.27757">
        <ele>692.80004882812</ele>
        <time>2023-01-29T14:20:24.000Z</time>
      </trkpt>
      <trkpt lat="48.37488" lon="7.27757">
        <ele>692.59997558594</ele>
        <time>2023-01-29T14:20:25.000Z</time>
      </trkpt>
      <trkpt lat="48.37481" lon="7.27756">
        <ele>691.80004882812</ele>
        <time>2023-01-29T14:20:32.000Z</time>
      </trkpt>
      <trkpt lat="48.3748" lon="7.27755">
        <ele>691.40002441406</ele>
        <time>2023-01-29T14:20:34.000Z</time>
      </trkpt>
      <trkpt lat="48.37479" lon="7.27754">
        <ele>691.40002441406</ele>
        <time>2023-01-29T14:20:35.000Z</time>
      </trkpt>
      <trkpt lat="48.37475" lon="7.27754">
        <ele>691.19995117188</ele>
        <time>2023-01-29T14:20:38.000Z</time>
      </trkpt>
      <trkpt lat="48.37471" lon="7.27753">
        <ele>690.59997558594</ele>
        <time>2023-01-29T14:20:43.000Z</time>
      </trkpt>
      <trkpt lat="48.37468" lon="7.27753">
        <ele>690.40002441406</ele>
        <time>2023-01-29T14:20:45.000Z</time>
      </trkpt>
      <trkpt lat="48.37463" lon="7.27752">
        <ele>689.40002441406</ele>
        <time>2023-01-29T14:20:53.000Z</time>
      </trkpt>
      <trkpt lat="48.37458" lon="7.2775">
        <ele>689</ele>
        <time>2023-01-29T14:20:58.000Z</time>
      </trkpt>
      <trkpt lat="48.37457" lon="7.27749">
        <ele>688.80004882812</ele>
        <time>2023-01-29T14:20:59.000Z</time>
      </trkpt>
      <trkpt lat="48.37453" lon="7.27749">
        <ele>688.40002441406</ele>
        <time>2023-01-29T14:21:02.000Z</time>
      </trkpt>
      <trkpt lat="48.37451" lon="7.27749">
        <ele>688.40002441406</ele>
        <time>2023-01-29T14:21:04.000Z</time>
      </trkpt>
      <trkpt lat="48.37449" lon="7.27749">
        <ele>688</ele>
        <time>2023-01-29T14:21:06.000Z</time>
      </trkpt>
      <trkpt lat="48.37445" lon="7.27748">
        <ele>687.59997558594</ele>
        <time>2023-01-29T14:21:09.000Z</time>
      </trkpt>
      <trkpt lat="48.3744" lon="7.27746">
        <ele>687.19995117188</ele>
        <time>2023-01-29T14:21:14.000Z</time>
      </trkpt>
      <trkpt lat="48.37433" lon="7.27744">
        <ele>686.40002441406</ele>
        <time>2023-01-29T14:21:21.000Z</time>
      </trkpt>
      <trkpt lat="48.37432" lon="7.27744">
        <ele>686.19995117188</ele>
        <time>2023-01-29T14:21:23.000Z</time>
      </trkpt>
      <trkpt lat="48.37428" lon="7.27742">
        <ele>685.59997558594</ele>
        <time>2023-01-29T14:21:27.000Z</time>
      </trkpt>
      <trkpt lat="48.37422" lon="7.27742">
        <ele>685</ele>
        <time>2023-01-29T14:21:32.000Z</time>
      </trkpt>
      <trkpt lat="48.37419" lon="7.27742">
        <ele>684.80004882812</ele>
        <time>2023-01-29T14:21:35.000Z</time>
      </trkpt>
      <trkpt lat="48.37411" lon="7.27743">
        <ele>684</ele>
        <time>2023-01-29T14:21:43.000Z</time>
      </trkpt>
      <trkpt lat="48.37403" lon="7.27743">
        <ele>683</ele>
        <time>2023-01-29T14:21:51.000Z</time>
      </trkpt>
      <trkpt lat="48.37401" lon="7.27744">
        <ele>682.80004882812</ele>
        <time>2023-01-29T14:21:53.000Z</time>
      </trkpt>
      <trkpt lat="48.37394" lon="7.27744">
        <ele>682.19995117188</ele>
        <time>2023-01-29T14:21:59.000Z</time>
      </trkpt>
      <trkpt lat="48.37391" lon="7.27743">
        <ele>682</ele>
        <time>2023-01-29T14:22:01.000Z</time>
      </trkpt>
      <trkpt lat="48.3739" lon="7.27743">
        <ele>681.80004882812</ele>
        <time>2023-01-29T14:22:02.000Z</time>
      </trkpt>
      <trkpt lat="48.37384" lon="7.27743">
        <ele>681.19995117188</ele>
        <time>2023-01-29T14:22:08.000Z</time>
      </trkpt>
      <trkpt lat="48.37381" lon="7.27742">
        <ele>680.80004882812</ele>
        <time>2023-01-29T14:22:10.000Z</time>
      </trkpt>
      <trkpt lat="48.37377" lon="7.2774">
        <ele>680.19995117188</ele>
        <time>2023-01-29T14:22:14.000Z</time>
      </trkpt>
      <trkpt lat="48.37374" lon="7.27741">
        <ele>679.80004882812</ele>
        <time>2023-01-29T14:22:16.000Z</time>
      </trkpt>
      <trkpt lat="48.37372" lon="7.27741">
        <ele>679.59997558594</ele>
        <time>2023-01-29T14:22:18.000Z</time>
      </trkpt>
      <trkpt lat="48.37368" lon="7.27739">
        <ele>679.19995117188</ele>
        <time>2023-01-29T14:22:22.000Z</time>
      </trkpt>
      <trkpt lat="48.37367" lon="7.27738">
        <ele>679.19995117188</ele>
        <time>2023-01-29T14:22:23.000Z</time>
      </trkpt>
      <trkpt lat="48.37362" lon="7.27739">
        <ele>678.59997558594</ele>
        <time>2023-01-29T14:22:28.000Z</time>
      </trkpt>
      <trkpt lat="48.37354" lon="7.27738">
        <ele>677.80004882812</ele>
        <time>2023-01-29T14:22:36.000Z</time>
      </trkpt>
      <trkpt lat="48.37352" lon="7.27738">
        <ele>677.59997558594</ele>
        <time>2023-01-29T14:22:38.000Z</time>
      </trkpt>
      <trkpt lat="48.37347" lon="7.27737">
        <ele>676.80004882812</ele>
        <time>2023-01-29T14:22:44.000Z</time>
      </trkpt>
      <trkpt lat="48.37345" lon="7.27737">
        <ele>676.59997558594</ele>
        <time>2023-01-29T14:22:46.000Z</time>
      </trkpt>
      <trkpt lat="48.37341" lon="7.27739">
        <ele>675.80004882812</ele>
        <time>2023-01-29T14:22:51.000Z</time>
      </trkpt>
      <trkpt lat="48.37338" lon="7.2774">
        <ele>675.40002441406</ele>
        <time>2023-01-29T14:22:54.000Z</time>
      </trkpt>
      <trkpt lat="48.37334" lon="7.27743">
        <ele>675</ele>
        <time>2023-01-29T14:22:57.000Z</time>
      </trkpt>
      <trkpt lat="48.37328" lon="7.27746">
        <ele>674.40002441406</ele>
        <time>2023-01-29T14:23:02.000Z</time>
      </trkpt>
      <trkpt lat="48.37323" lon="7.27749">
        <ele>673.80004882812</ele>
        <time>2023-01-29T14:23:07.000Z</time>
      </trkpt>
      <trkpt lat="48.37319" lon="7.27752">
        <ele>673.40002441406</ele>
        <time>2023-01-29T14:23:11.000Z</time>
      </trkpt>
      <trkpt lat="48.37314" lon="7.27755">
        <ele>672.80004882812</ele>
        <time>2023-01-29T14:23:16.000Z</time>
      </trkpt>
      <trkpt lat="48.37312" lon="7.27757">
        <ele>672.40002441406</ele>
        <time>2023-01-29T14:23:18.000Z</time>
      </trkpt>
      <trkpt lat="48.37311" lon="7.27758">
        <ele>672.40002441406</ele>
        <time>2023-01-29T14:23:19.000Z</time>
      </trkpt>
      <trkpt lat="48.37304" lon="7.27761">
        <ele>671.40002441406</ele>
        <time>2023-01-29T14:23:26.000Z</time>
      </trkpt>
      <trkpt lat="48.37302" lon="7.27763">
        <ele>671</ele>
        <time>2023-01-29T14:23:28.000Z</time>
      </trkpt>
      <trkpt lat="48.37298" lon="7.27767">
        <ele>670.19995117188</ele>
        <time>2023-01-29T14:23:32.000Z</time>
      </trkpt>
      <trkpt lat="48.37292" lon="7.27772">
        <ele>669.40002441406</ele>
        <time>2023-01-29T14:23:39.000Z</time>
      </trkpt>
      <trkpt lat="48.37291" lon="7.27774">
        <ele>669.19995117188</ele>
        <time>2023-01-29T14:23:41.000Z</time>
      </trkpt>
      <trkpt lat="48.37285" lon="7.27781">
        <ele>668.59997558594</ele>
        <time>2023-01-29T14:23:47.000Z</time>
      </trkpt>
      <trkpt lat="48.37282" lon="7.27786">
        <ele>668</ele>
        <time>2023-01-29T14:23:51.000Z</time>
      </trkpt>
      <trkpt lat="48.37278" lon="7.2779">
        <ele>667.59997558594</ele>
        <time>2023-01-29T14:23:55.000Z</time>
      </trkpt>
      <trkpt lat="48.37273" lon="7.27796">
        <ele>667</ele>
        <time>2023-01-29T14:24:01.000Z</time>
      </trkpt>
      <trkpt lat="48.37272" lon="7.27798">
        <ele>666.80004882812</ele>
        <time>2023-01-29T14:24:03.000Z</time>
      </trkpt>
      <trkpt lat="48.37271" lon="7.27799">
        <ele>666.59997558594</ele>
        <time>2023-01-29T14:24:04.000Z</time>
      </trkpt>
      <trkpt lat="48.37268" lon="7.27804">
        <ele>666</ele>
        <time>2023-01-29T14:24:09.000Z</time>
      </trkpt>
      <trkpt lat="48.37268" lon="7.27805">
        <ele>666</ele>
        <time>2023-01-29T14:24:10.000Z</time>
      </trkpt>
      <trkpt lat="48.37266" lon="7.2781">
        <ele>665.59997558594</ele>
        <time>2023-01-29T14:24:13.000Z</time>
      </trkpt>
      <trkpt lat="48.37264" lon="7.27815">
        <ele>665.19995117188</ele>
        <time>2023-01-29T14:24:16.000Z</time>
      </trkpt>
      <trkpt lat="48.37264" lon="7.27818">
        <ele>664.80004882812</ele>
        <time>2023-01-29T14:24:18.000Z</time>
      </trkpt>
      <trkpt lat="48.37263" lon="7.2782">
        <ele>664.80004882812</ele>
        <time>2023-01-29T14:24:19.000Z</time>
      </trkpt>
      <trkpt lat="48.37262" lon="7.27824">
        <ele>664.40002441406</ele>
        <time>2023-01-29T14:24:23.000Z</time>
      </trkpt>
      <trkpt lat="48.37262" lon="7.2783">
        <ele>663.80004882812</ele>
        <time>2023-01-29T14:24:28.000Z</time>
      </trkpt>
      <trkpt lat="48.37262" lon="7.27832">
        <ele>663.59997558594</ele>
        <time>2023-01-29T14:24:30.000Z</time>
      </trkpt>
      <trkpt lat="48.37261" lon="7.27837">
        <ele>662.80004882812</ele>
        <time>2023-01-29T14:24:36.000Z</time>
      </trkpt>
      <trkpt lat="48.3726" lon="7.27838">
        <ele>662.80004882812</ele>
        <time>2023-01-29T14:24:37.000Z</time>
      </trkpt>
      <trkpt lat="48.3726" lon="7.27846">
        <ele>662.19995117188</ele>
        <time>2023-01-29T14:24:43.000Z</time>
      </trkpt>
      <trkpt lat="48.3726" lon="7.2785">
        <ele>661.80004882812</ele>
        <time>2023-01-29T14:24:46.000Z</time>
      </trkpt>
      <trkpt lat="48.3726" lon="7.27856">
        <ele>661.40002441406</ele>
        <time>2023-01-29T14:24:50.000Z</time>
      </trkpt>
      <trkpt lat="48.37258" lon="7.27866">
        <ele>660.59997558594</ele>
        <time>2023-01-29T14:24:56.000Z</time>
      </trkpt>
      <trkpt lat="48.37258" lon="7.27869">
        <ele>660.40002441406</ele>
        <time>2023-01-29T14:24:58.000Z</time>
      </trkpt>
      <trkpt lat="48.37257" lon="7.27872">
        <ele>660.19995117188</ele>
        <time>2023-01-29T14:25:00.000Z</time>
      </trkpt>
      <trkpt lat="48.37257" lon="7.2788">
        <ele>659.59997558594</ele>
        <time>2023-01-29T14:25:06.000Z</time>
      </trkpt>
      <trkpt lat="48.37256" lon="7.27883">
        <ele>659.40002441406</ele>
        <time>2023-01-29T14:25:08.000Z</time>
      </trkpt>
      <trkpt lat="48.37254" lon="7.2789">
        <ele>658.59997558594</ele>
        <time>2023-01-29T14:25:14.000Z</time>
      </trkpt>
      <trkpt lat="48.37254" lon="7.27891">
        <ele>658.40002441406</ele>
        <time>2023-01-29T14:25:15.000Z</time>
      </trkpt>
      <trkpt lat="48.37253" lon="7.27905">
        <ele>657.59997558594</ele>
        <time>2023-01-29T14:25:22.000Z</time>
      </trkpt>
      <trkpt lat="48.37253" lon="7.27907">
        <ele>657.40002441406</ele>
        <time>2023-01-29T14:25:23.000Z</time>
      </trkpt>
      <trkpt lat="48.37254" lon="7.27916">
        <ele>656.80004882812</ele>
        <time>2023-01-29T14:25:29.000Z</time>
      </trkpt>
      <trkpt lat="48.37254" lon="7.27922">
        <ele>656.19995117188</ele>
        <time>2023-01-29T14:25:32.000Z</time>
      </trkpt>
      <trkpt lat="48.37255" lon="7.27931">
        <ele>655.59997558594</ele>
        <time>2023-01-29T14:25:38.000Z</time>
      </trkpt>
      <trkpt lat="48.37255" lon="7.27935">
        <ele>655.19995117188</ele>
        <time>2023-01-29T14:25:41.000Z</time>
      </trkpt>
      <trkpt lat="48.37256" lon="7.27941">
        <ele>654.80004882812</ele>
        <time>2023-01-29T14:25:45.000Z</time>
      </trkpt>
      <trkpt lat="48.37257" lon="7.27951">
        <ele>654.19995117188</ele>
        <time>2023-01-29T14:25:51.000Z</time>
      </trkpt>
      <trkpt lat="48.37258" lon="7.27955">
        <ele>653.80004882812</ele>
        <time>2023-01-29T14:25:54.000Z</time>
      </trkpt>
      <trkpt lat="48.37259" lon="7.27963">
        <ele>653</ele>
        <time>2023-01-29T14:26:00.000Z</time>
      </trkpt>
      <trkpt lat="48.37263" lon="7.27969">
        <ele>652.40002441406</ele>
        <time>2023-01-29T14:26:04.000Z</time>
      </trkpt>
      <trkpt lat="48.37266" lon="7.27975">
        <ele>652.19995117188</ele>
        <time>2023-01-29T14:26:08.000Z</time>
      </trkpt>
      <trkpt lat="48.37266" lon="7.27977">
        <ele>652</ele>
        <time>2023-01-29T14:26:10.000Z</time>
      </trkpt>
      <trkpt lat="48.37266" lon="7.27981">
        <ele>651.40002441406</ele>
        <time>2023-01-29T14:26:13.000Z</time>
      </trkpt>
      <trkpt lat="48.37268" lon="7.2799">
        <ele>651</ele>
        <time>2023-01-29T14:26:20.000Z</time>
      </trkpt>
      <trkpt lat="48.37268" lon="7.27991">
        <ele>650.80004882812</ele>
        <time>2023-01-29T14:26:21.000Z</time>
      </trkpt>
      <trkpt lat="48.37269" lon="7.27999">
        <ele>650</ele>
        <time>2023-01-29T14:26:28.000Z</time>
      </trkpt>
      <trkpt lat="48.37269" lon="7.28">
        <ele>649.80004882812</ele>
        <time>2023-01-29T14:26:30.000Z</time>
      </trkpt>
      <trkpt lat="48.37271" lon="7.28007">
        <ele>649.40002441406</ele>
        <time>2023-01-29T14:26:35.000Z</time>
      </trkpt>
      <trkpt lat="48.37271" lon="7.28013">
        <ele>649</ele>
        <time>2023-01-29T14:26:39.000Z</time>
      </trkpt>
      <trkpt lat="48.37271" lon="7.28015">
        <ele>648.80004882812</ele>
        <time>2023-01-29T14:26:40.000Z</time>
      </trkpt>
      <trkpt lat="48.37273" lon="7.28019">
        <ele>648.40002441406</ele>
        <time>2023-01-29T14:26:43.000Z</time>
      </trkpt>
      <trkpt lat="48.37274" lon="7.28025">
        <ele>647.80004882812</ele>
        <time>2023-01-29T14:26:49.000Z</time>
      </trkpt>
      <trkpt lat="48.37275" lon="7.28027">
        <ele>647.59997558594</ele>
        <time>2023-01-29T14:26:51.000Z</time>
      </trkpt>
      <trkpt lat="48.37279" lon="7.28037">
        <ele>646.59997558594</ele>
        <time>2023-01-29T14:26:59.000Z</time>
      </trkpt>
      <trkpt lat="48.37283" lon="7.28046">
        <ele>646</ele>
        <time>2023-01-29T14:27:04.000Z</time>
      </trkpt>
      <trkpt lat="48.37284" lon="7.28049">
        <ele>645.59997558594</ele>
        <time>2023-01-29T14:27:08.000Z</time>
      </trkpt>
      <trkpt lat="48.37285" lon="7.28051">
        <ele>645.40002441406</ele>
        <time>2023-01-29T14:27:11.000Z</time>
      </trkpt>
      <trkpt lat="48.37288" lon="7.28061">
        <ele>644.59997558594</ele>
        <time>2023-01-29T14:27:18.000Z</time>
      </trkpt>
      <trkpt lat="48.37289" lon="7.28062">
        <ele>644.40002441406</ele>
        <time>2023-01-29T14:27:19.000Z</time>
      </trkpt>
      <trkpt lat="48.37293" lon="7.28072">
        <ele>643.80004882812</ele>
        <time>2023-01-29T14:27:25.000Z</time>
      </trkpt>
      <trkpt lat="48.37294" lon="7.28075">
        <ele>643.59997558594</ele>
        <time>2023-01-29T14:27:27.000Z</time>
      </trkpt>
      <trkpt lat="48.37298" lon="7.28086">
        <ele>642.59997558594</ele>
        <time>2023-01-29T14:27:36.000Z</time>
      </trkpt>
      <trkpt lat="48.37298" lon="7.28089">
        <ele>642.40002441406</ele>
        <time>2023-01-29T14:27:38.000Z</time>
      </trkpt>
      <trkpt lat="48.37299" lon="7.28092">
        <ele>642.19995117188</ele>
        <time>2023-01-29T14:27:44.000Z</time>
      </trkpt>
      <trkpt lat="48.37299" lon="7.28096">
        <ele>641.80004882812</ele>
        <time>2023-01-29T14:27:49.000Z</time>
      </trkpt>
      <trkpt lat="48.37301" lon="7.28101">
        <ele>641.40002441406</ele>
        <time>2023-01-29T14:27:52.000Z</time>
      </trkpt>
      <trkpt lat="48.37304" lon="7.28107">
        <ele>641</ele>
        <time>2023-01-29T14:27:56.000Z</time>
      </trkpt>
      <trkpt lat="48.37307" lon="7.28114">
        <ele>640.59997558594</ele>
        <time>2023-01-29T14:28:01.000Z</time>
      </trkpt>
      <trkpt lat="48.37307" lon="7.28116">
        <ele>640.59997558594</ele>
        <time>2023-01-29T14:28:02.000Z</time>
      </trkpt>
      <trkpt lat="48.37308" lon="7.28117">
        <ele>640.40002441406</ele>
        <time>2023-01-29T14:28:03.000Z</time>
      </trkpt>
      <trkpt lat="48.37312" lon="7.28128">
        <ele>639.59997558594</ele>
        <time>2023-01-29T14:28:08.000Z</time>
      </trkpt>
      <trkpt lat="48.37313" lon="7.2813">
        <ele>639.59997558594</ele>
        <time>2023-01-29T14:28:09.000Z</time>
      </trkpt>
      <trkpt lat="48.37317" lon="7.28133">
        <ele>639.40002441406</ele>
        <time>2023-01-29T14:28:12.000Z</time>
      </trkpt>
      <trkpt lat="48.37316" lon="7.28131">
        <ele>639</ele>
        <time>2023-01-29T14:28:15.000Z</time>
      </trkpt>
      <trkpt lat="48.37318" lon="7.28138">
        <ele>638.59997558594</ele>
        <time>2023-01-29T14:28:22.000Z</time>
      </trkpt>
      <trkpt lat="48.3732" lon="7.28143">
        <ele>638.40002441406</ele>
        <time>2023-01-29T14:28:26.000Z</time>
      </trkpt>
      <trkpt lat="48.3732" lon="7.28144">
        <ele>638.19995117188</ele>
        <time>2023-01-29T14:28:27.000Z</time>
      </trkpt>
      <trkpt lat="48.37321" lon="7.28146">
        <ele>638.19995117188</ele>
        <time>2023-01-29T14:28:28.000Z</time>
      </trkpt>
      <trkpt lat="48.37321" lon="7.28155">
        <ele>637.80004882812</ele>
        <time>2023-01-29T14:28:32.000Z</time>
      </trkpt>
      <trkpt lat="48.37322" lon="7.28163">
        <ele>637.40002441406</ele>
        <time>2023-01-29T14:28:35.000Z</time>
      </trkpt>
      <trkpt lat="48.37322" lon="7.28166">
        <ele>637.19995117188</ele>
        <time>2023-01-29T14:28:37.000Z</time>
      </trkpt>
      <trkpt lat="48.37323" lon="7.28169">
        <ele>636.80004882812</ele>
        <time>2023-01-29T14:28:40.000Z</time>
      </trkpt>
      <trkpt lat="48.37324" lon="7.28171">
        <ele>636.59997558594</ele>
        <time>2023-01-29T14:28:42.000Z</time>
      </trkpt>
      <trkpt lat="48.37325" lon="7.28178">
        <ele>636</ele>
        <time>2023-01-29T14:28:45.000Z</time>
      </trkpt>
      <trkpt lat="48.37324" lon="7.28186">
        <ele>635.59997558594</ele>
        <time>2023-01-29T14:28:50.000Z</time>
      </trkpt>
      <trkpt lat="48.37325" lon="7.28192">
        <ele>635.19995117188</ele>
        <time>2023-01-29T14:28:53.000Z</time>
      </trkpt>
      <trkpt lat="48.37324" lon="7.28195">
        <ele>635.19995117188</ele>
        <time>2023-01-29T14:28:54.000Z</time>
      </trkpt>
      <trkpt lat="48.37324" lon="7.28197">
        <ele>635</ele>
        <time>2023-01-29T14:28:55.000Z</time>
      </trkpt>
      <trkpt lat="48.37324" lon="7.28202">
        <ele>634.80004882812</ele>
        <time>2023-01-29T14:28:58.000Z</time>
      </trkpt>
      <trkpt lat="48.37323" lon="7.28214">
        <ele>634.19995117188</ele>
        <time>2023-01-29T14:29:06.000Z</time>
      </trkpt>
      <trkpt lat="48.37323" lon="7.28216">
        <ele>634</ele>
        <time>2023-01-29T14:29:07.000Z</time>
      </trkpt>
      <trkpt lat="48.37321" lon="7.28226">
        <ele>633.59997558594</ele>
        <time>2023-01-29T14:29:11.000Z</time>
      </trkpt>
      <trkpt lat="48.37321" lon="7.2823">
        <ele>633.40002441406</ele>
        <time>2023-01-29T14:29:13.000Z</time>
      </trkpt>
      <trkpt lat="48.3732" lon="7.28235">
        <ele>633</ele>
        <time>2023-01-29T14:29:16.000Z</time>
      </trkpt>
      <trkpt lat="48.3732" lon="7.28237">
        <ele>632.80004882812</ele>
        <time>2023-01-29T14:29:17.000Z</time>
      </trkpt>
      <trkpt lat="48.37321" lon="7.28241">
        <ele>632.40002441406</ele>
        <time>2023-01-29T14:29:21.000Z</time>
      </trkpt>
      <trkpt lat="48.3732" lon="7.28249">
        <ele>631.80004882812</ele>
        <time>2023-01-29T14:29:26.000Z</time>
      </trkpt>
      <trkpt lat="48.37319" lon="7.28254">
        <ele>631.59997558594</ele>
        <time>2023-01-29T14:29:28.000Z</time>
      </trkpt>
      <trkpt lat="48.37316" lon="7.28264">
        <ele>631</ele>
        <time>2023-01-29T14:29:34.000Z</time>
      </trkpt>
      <trkpt lat="48.37313" lon="7.28266">
        <ele>631</ele>
        <time>2023-01-29T14:29:39.000Z</time>
      </trkpt>
      <trkpt lat="48.37312" lon="7.28269">
        <ele>630.80004882812</ele>
        <time>2023-01-29T14:29:42.000Z</time>
      </trkpt>
      <trkpt lat="48.37311" lon="7.28274">
        <ele>630.59997558594</ele>
        <time>2023-01-29T14:29:46.000Z</time>
      </trkpt>
      <trkpt lat="48.37312" lon="7.28281">
        <ele>630</ele>
        <time>2023-01-29T14:29:53.000Z</time>
      </trkpt>
      <trkpt lat="48.37311" lon="7.28284">
        <ele>629.59997558594</ele>
        <time>2023-01-29T14:29:55.000Z</time>
      </trkpt>
      <trkpt lat="48.3731" lon="7.28289">
        <ele>629.19995117188</ele>
        <time>2023-01-29T14:30:01.000Z</time>
      </trkpt>
      <trkpt lat="48.3731" lon="7.28294">
        <ele>628.59997558594</ele>
        <time>2023-01-29T14:30:06.000Z</time>
      </trkpt>
      <trkpt lat="48.3731" lon="7.28299">
        <ele>628.59997558594</ele>
        <time>2023-01-29T14:30:08.000Z</time>
      </trkpt>
      <trkpt lat="48.3731" lon="7.28304">
        <ele>628.59997558594</ele>
        <time>2023-01-29T14:30:10.000Z</time>
      </trkpt>
      <trkpt lat="48.37309" lon="7.28311">
        <ele>628</ele>
        <time>2023-01-29T14:30:14.000Z</time>
      </trkpt>
      <trkpt lat="48.3731" lon="7.28319">
        <ele>627.59997558594</ele>
        <time>2023-01-29T14:30:18.000Z</time>
      </trkpt>
      <trkpt lat="48.37313" lon="7.28328">
        <ele>627</ele>
        <time>2023-01-29T14:30:23.000Z</time>
      </trkpt>
      <trkpt lat="48.37312" lon="7.28337">
        <ele>626.80004882812</ele>
        <time>2023-01-29T14:30:27.000Z</time>
      </trkpt>
      <trkpt lat="48.37312" lon="7.28339">
        <ele>626.59997558594</ele>
        <time>2023-01-29T14:30:28.000Z</time>
      </trkpt>
      <trkpt lat="48.37312" lon="7.28342">
        <ele>626.40002441406</ele>
        <time>2023-01-29T14:30:30.000Z</time>
      </trkpt>
      <trkpt lat="48.37315" lon="7.28351">
        <ele>625.59997558594</ele>
        <time>2023-01-29T14:30:37.000Z</time>
      </trkpt>
      <trkpt lat="48.37315" lon="7.28353">
        <ele>625.40002441406</ele>
        <time>2023-01-29T14:30:39.000Z</time>
      </trkpt>
      <trkpt lat="48.37317" lon="7.28368">
        <ele>624.59997558594</ele>
        <time>2023-01-29T14:30:46.000Z</time>
      </trkpt>
      <trkpt lat="48.37317" lon="7.2837">
        <ele>624.40002441406</ele>
        <time>2023-01-29T14:30:47.000Z</time>
      </trkpt>
      <trkpt lat="48.37318" lon="7.28383">
        <ele>623.80004882812</ele>
        <time>2023-01-29T14:30:54.000Z</time>
      </trkpt>
      <trkpt lat="48.37319" lon="7.28384">
        <ele>623.59997558594</ele>
        <time>2023-01-29T14:30:55.000Z</time>
      </trkpt>
      <trkpt lat="48.3732" lon="7.28391">
        <ele>623.40002441406</ele>
        <time>2023-01-29T14:30:59.000Z</time>
      </trkpt>
      <trkpt lat="48.37321" lon="7.28392">
        <ele>623.19995117188</ele>
        <time>2023-01-29T14:31:00.000Z</time>
      </trkpt>
      <trkpt lat="48.37323" lon="7.28403">
        <ele>622.19995117188</ele>
        <time>2023-01-29T14:31:07.000Z</time>
      </trkpt>
      <trkpt lat="48.37323" lon="7.28405">
        <ele>622</ele>
        <time>2023-01-29T14:31:09.000Z</time>
      </trkpt>
      <trkpt lat="48.37326" lon="7.28416">
        <ele>621.40002441406</ele>
        <time>2023-01-29T14:31:17.000Z</time>
      </trkpt>
      <trkpt lat="48.37327" lon="7.28419">
        <ele>621.19995117188</ele>
        <time>2023-01-29T14:31:19.000Z</time>
      </trkpt>
      <trkpt lat="48.3733" lon="7.28426">
        <ele>620.59997558594</ele>
        <time>2023-01-29T14:31:24.000Z</time>
      </trkpt>
      <trkpt lat="48.37331" lon="7.28434">
        <ele>620</ele>
        <time>2023-01-29T14:31:30.000Z</time>
      </trkpt>
      <trkpt lat="48.37334" lon="7.28441">
        <ele>619.59997558594</ele>
        <time>2023-01-29T14:31:36.000Z</time>
      </trkpt>
      <trkpt lat="48.37335" lon="7.28443">
        <ele>619.59997558594</ele>
        <time>2023-01-29T14:31:37.000Z</time>
      </trkpt>
      <trkpt lat="48.37335" lon="7.28444">
        <ele>619.59997558594</ele>
        <time>2023-01-29T14:31:38.000Z</time>
      </trkpt>
      <trkpt lat="48.37337" lon="7.28449">
        <ele>619.19995117188</ele>
        <time>2023-01-29T14:31:42.000Z</time>
      </trkpt>
      <trkpt lat="48.37337" lon="7.28451">
        <ele>619</ele>
        <time>2023-01-29T14:31:43.000Z</time>
      </trkpt>
      <trkpt lat="48.37337" lon="7.28452">
        <ele>619</ele>
        <time>2023-01-29T14:31:44.000Z</time>
      </trkpt>
      <trkpt lat="48.37338" lon="7.28461">
        <ele>618.59997558594</ele>
        <time>2023-01-29T14:31:50.000Z</time>
      </trkpt>
      <trkpt lat="48.3734" lon="7.28464">
        <ele>618.59997558594</ele>
        <time>2023-01-29T14:31:52.000Z</time>
      </trkpt>
      <trkpt lat="48.37344" lon="7.28466">
        <ele>618.19995117188</ele>
        <time>2023-01-29T14:31:55.000Z</time>
      </trkpt>
      <trkpt lat="48.37344" lon="7.28468">
        <ele>618</ele>
        <time>2023-01-29T14:31:56.000Z</time>
      </trkpt>
      <trkpt lat="48.37346" lon="7.28476">
        <ele>617.59997558594</ele>
        <time>2023-01-29T14:32:02.000Z</time>
      </trkpt>
      <trkpt lat="48.37347" lon="7.28477">
        <ele>617.40002441406</ele>
        <time>2023-01-29T14:32:03.000Z</time>
      </trkpt>
      <trkpt lat="48.37349" lon="7.28481">
        <ele>617</ele>
        <time>2023-01-29T14:32:06.000Z</time>
      </trkpt>
      <trkpt lat="48.37348" lon="7.28484">
        <ele>617</ele>
        <time>2023-01-29T14:32:07.000Z</time>
      </trkpt>
      <trkpt lat="48.37348" lon="7.28485">
        <ele>616.80004882812</ele>
        <time>2023-01-29T14:32:08.000Z</time>
      </trkpt>
      <trkpt lat="48.3735" lon="7.28486">
        <ele>616.59997558594</ele>
        <time>2023-01-29T14:32:10.000Z</time>
      </trkpt>
      <trkpt lat="48.37354" lon="7.28488">
        <ele>616.40002441406</ele>
        <time>2023-01-29T14:32:13.000Z</time>
      </trkpt>
      <trkpt lat="48.37357" lon="7.28493">
        <ele>615.80004882812</ele>
        <time>2023-01-29T14:32:18.000Z</time>
      </trkpt>
      <trkpt lat="48.37361" lon="7.28498">
        <ele>615.19995117188</ele>
        <time>2023-01-29T14:32:24.000Z</time>
      </trkpt>
      <trkpt lat="48.37362" lon="7.28501">
        <ele>614.80004882812</ele>
        <time>2023-01-29T14:32:28.000Z</time>
      </trkpt>
      <trkpt lat="48.37364" lon="7.28502">
        <ele>614.80004882812</ele>
        <time>2023-01-29T14:32:30.000Z</time>
      </trkpt>
      <trkpt lat="48.37367" lon="7.28504">
        <ele>614.19995117188</ele>
        <time>2023-01-29T14:32:34.000Z</time>
      </trkpt>
      <trkpt lat="48.37372" lon="7.28507">
        <ele>613.80004882812</ele>
        <time>2023-01-29T14:32:38.000Z</time>
      </trkpt>
      <trkpt lat="48.37373" lon="7.28507">
        <ele>613.80004882812</ele>
        <time>2023-01-29T14:32:39.000Z</time>
      </trkpt>
      <trkpt lat="48.37373" lon="7.28509">
        <ele>613.40002441406</ele>
        <time>2023-01-29T14:32:45.000Z</time>
      </trkpt>
      <trkpt lat="48.37375" lon="7.28514">
        <ele>613.19995117188</ele>
        <time>2023-01-29T14:32:51.000Z</time>
      </trkpt>
      <trkpt lat="48.37377" lon="7.28519">
        <ele>612.80004882812</ele>
        <time>2023-01-29T14:32:55.000Z</time>
      </trkpt>
      <trkpt lat="48.37378" lon="7.2852">
        <ele>612.59997558594</ele>
        <time>2023-01-29T14:32:56.000Z</time>
      </trkpt>
      <trkpt lat="48.37383" lon="7.28523">
        <ele>612</ele>
        <time>2023-01-29T14:33:02.000Z</time>
      </trkpt>
      <trkpt lat="48.37387" lon="7.28527">
        <ele>611.59997558594</ele>
        <time>2023-01-29T14:33:08.000Z</time>
      </trkpt>
      <trkpt lat="48.37388" lon="7.28528">
        <ele>611.40002441406</ele>
        <time>2023-01-29T14:33:09.000Z</time>
      </trkpt>
      <trkpt lat="48.37391" lon="7.28531">
        <ele>611</ele>
        <time>2023-01-29T14:33:13.000Z</time>
      </trkpt>
      <trkpt lat="48.37395" lon="7.28532">
        <ele>610.59997558594</ele>
        <time>2023-01-29T14:33:16.000Z</time>
      </trkpt>
      <trkpt lat="48.37398" lon="7.28532">
        <ele>610.40002441406</ele>
        <time>2023-01-29T14:33:18.000Z</time>
      </trkpt>
      <trkpt lat="48.37401" lon="7.28533">
        <ele>610.19995117188</ele>
        <time>2023-01-29T14:33:20.000Z</time>
      </trkpt>
      <trkpt lat="48.37407" lon="7.28538">
        <ele>609.59997558594</ele>
        <time>2023-01-29T14:33:27.000Z</time>
      </trkpt>
      <trkpt lat="48.37409" lon="7.28539">
        <ele>609.19995117188</ele>
        <time>2023-01-29T14:33:29.000Z</time>
      </trkpt>
      <trkpt lat="48.37411" lon="7.2854">
        <ele>609</ele>
        <time>2023-01-29T14:33:31.000Z</time>
      </trkpt>
      <trkpt lat="48.37413" lon="7.28544">
        <ele>608.40002441406</ele>
        <time>2023-01-29T14:33:37.000Z</time>
      </trkpt>
      <trkpt lat="48.37414" lon="7.28545">
        <ele>608.19995117188</ele>
        <time>2023-01-29T14:33:38.000Z</time>
      </trkpt>
      <trkpt lat="48.37416" lon="7.28547">
        <ele>608</ele>
        <time>2023-01-29T14:33:41.000Z</time>
      </trkpt>
      <trkpt lat="48.37417" lon="7.28547">
        <ele>607.80004882812</ele>
        <time>2023-01-29T14:33:42.000Z</time>
      </trkpt>
      <trkpt lat="48.37419" lon="7.28543">
        <ele>607.59997558594</ele>
        <time>2023-01-29T14:33:46.000Z</time>
      </trkpt>
      <trkpt lat="48.3742" lon="7.28542">
        <ele>607.59997558594</ele>
        <time>2023-01-29T14:33:47.000Z</time>
      </trkpt>
      <trkpt lat="48.37421" lon="7.28542">
        <ele>607.59997558594</ele>
        <time>2023-01-29T14:33:48.000Z</time>
      </trkpt>
      <trkpt lat="48.37427" lon="7.28544">
        <ele>607.19995117188</ele>
        <time>2023-01-29T14:33:52.000Z</time>
      </trkpt>
      <trkpt lat="48.37431" lon="7.28545">
        <ele>607.19995117188</ele>
        <time>2023-01-29T14:33:56.000Z</time>
      </trkpt>
      <trkpt lat="48.37432" lon="7.28548">
        <ele>607</ele>
        <time>2023-01-29T14:33:59.000Z</time>
      </trkpt>
      <trkpt lat="48.37434" lon="7.28551">
        <ele>607</ele>
        <time>2023-01-29T14:34:04.000Z</time>
      </trkpt>
      <trkpt lat="48.37441" lon="7.28555">
        <ele>606.59997558594</ele>
        <time>2023-01-29T14:34:12.000Z</time>
      </trkpt>
      <trkpt lat="48.37445" lon="7.28556">
        <ele>606.19995117188</ele>
        <time>2023-01-29T14:34:16.000Z</time>
      </trkpt>
      <trkpt lat="48.37448" lon="7.28557">
        <ele>606</ele>
        <time>2023-01-29T14:34:19.000Z</time>
      </trkpt>
      <trkpt lat="48.37454" lon="7.28554">
        <ele>605.19995117188</ele>
        <time>2023-01-29T14:34:27.000Z</time>
      </trkpt>
      <trkpt lat="48.37454" lon="7.28554">
        <ele>605.19995117188</ele>
        <time>2023-01-29T14:34:28.000Z</time>
      </trkpt>
      <trkpt lat="48.37462" lon="7.28558">
        <ele>604.59997558594</ele>
        <time>2023-01-29T14:34:33.000Z</time>
      </trkpt>
      <trkpt lat="48.37464" lon="7.2856">
        <ele>604.40002441406</ele>
        <time>2023-01-29T14:34:35.000Z</time>
      </trkpt>
      <trkpt lat="48.37467" lon="7.28559">
        <ele>604.19995117188</ele>
        <time>2023-01-29T14:34:39.000Z</time>
      </trkpt>
      <trkpt lat="48.37471" lon="7.28561">
        <ele>603.59997558594</ele>
        <time>2023-01-29T14:34:43.000Z</time>
      </trkpt>
      <trkpt lat="48.37475" lon="7.28563">
        <ele>603.19995117188</ele>
        <time>2023-01-29T14:34:48.000Z</time>
      </trkpt>
      <trkpt lat="48.37476" lon="7.28563">
        <ele>603</ele>
        <time>2023-01-29T14:34:49.000Z</time>
      </trkpt>
      <trkpt lat="48.37476" lon="7.28564">
        <ele>603</ele>
        <time>2023-01-29T14:34:50.000Z</time>
      </trkpt>
      <trkpt lat="48.37481" lon="7.28569">
        <ele>602.59997558594</ele>
        <time>2023-01-29T14:34:58.000Z</time>
      </trkpt>
      <trkpt lat="48.37486" lon="7.28573">
        <ele>602.40002441406</ele>
        <time>2023-01-29T14:35:04.000Z</time>
      </trkpt>
      <trkpt lat="48.3749" lon="7.28574">
        <ele>602.19995117188</ele>
        <time>2023-01-29T14:35:09.000Z</time>
      </trkpt>
      <trkpt lat="48.37492" lon="7.28574">
        <ele>602</ele>
        <time>2023-01-29T14:35:11.000Z</time>
      </trkpt>
      <trkpt lat="48.37494" lon="7.28575">
        <ele>601.59997558594</ele>
        <time>2023-01-29T14:35:14.000Z</time>
      </trkpt>
      <trkpt lat="48.375" lon="7.28577">
        <ele>601</ele>
        <time>2023-01-29T14:35:21.000Z</time>
      </trkpt>
      <trkpt lat="48.37502" lon="7.28577">
        <ele>600.80004882812</ele>
        <time>2023-01-29T14:35:23.000Z</time>
      </trkpt>
      <trkpt lat="48.37504" lon="7.28578">
        <ele>600.40002441406</ele>
        <time>2023-01-29T14:35:26.000Z</time>
      </trkpt>
      <trkpt lat="48.37505" lon="7.28581">
        <ele>599.80004882812</ele>
        <time>2023-01-29T14:35:30.000Z</time>
      </trkpt>
      <trkpt lat="48.37505" lon="7.28582">
        <ele>599.80004882812</ele>
        <time>2023-01-29T14:35:31.000Z</time>
      </trkpt>
      <trkpt lat="48.37511" lon="7.28585">
        <ele>599.19995117188</ele>
        <time>2023-01-29T14:35:38.000Z</time>
      </trkpt>
      <trkpt lat="48.37514" lon="7.28584">
        <ele>598.80004882812</ele>
        <time>2023-01-29T14:35:41.000Z</time>
      </trkpt>
      <trkpt lat="48.37518" lon="7.28582">
        <ele>598.59997558594</ele>
        <time>2023-01-29T14:35:44.000Z</time>
      </trkpt>
      <trkpt lat="48.37524" lon="7.28583">
        <ele>597.80004882812</ele>
        <time>2023-01-29T14:35:51.000Z</time>
      </trkpt>
      <trkpt lat="48.37525" lon="7.28583">
        <ele>597.80004882812</ele>
        <time>2023-01-29T14:35:52.000Z</time>
      </trkpt>
      <trkpt lat="48.37528" lon="7.28583">
        <ele>597.19995117188</ele>
        <time>2023-01-29T14:35:57.000Z</time>
      </trkpt>
      <trkpt lat="48.37531" lon="7.28582">
        <ele>596.80004882812</ele>
        <time>2023-01-29T14:36:01.000Z</time>
      </trkpt>
      <trkpt lat="48.37532" lon="7.2858">
        <ele>596.59997558594</ele>
        <time>2023-01-29T14:36:03.000Z</time>
      </trkpt>
      <trkpt lat="48.37533" lon="7.2858">
        <ele>596.40002441406</ele>
        <time>2023-01-29T14:36:04.000Z</time>
      </trkpt>
      <trkpt lat="48.37536" lon="7.28578">
        <ele>596.19995117188</ele>
        <time>2023-01-29T14:36:07.000Z</time>
      </trkpt>
      <trkpt lat="48.37538" lon="7.28575">
        <ele>596</ele>
        <time>2023-01-29T14:36:09.000Z</time>
      </trkpt>
      <trkpt lat="48.37542" lon="7.28572">
        <ele>595.59997558594</ele>
        <time>2023-01-29T14:36:13.000Z</time>
      </trkpt>
      <trkpt lat="48.37546" lon="7.28567">
        <ele>595.19995117188</ele>
        <time>2023-01-29T14:36:18.000Z</time>
      </trkpt>
      <trkpt lat="48.37553" lon="7.28559">
        <ele>594.80004882812</ele>
        <time>2023-01-29T14:36:24.000Z</time>
      </trkpt>
      <trkpt lat="48.37554" lon="7.28558">
        <ele>594.59997558594</ele>
        <time>2023-01-29T14:36:25.000Z</time>
      </trkpt>
      <trkpt lat="48.37561" lon="7.28551">
        <ele>594</ele>
        <time>2023-01-29T14:36:32.000Z</time>
      </trkpt>
      <trkpt lat="48.37566" lon="7.28547">
        <ele>593.59997558594</ele>
        <time>2023-01-29T14:36:37.000Z</time>
      </trkpt>
      <trkpt lat="48.37567" lon="7.28546">
        <ele>593.59997558594</ele>
        <time>2023-01-29T14:36:38.000Z</time>
      </trkpt>
      <trkpt lat="48.37571" lon="7.28546">
        <ele>593</ele>
        <time>2023-01-29T14:36:43.000Z</time>
      </trkpt>
      <trkpt lat="48.37576" lon="7.28541">
        <ele>592.40002441406</ele>
        <time>2023-01-29T14:36:48.000Z</time>
      </trkpt>
      <trkpt lat="48.37577" lon="7.28542">
        <ele>592.40002441406</ele>
        <time>2023-01-29T14:36:49.000Z</time>
      </trkpt>
      <trkpt lat="48.37581" lon="7.28549">
        <ele>591.80004882812</ele>
        <time>2023-01-29T14:36:55.000Z</time>
      </trkpt>
      <trkpt lat="48.37585" lon="7.28553">
        <ele>591.59997558594</ele>
        <time>2023-01-29T14:37:01.000Z</time>
      </trkpt>
      <trkpt lat="48.37588" lon="7.28557">
        <ele>591.40002441406</ele>
        <time>2023-01-29T14:37:04.000Z</time>
      </trkpt>
      <trkpt lat="48.37591" lon="7.28567">
        <ele>591.19995117188</ele>
        <time>2023-01-29T14:37:07.000Z</time>
      </trkpt>
      <trkpt lat="48.3759" lon="7.28588">
        <ele>590.80004882812</ele>
        <time>2023-01-29T14:37:16.000Z</time>
      </trkpt>
      <trkpt lat="48.37588" lon="7.2859">
        <ele>590.40002441406</ele>
        <time>2023-01-29T14:37:18.000Z</time>
      </trkpt>
      <trkpt lat="48.37582" lon="7.28593">
        <ele>589.80004882812</ele>
        <time>2023-01-29T14:37:24.000Z</time>
      </trkpt>
      <trkpt lat="48.3758" lon="7.28593">
        <ele>589.59997558594</ele>
        <time>2023-01-29T14:37:29.000Z</time>
      </trkpt>
      <trkpt lat="48.37575" lon="7.28597">
        <ele>589.40002441406</ele>
        <time>2023-01-29T14:37:34.000Z</time>
      </trkpt>
      <trkpt lat="48.37572" lon="7.28599">
        <ele>589.19995117188</ele>
        <time>2023-01-29T14:37:37.000Z</time>
      </trkpt>
      <trkpt lat="48.37571" lon="7.28601">
        <ele>589</ele>
        <time>2023-01-29T14:37:39.000Z</time>
      </trkpt>
      <trkpt lat="48.37566" lon="7.28605">
        <ele>588.59997558594</ele>
        <time>2023-01-29T14:37:44.000Z</time>
      </trkpt>
      <trkpt lat="48.37565" lon="7.28606">
        <ele>588.40002441406</ele>
        <time>2023-01-29T14:37:46.000Z</time>
      </trkpt>
      <trkpt lat="48.37564" lon="7.28607">
        <ele>588.40002441406</ele>
        <time>2023-01-29T14:37:47.000Z</time>
      </trkpt>
      <trkpt lat="48.3756" lon="7.28612">
        <ele>587.80004882812</ele>
        <time>2023-01-29T14:37:52.000Z</time>
      </trkpt>
      <trkpt lat="48.37559" lon="7.28614">
        <ele>587.80004882812</ele>
        <time>2023-01-29T14:37:53.000Z</time>
      </trkpt>
      <trkpt lat="48.37551" lon="7.28616">
        <ele>587.40002441406</ele>
        <time>2023-01-29T14:37:59.000Z</time>
      </trkpt>
      <trkpt lat="48.3755" lon="7.28617">
        <ele>587.19995117188</ele>
        <time>2023-01-29T14:38:00.000Z</time>
      </trkpt>
      <trkpt lat="48.37545" lon="7.28625">
        <ele>586.59997558594</ele>
        <time>2023-01-29T14:38:08.000Z</time>
      </trkpt>
      <trkpt lat="48.37541" lon="7.28625">
        <ele>586.19995117188</ele>
        <time>2023-01-29T14:38:16.000Z</time>
      </trkpt>
      <trkpt lat="48.3754" lon="7.28626">
        <ele>586.19995117188</ele>
        <time>2023-01-29T14:38:17.000Z</time>
      </trkpt>
      <trkpt lat="48.37533" lon="7.28633">
        <ele>585.80004882812</ele>
        <time>2023-01-29T14:38:23.000Z</time>
      </trkpt>
      <trkpt lat="48.37531" lon="7.28636">
        <ele>585.40002441406</ele>
        <time>2023-01-29T14:38:28.000Z</time>
      </trkpt>
      <trkpt lat="48.37529" lon="7.28646">
        <ele>585.19995117188</ele>
        <time>2023-01-29T14:38:33.000Z</time>
      </trkpt>
      <trkpt lat="48.37533" lon="7.28644">
        <ele>584.40002441406</ele>
        <time>2023-01-29T14:38:38.000Z</time>
      </trkpt>
      <trkpt lat="48.37533" lon="7.28642">
        <ele>584.19995117188</ele>
        <time>2023-01-29T14:38:40.000Z</time>
      </trkpt>
      <trkpt lat="48.37532" lon="7.28642">
        <ele>584.19995117188</ele>
        <time>2023-01-29T14:38:41.000Z</time>
      </trkpt>
      <trkpt lat="48.37534" lon="7.2864">
        <ele>584</ele>
        <time>2023-01-29T14:38:46.000Z</time>
      </trkpt>
      <trkpt lat="48.37542" lon="7.28636">
        <ele>583.40002441406</ele>
        <time>2023-01-29T14:38:53.000Z</time>
      </trkpt>
      <trkpt lat="48.37544" lon="7.28632">
        <ele>583.19995117188</ele>
        <time>2023-01-29T14:38:56.000Z</time>
      </trkpt>
      <trkpt lat="48.37548" lon="7.28626">
        <ele>582.40002441406</ele>
        <time>2023-01-29T14:39:00.000Z</time>
      </trkpt>
      <trkpt lat="48.37549" lon="7.28626">
        <ele>582.40002441406</ele>
        <time>2023-01-29T14:39:01.000Z</time>
      </trkpt>
      <trkpt lat="48.37549" lon="7.28622">
        <ele>582</ele>
        <time>2023-01-29T14:39:04.000Z</time>
      </trkpt>
      <trkpt lat="48.37549" lon="7.28625">
        <ele>582</ele>
        <time>2023-01-29T14:39:06.000Z</time>
      </trkpt>
      <trkpt lat="48.37551" lon="7.28625">
        <ele>581.59997558594</ele>
        <time>2023-01-29T14:39:13.000Z</time>
      </trkpt>
      <trkpt lat="48.37554" lon="7.28624">
        <ele>581</ele>
        <time>2023-01-29T14:39:17.000Z</time>
      </trkpt>
      <trkpt lat="48.37557" lon="7.28623">
        <ele>580.59997558594</ele>
        <time>2023-01-29T14:39:20.000Z</time>
      </trkpt>
      <trkpt lat="48.37559" lon="7.28622">
        <ele>580.40002441406</ele>
        <time>2023-01-29T14:39:23.000Z</time>
      </trkpt>
      <trkpt lat="48.37561" lon="7.28619">
        <ele>579.80004882812</ele>
        <time>2023-01-29T14:39:25.000Z</time>
      </trkpt>
      <trkpt lat="48.37564" lon="7.28618">
        <ele>579.40002441406</ele>
        <time>2023-01-29T14:39:27.000Z</time>
      </trkpt>
      <trkpt lat="48.37569" lon="7.28617">
        <ele>579</ele>
        <time>2023-01-29T14:39:31.000Z</time>
      </trkpt>
      <trkpt lat="48.37571" lon="7.28616">
        <ele>578.80004882812</ele>
        <time>2023-01-29T14:39:33.000Z</time>
      </trkpt>
      <trkpt lat="48.37574" lon="7.28616">
        <ele>578.40002441406</ele>
        <time>2023-01-29T14:39:36.000Z</time>
      </trkpt>
      <trkpt lat="48.37576" lon="7.28615">
        <ele>577.80004882812</ele>
        <time>2023-01-29T14:39:38.000Z</time>
      </trkpt>
      <trkpt lat="48.37577" lon="7.28615">
        <ele>577.80004882812</ele>
        <time>2023-01-29T14:39:39.000Z</time>
      </trkpt>
      <trkpt lat="48.37578" lon="7.28615">
        <ele>577.59997558594</ele>
        <time>2023-01-29T14:39:41.000Z</time>
      </trkpt>
      <trkpt lat="48.37582" lon="7.28615">
        <ele>577.40002441406</ele>
        <time>2023-01-29T14:39:44.000Z</time>
      </trkpt>
      <trkpt lat="48.37585" lon="7.28613">
        <ele>576.80004882812</ele>
        <time>2023-01-29T14:39:49.000Z</time>
      </trkpt>
      <trkpt lat="48.37586" lon="7.28613">
        <ele>576.59997558594</ele>
        <time>2023-01-29T14:39:50.000Z</time>
      </trkpt>
      <trkpt lat="48.37591" lon="7.28614">
        <ele>576.19995117188</ele>
        <time>2023-01-29T14:39:53.000Z</time>
      </trkpt>
      <trkpt lat="48.37594" lon="7.28614">
        <ele>575.80004882812</ele>
        <time>2023-01-29T14:39:58.000Z</time>
      </trkpt>
      <trkpt lat="48.37595" lon="7.28614">
        <ele>575.59997558594</ele>
        <time>2023-01-29T14:39:59.000Z</time>
      </trkpt>
      <trkpt lat="48.37599" lon="7.28608">
        <ele>575.19995117188</ele>
        <time>2023-01-29T14:40:04.000Z</time>
      </trkpt>
      <trkpt lat="48.37606" lon="7.28603">
        <ele>574.59997558594</ele>
        <time>2023-01-29T14:40:10.000Z</time>
      </trkpt>
      <trkpt lat="48.37607" lon="7.28602">
        <ele>574.59997558594</ele>
        <time>2023-01-29T14:40:11.000Z</time>
      </trkpt>
      <trkpt lat="48.37612" lon="7.286">
        <ele>573.59997558594</ele>
        <time>2023-01-29T14:40:18.000Z</time>
      </trkpt>
      <trkpt lat="48.37613" lon="7.28598">
        <ele>573.59997558594</ele>
        <time>2023-01-29T14:40:20.000Z</time>
      </trkpt>
      <trkpt lat="48.37617" lon="7.28596">
        <ele>573</ele>
        <time>2023-01-29T14:40:25.000Z</time>
      </trkpt>
      <trkpt lat="48.3762" lon="7.28596">
        <ele>572.59997558594</ele>
        <time>2023-01-29T14:40:28.000Z</time>
      </trkpt>
      <trkpt lat="48.37624" lon="7.28593">
        <ele>572.59997558594</ele>
        <time>2023-01-29T14:40:31.000Z</time>
      </trkpt>
      <trkpt lat="48.3763" lon="7.28592">
        <ele>572.19995117188</ele>
        <time>2023-01-29T14:40:37.000Z</time>
      </trkpt>
      <trkpt lat="48.37632" lon="7.2859">
        <ele>572.19995117188</ele>
        <time>2023-01-29T14:40:39.000Z</time>
      </trkpt>
      <trkpt lat="48.37633" lon="7.28589">
        <ele>572.19995117188</ele>
        <time>2023-01-29T14:40:40.000Z</time>
      </trkpt>
      <trkpt lat="48.37633" lon="7.28588">
        <ele>572.19995117188</ele>
        <time>2023-01-29T14:40:42.000Z</time>
      </trkpt>
      <trkpt lat="48.37642" lon="7.2859">
        <ele>572.19995117188</ele>
        <time>2023-01-29T14:40:48.000Z</time>
      </trkpt>
      <trkpt lat="48.37642" lon="7.28598">
        <ele>572.40002441406</ele>
        <time>2023-01-29T14:40:55.000Z</time>
      </trkpt>
      <trkpt lat="48.37642" lon="7.28598">
        <ele>572.40002441406</ele>
        <time>2023-01-29T14:40:59.000Z</time>
      </trkpt>
      <trkpt lat="48.37644" lon="7.28599">
        <ele>572.40002441406</ele>
        <time>2023-01-29T14:41:03.000Z</time>
      </trkpt>
      <trkpt lat="48.37649" lon="7.28607">
        <ele>572.40002441406</ele>
        <time>2023-01-29T14:41:10.000Z</time>
      </trkpt>
      <trkpt lat="48.37652" lon="7.28614">
        <ele>572.59997558594</ele>
        <time>2023-01-29T14:41:15.000Z</time>
      </trkpt>
      <trkpt lat="48.37655" lon="7.2863">
        <ele>573.40002441406</ele>
        <time>2023-01-29T14:41:22.000Z</time>
      </trkpt>
      <trkpt lat="48.37657" lon="7.28631">
        <ele>573.59997558594</ele>
        <time>2023-01-29T14:41:23.000Z</time>
      </trkpt>
      <trkpt lat="48.37661" lon="7.28636">
        <ele>574.19995117188</ele>
        <time>2023-01-29T14:41:27.000Z</time>
      </trkpt>
      <trkpt lat="48.37663" lon="7.28637">
        <ele>574.40002441406</ele>
        <time>2023-01-29T14:41:29.000Z</time>
      </trkpt>
      <trkpt lat="48.37663" lon="7.28639">
        <ele>574.40002441406</ele>
        <time>2023-01-29T14:41:30.000Z</time>
      </trkpt>
      <trkpt lat="48.37665" lon="7.28644">
        <ele>574.59997558594</ele>
        <time>2023-01-29T14:41:33.000Z</time>
      </trkpt>
      <trkpt lat="48.37666" lon="7.28648">
        <ele>574.59997558594</ele>
        <time>2023-01-29T14:41:36.000Z</time>
      </trkpt>
      <trkpt lat="48.37668" lon="7.28651">
        <ele>574.59997558594</ele>
        <time>2023-01-29T14:41:38.000Z</time>
      </trkpt>
      <trkpt lat="48.37669" lon="7.28654">
        <ele>574.59997558594</ele>
        <time>2023-01-29T14:41:40.000Z</time>
      </trkpt>
      <trkpt lat="48.37671" lon="7.28656">
        <ele>574.59997558594</ele>
        <time>2023-01-29T14:41:42.000Z</time>
      </trkpt>
      <trkpt lat="48.37673" lon="7.28656">
        <ele>574.59997558594</ele>
        <time>2023-01-29T14:41:45.000Z</time>
      </trkpt>
      <trkpt lat="48.37676" lon="7.28658">
        <ele>574.59997558594</ele>
        <time>2023-01-29T14:41:47.000Z</time>
      </trkpt>
      <trkpt lat="48.37678" lon="7.28659">
        <ele>574.59997558594</ele>
        <time>2023-01-29T14:41:48.000Z</time>
      </trkpt>
      <trkpt lat="48.37681" lon="7.28667">
        <ele>574.59997558594</ele>
        <time>2023-01-29T14:41:53.000Z</time>
      </trkpt>
      <trkpt lat="48.37686" lon="7.28672">
        <ele>575.19995117188</ele>
        <time>2023-01-29T14:42:01.000Z</time>
      </trkpt>
      <trkpt lat="48.37684" lon="7.28673">
        <ele>575.19995117188</ele>
        <time>2023-01-29T14:42:07.000Z</time>
      </trkpt>
      <trkpt lat="48.37684" lon="7.28677">
        <ele>575.19995117188</ele>
        <time>2023-01-29T14:42:12.000Z</time>
      </trkpt>
      <trkpt lat="48.37684" lon="7.28679">
        <ele>575.19995117188</ele>
        <time>2023-01-29T14:42:14.000Z</time>
      </trkpt>
      <trkpt lat="48.37691" lon="7.28684">
        <ele>575.40002441406</ele>
        <time>2023-01-29T14:42:22.000Z</time>
      </trkpt>
      <trkpt lat="48.37694" lon="7.28686">
        <ele>575.40002441406</ele>
        <time>2023-01-29T14:42:27.000Z</time>
      </trkpt>
      <trkpt lat="48.37697" lon="7.28688">
        <ele>575.59997558594</ele>
        <time>2023-01-29T14:42:30.000Z</time>
      </trkpt>
      <trkpt lat="48.37698" lon="7.28688">
        <ele>575.59997558594</ele>
        <time>2023-01-29T14:42:31.000Z</time>
      </trkpt>
      <trkpt lat="48.37699" lon="7.2869">
        <ele>575.80004882812</ele>
        <time>2023-01-29T14:42:32.000Z</time>
      </trkpt>
      <trkpt lat="48.37701" lon="7.28693">
        <ele>575.80004882812</ele>
        <time>2023-01-29T14:42:34.000Z</time>
      </trkpt>
      <trkpt lat="48.37705" lon="7.28697">
        <ele>576</ele>
        <time>2023-01-29T14:42:40.000Z</time>
      </trkpt>
      <trkpt lat="48.3771" lon="7.287">
        <ele>576.59997558594</ele>
        <time>2023-01-29T14:42:47.000Z</time>
      </trkpt>
      <trkpt lat="48.37715" lon="7.28703">
        <ele>577.19995117188</ele>
        <time>2023-01-29T14:42:53.000Z</time>
      </trkpt>
      <trkpt lat="48.37716" lon="7.28704">
        <ele>577.19995117188</ele>
        <time>2023-01-29T14:42:54.000Z</time>
      </trkpt>
      <trkpt lat="48.3772" lon="7.28709">
        <ele>577.59997558594</ele>
        <time>2023-01-29T14:43:00.000Z</time>
      </trkpt>
      <trkpt lat="48.37723" lon="7.2871">
        <ele>577.59997558594</ele>
        <time>2023-01-29T14:43:03.000Z</time>
      </trkpt>
      <trkpt lat="48.37726" lon="7.2871">
        <ele>577.80004882812</ele>
        <time>2023-01-29T14:43:06.000Z</time>
      </trkpt>
      <trkpt lat="48.37727" lon="7.28715">
        <ele>577.80004882812</ele>
        <time>2023-01-29T14:43:12.000Z</time>
      </trkpt>
      <trkpt lat="48.37727" lon="7.28717">
        <ele>577.80004882812</ele>
        <time>2023-01-29T14:43:17.000Z</time>
      </trkpt>
      <trkpt lat="48.37728" lon="7.28719">
        <ele>578</ele>
        <time>2023-01-29T14:43:22.000Z</time>
      </trkpt>
      <trkpt lat="48.37731" lon="7.28719">
        <ele>578</ele>
        <time>2023-01-29T14:43:27.000Z</time>
      </trkpt>
      <trkpt lat="48.37736" lon="7.28721">
        <ele>578.40002441406</ele>
        <time>2023-01-29T14:43:34.000Z</time>
      </trkpt>
      <trkpt lat="48.37739" lon="7.28724">
        <ele>578.40002441406</ele>
        <time>2023-01-29T14:43:40.000Z</time>
      </trkpt>
      <trkpt lat="48.37742" lon="7.28728">
        <ele>578.40002441406</ele>
        <time>2023-01-29T14:43:53.000Z</time>
      </trkpt>
      <trkpt lat="48.37745" lon="7.28731">
        <ele>578.59997558594</ele>
        <time>2023-01-29T14:44:08.000Z</time>
      </trkpt>
      <trkpt lat="48.37746" lon="7.28731">
        <ele>578.80004882812</ele>
        <time>2023-01-29T14:44:09.000Z</time>
      </trkpt>
      <trkpt lat="48.37747" lon="7.28731">
        <ele>578.80004882812</ele>
        <time>2023-01-29T14:44:10.000Z</time>
      </trkpt>
      <trkpt lat="48.37749" lon="7.28735">
        <ele>579</ele>
        <time>2023-01-29T14:44:15.000Z</time>
      </trkpt>
      <trkpt lat="48.37746" lon="7.28737">
        <ele>579</ele>
        <time>2023-01-29T14:44:21.000Z</time>
      </trkpt>
      <trkpt lat="48.37746" lon="7.28737">
        <ele>579.19995117188</ele>
        <time>2023-01-29T14:44:32.000Z</time>
      </trkpt>
      <trkpt lat="48.37746" lon="7.28737">
        <ele>579.19995117188</ele>
        <time>2023-01-29T14:44:34.000Z</time>
      </trkpt>
      <trkpt lat="48.37753" lon="7.28737">
        <ele>579.80004882812</ele>
        <time>2023-01-29T14:44:47.000Z</time>
      </trkpt>
      <trkpt lat="48.37755" lon="7.28737">
        <ele>579.80004882812</ele>
        <time>2023-01-29T14:44:48.000Z</time>
      </trkpt>
      <trkpt lat="48.3776" lon="7.28736">
        <ele>580.19995117188</ele>
        <time>2023-01-29T14:44:52.000Z</time>
      </trkpt>
      <trkpt lat="48.37764" lon="7.28737">
        <ele>580.80004882812</ele>
        <time>2023-01-29T14:44:56.000Z</time>
      </trkpt>
      <trkpt lat="48.37764" lon="7.28738">
        <ele>581</ele>
        <time>2023-01-29T14:44:57.000Z</time>
      </trkpt>
      <trkpt lat="48.3777" lon="7.28739">
        <ele>581.59997558594</ele>
        <time>2023-01-29T14:45:01.000Z</time>
      </trkpt>
      <trkpt lat="48.37772" lon="7.2874">
        <ele>582</ele>
        <time>2023-01-29T14:45:03.000Z</time>
      </trkpt>
      <trkpt lat="48.37776" lon="7.28742">
        <ele>582.59997558594</ele>
        <time>2023-01-29T14:45:08.000Z</time>
      </trkpt>
      <trkpt lat="48.37779" lon="7.28748">
        <ele>583.19995117188</ele>
        <time>2023-01-29T14:45:13.000Z</time>
      </trkpt>
      <trkpt lat="48.3778" lon="7.28749">
        <ele>583.19995117188</ele>
        <time>2023-01-29T14:45:14.000Z</time>
      </trkpt>
      <trkpt lat="48.3779" lon="7.28756">
        <ele>583.80004882812</ele>
        <time>2023-01-29T14:45:23.000Z</time>
      </trkpt>
      <trkpt lat="48.37796" lon="7.2876">
        <ele>583.40002441406</ele>
        <time>2023-01-29T14:45:31.000Z</time>
      </trkpt>
      <trkpt lat="48.37804" lon="7.28764">
        <ele>583.19995117188</ele>
        <time>2023-01-29T14:45:39.000Z</time>
      </trkpt>
      <trkpt lat="48.37808" lon="7.28765">
        <ele>583</ele>
        <time>2023-01-29T14:45:44.000Z</time>
      </trkpt>
      <trkpt lat="48.37811" lon="7.2877">
        <ele>582.59997558594</ele>
        <time>2023-01-29T14:45:50.000Z</time>
      </trkpt>
      <trkpt lat="48.37813" lon="7.28775">
        <ele>582.19995117188</ele>
        <time>2023-01-29T14:45:54.000Z</time>
      </trkpt>
      <trkpt lat="48.37814" lon="7.28779">
        <ele>582.19995117188</ele>
        <time>2023-01-29T14:45:56.000Z</time>
      </trkpt>
      <trkpt lat="48.37813" lon="7.28781">
        <ele>582.19995117188</ele>
        <time>2023-01-29T14:45:57.000Z</time>
      </trkpt>
      <trkpt lat="48.37814" lon="7.28785">
        <ele>582</ele>
        <time>2023-01-29T14:45:59.000Z</time>
      </trkpt>
      <trkpt lat="48.37817" lon="7.28789">
        <ele>581.80004882812</ele>
        <time>2023-01-29T14:46:03.000Z</time>
      </trkpt>
      <trkpt lat="48.37818" lon="7.28793">
        <ele>581.40002441406</ele>
        <time>2023-01-29T14:46:08.000Z</time>
      </trkpt>
      <trkpt lat="48.37818" lon="7.28794">
        <ele>581.40002441406</ele>
        <time>2023-01-29T14:46:09.000Z</time>
      </trkpt>
      <trkpt lat="48.37819" lon="7.28798">
        <ele>581.19995117188</ele>
        <time>2023-01-29T14:46:13.000Z</time>
      </trkpt>
      <trkpt lat="48.37819" lon="7.28802">
        <ele>581</ele>
        <time>2023-01-29T14:46:15.000Z</time>
      </trkpt>
      <trkpt lat="48.3782" lon="7.28803">
        <ele>581</ele>
        <time>2023-01-29T14:46:16.000Z</time>
      </trkpt>
      <trkpt lat="48.3782" lon="7.28812">
        <ele>581</ele>
        <time>2023-01-29T14:46:21.000Z</time>
      </trkpt>
      <trkpt lat="48.37818" lon="7.28817">
        <ele>580.80004882812</ele>
        <time>2023-01-29T14:46:23.000Z</time>
      </trkpt>
      <trkpt lat="48.37818" lon="7.28826">
        <ele>580.80004882812</ele>
        <time>2023-01-29T14:46:30.000Z</time>
      </trkpt>
      <trkpt lat="48.37822" lon="7.28836">
        <ele>580.80004882812</ele>
        <time>2023-01-29T14:46:36.000Z</time>
      </trkpt>
      <trkpt lat="48.37822" lon="7.28838">
        <ele>580.80004882812</ele>
        <time>2023-01-29T14:46:39.000Z</time>
      </trkpt>
      <trkpt lat="48.37823" lon="7.28841">
        <ele>580.80004882812</ele>
        <time>2023-01-29T14:46:43.000Z</time>
      </trkpt>
      <trkpt lat="48.37826" lon="7.28852">
        <ele>581.80004882812</ele>
        <time>2023-01-29T14:46:53.000Z</time>
      </trkpt>
      <trkpt lat="48.37828" lon="7.28854">
        <ele>582.19995117188</ele>
        <time>2023-01-29T14:46:57.000Z</time>
      </trkpt>
      <trkpt lat="48.37829" lon="7.28855">
        <ele>582.40002441406</ele>
        <time>2023-01-29T14:46:59.000Z</time>
      </trkpt>
      <trkpt lat="48.37833" lon="7.28861">
        <ele>583</ele>
        <time>2023-01-29T14:47:05.000Z</time>
      </trkpt>
      <trkpt lat="48.37835" lon="7.28865">
        <ele>583.19995117188</ele>
        <time>2023-01-29T14:47:08.000Z</time>
      </trkpt>
      <trkpt lat="48.37839" lon="7.28873">
        <ele>583.59997558594</ele>
        <time>2023-01-29T14:47:13.000Z</time>
      </trkpt>
      <trkpt lat="48.3784" lon="7.28877">
        <ele>583.80004882812</ele>
        <time>2023-01-29T14:47:17.000Z</time>
      </trkpt>
      <trkpt lat="48.37841" lon="7.28883">
        <ele>584.19995117188</ele>
        <time>2023-01-29T14:47:22.000Z</time>
      </trkpt>
      <trkpt lat="48.37841" lon="7.28884">
        <ele>584.19995117188</ele>
        <time>2023-01-29T14:47:23.000Z</time>
      </trkpt>
      <trkpt lat="48.37843" lon="7.2889">
        <ele>584.80004882812</ele>
        <time>2023-01-29T14:47:28.000Z</time>
      </trkpt>
      <trkpt lat="48.37845" lon="7.28893">
        <ele>585.40002441406</ele>
        <time>2023-01-29T14:47:31.000Z</time>
      </trkpt>
      <trkpt lat="48.37848" lon="7.28894">
        <ele>585.59997558594</ele>
        <time>2023-01-29T14:47:35.000Z</time>
      </trkpt>
      <trkpt lat="48.3785" lon="7.28898">
        <ele>586</ele>
        <time>2023-01-29T14:47:41.000Z</time>
      </trkpt>
      <trkpt lat="48.37852" lon="7.28898">
        <ele>586.40002441406</ele>
        <time>2023-01-29T14:47:43.000Z</time>
      </trkpt>
      <trkpt lat="48.37853" lon="7.28902">
        <ele>587</ele>
        <time>2023-01-29T14:47:48.000Z</time>
      </trkpt>
      <trkpt lat="48.37855" lon="7.28903">
        <ele>587.40002441406</ele>
        <time>2023-01-29T14:47:50.000Z</time>
      </trkpt>
      <trkpt lat="48.37857" lon="7.28902">
        <ele>587.59997558594</ele>
        <time>2023-01-29T14:47:51.000Z</time>
      </trkpt>
      <trkpt lat="48.37859" lon="7.28901">
        <ele>587.80004882812</ele>
        <time>2023-01-29T14:47:53.000Z</time>
      </trkpt>
      <trkpt lat="48.3786" lon="7.28901">
        <ele>587.80004882812</ele>
        <time>2023-01-29T14:47:54.000Z</time>
      </trkpt>
      <trkpt lat="48.37862" lon="7.28906">
        <ele>588.19995117188</ele>
        <time>2023-01-29T14:47:57.000Z</time>
      </trkpt>
      <trkpt lat="48.37861" lon="7.28912">
        <ele>588.40002441406</ele>
        <time>2023-01-29T14:47:59.000Z</time>
      </trkpt>
      <trkpt lat="48.37861" lon="7.28914">
        <ele>588.59997558594</ele>
        <time>2023-01-29T14:48:01.000Z</time>
      </trkpt>
      <trkpt lat="48.37865" lon="7.28917">
        <ele>589</ele>
        <time>2023-01-29T14:48:08.000Z</time>
      </trkpt>
      <trkpt lat="48.37866" lon="7.28919">
        <ele>589</ele>
        <time>2023-01-29T14:48:10.000Z</time>
      </trkpt>
      <trkpt lat="48.3787" lon="7.28924">
        <ele>589.40002441406</ele>
        <time>2023-01-29T14:48:15.000Z</time>
      </trkpt>
      <trkpt lat="48.37873" lon="7.28926">
        <ele>589.40002441406</ele>
        <time>2023-01-29T14:48:19.000Z</time>
      </trkpt>
      <trkpt lat="48.37872" lon="7.28926">
        <ele>589.59997558594</ele>
        <time>2023-01-29T14:48:20.000Z</time>
      </trkpt>
      <trkpt lat="48.37874" lon="7.28934">
        <ele>590.19995117188</ele>
        <time>2023-01-29T14:48:25.000Z</time>
      </trkpt>
      <trkpt lat="48.37877" lon="7.28938">
        <ele>590.40002441406</ele>
        <time>2023-01-29T14:48:27.000Z</time>
      </trkpt>
      <trkpt lat="48.3788" lon="7.2894">
        <ele>590.59997558594</ele>
        <time>2023-01-29T14:48:29.000Z</time>
      </trkpt>
      <trkpt lat="48.37881" lon="7.28941">
        <ele>590.59997558594</ele>
        <time>2023-01-29T14:48:30.000Z</time>
      </trkpt>
      <trkpt lat="48.37887" lon="7.28947">
        <ele>591.19995117188</ele>
        <time>2023-01-29T14:48:36.000Z</time>
      </trkpt>
      <trkpt lat="48.37892" lon="7.28952">
        <ele>591.59997558594</ele>
        <time>2023-01-29T14:48:41.000Z</time>
      </trkpt>
      <trkpt lat="48.37895" lon="7.28952">
        <ele>591.80004882812</ele>
        <time>2023-01-29T14:48:43.000Z</time>
      </trkpt>
      <trkpt lat="48.37894" lon="7.28959">
        <ele>592.19995117188</ele>
        <time>2023-01-29T14:48:48.000Z</time>
      </trkpt>
      <trkpt lat="48.37893" lon="7.28963">
        <ele>592.19995117188</ele>
        <time>2023-01-29T14:48:56.000Z</time>
      </trkpt>
      <trkpt lat="48.37893" lon="7.28962">
        <ele>592.19995117188</ele>
        <time>2023-01-29T14:48:59.000Z</time>
      </trkpt>
      <trkpt lat="48.37893" lon="7.28963">
        <ele>592.40002441406</ele>
        <time>2023-01-29T14:49:01.000Z</time>
      </trkpt>
      <trkpt lat="48.37892" lon="7.28964">
        <ele>592.19995117188</ele>
        <time>2023-01-29T14:49:07.000Z</time>
      </trkpt>
      <trkpt lat="48.37889" lon="7.28968">
        <ele>592.40002441406</ele>
        <time>2023-01-29T14:49:11.000Z</time>
      </trkpt>
      <trkpt lat="48.37889" lon="7.28968">
        <ele>592.40002441406</ele>
        <time>2023-01-29T14:49:12.000Z</time>
      </trkpt>
      <trkpt lat="48.37889" lon="7.28965">
        <ele>592.59997558594</ele>
        <time>2023-01-29T14:49:18.000Z</time>
      </trkpt>
      <trkpt lat="48.37888" lon="7.28964">
        <ele>592.59997558594</ele>
        <time>2023-01-29T14:49:22.000Z</time>
      </trkpt>
      <trkpt lat="48.37888" lon="7.28963">
        <ele>592.40002441406</ele>
        <time>2023-01-29T14:49:24.000Z</time>
      </trkpt>
      <trkpt lat="48.37887" lon="7.28962">
        <ele>592.59997558594</ele>
        <time>2023-01-29T14:49:25.000Z</time>
      </trkpt>
      <trkpt lat="48.37887" lon="7.28962">
        <ele>592.59997558594</ele>
        <time>2023-01-29T14:49:29.000Z</time>
      </trkpt>
      <trkpt lat="48.37887" lon="7.28962">
        <ele>592.59997558594</ele>
        <time>2023-01-29T14:49:34.000Z</time>
      </trkpt>
      <trkpt lat="48.37889" lon="7.28963">
        <ele>593.40002441406</ele>
        <time>2023-01-29T14:49:46.000Z</time>
      </trkpt>
      <trkpt lat="48.37895" lon="7.28965">
        <ele>593.40002441406</ele>
        <time>2023-01-29T14:49:49.000Z</time>
      </trkpt>
      <trkpt lat="48.37897" lon="7.28967">
        <ele>593.59997558594</ele>
        <time>2023-01-29T14:49:50.000Z</time>
      </trkpt>
      <trkpt lat="48.37907" lon="7.28972">
        <ele>594.40002441406</ele>
        <time>2023-01-29T14:49:58.000Z</time>
      </trkpt>
      <trkpt lat="48.37909" lon="7.28974">
        <ele>594.59997558594</ele>
        <time>2023-01-29T14:50:00.000Z</time>
      </trkpt>
      <trkpt lat="48.37913" lon="7.28978">
        <ele>595</ele>
        <time>2023-01-29T14:50:03.000Z</time>
      </trkpt>
      <trkpt lat="48.37917" lon="7.28984">
        <ele>595.59997558594</ele>
        <time>2023-01-29T14:50:09.000Z</time>
      </trkpt>
      <trkpt lat="48.37916" lon="7.28985">
        <ele>595.59997558594</ele>
        <time>2023-01-29T14:50:10.000Z</time>
      </trkpt>
      <trkpt lat="48.37916" lon="7.28986">
        <ele>595.80004882812</ele>
        <time>2023-01-29T14:50:11.000Z</time>
      </trkpt>
      <trkpt lat="48.37919" lon="7.2899">
        <ele>596.19995117188</ele>
        <time>2023-01-29T14:50:16.000Z</time>
      </trkpt>
      <trkpt lat="48.3792" lon="7.28992">
        <ele>596.40002441406</ele>
        <time>2023-01-29T14:50:18.000Z</time>
      </trkpt>
      <trkpt lat="48.3792" lon="7.28995">
        <ele>596.59997558594</ele>
        <time>2023-01-29T14:50:22.000Z</time>
      </trkpt>
      <trkpt lat="48.3792" lon="7.28995">
        <ele>596.59997558594</ele>
        <time>2023-01-29T14:50:23.000Z</time>
      </trkpt>
      <trkpt lat="48.37923" lon="7.28997">
        <ele>596.80004882812</ele>
        <time>2023-01-29T14:50:27.000Z</time>
      </trkpt>
      <trkpt lat="48.37924" lon="7.28998">
        <ele>596.80004882812</ele>
        <time>2023-01-29T14:50:29.000Z</time>
      </trkpt>
      <trkpt lat="48.37923" lon="7.29005">
        <ele>597</ele>
        <time>2023-01-29T14:50:34.000Z</time>
      </trkpt>
      <trkpt lat="48.37922" lon="7.29006">
        <ele>597.19995117188</ele>
        <time>2023-01-29T14:50:38.000Z</time>
      </trkpt>
      <trkpt lat="48.37921" lon="7.29004">
        <ele>597</ele>
        <time>2023-01-29T14:50:42.000Z</time>
      </trkpt>
      <trkpt lat="48.37921" lon="7.29003">
        <ele>597</ele>
        <time>2023-01-29T14:50:46.000Z</time>
      </trkpt>
      <trkpt lat="48.37921" lon="7.29003">
        <ele>596.80004882812</ele>
        <time>2023-01-29T14:50:54.000Z</time>
      </trkpt>
      <trkpt lat="48.37921" lon="7.29003">
        <ele>596.80004882812</ele>
        <time>2023-01-29T14:50:59.000Z</time>
      </trkpt>
      <trkpt lat="48.37921" lon="7.29003">
        <ele>595.80004882812</ele>
        <time>2023-01-29T14:51:09.000Z</time>
      </trkpt>
      <trkpt lat="48.3792" lon="7.29004">
        <ele>594.80004882812</ele>
        <time>2023-01-29T14:51:16.000Z</time>
      </trkpt>
      <trkpt lat="48.37919" lon="7.29005">
        <ele>594.59997558594</ele>
        <time>2023-01-29T14:51:18.000Z</time>
      </trkpt>
      <trkpt lat="48.37917" lon="7.29005">
        <ele>594.19995117188</ele>
        <time>2023-01-29T14:51:21.000Z</time>
      </trkpt>
      <trkpt lat="48.37915" lon="7.29005">
        <ele>593.59997558594</ele>
        <time>2023-01-29T14:51:24.000Z</time>
      </trkpt>
      <trkpt lat="48.37912" lon="7.29006">
        <ele>592.59997558594</ele>
        <time>2023-01-29T14:51:31.000Z</time>
      </trkpt>
      <trkpt lat="48.37911" lon="7.29006">
        <ele>592.40002441406</ele>
        <time>2023-01-29T14:51:36.000Z</time>
      </trkpt>
      <trkpt lat="48.37908" lon="7.29002">
        <ele>593.19995117188</ele>
        <time>2023-01-29T14:52:00.000Z</time>
      </trkpt>
      <trkpt lat="48.37908" lon="7.29002">
        <ele>593.40002441406</ele>
        <time>2023-01-29T14:52:03.000Z</time>
      </trkpt>
      <trkpt lat="48.37911" lon="7.29002">
        <ele>593.40002441406</ele>
        <time>2023-01-29T14:52:20.000Z</time>
      </trkpt>
      <trkpt lat="48.37912" lon="7.29002">
        <ele>593.40002441406</ele>
        <time>2023-01-29T14:52:26.000Z</time>
      </trkpt>
      <trkpt lat="48.37913" lon="7.29002">
        <ele>593.40002441406</ele>
        <time>2023-01-29T14:52:31.000Z</time>
      </trkpt>
      <trkpt lat="48.37912" lon="7.29004">
        <ele>591.40002441406</ele>
        <time>2023-01-29T14:53:00.000Z</time>
      </trkpt>
      <trkpt lat="48.37901" lon="7.29003">
        <ele>590.40002441406</ele>
        <time>2023-01-29T14:53:05.000Z</time>
      </trkpt>
      <trkpt lat="48.379" lon="7.29003">
        <ele>590.19995117188</ele>
        <time>2023-01-29T14:53:06.000Z</time>
      </trkpt>
      <trkpt lat="48.37893" lon="7.29003">
        <ele>589.59997558594</ele>
        <time>2023-01-29T14:53:10.000Z</time>
      </trkpt>
      <trkpt lat="48.37892" lon="7.29001">
        <ele>589</ele>
        <time>2023-01-29T14:53:12.000Z</time>
      </trkpt>
      <trkpt lat="48.37888" lon="7.29004">
        <ele>588.59997558594</ele>
        <time>2023-01-29T14:53:18.000Z</time>
      </trkpt>
      <trkpt lat="48.37886" lon="7.29007">
        <ele>588.19995117188</ele>
        <time>2023-01-29T14:53:22.000Z</time>
      </trkpt>
      <trkpt lat="48.37884" lon="7.29008">
        <ele>588</ele>
        <time>2023-01-29T14:53:24.000Z</time>
      </trkpt>
      <trkpt lat="48.37883" lon="7.29006">
        <ele>587.40002441406</ele>
        <time>2023-01-29T14:53:27.000Z</time>
      </trkpt>
      <trkpt lat="48.37881" lon="7.29004">
        <ele>586.80004882812</ele>
        <time>2023-01-29T14:53:31.000Z</time>
      </trkpt>
      <trkpt lat="48.37879" lon="7.29003">
        <ele>585.80004882812</ele>
        <time>2023-01-29T14:53:37.000Z</time>
      </trkpt>
      <trkpt lat="48.37878" lon="7.29002">
        <ele>585.80004882812</ele>
        <time>2023-01-29T14:53:38.000Z</time>
      </trkpt>
      <trkpt lat="48.37878" lon="7.29001">
        <ele>585.40002441406</ele>
        <time>2023-01-29T14:53:42.000Z</time>
      </trkpt>
      <trkpt lat="48.37878" lon="7.28996">
        <ele>585</ele>
        <time>2023-01-29T14:53:49.000Z</time>
      </trkpt>
      <trkpt lat="48.37879" lon="7.28994">
        <ele>585</ele>
        <time>2023-01-29T14:53:52.000Z</time>
      </trkpt>
      <trkpt lat="48.37879" lon="7.28994">
        <ele>584.80004882812</ele>
        <time>2023-01-29T14:53:58.000Z</time>
      </trkpt>
      <trkpt lat="48.37877" lon="7.28993">
        <ele>585</ele>
        <time>2023-01-29T14:54:05.000Z</time>
      </trkpt>
      <trkpt lat="48.37877" lon="7.28994">
        <ele>584.80004882812</ele>
        <time>2023-01-29T14:54:08.000Z</time>
      </trkpt>
      <trkpt lat="48.37877" lon="7.28994">
        <ele>584.59997558594</ele>
        <time>2023-01-29T14:54:09.000Z</time>
      </trkpt>
      <trkpt lat="48.37876" lon="7.28995">
        <ele>584.40002441406</ele>
        <time>2023-01-29T14:54:12.000Z</time>
      </trkpt>
      <trkpt lat="48.37874" lon="7.28995">
        <ele>583.59997558594</ele>
        <time>2023-01-29T14:54:17.000Z</time>
      </trkpt>
      <trkpt lat="48.37873" lon="7.28999">
        <ele>582.80004882812</ele>
        <time>2023-01-29T14:54:22.000Z</time>
      </trkpt>
      <trkpt lat="48.37871" lon="7.29">
        <ele>582.40002441406</ele>
        <time>2023-01-29T14:54:25.000Z</time>
      </trkpt>
      <trkpt lat="48.3787" lon="7.29">
        <ele>582.19995117188</ele>
        <time>2023-01-29T14:54:27.000Z</time>
      </trkpt>
      <trkpt lat="48.3787" lon="7.29">
        <ele>582</ele>
        <time>2023-01-29T14:54:28.000Z</time>
      </trkpt>
      <trkpt lat="48.37867" lon="7.28998">
        <ele>581.59997558594</ele>
        <time>2023-01-29T14:54:33.000Z</time>
      </trkpt>
      <trkpt lat="48.37866" lon="7.28999">
        <ele>581.40002441406</ele>
        <time>2023-01-29T14:54:35.000Z</time>
      </trkpt>
      <trkpt lat="48.37863" lon="7.29001">
        <ele>580.59997558594</ele>
        <time>2023-01-29T14:54:42.000Z</time>
      </trkpt>
      <trkpt lat="48.37861" lon="7.29007">
        <ele>580.40002441406</ele>
        <time>2023-01-29T14:54:51.000Z</time>
      </trkpt>
      <trkpt lat="48.3786" lon="7.29011">
        <ele>580.40002441406</ele>
        <time>2023-01-29T14:54:56.000Z</time>
      </trkpt>
      <trkpt lat="48.3786" lon="7.29012">
        <ele>580.40002441406</ele>
        <time>2023-01-29T14:54:57.000Z</time>
      </trkpt>
      <trkpt lat="48.37859" lon="7.29011">
        <ele>580.40002441406</ele>
        <time>2023-01-29T14:55:01.000Z</time>
      </trkpt>
      <trkpt lat="48.3786" lon="7.29008">
        <ele>580.59997558594</ele>
        <time>2023-01-29T14:55:08.000Z</time>
      </trkpt>
      <trkpt lat="48.3786" lon="7.29008">
        <ele>580.59997558594</ele>
        <time>2023-01-29T14:55:17.000Z</time>
      </trkpt>
      <trkpt lat="48.3786" lon="7.29008">
        <ele>580.40002441406</ele>
        <time>2023-01-29T14:55:24.000Z</time>
      </trkpt>
      <trkpt lat="48.37861" lon="7.28995">
        <ele>580.40002441406</ele>
        <time>2023-01-29T14:55:37.000Z</time>
      </trkpt>
      <trkpt lat="48.3786" lon="7.28993">
        <ele>580.19995117188</ele>
        <time>2023-01-29T14:55:38.000Z</time>
      </trkpt>
      <trkpt lat="48.3786" lon="7.28985">
        <ele>579.59997558594</ele>
        <time>2023-01-29T14:55:43.000Z</time>
      </trkpt>
      <trkpt lat="48.37857" lon="7.28983">
        <ele>579</ele>
        <time>2023-01-29T14:55:47.000Z</time>
      </trkpt>
      <trkpt lat="48.37857" lon="7.28981">
        <ele>578.80004882812</ele>
        <time>2023-01-29T14:55:50.000Z</time>
      </trkpt>
      <trkpt lat="48.37855" lon="7.28984">
        <ele>578.59997558594</ele>
        <time>2023-01-29T14:55:55.000Z</time>
      </trkpt>
      <trkpt lat="48.37852" lon="7.28986">
        <ele>578</ele>
        <time>2023-01-29T14:55:59.000Z</time>
      </trkpt>
      <trkpt lat="48.37846" lon="7.28982">
        <ele>577</ele>
        <time>2023-01-29T14:56:04.000Z</time>
      </trkpt>
      <trkpt lat="48.37846" lon="7.28981">
        <ele>576.80004882812</ele>
        <time>2023-01-29T14:56:05.000Z</time>
      </trkpt>
      <trkpt lat="48.37843" lon="7.28982">
        <ele>576.19995117188</ele>
        <time>2023-01-29T14:56:10.000Z</time>
      </trkpt>
      <trkpt lat="48.37841" lon="7.28984">
        <ele>575.80004882812</ele>
        <time>2023-01-29T14:56:14.000Z</time>
      </trkpt>
      <trkpt lat="48.3784" lon="7.28983">
        <ele>574.80004882812</ele>
        <time>2023-01-29T14:56:17.000Z</time>
      </trkpt>
      <trkpt lat="48.3784" lon="7.28984">
        <ele>574.59997558594</ele>
        <time>2023-01-29T14:56:18.000Z</time>
      </trkpt>
      <trkpt lat="48.37839" lon="7.28986">
        <ele>574.19995117188</ele>
        <time>2023-01-29T14:56:20.000Z</time>
      </trkpt>
      <trkpt lat="48.37838" lon="7.28985">
        <ele>573.80004882812</ele>
        <time>2023-01-29T14:56:22.000Z</time>
      </trkpt>
      <trkpt lat="48.37837" lon="7.28985">
        <ele>573.59997558594</ele>
        <time>2023-01-29T14:56:24.000Z</time>
      </trkpt>
      <trkpt lat="48.37834" lon="7.28983">
        <ele>572.80004882812</ele>
        <time>2023-01-29T14:56:28.000Z</time>
      </trkpt>
      <trkpt lat="48.37834" lon="7.28983">
        <ele>572.40002441406</ele>
        <time>2023-01-29T14:56:29.000Z</time>
      </trkpt>
      <trkpt lat="48.3783" lon="7.28983">
        <ele>571.40002441406</ele>
        <time>2023-01-29T14:56:33.000Z</time>
      </trkpt>
      <trkpt lat="48.37828" lon="7.28982">
        <ele>571</ele>
        <time>2023-01-29T14:56:36.000Z</time>
      </trkpt>
      <trkpt lat="48.37826" lon="7.2898">
        <ele>570.40002441406</ele>
        <time>2023-01-29T14:56:41.000Z</time>
      </trkpt>
      <trkpt lat="48.37824" lon="7.2898">
        <ele>570</ele>
        <time>2023-01-29T14:56:44.000Z</time>
      </trkpt>
      <trkpt lat="48.37823" lon="7.2898">
        <ele>569.80004882812</ele>
        <time>2023-01-29T14:56:46.000Z</time>
      </trkpt>
      <trkpt lat="48.37823" lon="7.2898">
        <ele>569.40002441406</ele>
        <time>2023-01-29T14:56:48.000Z</time>
      </trkpt>
      <trkpt lat="48.37821" lon="7.2898">
        <ele>569</ele>
        <time>2023-01-29T14:56:50.000Z</time>
      </trkpt>
      <trkpt lat="48.3782" lon="7.28979">
        <ele>568.80004882812</ele>
        <time>2023-01-29T14:56:51.000Z</time>
      </trkpt>
      <trkpt lat="48.37819" lon="7.28979">
        <ele>568.40002441406</ele>
        <time>2023-01-29T14:56:56.000Z</time>
      </trkpt>
      <trkpt lat="48.37818" lon="7.28979">
        <ele>568.40002441406</ele>
        <time>2023-01-29T14:56:57.000Z</time>
      </trkpt>
      <trkpt lat="48.37819" lon="7.28976">
        <ele>568.19995117188</ele>
        <time>2023-01-29T14:57:04.000Z</time>
      </trkpt>
      <trkpt lat="48.37818" lon="7.28976">
        <ele>568</ele>
        <time>2023-01-29T14:57:05.000Z</time>
      </trkpt>
      <trkpt lat="48.37814" lon="7.28976">
        <ele>567.19995117188</ele>
        <time>2023-01-29T14:57:12.000Z</time>
      </trkpt>
      <trkpt lat="48.37809" lon="7.28975">
        <ele>566.59997558594</ele>
        <time>2023-01-29T14:57:17.000Z</time>
      </trkpt>
      <trkpt lat="48.37809" lon="7.28974">
        <ele>566.19995117188</ele>
        <time>2023-01-29T14:57:19.000Z</time>
      </trkpt>
      <trkpt lat="48.37808" lon="7.28973">
        <ele>566</ele>
        <time>2023-01-29T14:57:22.000Z</time>
      </trkpt>
      <trkpt lat="48.37805" lon="7.28971">
        <ele>565.19995117188</ele>
        <time>2023-01-29T14:57:26.000Z</time>
      </trkpt>
      <trkpt lat="48.37803" lon="7.28971">
        <ele>565</ele>
        <time>2023-01-29T14:57:29.000Z</time>
      </trkpt>
      <trkpt lat="48.37801" lon="7.28971">
        <ele>564.40002441406</ele>
        <time>2023-01-29T14:57:32.000Z</time>
      </trkpt>
      <trkpt lat="48.37801" lon="7.2897">
        <ele>564.19995117188</ele>
        <time>2023-01-29T14:57:33.000Z</time>
      </trkpt>
      <trkpt lat="48.378" lon="7.28971">
        <ele>564</ele>
        <time>2023-01-29T14:57:34.000Z</time>
      </trkpt>
      <trkpt lat="48.37799" lon="7.28971">
        <ele>563.80004882812</ele>
        <time>2023-01-29T14:57:35.000Z</time>
      </trkpt>
      <trkpt lat="48.378" lon="7.28971">
        <ele>563.40002441406</ele>
        <time>2023-01-29T14:57:38.000Z</time>
      </trkpt>
      <trkpt lat="48.37799" lon="7.28973">
        <ele>563</ele>
        <time>2023-01-29T14:57:40.000Z</time>
      </trkpt>
      <trkpt lat="48.37797" lon="7.28974">
        <ele>562.40002441406</ele>
        <time>2023-01-29T14:57:44.000Z</time>
      </trkpt>
      <trkpt lat="48.37794" lon="7.28975">
        <ele>562</ele>
        <time>2023-01-29T14:57:47.000Z</time>
      </trkpt>
      <trkpt lat="48.37794" lon="7.28976">
        <ele>561.59997558594</ele>
        <time>2023-01-29T14:57:49.000Z</time>
      </trkpt>
      <trkpt lat="48.37792" lon="7.28974">
        <ele>560.80004882812</ele>
        <time>2023-01-29T14:57:54.000Z</time>
      </trkpt>
      <trkpt lat="48.37792" lon="7.28974">
        <ele>560.59997558594</ele>
        <time>2023-01-29T14:57:55.000Z</time>
      </trkpt>
      <trkpt lat="48.37788" lon="7.28971">
        <ele>559.59997558594</ele>
        <time>2023-01-29T14:58:02.000Z</time>
      </trkpt>
      <trkpt lat="48.37784" lon="7.28966">
        <ele>558.80004882812</ele>
        <time>2023-01-29T14:58:08.000Z</time>
      </trkpt>
      <trkpt lat="48.37784" lon="7.28965">
        <ele>558.59997558594</ele>
        <time>2023-01-29T14:58:10.000Z</time>
      </trkpt>
      <trkpt lat="48.37781" lon="7.28959">
        <ele>557.59997558594</ele>
        <time>2023-01-29T14:58:16.000Z</time>
      </trkpt>
      <trkpt lat="48.3778" lon="7.28959">
        <ele>557.40002441406</ele>
        <time>2023-01-29T14:58:17.000Z</time>
      </trkpt>
      <trkpt lat="48.37779" lon="7.28958">
        <ele>556.80004882812</ele>
        <time>2023-01-29T14:58:23.000Z</time>
      </trkpt>
      <trkpt lat="48.37781" lon="7.28955">
        <ele>556.59997558594</ele>
        <time>2023-01-29T14:58:31.000Z</time>
      </trkpt>
      <trkpt lat="48.3778" lon="7.28957">
        <ele>556.59997558594</ele>
        <time>2023-01-29T14:58:38.000Z</time>
      </trkpt>
      <trkpt lat="48.3778" lon="7.28957">
        <ele>556.59997558594</ele>
        <time>2023-01-29T14:58:41.000Z</time>
      </trkpt>
      <trkpt lat="48.3778" lon="7.28954">
        <ele>556.59997558594</ele>
        <time>2023-01-29T14:58:45.000Z</time>
      </trkpt>
      <trkpt lat="48.37782" lon="7.28949">
        <ele>556.80004882812</ele>
        <time>2023-01-29T14:59:01.000Z</time>
      </trkpt>
      <trkpt lat="48.37783" lon="7.28951">
        <ele>557</ele>
        <time>2023-01-29T14:59:14.000Z</time>
      </trkpt>
      <trkpt lat="48.37781" lon="7.28952">
        <ele>557</ele>
        <time>2023-01-29T14:59:17.000Z</time>
      </trkpt>
      <trkpt lat="48.3778" lon="7.28953">
        <ele>556.40002441406</ele>
        <time>2023-01-29T14:59:19.000Z</time>
      </trkpt>
      <trkpt lat="48.37779" lon="7.28952">
        <ele>556.19995117188</ele>
        <time>2023-01-29T14:59:20.000Z</time>
      </trkpt>
      <trkpt lat="48.37778" lon="7.2895">
        <ele>556</ele>
        <time>2023-01-29T14:59:22.000Z</time>
      </trkpt>
      <trkpt lat="48.37773" lon="7.28948">
        <ele>555.19995117188</ele>
        <time>2023-01-29T14:59:27.000Z</time>
      </trkpt>
      <trkpt lat="48.37772" lon="7.28947">
        <ele>554.59997558594</ele>
        <time>2023-01-29T14:59:30.000Z</time>
      </trkpt>
      <trkpt lat="48.3777" lon="7.28947">
        <ele>554.19995117188</ele>
        <time>2023-01-29T14:59:33.000Z</time>
      </trkpt>
      <trkpt lat="48.37767" lon="7.28948">
        <ele>553.80004882812</ele>
        <time>2023-01-29T14:59:36.000Z</time>
      </trkpt>
      <trkpt lat="48.37765" lon="7.28945">
        <ele>553</ele>
        <time>2023-01-29T14:59:39.000Z</time>
      </trkpt>
      <trkpt lat="48.37763" lon="7.28942">
        <ele>552.59997558594</ele>
        <time>2023-01-29T14:59:42.000Z</time>
      </trkpt>
      <trkpt lat="48.37762" lon="7.28942">
        <ele>552.40002441406</ele>
        <time>2023-01-29T14:59:43.000Z</time>
      </trkpt>
      <trkpt lat="48.37759" lon="7.28942">
        <ele>552</ele>
        <time>2023-01-29T14:59:46.000Z</time>
      </trkpt>
      <trkpt lat="48.37756" lon="7.28944">
        <ele>551.40002441406</ele>
        <time>2023-01-29T14:59:49.000Z</time>
      </trkpt>
      <trkpt lat="48.37754" lon="7.28944">
        <ele>551</ele>
        <time>2023-01-29T14:59:51.000Z</time>
      </trkpt>
      <trkpt lat="48.37753" lon="7.28944">
        <ele>550.80004882812</ele>
        <time>2023-01-29T14:59:52.000Z</time>
      </trkpt>
      <trkpt lat="48.37747" lon="7.28942">
        <ele>549.59997558594</ele>
        <time>2023-01-29T14:59:57.000Z</time>
      </trkpt>
      <trkpt lat="48.37746" lon="7.28942">
        <ele>549.19995117188</ele>
        <time>2023-01-29T14:59:58.000Z</time>
      </trkpt>
      <trkpt lat="48.37745" lon="7.28941">
        <ele>548.40002441406</ele>
        <time>2023-01-29T15:00:00.000Z</time>
      </trkpt>
      <trkpt lat="48.37745" lon="7.28939">
        <ele>548</ele>
        <time>2023-01-29T15:00:01.000Z</time>
      </trkpt>
      <trkpt lat="48.37741" lon="7.28936">
        <ele>547.19995117188</ele>
        <time>2023-01-29T15:00:05.000Z</time>
      </trkpt>
      <trkpt lat="48.37737" lon="7.28934">
        <ele>546.19995117188</ele>
        <time>2023-01-29T15:00:10.000Z</time>
      </trkpt>
      <trkpt lat="48.37736" lon="7.28933">
        <ele>546</ele>
        <time>2023-01-29T15:00:11.000Z</time>
      </trkpt>
      <trkpt lat="48.37734" lon="7.28933">
        <ele>545.59997558594</ele>
        <time>2023-01-29T15:00:13.000Z</time>
      </trkpt>
      <trkpt lat="48.37733" lon="7.28931">
        <ele>545</ele>
        <time>2023-01-29T15:00:17.000Z</time>
      </trkpt>
      <trkpt lat="48.37734" lon="7.28928">
        <ele>545</ele>
        <time>2023-01-29T15:00:19.000Z</time>
      </trkpt>
      <trkpt lat="48.37736" lon="7.28925">
        <ele>545</ele>
        <time>2023-01-29T15:00:27.000Z</time>
      </trkpt>
      <trkpt lat="48.37738" lon="7.28919">
        <ele>545</ele>
        <time>2023-01-29T15:00:36.000Z</time>
      </trkpt>
      <trkpt lat="48.37738" lon="7.28919">
        <ele>545</ele>
        <time>2023-01-29T15:00:45.000Z</time>
      </trkpt>
      <trkpt lat="48.37738" lon="7.28919">
        <ele>544.80004882812</ele>
        <time>2023-01-29T15:00:49.000Z</time>
      </trkpt>
      <trkpt lat="48.37738" lon="7.28917">
        <ele>544.80004882812</ele>
        <time>2023-01-29T15:00:52.000Z</time>
      </trkpt>
      <trkpt lat="48.37739" lon="7.2891">
        <ele>545</ele>
        <time>2023-01-29T15:01:00.000Z</time>
      </trkpt>
      <trkpt lat="48.37739" lon="7.2891">
        <ele>545</ele>
        <time>2023-01-29T15:01:01.000Z</time>
      </trkpt>
      <trkpt lat="48.37739" lon="7.2891">
        <ele>545</ele>
        <time>2023-01-29T15:01:02.000Z</time>
      </trkpt>
      <trkpt lat="48.37739" lon="7.28909">
        <ele>545</ele>
        <time>2023-01-29T15:01:04.000Z</time>
      </trkpt>
      <trkpt lat="48.37739" lon="7.28909">
        <ele>544.80004882812</ele>
        <time>2023-01-29T15:01:06.000Z</time>
      </trkpt>
      <trkpt lat="48.37735" lon="7.28906">
        <ele>544.40002441406</ele>
        <time>2023-01-29T15:01:12.000Z</time>
      </trkpt>
      <trkpt lat="48.37732" lon="7.28905">
        <ele>544</ele>
        <time>2023-01-29T15:01:15.000Z</time>
      </trkpt>
      <trkpt lat="48.37729" lon="7.28903">
        <ele>543.40002441406</ele>
        <time>2023-01-29T15:01:18.000Z</time>
      </trkpt>
      <trkpt lat="48.37727" lon="7.28899">
        <ele>543</ele>
        <time>2023-01-29T15:01:23.000Z</time>
      </trkpt>
      <trkpt lat="48.37726" lon="7.289">
        <ele>543</ele>
        <time>2023-01-29T15:01:24.000Z</time>
      </trkpt>
      <trkpt lat="48.37726" lon="7.28901">
        <ele>542.80004882812</ele>
        <time>2023-01-29T15:01:25.000Z</time>
      </trkpt>
      <trkpt lat="48.37725" lon="7.28896">
        <ele>542.59997558594</ele>
        <time>2023-01-29T15:01:29.000Z</time>
      </trkpt>
      <trkpt lat="48.37723" lon="7.28892">
        <ele>542</ele>
        <time>2023-01-29T15:01:36.000Z</time>
      </trkpt>
      <trkpt lat="48.37721" lon="7.28888">
        <ele>541.80004882812</ele>
        <time>2023-01-29T15:01:40.000Z</time>
      </trkpt>
      <trkpt lat="48.3772" lon="7.28883">
        <ele>541.59997558594</ele>
        <time>2023-01-29T15:01:46.000Z</time>
      </trkpt>
      <trkpt lat="48.37717" lon="7.28879">
        <ele>541.19995117188</ele>
        <time>2023-01-29T15:01:53.000Z</time>
      </trkpt>
      <trkpt lat="48.37715" lon="7.28878">
        <ele>541</ele>
        <time>2023-01-29T15:01:56.000Z</time>
      </trkpt>
      <trkpt lat="48.37713" lon="7.28877">
        <ele>540.80004882812</ele>
        <time>2023-01-29T15:01:57.000Z</time>
      </trkpt>
      <trkpt lat="48.37713" lon="7.28877">
        <ele>540.80004882812</ele>
        <time>2023-01-29T15:01:58.000Z</time>
      </trkpt>
      <trkpt lat="48.37712" lon="7.28877">
        <ele>540.59997558594</ele>
        <time>2023-01-29T15:01:59.000Z</time>
      </trkpt>
      <trkpt lat="48.37712" lon="7.28876">
        <ele>540.59997558594</ele>
        <time>2023-01-29T15:02:00.000Z</time>
      </trkpt>
      <trkpt lat="48.37711" lon="7.28872">
        <ele>540.19995117188</ele>
        <time>2023-01-29T15:02:05.000Z</time>
      </trkpt>
      <trkpt lat="48.37708" lon="7.28868">
        <ele>539.59997558594</ele>
        <time>2023-01-29T15:02:11.000Z</time>
      </trkpt>
      <trkpt lat="48.37707" lon="7.28867">
        <ele>539</ele>
        <time>2023-01-29T15:02:13.000Z</time>
      </trkpt>
      <trkpt lat="48.37706" lon="7.28867">
        <ele>539</ele>
        <time>2023-01-29T15:02:19.000Z</time>
      </trkpt>
      <trkpt lat="48.37704" lon="7.28869">
        <ele>538.80004882812</ele>
        <time>2023-01-29T15:02:25.000Z</time>
      </trkpt>
      <trkpt lat="48.37707" lon="7.28871">
        <ele>538.59997558594</ele>
        <time>2023-01-29T15:02:30.000Z</time>
      </trkpt>
      <trkpt lat="48.37705" lon="7.28866">
        <ele>538.80004882812</ele>
        <time>2023-01-29T15:02:37.000Z</time>
      </trkpt>
      <trkpt lat="48.37702" lon="7.28863">
        <ele>538.40002441406</ele>
        <time>2023-01-29T15:02:41.000Z</time>
      </trkpt>
      <trkpt lat="48.377" lon="7.28864">
        <ele>538.19995117188</ele>
        <time>2023-01-29T15:02:43.000Z</time>
      </trkpt>
      <trkpt lat="48.37695" lon="7.2886">
        <ele>537.19995117188</ele>
        <time>2023-01-29T15:02:50.000Z</time>
      </trkpt>
      <trkpt lat="48.37691" lon="7.28859">
        <ele>536.19995117188</ele>
        <time>2023-01-29T15:02:56.000Z</time>
      </trkpt>
      <trkpt lat="48.37691" lon="7.28858">
        <ele>536.19995117188</ele>
        <time>2023-01-29T15:02:57.000Z</time>
      </trkpt>
      <trkpt lat="48.37688" lon="7.28857">
        <ele>535.40002441406</ele>
        <time>2023-01-29T15:03:02.000Z</time>
      </trkpt>
      <trkpt lat="48.37692" lon="7.28855">
        <ele>535.40002441406</ele>
        <time>2023-01-29T15:03:15.000Z</time>
      </trkpt>
      <trkpt lat="48.37692" lon="7.28855">
        <ele>535.19995117188</ele>
        <time>2023-01-29T15:03:20.000Z</time>
      </trkpt>
      <trkpt lat="48.37692" lon="7.28855">
        <ele>534.80004882812</ele>
        <time>2023-01-29T15:03:29.000Z</time>
      </trkpt>
      <trkpt lat="48.37691" lon="7.28856">
        <ele>534.40002441406</ele>
        <time>2023-01-29T15:03:32.000Z</time>
      </trkpt>
      <trkpt lat="48.37691" lon="7.28856">
        <ele>534</ele>
        <time>2023-01-29T15:03:34.000Z</time>
      </trkpt>
      <trkpt lat="48.37689" lon="7.28856">
        <ele>533.80004882812</ele>
        <time>2023-01-29T15:03:36.000Z</time>
      </trkpt>
      <trkpt lat="48.37681" lon="7.28852">
        <ele>533.19995117188</ele>
        <time>2023-01-29T15:03:40.000Z</time>
      </trkpt>
      <trkpt lat="48.37675" lon="7.28852">
        <ele>532.80004882812</ele>
        <time>2023-01-29T15:03:43.000Z</time>
      </trkpt>
      <trkpt lat="48.37672" lon="7.28852">
        <ele>532.40002441406</ele>
        <time>2023-01-29T15:03:45.000Z</time>
      </trkpt>
      <trkpt lat="48.37671" lon="7.28853">
        <ele>531.59997558594</ele>
        <time>2023-01-29T15:03:48.000Z</time>
      </trkpt>
      <trkpt lat="48.37667" lon="7.2885">
        <ele>530.80004882812</ele>
        <time>2023-01-29T15:03:53.000Z</time>
      </trkpt>
      <trkpt lat="48.37666" lon="7.28849">
        <ele>530.59997558594</ele>
        <time>2023-01-29T15:03:55.000Z</time>
      </trkpt>
      <trkpt lat="48.37663" lon="7.2885">
        <ele>530.19995117188</ele>
        <time>2023-01-29T15:03:59.000Z</time>
      </trkpt>
      <trkpt lat="48.37661" lon="7.28851">
        <ele>530.19995117188</ele>
        <time>2023-01-29T15:04:01.000Z</time>
      </trkpt>
      <trkpt lat="48.37658" lon="7.28851">
        <ele>529.59997558594</ele>
        <time>2023-01-29T15:04:04.000Z</time>
      </trkpt>
      <trkpt lat="48.37657" lon="7.2885">
        <ele>529.40002441406</ele>
        <time>2023-01-29T15:04:05.000Z</time>
      </trkpt>
      <trkpt lat="48.37652" lon="7.28849">
        <ele>528.59997558594</ele>
        <time>2023-01-29T15:04:12.000Z</time>
      </trkpt>
      <trkpt lat="48.3765" lon="7.28848">
        <ele>528.40002441406</ele>
        <time>2023-01-29T15:04:15.000Z</time>
      </trkpt>
      <trkpt lat="48.37647" lon="7.28848">
        <ele>528</ele>
        <time>2023-01-29T15:04:19.000Z</time>
      </trkpt>
      <trkpt lat="48.37641" lon="7.28847">
        <ele>527.19995117188</ele>
        <time>2023-01-29T15:04:25.000Z</time>
      </trkpt>
      <trkpt lat="48.37633" lon="7.28844">
        <ele>526</ele>
        <time>2023-01-29T15:04:33.000Z</time>
      </trkpt>
      <trkpt lat="48.37626" lon="7.28847">
        <ele>524.80004882812</ele>
        <time>2023-01-29T15:04:42.000Z</time>
      </trkpt>
      <trkpt lat="48.37621" lon="7.28849">
        <ele>523.79998779297</ele>
        <time>2023-01-29T15:04:47.000Z</time>
      </trkpt>
      <trkpt lat="48.37618" lon="7.28849">
        <ele>523.40002441406</ele>
        <time>2023-01-29T15:04:50.000Z</time>
      </trkpt>
      <trkpt lat="48.37618" lon="7.28848">
        <ele>523.20001220703</ele>
        <time>2023-01-29T15:04:56.000Z</time>
      </trkpt>
      <trkpt lat="48.37617" lon="7.28848">
        <ele>523.20001220703</ele>
        <time>2023-01-29T15:04:58.000Z</time>
      </trkpt>
      <trkpt lat="48.37614" lon="7.28851">
        <ele>522.79998779297</ele>
        <time>2023-01-29T15:05:01.000Z</time>
      </trkpt>
      <trkpt lat="48.37613" lon="7.28852">
        <ele>522.59997558594</ele>
        <time>2023-01-29T15:05:02.000Z</time>
      </trkpt>
      <trkpt lat="48.37609" lon="7.28854">
        <ele>522</ele>
        <time>2023-01-29T15:05:10.000Z</time>
      </trkpt>
      <trkpt lat="48.37604" lon="7.28857">
        <ele>521.59997558594</ele>
        <time>2023-01-29T15:05:14.000Z</time>
      </trkpt>
      <trkpt lat="48.37603" lon="7.28858">
        <ele>521.40002441406</ele>
        <time>2023-01-29T15:05:16.000Z</time>
      </trkpt>
      <trkpt lat="48.37597" lon="7.2886">
        <ele>521</ele>
        <time>2023-01-29T15:05:21.000Z</time>
      </trkpt>
      <trkpt lat="48.37597" lon="7.2886">
        <ele>520.59997558594</ele>
        <time>2023-01-29T15:05:25.000Z</time>
      </trkpt>
      <trkpt lat="48.37596" lon="7.28861">
        <ele>520.59997558594</ele>
        <time>2023-01-29T15:05:26.000Z</time>
      </trkpt>
      <trkpt lat="48.37588" lon="7.28864">
        <ele>520</ele>
        <time>2023-01-29T15:05:34.000Z</time>
      </trkpt>
      <trkpt lat="48.37583" lon="7.28866">
        <ele>519.59997558594</ele>
        <time>2023-01-29T15:05:39.000Z</time>
      </trkpt>
      <trkpt lat="48.37582" lon="7.28867">
        <ele>519.40002441406</ele>
        <time>2023-01-29T15:05:40.000Z</time>
      </trkpt>
      <trkpt lat="48.37579" lon="7.28872">
        <ele>519</ele>
        <time>2023-01-29T15:05:44.000Z</time>
      </trkpt>
      <trkpt lat="48.37575" lon="7.28872">
        <ele>518.79998779297</ele>
        <time>2023-01-29T15:05:47.000Z</time>
      </trkpt>
      <trkpt lat="48.37573" lon="7.28872">
        <ele>518.59997558594</ele>
        <time>2023-01-29T15:05:49.000Z</time>
      </trkpt>
      <trkpt lat="48.37574" lon="7.28873">
        <ele>518.40002441406</ele>
        <time>2023-01-29T15:05:50.000Z</time>
      </trkpt>
      <trkpt lat="48.37567" lon="7.28877">
        <ele>518</ele>
        <time>2023-01-29T15:05:54.000Z</time>
      </trkpt>
      <trkpt lat="48.37565" lon="7.28878">
        <ele>518</ele>
        <time>2023-01-29T15:05:55.000Z</time>
      </trkpt>
      <trkpt lat="48.37557" lon="7.28882">
        <ele>517.40002441406</ele>
        <time>2023-01-29T15:06:01.000Z</time>
      </trkpt>
      <trkpt lat="48.37554" lon="7.28882">
        <ele>517.20001220703</ele>
        <time>2023-01-29T15:06:04.000Z</time>
      </trkpt>
      <trkpt lat="48.37552" lon="7.28876">
        <ele>517</ele>
        <time>2023-01-29T15:06:10.000Z</time>
      </trkpt>
      <trkpt lat="48.37549" lon="7.28868">
        <ele>517</ele>
        <time>2023-01-29T15:06:18.000Z</time>
      </trkpt>
      <trkpt lat="48.37551" lon="7.28877">
        <ele>516.79998779297</ele>
        <time>2023-01-29T15:06:27.000Z</time>
      </trkpt>
      <trkpt lat="48.37551" lon="7.28878">
        <ele>516.79998779297</ele>
        <time>2023-01-29T15:06:28.000Z</time>
      </trkpt>
      <trkpt lat="48.3755" lon="7.2888">
        <ele>516.20001220703</ele>
        <time>2023-01-29T15:06:32.000Z</time>
      </trkpt>
      <trkpt lat="48.37551" lon="7.28875">
        <ele>515.79998779297</ele>
        <time>2023-01-29T15:06:36.000Z</time>
      </trkpt>
      <trkpt lat="48.37553" lon="7.28876">
        <ele>515.79998779297</ele>
        <time>2023-01-29T15:06:37.000Z</time>
      </trkpt>
      <trkpt lat="48.37554" lon="7.28876">
        <ele>515.79998779297</ele>
        <time>2023-01-29T15:06:38.000Z</time>
      </trkpt>
      <trkpt lat="48.37557" lon="7.28876">
        <ele>515.79998779297</ele>
        <time>2023-01-29T15:06:41.000Z</time>
      </trkpt>
      <trkpt lat="48.37561" lon="7.28872">
        <ele>515.79998779297</ele>
        <time>2023-01-29T15:06:47.000Z</time>
      </trkpt>
      <trkpt lat="48.37571" lon="7.28874">
        <ele>516</ele>
        <time>2023-01-29T15:06:55.000Z</time>
      </trkpt>
      <trkpt lat="48.37576" lon="7.2888">
        <ele>515.79998779297</ele>
        <time>2023-01-29T15:07:01.000Z</time>
      </trkpt>
      <trkpt lat="48.37576" lon="7.28881">
        <ele>515.59997558594</ele>
        <time>2023-01-29T15:07:02.000Z</time>
      </trkpt>
      <trkpt lat="48.37581" lon="7.28885">
        <ele>515.20001220703</ele>
        <time>2023-01-29T15:07:07.000Z</time>
      </trkpt>
      <trkpt lat="48.37582" lon="7.28886">
        <ele>515</ele>
        <time>2023-01-29T15:07:08.000Z</time>
      </trkpt>
      <trkpt lat="48.37584" lon="7.28888">
        <ele>515</ele>
        <time>2023-01-29T15:07:10.000Z</time>
      </trkpt>
      <trkpt lat="48.37584" lon="7.2889">
        <ele>514.59997558594</ele>
        <time>2023-01-29T15:07:13.000Z</time>
      </trkpt>
      <trkpt lat="48.37584" lon="7.28901">
        <ele>514</ele>
        <time>2023-01-29T15:07:19.000Z</time>
      </trkpt>
      <trkpt lat="48.37584" lon="7.28902">
        <ele>514</ele>
        <time>2023-01-29T15:07:20.000Z</time>
      </trkpt>
      <trkpt lat="48.37582" lon="7.28913">
        <ele>512.79998779297</ele>
        <time>2023-01-29T15:07:26.000Z</time>
      </trkpt>
      <trkpt lat="48.37581" lon="7.28915">
        <ele>512.40002441406</ele>
        <time>2023-01-29T15:07:28.000Z</time>
      </trkpt>
      <trkpt lat="48.37581" lon="7.28917">
        <ele>512</ele>
        <time>2023-01-29T15:07:30.000Z</time>
      </trkpt>
      <trkpt lat="48.37581" lon="7.28919">
        <ele>511.79998779297</ele>
        <time>2023-01-29T15:07:31.000Z</time>
      </trkpt>
      <trkpt lat="48.37578" lon="7.28924">
        <ele>511</ele>
        <time>2023-01-29T15:07:36.000Z</time>
      </trkpt>
      <trkpt lat="48.37578" lon="7.28925">
        <ele>510.59997558594</ele>
        <time>2023-01-29T15:07:38.000Z</time>
      </trkpt>
      <trkpt lat="48.37574" lon="7.28923">
        <ele>510.20001220703</ele>
        <time>2023-01-29T15:07:42.000Z</time>
      </trkpt>
      <trkpt lat="48.37573" lon="7.28924">
        <ele>509.59997558594</ele>
        <time>2023-01-29T15:07:46.000Z</time>
      </trkpt>
      <trkpt lat="48.37572" lon="7.28925">
        <ele>509.59997558594</ele>
        <time>2023-01-29T15:07:47.000Z</time>
      </trkpt>
      <trkpt lat="48.37565" lon="7.2893">
        <ele>508.59997558594</ele>
        <time>2023-01-29T15:07:54.000Z</time>
      </trkpt>
      <trkpt lat="48.37564" lon="7.28931">
        <ele>508.40002441406</ele>
        <time>2023-01-29T15:07:55.000Z</time>
      </trkpt>
      <trkpt lat="48.37557" lon="7.28934">
        <ele>507.40002441406</ele>
        <time>2023-01-29T15:08:01.000Z</time>
      </trkpt>
      <trkpt lat="48.37556" lon="7.28935">
        <ele>507.40002441406</ele>
        <time>2023-01-29T15:08:02.000Z</time>
      </trkpt>
      <trkpt lat="48.37551" lon="7.2894">
        <ele>506.59997558594</ele>
        <time>2023-01-29T15:08:08.000Z</time>
      </trkpt>
      <trkpt lat="48.3755" lon="7.28942">
        <ele>506.20001220703</ele>
        <time>2023-01-29T15:08:10.000Z</time>
      </trkpt>
      <trkpt lat="48.3755" lon="7.2895">
        <ele>505.20001220703</ele>
        <time>2023-01-29T15:08:16.000Z</time>
      </trkpt>
      <trkpt lat="48.3755" lon="7.2895">
        <ele>505.20001220703</ele>
        <time>2023-01-29T15:08:17.000Z</time>
      </trkpt>
      <trkpt lat="48.37548" lon="7.28955">
        <ele>504.20001220703</ele>
        <time>2023-01-29T15:08:22.000Z</time>
      </trkpt>
      <trkpt lat="48.37547" lon="7.28958">
        <ele>504</ele>
        <time>2023-01-29T15:08:24.000Z</time>
      </trkpt>
      <trkpt lat="48.37544" lon="7.28961">
        <ele>503.20001220703</ele>
        <time>2023-01-29T15:08:30.000Z</time>
      </trkpt>
      <trkpt lat="48.37542" lon="7.28962">
        <ele>502.79998779297</ele>
        <time>2023-01-29T15:08:34.000Z</time>
      </trkpt>
      <trkpt lat="48.37541" lon="7.28963">
        <ele>502.79998779297</ele>
        <time>2023-01-29T15:08:35.000Z</time>
      </trkpt>
      <trkpt lat="48.37539" lon="7.28967">
        <ele>502.20001220703</ele>
        <time>2023-01-29T15:08:40.000Z</time>
      </trkpt>
      <trkpt lat="48.37537" lon="7.28968">
        <ele>501.79998779297</ele>
        <time>2023-01-29T15:08:42.000Z</time>
      </trkpt>
      <trkpt lat="48.37536" lon="7.28969">
        <ele>501.79998779297</ele>
        <time>2023-01-29T15:08:43.000Z</time>
      </trkpt>
      <trkpt lat="48.37535" lon="7.28977">
        <ele>500.79998779297</ele>
        <time>2023-01-29T15:08:48.000Z</time>
      </trkpt>
      <trkpt lat="48.37534" lon="7.28978">
        <ele>500.59997558594</ele>
        <time>2023-01-29T15:08:49.000Z</time>
      </trkpt>
      <trkpt lat="48.37528" lon="7.28986">
        <ele>499.59997558594</ele>
        <time>2023-01-29T15:08:56.000Z</time>
      </trkpt>
      <trkpt lat="48.37524" lon="7.28992">
        <ele>498.59997558594</ele>
        <time>2023-01-29T15:09:03.000Z</time>
      </trkpt>
      <trkpt lat="48.37524" lon="7.28993">
        <ele>498.59997558594</ele>
        <time>2023-01-29T15:09:04.000Z</time>
      </trkpt>
      <trkpt lat="48.37519" lon="7.28999">
        <ele>497.40002441406</ele>
        <time>2023-01-29T15:09:09.000Z</time>
      </trkpt>
      <trkpt lat="48.37518" lon="7.29002">
        <ele>497</ele>
        <time>2023-01-29T15:09:11.000Z</time>
      </trkpt>
      <trkpt lat="48.37515" lon="7.29005">
        <ele>496.40002441406</ele>
        <time>2023-01-29T15:09:14.000Z</time>
      </trkpt>
      <trkpt lat="48.3751" lon="7.29012">
        <ele>496</ele>
        <time>2023-01-29T15:09:17.000Z</time>
      </trkpt>
      <trkpt lat="48.37507" lon="7.29016">
        <ele>495.20001220703</ele>
        <time>2023-01-29T15:09:21.000Z</time>
      </trkpt>
      <trkpt lat="48.37502" lon="7.29024">
        <ele>494.40002441406</ele>
        <time>2023-01-29T15:09:26.000Z</time>
      </trkpt>
      <trkpt lat="48.375" lon="7.29027">
        <ele>494</ele>
        <time>2023-01-29T15:09:28.000Z</time>
      </trkpt>
      <trkpt lat="48.37496" lon="7.29034">
        <ele>493</ele>
        <time>2023-01-29T15:09:34.000Z</time>
      </trkpt>
      <trkpt lat="48.37492" lon="7.29038">
        <ele>492.40002441406</ele>
        <time>2023-01-29T15:09:37.000Z</time>
      </trkpt>
      <trkpt lat="48.37491" lon="7.2904">
        <ele>492.20001220703</ele>
        <time>2023-01-29T15:09:38.000Z</time>
      </trkpt>
      <trkpt lat="48.3749" lon="7.29041">
        <ele>492</ele>
        <time>2023-01-29T15:09:39.000Z</time>
      </trkpt>
      <trkpt lat="48.37484" lon="7.29045">
        <ele>491.20001220703</ele>
        <time>2023-01-29T15:09:44.000Z</time>
      </trkpt>
      <trkpt lat="48.37483" lon="7.29046">
        <ele>490.79998779297</ele>
        <time>2023-01-29T15:09:45.000Z</time>
      </trkpt>
      <trkpt lat="48.37477" lon="7.29051">
        <ele>489.79998779297</ele>
        <time>2023-01-29T15:09:52.000Z</time>
      </trkpt>
      <trkpt lat="48.37473" lon="7.29052">
        <ele>489.20001220703</ele>
        <time>2023-01-29T15:09:56.000Z</time>
      </trkpt>
      <trkpt lat="48.37471" lon="7.29054">
        <ele>488.79998779297</ele>
        <time>2023-01-29T15:09:59.000Z</time>
      </trkpt>
      <trkpt lat="48.37466" lon="7.29061">
        <ele>487.59997558594</ele>
        <time>2023-01-29T15:10:06.000Z</time>
      </trkpt>
      <trkpt lat="48.37464" lon="7.29063">
        <ele>487.40002441406</ele>
        <time>2023-01-29T15:10:08.000Z</time>
      </trkpt>
      <trkpt lat="48.37463" lon="7.29066">
        <ele>486.79998779297</ele>
        <time>2023-01-29T15:10:11.000Z</time>
      </trkpt>
      <trkpt lat="48.37461" lon="7.29066">
        <ele>486.59997558594</ele>
        <time>2023-01-29T15:10:13.000Z</time>
      </trkpt>
      <trkpt lat="48.37457" lon="7.29067">
        <ele>486.20001220703</ele>
        <time>2023-01-29T15:10:16.000Z</time>
      </trkpt>
      <trkpt lat="48.37456" lon="7.29067">
        <ele>486.20001220703</ele>
        <time>2023-01-29T15:10:17.000Z</time>
      </trkpt>
      <trkpt lat="48.37454" lon="7.29068">
        <ele>485.59997558594</ele>
        <time>2023-01-29T15:10:20.000Z</time>
      </trkpt>
      <trkpt lat="48.37452" lon="7.2907">
        <ele>485.20001220703</ele>
        <time>2023-01-29T15:10:23.000Z</time>
      </trkpt>
      <trkpt lat="48.37447" lon="7.29073">
        <ele>484.40002441406</ele>
        <time>2023-01-29T15:10:28.000Z</time>
      </trkpt>
      <trkpt lat="48.37445" lon="7.29075">
        <ele>484.40002441406</ele>
        <time>2023-01-29T15:10:29.000Z</time>
      </trkpt>
      <trkpt lat="48.37441" lon="7.29077">
        <ele>483.40002441406</ele>
        <time>2023-01-29T15:10:34.000Z</time>
      </trkpt>
      <trkpt lat="48.37435" lon="7.2908">
        <ele>482.20001220703</ele>
        <time>2023-01-29T15:10:40.000Z</time>
      </trkpt>
      <trkpt lat="48.37433" lon="7.29087">
        <ele>482</ele>
        <time>2023-01-29T15:10:43.000Z</time>
      </trkpt>
      <trkpt lat="48.37432" lon="7.2909">
        <ele>481.59997558594</ele>
        <time>2023-01-29T15:10:45.000Z</time>
      </trkpt>
      <trkpt lat="48.37431" lon="7.29092">
        <ele>481.20001220703</ele>
        <time>2023-01-29T15:10:47.000Z</time>
      </trkpt>
      <trkpt lat="48.37428" lon="7.29097">
        <ele>480.40002441406</ele>
        <time>2023-01-29T15:10:51.000Z</time>
      </trkpt>
      <trkpt lat="48.37426" lon="7.29098">
        <ele>480.20001220703</ele>
        <time>2023-01-29T15:10:53.000Z</time>
      </trkpt>
      <trkpt lat="48.37424" lon="7.29101">
        <ele>479.79998779297</ele>
        <time>2023-01-29T15:10:56.000Z</time>
      </trkpt>
      <trkpt lat="48.3742" lon="7.29105">
        <ele>479.20001220703</ele>
        <time>2023-01-29T15:11:00.000Z</time>
      </trkpt>
      <trkpt lat="48.37419" lon="7.29105">
        <ele>479.20001220703</ele>
        <time>2023-01-29T15:11:01.000Z</time>
      </trkpt>
      <trkpt lat="48.37417" lon="7.29106">
        <ele>479</ele>
        <time>2023-01-29T15:11:02.000Z</time>
      </trkpt>
      <trkpt lat="48.37415" lon="7.29108">
        <ele>478.79998779297</ele>
        <time>2023-01-29T15:11:04.000Z</time>
      </trkpt>
      <trkpt lat="48.37411" lon="7.2911">
        <ele>478.20001220703</ele>
        <time>2023-01-29T15:11:08.000Z</time>
      </trkpt>
      <trkpt lat="48.37409" lon="7.2911">
        <ele>478</ele>
        <time>2023-01-29T15:11:09.000Z</time>
      </trkpt>
      <trkpt lat="48.37404" lon="7.29116">
        <ele>477.20001220703</ele>
        <time>2023-01-29T15:11:14.000Z</time>
      </trkpt>
      <trkpt lat="48.37402" lon="7.29119">
        <ele>477</ele>
        <time>2023-01-29T15:11:16.000Z</time>
      </trkpt>
      <trkpt lat="48.37399" lon="7.2912">
        <ele>476.59997558594</ele>
        <time>2023-01-29T15:11:19.000Z</time>
      </trkpt>
      <trkpt lat="48.37397" lon="7.29121">
        <ele>476.40002441406</ele>
        <time>2023-01-29T15:11:21.000Z</time>
      </trkpt>
      <trkpt lat="48.37394" lon="7.29123">
        <ele>475.79998779297</ele>
        <time>2023-01-29T15:11:24.000Z</time>
      </trkpt>
      <trkpt lat="48.37387" lon="7.29124">
        <ele>475</ele>
        <time>2023-01-29T15:11:30.000Z</time>
      </trkpt>
      <trkpt lat="48.37386" lon="7.29125">
        <ele>474.79998779297</ele>
        <time>2023-01-29T15:11:31.000Z</time>
      </trkpt>
      <trkpt lat="48.37385" lon="7.29126">
        <ele>474.59997558594</ele>
        <time>2023-01-29T15:11:32.000Z</time>
      </trkpt>
      <trkpt lat="48.37381" lon="7.29129">
        <ele>473.59997558594</ele>
        <time>2023-01-29T15:11:36.000Z</time>
      </trkpt>
      <trkpt lat="48.37376" lon="7.29136">
        <ele>472.79998779297</ele>
        <time>2023-01-29T15:11:41.000Z</time>
      </trkpt>
      <trkpt lat="48.37374" lon="7.29138">
        <ele>472.40002441406</ele>
        <time>2023-01-29T15:11:43.000Z</time>
      </trkpt>
      <trkpt lat="48.37368" lon="7.29143">
        <ele>471.20001220703</ele>
        <time>2023-01-29T15:11:49.000Z</time>
      </trkpt>
      <trkpt lat="48.37365" lon="7.29145">
        <ele>470.79998779297</ele>
        <time>2023-01-29T15:11:52.000Z</time>
      </trkpt>
      <trkpt lat="48.37362" lon="7.29148">
        <ele>470.20001220703</ele>
        <time>2023-01-29T15:11:55.000Z</time>
      </trkpt>
      <trkpt lat="48.37357" lon="7.2915">
        <ele>469.59997558594</ele>
        <time>2023-01-29T15:11:59.000Z</time>
      </trkpt>
      <trkpt lat="48.37355" lon="7.29152">
        <ele>469.20001220703</ele>
        <time>2023-01-29T15:12:01.000Z</time>
      </trkpt>
      <trkpt lat="48.37351" lon="7.29156">
        <ele>468.40002441406</ele>
        <time>2023-01-29T15:12:06.000Z</time>
      </trkpt>
      <trkpt lat="48.37349" lon="7.29157">
        <ele>468</ele>
        <time>2023-01-29T15:12:08.000Z</time>
      </trkpt>
      <trkpt lat="48.37342" lon="7.29162">
        <ele>466.79998779297</ele>
        <time>2023-01-29T15:12:14.000Z</time>
      </trkpt>
      <trkpt lat="48.37338" lon="7.29169">
        <ele>466</ele>
        <time>2023-01-29T15:12:20.000Z</time>
      </trkpt>
      <trkpt lat="48.37338" lon="7.29169">
        <ele>465.59997558594</ele>
        <time>2023-01-29T15:12:21.000Z</time>
      </trkpt>
      <trkpt lat="48.37332" lon="7.29171">
        <ele>465</ele>
        <time>2023-01-29T15:12:26.000Z</time>
      </trkpt>
      <trkpt lat="48.37332" lon="7.29171">
        <ele>464.59997558594</ele>
        <time>2023-01-29T15:12:27.000Z</time>
      </trkpt>
      <trkpt lat="48.37328" lon="7.29172">
        <ele>463.79998779297</ele>
        <time>2023-01-29T15:12:32.000Z</time>
      </trkpt>
      <trkpt lat="48.37327" lon="7.29172">
        <ele>463.59997558594</ele>
        <time>2023-01-29T15:12:33.000Z</time>
      </trkpt>
      <trkpt lat="48.37323" lon="7.29179">
        <ele>462.59997558594</ele>
        <time>2023-01-29T15:12:38.000Z</time>
      </trkpt>
      <trkpt lat="48.37322" lon="7.2918">
        <ele>462.40002441406</ele>
        <time>2023-01-29T15:12:40.000Z</time>
      </trkpt>
      <trkpt lat="48.37317" lon="7.29184">
        <ele>461.59997558594</ele>
        <time>2023-01-29T15:12:44.000Z</time>
      </trkpt>
      <trkpt lat="48.37316" lon="7.29185">
        <ele>461.20001220703</ele>
        <time>2023-01-29T15:12:46.000Z</time>
      </trkpt>
      <trkpt lat="48.37311" lon="7.29187">
        <ele>460.59997558594</ele>
        <time>2023-01-29T15:12:51.000Z</time>
      </trkpt>
      <trkpt lat="48.37308" lon="7.29189">
        <ele>460.20001220703</ele>
        <time>2023-01-29T15:12:53.000Z</time>
      </trkpt>
      <trkpt lat="48.37303" lon="7.29193">
        <ele>459.40002441406</ele>
        <time>2023-01-29T15:12:57.000Z</time>
      </trkpt>
      <trkpt lat="48.37301" lon="7.29193">
        <ele>459.20001220703</ele>
        <time>2023-01-29T15:12:58.000Z</time>
      </trkpt>
      <trkpt lat="48.373" lon="7.29194">
        <ele>459.20001220703</ele>
        <time>2023-01-29T15:12:59.000Z</time>
      </trkpt>
      <trkpt lat="48.37296" lon="7.29195">
        <ele>458.40002441406</ele>
        <time>2023-01-29T15:13:03.000Z</time>
      </trkpt>
      <trkpt lat="48.37294" lon="7.29196">
        <ele>458</ele>
        <time>2023-01-29T15:13:05.000Z</time>
      </trkpt>
      <trkpt lat="48.37292" lon="7.29199">
        <ele>457.59997558594</ele>
        <time>2023-01-29T15:13:08.000Z</time>
      </trkpt>
      <trkpt lat="48.3729" lon="7.29201">
        <ele>457.20001220703</ele>
        <time>2023-01-29T15:13:10.000Z</time>
      </trkpt>
      <trkpt lat="48.37289" lon="7.29202">
        <ele>457</ele>
        <time>2023-01-29T15:13:11.000Z</time>
      </trkpt>
      <trkpt lat="48.37283" lon="7.29208">
        <ele>456</ele>
        <time>2023-01-29T15:13:17.000Z</time>
      </trkpt>
      <trkpt lat="48.3728" lon="7.29209">
        <ele>455.79998779297</ele>
        <time>2023-01-29T15:13:19.000Z</time>
      </trkpt>
      <trkpt lat="48.37279" lon="7.29211">
        <ele>455.59997558594</ele>
        <time>2023-01-29T15:13:20.000Z</time>
      </trkpt>
      <trkpt lat="48.37275" lon="7.29217">
        <ele>455</ele>
        <time>2023-01-29T15:13:24.000Z</time>
      </trkpt>
      <trkpt lat="48.37274" lon="7.29217">
        <ele>454.79998779297</ele>
        <time>2023-01-29T15:13:25.000Z</time>
      </trkpt>
      <trkpt lat="48.37272" lon="7.29219">
        <ele>454.59997558594</ele>
        <time>2023-01-29T15:13:27.000Z</time>
      </trkpt>
      <trkpt lat="48.3727" lon="7.29222">
        <ele>454.20001220703</ele>
        <time>2023-01-29T15:13:29.000Z</time>
      </trkpt>
      <trkpt lat="48.37266" lon="7.29228">
        <ele>453.40002441406</ele>
        <time>2023-01-29T15:13:33.000Z</time>
      </trkpt>
      <trkpt lat="48.37265" lon="7.29229">
        <ele>453.40002441406</ele>
        <time>2023-01-29T15:13:34.000Z</time>
      </trkpt>
      <trkpt lat="48.37264" lon="7.29232">
        <ele>453</ele>
        <time>2023-01-29T15:13:36.000Z</time>
      </trkpt>
      <trkpt lat="48.37262" lon="7.29236">
        <ele>452.40002441406</ele>
        <time>2023-01-29T15:13:39.000Z</time>
      </trkpt>
      <trkpt lat="48.3726" lon="7.29238">
        <ele>452.20001220703</ele>
        <time>2023-01-29T15:13:41.000Z</time>
      </trkpt>
      <trkpt lat="48.37259" lon="7.29239">
        <ele>452.20001220703</ele>
        <time>2023-01-29T15:13:42.000Z</time>
      </trkpt>
      <trkpt lat="48.37254" lon="7.29241">
        <ele>451.40002441406</ele>
        <time>2023-01-29T15:13:47.000Z</time>
      </trkpt>
      <trkpt lat="48.37253" lon="7.29242">
        <ele>451.20001220703</ele>
        <time>2023-01-29T15:13:49.000Z</time>
      </trkpt>
      <trkpt lat="48.37244" lon="7.29245">
        <ele>450.20001220703</ele>
        <time>2023-01-29T15:13:56.000Z</time>
      </trkpt>
      <trkpt lat="48.37233" lon="7.29242">
        <ele>449.59997558594</ele>
        <time>2023-01-29T15:14:03.000Z</time>
      </trkpt>
      <trkpt lat="48.3723" lon="7.2924">
        <ele>449.40002441406</ele>
        <time>2023-01-29T15:14:06.000Z</time>
      </trkpt>
      <trkpt lat="48.37229" lon="7.29241">
        <ele>449.20001220703</ele>
        <time>2023-01-29T15:14:07.000Z</time>
      </trkpt>
      <trkpt lat="48.37228" lon="7.29242">
        <ele>449.20001220703</ele>
        <time>2023-01-29T15:14:08.000Z</time>
      </trkpt>
      <trkpt lat="48.37228" lon="7.29251">
        <ele>449.40002441406</ele>
        <time>2023-01-29T15:14:13.000Z</time>
      </trkpt>
      <trkpt lat="48.37227" lon="7.29252">
        <ele>449.40002441406</ele>
        <time>2023-01-29T15:14:17.000Z</time>
      </trkpt>
      <trkpt lat="48.37229" lon="7.29256">
        <ele>449.79998779297</ele>
        <time>2023-01-29T15:14:21.000Z</time>
      </trkpt>
      <trkpt lat="48.37228" lon="7.2926">
        <ele>450</ele>
        <time>2023-01-29T15:14:25.000Z</time>
      </trkpt>
      <trkpt lat="48.37228" lon="7.29263">
        <ele>450.20001220703</ele>
        <time>2023-01-29T15:14:28.000Z</time>
      </trkpt>
      <trkpt lat="48.37228" lon="7.29264">
        <ele>450.40002441406</ele>
        <time>2023-01-29T15:14:29.000Z</time>
      </trkpt>
      <trkpt lat="48.37227" lon="7.29267">
        <ele>450.79998779297</ele>
        <time>2023-01-29T15:14:32.000Z</time>
      </trkpt>
      <trkpt lat="48.37222" lon="7.29272">
        <ele>451.20001220703</ele>
        <time>2023-01-29T15:14:36.000Z</time>
      </trkpt>
      <trkpt lat="48.37221" lon="7.29274">
        <ele>451.40002441406</ele>
        <time>2023-01-29T15:14:37.000Z</time>
      </trkpt>
      <trkpt lat="48.3722" lon="7.29276">
        <ele>451.79998779297</ele>
        <time>2023-01-29T15:14:39.000Z</time>
      </trkpt>
      <trkpt lat="48.3722" lon="7.29278">
        <ele>452</ele>
        <time>2023-01-29T15:14:40.000Z</time>
      </trkpt>
      <trkpt lat="48.37218" lon="7.29283">
        <ele>452.40002441406</ele>
        <time>2023-01-29T15:14:44.000Z</time>
      </trkpt>
      <trkpt lat="48.37218" lon="7.29284">
        <ele>452.59997558594</ele>
        <time>2023-01-29T15:14:45.000Z</time>
      </trkpt>
      <trkpt lat="48.37216" lon="7.29289">
        <ele>453.20001220703</ele>
        <time>2023-01-29T15:14:48.000Z</time>
      </trkpt>
      <trkpt lat="48.37215" lon="7.29294">
        <ele>453.79998779297</ele>
        <time>2023-01-29T15:14:52.000Z</time>
      </trkpt>
      <trkpt lat="48.37213" lon="7.29297">
        <ele>454.20001220703</ele>
        <time>2023-01-29T15:14:54.000Z</time>
      </trkpt>
      <trkpt lat="48.37208" lon="7.29301">
        <ele>455</ele>
        <time>2023-01-29T15:14:58.000Z</time>
      </trkpt>
      <trkpt lat="48.37208" lon="7.29303">
        <ele>455.40002441406</ele>
        <time>2023-01-29T15:15:00.000Z</time>
      </trkpt>
      <trkpt lat="48.37207" lon="7.2931">
        <ele>456</ele>
        <time>2023-01-29T15:15:05.000Z</time>
      </trkpt>
      <trkpt lat="48.37202" lon="7.29317">
        <ele>457.20001220703</ele>
        <time>2023-01-29T15:15:12.000Z</time>
      </trkpt>
      <trkpt lat="48.37201" lon="7.29318">
        <ele>457.40002441406</ele>
        <time>2023-01-29T15:15:13.000Z</time>
      </trkpt>
      <trkpt lat="48.372" lon="7.2932">
        <ele>457.59997558594</ele>
        <time>2023-01-29T15:15:14.000Z</time>
      </trkpt>
      <trkpt lat="48.37199" lon="7.29328">
        <ele>458.40002441406</ele>
        <time>2023-01-29T15:15:19.000Z</time>
      </trkpt>
      <trkpt lat="48.37199" lon="7.29329">
        <ele>458.40002441406</ele>
        <time>2023-01-29T15:15:20.000Z</time>
      </trkpt>
      <trkpt lat="48.37194" lon="7.29336">
        <ele>459.40002441406</ele>
        <time>2023-01-29T15:15:26.000Z</time>
      </trkpt>
      <trkpt lat="48.37189" lon="7.29345">
        <ele>460.40002441406</ele>
        <time>2023-01-29T15:15:33.000Z</time>
      </trkpt>
      <trkpt lat="48.37188" lon="7.2935">
        <ele>461.59997558594</ele>
        <time>2023-01-29T15:15:39.000Z</time>
      </trkpt>
      <trkpt lat="48.37183" lon="7.29358">
        <ele>462.59997558594</ele>
        <time>2023-01-29T15:15:46.000Z</time>
      </trkpt>
      <trkpt lat="48.3718" lon="7.29367">
        <ele>463.79998779297</ele>
        <time>2023-01-29T15:15:53.000Z</time>
      </trkpt>
      <trkpt lat="48.37181" lon="7.29376">
        <ele>464.79998779297</ele>
        <time>2023-01-29T15:16:01.000Z</time>
      </trkpt>
      <trkpt lat="48.37181" lon="7.29375">
        <ele>465</ele>
        <time>2023-01-29T15:16:02.000Z</time>
      </trkpt>
      <trkpt lat="48.3718" lon="7.29371">
        <ele>465</ele>
        <time>2023-01-29T15:16:09.000Z</time>
      </trkpt>
      <trkpt lat="48.37182" lon="7.29373">
        <ele>465</ele>
        <time>2023-01-29T15:16:15.000Z</time>
      </trkpt>
      <trkpt lat="48.37182" lon="7.29373">
        <ele>465.40002441406</ele>
        <time>2023-01-29T15:16:23.000Z</time>
      </trkpt>
      <trkpt lat="48.37181" lon="7.29373">
        <ele>466</ele>
        <time>2023-01-29T15:16:27.000Z</time>
      </trkpt>
      <trkpt lat="48.37181" lon="7.29373">
        <ele>467</ele>
        <time>2023-01-29T15:16:33.000Z</time>
      </trkpt>
      <trkpt lat="48.37182" lon="7.29373">
        <ele>468.20001220703</ele>
        <time>2023-01-29T15:16:38.000Z</time>
      </trkpt>
      <trkpt lat="48.37184" lon="7.29376">
        <ele>469.20001220703</ele>
        <time>2023-01-29T15:16:43.000Z</time>
      </trkpt>
      <trkpt lat="48.37186" lon="7.29378">
        <ele>469.59997558594</ele>
        <time>2023-01-29T15:16:46.000Z</time>
      </trkpt>
      <trkpt lat="48.37187" lon="7.2938">
        <ele>470.20001220703</ele>
        <time>2023-01-29T15:16:49.000Z</time>
      </trkpt>
      <trkpt lat="48.37192" lon="7.29385">
        <ele>471.20001220703</ele>
        <time>2023-01-29T15:16:54.000Z</time>
      </trkpt>
      <trkpt lat="48.37196" lon="7.29389">
        <ele>471.79998779297</ele>
        <time>2023-01-29T15:16:57.000Z</time>
      </trkpt>
      <trkpt lat="48.37199" lon="7.29392">
        <ele>472.40002441406</ele>
        <time>2023-01-29T15:16:59.000Z</time>
      </trkpt>
      <trkpt lat="48.37201" lon="7.29396">
        <ele>472.79998779297</ele>
        <time>2023-01-29T15:17:05.000Z</time>
      </trkpt>
      <trkpt lat="48.37201" lon="7.29397">
        <ele>472.59997558594</ele>
        <time>2023-01-29T15:17:13.000Z</time>
      </trkpt>
      <trkpt lat="48.372" lon="7.29397">
        <ele>472.59997558594</ele>
        <time>2023-01-29T15:17:16.000Z</time>
      </trkpt>
      <trkpt lat="48.372" lon="7.29397">
        <ele>472.59997558594</ele>
        <time>2023-01-29T15:17:19.000Z</time>
      </trkpt>
      <trkpt lat="48.372" lon="7.29397">
        <ele>472.59997558594</ele>
        <time>2023-01-29T15:17:28.000Z</time>
      </trkpt>
      <trkpt lat="48.372" lon="7.29397">
        <ele>473.40002441406</ele>
        <time>2023-01-29T15:17:33.000Z</time>
      </trkpt>
      <trkpt lat="48.37203" lon="7.29399">
        <ele>474</ele>
        <time>2023-01-29T15:17:37.000Z</time>
      </trkpt>
      <trkpt lat="48.37206" lon="7.29402">
        <ele>474.59997558594</ele>
        <time>2023-01-29T15:17:39.000Z</time>
      </trkpt>
      <trkpt lat="48.37213" lon="7.29411">
        <ele>475.59997558594</ele>
        <time>2023-01-29T15:17:44.000Z</time>
      </trkpt>
      <trkpt lat="48.37215" lon="7.29413">
        <ele>475.79998779297</ele>
        <time>2023-01-29T15:17:45.000Z</time>
      </trkpt>
      <trkpt lat="48.37218" lon="7.29416">
        <ele>476.79998779297</ele>
        <time>2023-01-29T15:17:51.000Z</time>
      </trkpt>
      <trkpt lat="48.37219" lon="7.29417">
        <ele>476.79998779297</ele>
        <time>2023-01-29T15:17:52.000Z</time>
      </trkpt>
      <trkpt lat="48.37222" lon="7.29421">
        <ele>477.79998779297</ele>
        <time>2023-01-29T15:17:58.000Z</time>
      </trkpt>
      <trkpt lat="48.37223" lon="7.29423">
        <ele>478.40002441406</ele>
        <time>2023-01-29T15:18:00.000Z</time>
      </trkpt>
      <trkpt lat="48.37225" lon="7.29424">
        <ele>479</ele>
        <time>2023-01-29T15:18:02.000Z</time>
      </trkpt>
      <trkpt lat="48.37226" lon="7.29424">
        <ele>479.79998779297</ele>
        <time>2023-01-29T15:18:08.000Z</time>
      </trkpt>
      <trkpt lat="48.37226" lon="7.29424">
        <ele>479.79998779297</ele>
        <time>2023-01-29T15:18:09.000Z</time>
      </trkpt>
      <trkpt lat="48.37227" lon="7.29424">
        <ele>479.79998779297</ele>
        <time>2023-01-29T15:18:18.000Z</time>
      </trkpt>
      <trkpt lat="48.37226" lon="7.29424">
        <ele>479.59997558594</ele>
        <time>2023-01-29T15:18:33.000Z</time>
      </trkpt>
      <trkpt lat="48.37226" lon="7.29424">
        <ele>479.40002441406</ele>
        <time>2023-01-29T15:18:44.000Z</time>
      </trkpt>
      <trkpt lat="48.37226" lon="7.29424">
        <ele>479.59997558594</ele>
        <time>2023-01-29T15:18:52.000Z</time>
      </trkpt>
      <trkpt lat="48.37226" lon="7.29424">
        <ele>479.59997558594</ele>
        <time>2023-01-29T15:18:55.000Z</time>
      </trkpt>
      <trkpt lat="48.37226" lon="7.29424">
        <ele>479.59997558594</ele>
        <time>2023-01-29T15:18:57.000Z</time>
      </trkpt>
      <trkpt lat="48.37225" lon="7.29424">
        <ele>479.59997558594</ele>
        <time>2023-01-29T15:19:01.000Z</time>
      </trkpt>
      <trkpt lat="48.37225" lon="7.29424">
        <ele>479.59997558594</ele>
        <time>2023-01-29T15:19:05.000Z</time>
      </trkpt>
      <trkpt lat="48.37225" lon="7.29424">
        <ele>480</ele>
        <time>2023-01-29T15:19:07.000Z</time>
      </trkpt>
      <trkpt lat="48.37225" lon="7.29424">
        <ele>480.79998779297</ele>
        <time>2023-01-29T15:19:12.000Z</time>
      </trkpt>
      <trkpt lat="48.37226" lon="7.29423">
        <ele>481.20001220703</ele>
        <time>2023-01-29T15:19:14.000Z</time>
      </trkpt>
      <trkpt lat="48.37239" lon="7.29421">
        <ele>482.20001220703</ele>
        <time>2023-01-29T15:19:20.000Z</time>
      </trkpt>
      <trkpt lat="48.37248" lon="7.29421">
        <ele>482.79998779297</ele>
        <time>2023-01-29T15:19:24.000Z</time>
      </trkpt>
      <trkpt lat="48.37251" lon="7.29422">
        <ele>483.20001220703</ele>
        <time>2023-01-29T15:19:28.000Z</time>
      </trkpt>
      <trkpt lat="48.37252" lon="7.29421">
        <ele>483.59997558594</ele>
        <time>2023-01-29T15:19:30.000Z</time>
      </trkpt>
      <trkpt lat="48.37253" lon="7.29423">
        <ele>483.79998779297</ele>
        <time>2023-01-29T15:19:35.000Z</time>
      </trkpt>
      <trkpt lat="48.37253" lon="7.29426">
        <ele>484</ele>
        <time>2023-01-29T15:19:38.000Z</time>
      </trkpt>
      <trkpt lat="48.37254" lon="7.29426">
        <ele>484</ele>
        <time>2023-01-29T15:19:42.000Z</time>
      </trkpt>
      <trkpt lat="48.37256" lon="7.29425">
        <ele>484.40002441406</ele>
        <time>2023-01-29T15:19:47.000Z</time>
      </trkpt>
      <trkpt lat="48.37258" lon="7.29425">
        <ele>484.40002441406</ele>
        <time>2023-01-29T15:19:49.000Z</time>
      </trkpt>
      <trkpt lat="48.37264" lon="7.29426">
        <ele>485.40002441406</ele>
        <time>2023-01-29T15:19:59.000Z</time>
      </trkpt>
      <trkpt lat="48.37266" lon="7.29426">
        <ele>485.59997558594</ele>
        <time>2023-01-29T15:20:01.000Z</time>
      </trkpt>
      <trkpt lat="48.37272" lon="7.29426">
        <ele>486.40002441406</ele>
        <time>2023-01-29T15:20:11.000Z</time>
      </trkpt>
      <trkpt lat="48.37273" lon="7.29425">
        <ele>486.59997558594</ele>
        <time>2023-01-29T15:20:12.000Z</time>
      </trkpt>
      <trkpt lat="48.3728" lon="7.29424">
        <ele>487.59997558594</ele>
        <time>2023-01-29T15:20:19.000Z</time>
      </trkpt>
      <trkpt lat="48.37281" lon="7.29425">
        <ele>487.79998779297</ele>
        <time>2023-01-29T15:20:21.000Z</time>
      </trkpt>
      <trkpt lat="48.37282" lon="7.29425">
        <ele>488.20001220703</ele>
        <time>2023-01-29T15:20:23.000Z</time>
      </trkpt>
      <trkpt lat="48.37283" lon="7.29424">
        <ele>488.59997558594</ele>
        <time>2023-01-29T15:20:26.000Z</time>
      </trkpt>
      <trkpt lat="48.37284" lon="7.29424">
        <ele>489</ele>
        <time>2023-01-29T15:20:29.000Z</time>
      </trkpt>
      <trkpt lat="48.37287" lon="7.29422">
        <ele>489.59997558594</ele>
        <time>2023-01-29T15:20:34.000Z</time>
      </trkpt>
      <trkpt lat="48.37288" lon="7.29421">
        <ele>490</ele>
        <time>2023-01-29T15:20:37.000Z</time>
      </trkpt>
      <trkpt lat="48.37291" lon="7.29419">
        <ele>490.79998779297</ele>
        <time>2023-01-29T15:20:42.000Z</time>
      </trkpt>
      <trkpt lat="48.37291" lon="7.29419">
        <ele>491</ele>
        <time>2023-01-29T15:20:44.000Z</time>
      </trkpt>
      <trkpt lat="48.37296" lon="7.29419">
        <ele>491.79998779297</ele>
        <time>2023-01-29T15:20:49.000Z</time>
      </trkpt>
      <trkpt lat="48.37297" lon="7.29419">
        <ele>492</ele>
        <time>2023-01-29T15:20:51.000Z</time>
      </trkpt>
      <trkpt lat="48.37297" lon="7.29417">
        <ele>492</ele>
        <time>2023-01-29T15:21:00.000Z</time>
      </trkpt>
      <trkpt lat="48.37297" lon="7.29417">
        <ele>492</ele>
        <time>2023-01-29T15:21:09.000Z</time>
      </trkpt>
      <trkpt lat="48.37298" lon="7.29417">
        <ele>492.20001220703</ele>
        <time>2023-01-29T15:21:21.000Z</time>
      </trkpt>
      <trkpt lat="48.37299" lon="7.29417">
        <ele>492.59997558594</ele>
        <time>2023-01-29T15:21:24.000Z</time>
      </trkpt>
      <trkpt lat="48.373" lon="7.29417">
        <ele>492.79998779297</ele>
        <time>2023-01-29T15:21:28.000Z</time>
      </trkpt>
      <trkpt lat="48.373" lon="7.29416">
        <ele>492.79998779297</ele>
        <time>2023-01-29T15:21:33.000Z</time>
      </trkpt>
      <trkpt lat="48.37296" lon="7.29406">
        <ele>494</ele>
        <time>2023-01-29T15:21:58.000Z</time>
      </trkpt>
      <trkpt lat="48.37298" lon="7.29405">
        <ele>495.20001220703</ele>
        <time>2023-01-29T15:22:07.000Z</time>
      </trkpt>
      <trkpt lat="48.37299" lon="7.29405">
        <ele>496.40002441406</ele>
        <time>2023-01-29T15:22:13.000Z</time>
      </trkpt>
      <trkpt lat="48.37301" lon="7.29405">
        <ele>497.20001220703</ele>
        <time>2023-01-29T15:22:17.000Z</time>
      </trkpt>
      <trkpt lat="48.37302" lon="7.29405">
        <ele>497.40002441406</ele>
        <time>2023-01-29T15:22:19.000Z</time>
      </trkpt>
      <trkpt lat="48.37306" lon="7.29404">
        <ele>497.79998779297</ele>
        <time>2023-01-29T15:22:26.000Z</time>
      </trkpt>
      <trkpt lat="48.3731" lon="7.29402">
        <ele>498.59997558594</ele>
        <time>2023-01-29T15:22:33.000Z</time>
      </trkpt>
      <trkpt lat="48.37311" lon="7.29401">
        <ele>498.79998779297</ele>
        <time>2023-01-29T15:22:34.000Z</time>
      </trkpt>
      <trkpt lat="48.37321" lon="7.29395">
        <ele>499.59997558594</ele>
        <time>2023-01-29T15:22:42.000Z</time>
      </trkpt>
      <trkpt lat="48.37322" lon="7.29395">
        <ele>499.79998779297</ele>
        <time>2023-01-29T15:22:43.000Z</time>
      </trkpt>
      <trkpt lat="48.37326" lon="7.29395">
        <ele>500.40002441406</ele>
        <time>2023-01-29T15:22:49.000Z</time>
      </trkpt>
      <trkpt lat="48.37328" lon="7.29399">
        <ele>500.59997558594</ele>
        <time>2023-01-29T15:22:53.000Z</time>
      </trkpt>
      <trkpt lat="48.3733" lon="7.294">
        <ele>500.59997558594</ele>
        <time>2023-01-29T15:22:57.000Z</time>
      </trkpt>
      <trkpt lat="48.37333" lon="7.29397">
        <ele>500.59997558594</ele>
        <time>2023-01-29T15:23:04.000Z</time>
      </trkpt>
      <trkpt lat="48.37332" lon="7.29396">
        <ele>500.79998779297</ele>
        <time>2023-01-29T15:23:06.000Z</time>
      </trkpt>
      <trkpt lat="48.37333" lon="7.29396">
        <ele>501.20001220703</ele>
        <time>2023-01-29T15:23:11.000Z</time>
      </trkpt>
      <trkpt lat="48.37336" lon="7.29394">
        <ele>501.59997558594</ele>
        <time>2023-01-29T15:23:15.000Z</time>
      </trkpt>
      <trkpt lat="48.37336" lon="7.29393">
        <ele>502</ele>
        <time>2023-01-29T15:23:16.000Z</time>
      </trkpt>
      <trkpt lat="48.37339" lon="7.29391">
        <ele>502.79998779297</ele>
        <time>2023-01-29T15:23:22.000Z</time>
      </trkpt>
      <trkpt lat="48.37339" lon="7.2939">
        <ele>502.79998779297</ele>
        <time>2023-01-29T15:23:23.000Z</time>
      </trkpt>
      <trkpt lat="48.3734" lon="7.29384">
        <ele>503.40002441406</ele>
        <time>2023-01-29T15:23:30.000Z</time>
      </trkpt>
      <trkpt lat="48.3734" lon="7.29384">
        <ele>503.59997558594</ele>
        <time>2023-01-29T15:23:31.000Z</time>
      </trkpt>
      <trkpt lat="48.37342" lon="7.29379">
        <ele>503.79998779297</ele>
        <time>2023-01-29T15:23:35.000Z</time>
      </trkpt>
      <trkpt lat="48.37342" lon="7.29378">
        <ele>504.20001220703</ele>
        <time>2023-01-29T15:23:37.000Z</time>
      </trkpt>
      <trkpt lat="48.37347" lon="7.29376">
        <ele>505</ele>
        <time>2023-01-29T15:23:42.000Z</time>
      </trkpt>
      <trkpt lat="48.37349" lon="7.29376">
        <ele>505.40002441406</ele>
        <time>2023-01-29T15:23:45.000Z</time>
      </trkpt>
      <trkpt lat="48.37352" lon="7.29374">
        <ele>506</ele>
        <time>2023-01-29T15:23:49.000Z</time>
      </trkpt>
      <trkpt lat="48.37352" lon="7.29373">
        <ele>506.20001220703</ele>
        <time>2023-01-29T15:23:51.000Z</time>
      </trkpt>
      <trkpt lat="48.37355" lon="7.29373">
        <ele>506.40002441406</ele>
        <time>2023-01-29T15:23:56.000Z</time>
      </trkpt>
      <trkpt lat="48.37356" lon="7.29374">
        <ele>506.59997558594</ele>
        <time>2023-01-29T15:23:57.000Z</time>
      </trkpt>
      <trkpt lat="48.37359" lon="7.29373">
        <ele>507</ele>
        <time>2023-01-29T15:24:02.000Z</time>
      </trkpt>
      <trkpt lat="48.37359" lon="7.29373">
        <ele>507.20001220703</ele>
        <time>2023-01-29T15:24:03.000Z</time>
      </trkpt>
      <trkpt lat="48.37362" lon="7.29372">
        <ele>507.40002441406</ele>
        <time>2023-01-29T15:24:07.000Z</time>
      </trkpt>
      <trkpt lat="48.37362" lon="7.29372">
        <ele>507.59997558594</ele>
        <time>2023-01-29T15:24:08.000Z</time>
      </trkpt>
      <trkpt lat="48.37365" lon="7.29369">
        <ele>508</ele>
        <time>2023-01-29T15:24:13.000Z</time>
      </trkpt>
      <trkpt lat="48.37367" lon="7.29365">
        <ele>509.20001220703</ele>
        <time>2023-01-29T15:24:19.000Z</time>
      </trkpt>
      <trkpt lat="48.37369" lon="7.29364">
        <ele>509.40002441406</ele>
        <time>2023-01-29T15:24:21.000Z</time>
      </trkpt>
      <trkpt lat="48.37372" lon="7.29363">
        <ele>510.20001220703</ele>
        <time>2023-01-29T15:24:25.000Z</time>
      </trkpt>
      <trkpt lat="48.37373" lon="7.29362">
        <ele>510.59997558594</ele>
        <time>2023-01-29T15:24:28.000Z</time>
      </trkpt>
      <trkpt lat="48.37374" lon="7.29361">
        <ele>510.59997558594</ele>
        <time>2023-01-29T15:24:29.000Z</time>
      </trkpt>
      <trkpt lat="48.3738" lon="7.2936">
        <ele>511.20001220703</ele>
        <time>2023-01-29T15:24:34.000Z</time>
      </trkpt>
      <trkpt lat="48.37387" lon="7.29364">
        <ele>512.20001220703</ele>
        <time>2023-01-29T15:24:39.000Z</time>
      </trkpt>
      <trkpt lat="48.3739" lon="7.29366">
        <ele>512.40002441406</ele>
        <time>2023-01-29T15:24:41.000Z</time>
      </trkpt>
      <trkpt lat="48.37392" lon="7.29364">
        <ele>513</ele>
        <time>2023-01-29T15:24:44.000Z</time>
      </trkpt>
      <trkpt lat="48.37393" lon="7.29363">
        <ele>513.59997558594</ele>
        <time>2023-01-29T15:24:48.000Z</time>
      </trkpt>
      <trkpt lat="48.37393" lon="7.29363">
        <ele>514</ele>
        <time>2023-01-29T15:24:51.000Z</time>
      </trkpt>
      <trkpt lat="48.37393" lon="7.29363">
        <ele>514.20001220703</ele>
        <time>2023-01-29T15:24:56.000Z</time>
      </trkpt>
      <trkpt lat="48.37393" lon="7.29363">
        <ele>514.20001220703</ele>
        <time>2023-01-29T15:25:00.000Z</time>
      </trkpt>
      <trkpt lat="48.37393" lon="7.29364">
        <ele>514.79998779297</ele>
        <time>2023-01-29T15:25:20.000Z</time>
      </trkpt>
      <trkpt lat="48.37398" lon="7.29363">
        <ele>515.79998779297</ele>
        <time>2023-01-29T15:25:26.000Z</time>
      </trkpt>
      <trkpt lat="48.37401" lon="7.29363">
        <ele>516.20001220703</ele>
        <time>2023-01-29T15:25:28.000Z</time>
      </trkpt>
      <trkpt lat="48.37403" lon="7.29363">
        <ele>516.40002441406</ele>
        <time>2023-01-29T15:25:29.000Z</time>
      </trkpt>
      <trkpt lat="48.37406" lon="7.29362">
        <ele>516.59997558594</ele>
        <time>2023-01-29T15:25:31.000Z</time>
      </trkpt>
      <trkpt lat="48.3741" lon="7.29362">
        <ele>517</ele>
        <time>2023-01-29T15:25:33.000Z</time>
      </trkpt>
      <trkpt lat="48.37414" lon="7.29361">
        <ele>517.59997558594</ele>
        <time>2023-01-29T15:25:37.000Z</time>
      </trkpt>
      <trkpt lat="48.37417" lon="7.2936">
        <ele>518</ele>
        <time>2023-01-29T15:25:40.000Z</time>
      </trkpt>
      <trkpt lat="48.37419" lon="7.29357">
        <ele>518.79998779297</ele>
        <time>2023-01-29T15:25:44.000Z</time>
      </trkpt>
      <trkpt lat="48.3742" lon="7.29357">
        <ele>519.20001220703</ele>
        <time>2023-01-29T15:25:46.000Z</time>
      </trkpt>
      <trkpt lat="48.37426" lon="7.29359">
        <ele>520.40002441406</ele>
        <time>2023-01-29T15:25:52.000Z</time>
      </trkpt>
      <trkpt lat="48.37427" lon="7.29359">
        <ele>520.59997558594</ele>
        <time>2023-01-29T15:25:53.000Z</time>
      </trkpt>
      <trkpt lat="48.37431" lon="7.29357">
        <ele>521.40002441406</ele>
        <time>2023-01-29T15:25:59.000Z</time>
      </trkpt>
      <trkpt lat="48.37433" lon="7.29361">
        <ele>522.59997558594</ele>
        <time>2023-01-29T15:26:07.000Z</time>
      </trkpt>
      <trkpt lat="48.37438" lon="7.29359">
        <ele>523</ele>
        <time>2023-01-29T15:26:15.000Z</time>
      </trkpt>
      <trkpt lat="48.37441" lon="7.29359">
        <ele>523.59997558594</ele>
        <time>2023-01-29T15:26:20.000Z</time>
      </trkpt>
      <trkpt lat="48.37443" lon="7.29358">
        <ele>524.19995117188</ele>
        <time>2023-01-29T15:26:24.000Z</time>
      </trkpt>
      <trkpt lat="48.37445" lon="7.29357">
        <ele>524.80004882812</ele>
        <time>2023-01-29T15:26:27.000Z</time>
      </trkpt>
      <trkpt lat="48.37446" lon="7.29356">
        <ele>525</ele>
        <time>2023-01-29T15:26:29.000Z</time>
      </trkpt>
      <trkpt lat="48.37447" lon="7.29356">
        <ele>525.40002441406</ele>
        <time>2023-01-29T15:26:31.000Z</time>
      </trkpt>
      <trkpt lat="48.37449" lon="7.29355">
        <ele>526</ele>
        <time>2023-01-29T15:26:34.000Z</time>
      </trkpt>
      <trkpt lat="48.37454" lon="7.29353">
        <ele>526.80004882812</ele>
        <time>2023-01-29T15:26:40.000Z</time>
      </trkpt>
      <trkpt lat="48.37454" lon="7.29352">
        <ele>527</ele>
        <time>2023-01-29T15:26:42.000Z</time>
      </trkpt>
      <trkpt lat="48.3746" lon="7.29355">
        <ele>528.19995117188</ele>
        <time>2023-01-29T15:26:49.000Z</time>
      </trkpt>
      <trkpt lat="48.37462" lon="7.29356">
        <ele>528.59997558594</ele>
        <time>2023-01-29T15:26:51.000Z</time>
      </trkpt>
      <trkpt lat="48.37462" lon="7.29356">
        <ele>529.40002441406</ele>
        <time>2023-01-29T15:26:55.000Z</time>
      </trkpt>
      <trkpt lat="48.37462" lon="7.29358">
        <ele>529.59997558594</ele>
        <time>2023-01-29T15:26:59.000Z</time>
      </trkpt>
      <trkpt lat="48.37463" lon="7.2936">
        <ele>529.80004882812</ele>
        <time>2023-01-29T15:27:04.000Z</time>
      </trkpt>
      <trkpt lat="48.37462" lon="7.2936">
        <ele>529.59997558594</ele>
        <time>2023-01-29T15:27:09.000Z</time>
      </trkpt>
      <trkpt lat="48.37462" lon="7.2936">
        <ele>529.80004882812</ele>
        <time>2023-01-29T15:27:14.000Z</time>
      </trkpt>
      <trkpt lat="48.37462" lon="7.2936">
        <ele>529.80004882812</ele>
        <time>2023-01-29T15:27:20.000Z</time>
      </trkpt>
      <trkpt lat="48.37462" lon="7.2936">
        <ele>529.80004882812</ele>
        <time>2023-01-29T15:27:21.000Z</time>
      </trkpt>
      <trkpt lat="48.37461" lon="7.29365">
        <ele>529.59997558594</ele>
        <time>2023-01-29T15:27:40.000Z</time>
      </trkpt>
      <trkpt lat="48.37461" lon="7.29365">
        <ele>529.40002441406</ele>
        <time>2023-01-29T15:27:43.000Z</time>
      </trkpt>
      <trkpt lat="48.3746" lon="7.29367">
        <ele>529.40002441406</ele>
        <time>2023-01-29T15:27:51.000Z</time>
      </trkpt>
      <trkpt lat="48.37466" lon="7.29365">
        <ele>530.19995117188</ele>
        <time>2023-01-29T15:28:03.000Z</time>
      </trkpt>
      <trkpt lat="48.37468" lon="7.29363">
        <ele>530.59997558594</ele>
        <time>2023-01-29T15:28:05.000Z</time>
      </trkpt>
      <trkpt lat="48.37473" lon="7.29355">
        <ele>531.40002441406</ele>
        <time>2023-01-29T15:28:12.000Z</time>
      </trkpt>
      <trkpt lat="48.37473" lon="7.29353">
        <ele>531.59997558594</ele>
        <time>2023-01-29T15:28:13.000Z</time>
      </trkpt>
      <trkpt lat="48.37474" lon="7.29349">
        <ele>532.19995117188</ele>
        <time>2023-01-29T15:28:17.000Z</time>
      </trkpt>
      <trkpt lat="48.37475" lon="7.29347">
        <ele>532.59997558594</ele>
        <time>2023-01-29T15:28:20.000Z</time>
      </trkpt>
      <trkpt lat="48.37476" lon="7.29347">
        <ele>532.59997558594</ele>
        <time>2023-01-29T15:28:21.000Z</time>
      </trkpt>
      <trkpt lat="48.3748" lon="7.29341">
        <ele>533.40002441406</ele>
        <time>2023-01-29T15:28:28.000Z</time>
      </trkpt>
      <trkpt lat="48.3748" lon="7.29339">
        <ele>533.80004882812</ele>
        <time>2023-01-29T15:28:30.000Z</time>
      </trkpt>
      <trkpt lat="48.37483" lon="7.29331">
        <ele>534.59997558594</ele>
        <time>2023-01-29T15:28:37.000Z</time>
      </trkpt>
      <trkpt lat="48.37483" lon="7.29329">
        <ele>534.80004882812</ele>
        <time>2023-01-29T15:28:39.000Z</time>
      </trkpt>
      <trkpt lat="48.37483" lon="7.29325">
        <ele>535.40002441406</ele>
        <time>2023-01-29T15:28:43.000Z</time>
      </trkpt>
      <trkpt lat="48.37485" lon="7.29323">
        <ele>535.80004882812</ele>
        <time>2023-01-29T15:28:46.000Z</time>
      </trkpt>
      <trkpt lat="48.37487" lon="7.29322">
        <ele>535.80004882812</ele>
        <time>2023-01-29T15:28:47.000Z</time>
      </trkpt>
      <trkpt lat="48.37489" lon="7.2932">
        <ele>536</ele>
        <time>2023-01-29T15:28:49.000Z</time>
      </trkpt>
      <trkpt lat="48.37489" lon="7.29319">
        <ele>536.19995117188</ele>
        <time>2023-01-29T15:28:50.000Z</time>
      </trkpt>
      <trkpt lat="48.37492" lon="7.29315">
        <ele>536.80004882812</ele>
        <time>2023-01-29T15:28:54.000Z</time>
      </trkpt>
      <trkpt lat="48.37492" lon="7.29314">
        <ele>537</ele>
        <time>2023-01-29T15:28:55.000Z</time>
      </trkpt>
      <trkpt lat="48.37494" lon="7.29312">
        <ele>537.19995117188</ele>
        <time>2023-01-29T15:28:57.000Z</time>
      </trkpt>
      <trkpt lat="48.37497" lon="7.29308">
        <ele>538.19995117188</ele>
        <time>2023-01-29T15:29:02.000Z</time>
      </trkpt>
      <trkpt lat="48.37498" lon="7.29305">
        <ele>538.59997558594</ele>
        <time>2023-01-29T15:29:04.000Z</time>
      </trkpt>
      <trkpt lat="48.37503" lon="7.29302">
        <ele>539</ele>
        <time>2023-01-29T15:29:09.000Z</time>
      </trkpt>
      <trkpt lat="48.37503" lon="7.29302">
        <ele>539.19995117188</ele>
        <time>2023-01-29T15:29:10.000Z</time>
      </trkpt>
      <trkpt lat="48.37509" lon="7.29296">
        <ele>540.19995117188</ele>
        <time>2023-01-29T15:29:17.000Z</time>
      </trkpt>
      <trkpt lat="48.37509" lon="7.29296">
        <ele>540.59997558594</ele>
        <time>2023-01-29T15:29:19.000Z</time>
      </trkpt>
      <trkpt lat="48.37512" lon="7.29292">
        <ele>541.40002441406</ele>
        <time>2023-01-29T15:29:24.000Z</time>
      </trkpt>
      <trkpt lat="48.3752" lon="7.29287">
        <ele>542.40002441406</ele>
        <time>2023-01-29T15:29:31.000Z</time>
      </trkpt>
      <trkpt lat="48.37521" lon="7.29286">
        <ele>542.59997558594</ele>
        <time>2023-01-29T15:29:32.000Z</time>
      </trkpt>
      <trkpt lat="48.37525" lon="7.29281">
        <ele>543.59997558594</ele>
        <time>2023-01-29T15:29:38.000Z</time>
      </trkpt>
      <trkpt lat="48.37526" lon="7.29278">
        <ele>543.80004882812</ele>
        <time>2023-01-29T15:29:40.000Z</time>
      </trkpt>
      <trkpt lat="48.37533" lon="7.29275">
        <ele>544.40002441406</ele>
        <time>2023-01-29T15:29:45.000Z</time>
      </trkpt>
      <trkpt lat="48.37535" lon="7.29274">
        <ele>544.59997558594</ele>
        <time>2023-01-29T15:29:47.000Z</time>
      </trkpt>
      <trkpt lat="48.37538" lon="7.29274">
        <ele>545.19995117188</ele>
        <time>2023-01-29T15:29:51.000Z</time>
      </trkpt>
      <trkpt lat="48.37537" lon="7.29273">
        <ele>545.59997558594</ele>
        <time>2023-01-29T15:29:59.000Z</time>
      </trkpt>
      <trkpt lat="48.37537" lon="7.29274">
        <ele>545.59997558594</ele>
        <time>2023-01-29T15:30:01.000Z</time>
      </trkpt>
      <trkpt lat="48.37537" lon="7.29274">
        <ele>545.59997558594</ele>
        <time>2023-01-29T15:30:10.000Z</time>
      </trkpt>
      <trkpt lat="48.37538" lon="7.29274">
        <ele>546.19995117188</ele>
        <time>2023-01-29T15:30:23.000Z</time>
      </trkpt>
      <trkpt lat="48.37538" lon="7.29275">
        <ele>546.40002441406</ele>
        <time>2023-01-29T15:30:27.000Z</time>
      </trkpt>
      <trkpt lat="48.3754" lon="7.29273">
        <ele>546.80004882812</ele>
        <time>2023-01-29T15:30:31.000Z</time>
      </trkpt>
      <trkpt lat="48.37543" lon="7.2927">
        <ele>547</ele>
        <time>2023-01-29T15:30:34.000Z</time>
      </trkpt>
      <trkpt lat="48.37548" lon="7.29268">
        <ele>547.80004882812</ele>
        <time>2023-01-29T15:30:38.000Z</time>
      </trkpt>
      <trkpt lat="48.37551" lon="7.29274">
        <ele>548.19995117188</ele>
        <time>2023-01-29T15:30:41.000Z</time>
      </trkpt>
      <trkpt lat="48.3755" lon="7.29274">
        <ele>548.80004882812</ele>
        <time>2023-01-29T15:30:44.000Z</time>
      </trkpt>
      <trkpt lat="48.37551" lon="7.29274">
        <ele>549</ele>
        <time>2023-01-29T15:30:45.000Z</time>
      </trkpt>
      <trkpt lat="48.37553" lon="7.29278">
        <ele>550.19995117188</ele>
        <time>2023-01-29T15:30:50.000Z</time>
      </trkpt>
      <trkpt lat="48.37555" lon="7.2928">
        <ele>550.80004882812</ele>
        <time>2023-01-29T15:30:53.000Z</time>
      </trkpt>
      <trkpt lat="48.37556" lon="7.29281">
        <ele>551.40002441406</ele>
        <time>2023-01-29T15:30:56.000Z</time>
      </trkpt>
      <trkpt lat="48.37558" lon="7.29283">
        <ele>552.19995117188</ele>
        <time>2023-01-29T15:30:58.000Z</time>
      </trkpt>
      <trkpt lat="48.37559" lon="7.29283">
        <ele>552.40002441406</ele>
        <time>2023-01-29T15:30:59.000Z</time>
      </trkpt>
      <trkpt lat="48.37558" lon="7.29284">
        <ele>552.59997558594</ele>
        <time>2023-01-29T15:31:00.000Z</time>
      </trkpt>
      <trkpt lat="48.37558" lon="7.29284">
        <ele>553</ele>
        <time>2023-01-29T15:31:03.000Z</time>
      </trkpt>
      <trkpt lat="48.37559" lon="7.29286">
        <ele>553.59997558594</ele>
        <time>2023-01-29T15:31:05.000Z</time>
      </trkpt>
      <trkpt lat="48.3756" lon="7.29287">
        <ele>553.59997558594</ele>
        <time>2023-01-29T15:31:06.000Z</time>
      </trkpt>
      <trkpt lat="48.37562" lon="7.29292">
        <ele>554.59997558594</ele>
        <time>2023-01-29T15:31:11.000Z</time>
      </trkpt>
      <trkpt lat="48.37559" lon="7.29299">
        <ele>555.80004882812</ele>
        <time>2023-01-29T15:31:18.000Z</time>
      </trkpt>
      <trkpt lat="48.37561" lon="7.29304">
        <ele>557</ele>
        <time>2023-01-29T15:31:24.000Z</time>
      </trkpt>
      <trkpt lat="48.37561" lon="7.29305">
        <ele>557</ele>
        <time>2023-01-29T15:31:25.000Z</time>
      </trkpt>
      <trkpt lat="48.37562" lon="7.29305">
        <ele>557.80004882812</ele>
        <time>2023-01-29T15:31:32.000Z</time>
      </trkpt>
      <trkpt lat="48.37563" lon="7.29305">
        <ele>557.80004882812</ele>
        <time>2023-01-29T15:31:43.000Z</time>
      </trkpt>
      <trkpt lat="48.37563" lon="7.29306">
        <ele>557.59997558594</ele>
        <time>2023-01-29T15:31:51.000Z</time>
      </trkpt>
      <trkpt lat="48.37565" lon="7.29306">
        <ele>558</ele>
        <time>2023-01-29T15:32:01.000Z</time>
      </trkpt>
      <trkpt lat="48.37565" lon="7.29306">
        <ele>558.59997558594</ele>
        <time>2023-01-29T15:32:05.000Z</time>
      </trkpt>
      <trkpt lat="48.37566" lon="7.29306">
        <ele>559.19995117188</ele>
        <time>2023-01-29T15:32:08.000Z</time>
      </trkpt>
      <trkpt lat="48.37567" lon="7.29304">
        <ele>560.19995117188</ele>
        <time>2023-01-29T15:32:15.000Z</time>
      </trkpt>
      <trkpt lat="48.37571" lon="7.293">
        <ele>561.40002441406</ele>
        <time>2023-01-29T15:32:21.000Z</time>
      </trkpt>
      <trkpt lat="48.37573" lon="7.293">
        <ele>561.59997558594</ele>
        <time>2023-01-29T15:32:22.000Z</time>
      </trkpt>
      <trkpt lat="48.37583" lon="7.29299">
        <ele>562.59997558594</ele>
        <time>2023-01-29T15:32:27.000Z</time>
      </trkpt>
      <trkpt lat="48.37585" lon="7.29298">
        <ele>563</ele>
        <time>2023-01-29T15:32:29.000Z</time>
      </trkpt>
      <trkpt lat="48.37586" lon="7.29298">
        <ele>563.19995117188</ele>
        <time>2023-01-29T15:32:30.000Z</time>
      </trkpt>
      <trkpt lat="48.37587" lon="7.29297">
        <ele>563.59997558594</ele>
        <time>2023-01-29T15:32:32.000Z</time>
      </trkpt>
      <trkpt lat="48.37588" lon="7.29294">
        <ele>564.19995117188</ele>
        <time>2023-01-29T15:32:35.000Z</time>
      </trkpt>
      <trkpt lat="48.37592" lon="7.29296">
        <ele>564.80004882812</ele>
        <time>2023-01-29T15:32:39.000Z</time>
      </trkpt>
      <trkpt lat="48.37594" lon="7.29298">
        <ele>564.80004882812</ele>
        <time>2023-01-29T15:32:42.000Z</time>
      </trkpt>
      <trkpt lat="48.37598" lon="7.293">
        <ele>564.80004882812</ele>
        <time>2023-01-29T15:32:50.000Z</time>
      </trkpt>
      <trkpt lat="48.376" lon="7.293">
        <ele>565</ele>
        <time>2023-01-29T15:32:56.000Z</time>
      </trkpt>
      <trkpt lat="48.37605" lon="7.29303">
        <ele>565.80004882812</ele>
        <time>2023-01-29T15:33:02.000Z</time>
      </trkpt>
      <trkpt lat="48.37603" lon="7.29305">
        <ele>566.19995117188</ele>
        <time>2023-01-29T15:33:09.000Z</time>
      </trkpt>
      <trkpt lat="48.37603" lon="7.29305">
        <ele>566.19995117188</ele>
        <time>2023-01-29T15:33:18.000Z</time>
      </trkpt>
      <trkpt lat="48.37603" lon="7.29305">
        <ele>566.80004882812</ele>
        <time>2023-01-29T15:33:30.000Z</time>
      </trkpt>
      <trkpt lat="48.37603" lon="7.29302">
        <ele>567.80004882812</ele>
        <time>2023-01-29T15:33:36.000Z</time>
      </trkpt>
      <trkpt lat="48.37603" lon="7.29294">
        <ele>569</ele>
        <time>2023-01-29T15:33:43.000Z</time>
      </trkpt>
      <trkpt lat="48.37606" lon="7.29291">
        <ele>570.19995117188</ele>
        <time>2023-01-29T15:33:49.000Z</time>
      </trkpt>
      <trkpt lat="48.37608" lon="7.29288">
        <ele>570.59997558594</ele>
        <time>2023-01-29T15:33:54.000Z</time>
      </trkpt>
      <trkpt lat="48.37614" lon="7.29285">
        <ele>571.19995117188</ele>
        <time>2023-01-29T15:34:02.000Z</time>
      </trkpt>
      <trkpt lat="48.37616" lon="7.29285">
        <ele>571.40002441406</ele>
        <time>2023-01-29T15:34:05.000Z</time>
      </trkpt>
      <trkpt lat="48.37618" lon="7.29285">
        <ele>572.19995117188</ele>
        <time>2023-01-29T15:34:11.000Z</time>
      </trkpt>
      <trkpt lat="48.37622" lon="7.29284">
        <ele>573.19995117188</ele>
        <time>2023-01-29T15:34:23.000Z</time>
      </trkpt>
      <trkpt lat="48.37625" lon="7.29283">
        <ele>574.19995117188</ele>
        <time>2023-01-29T15:34:33.000Z</time>
      </trkpt>
      <trkpt lat="48.37626" lon="7.29282">
        <ele>574.59997558594</ele>
        <time>2023-01-29T15:34:37.000Z</time>
      </trkpt>
      <trkpt lat="48.37629" lon="7.2928">
        <ele>574.80004882812</ele>
        <time>2023-01-29T15:34:42.000Z</time>
      </trkpt>
      <trkpt lat="48.37636" lon="7.2928">
        <ele>575.40002441406</ele>
        <time>2023-01-29T15:34:45.000Z</time>
      </trkpt>
      <trkpt lat="48.37638" lon="7.29279">
        <ele>575.59997558594</ele>
        <time>2023-01-29T15:34:47.000Z</time>
      </trkpt>
      <trkpt lat="48.37643" lon="7.29276">
        <ele>576.40002441406</ele>
        <time>2023-01-29T15:34:51.000Z</time>
      </trkpt>
      <trkpt lat="48.37646" lon="7.29277">
        <ele>577</ele>
        <time>2023-01-29T15:34:54.000Z</time>
      </trkpt>
      <trkpt lat="48.37647" lon="7.29276">
        <ele>577.40002441406</ele>
        <time>2023-01-29T15:34:56.000Z</time>
      </trkpt>
      <trkpt lat="48.37651" lon="7.29276">
        <ele>578.40002441406</ele>
        <time>2023-01-29T15:35:01.000Z</time>
      </trkpt>
      <trkpt lat="48.37655" lon="7.29275">
        <ele>579.59997558594</ele>
        <time>2023-01-29T15:35:06.000Z</time>
      </trkpt>
      <trkpt lat="48.37658" lon="7.29276">
        <ele>580</ele>
        <time>2023-01-29T15:35:09.000Z</time>
      </trkpt>
      <trkpt lat="48.37659" lon="7.29276">
        <ele>580.59997558594</ele>
        <time>2023-01-29T15:35:12.000Z</time>
      </trkpt>
      <trkpt lat="48.37661" lon="7.29279">
        <ele>581.40002441406</ele>
        <time>2023-01-29T15:35:15.000Z</time>
      </trkpt>
      <trkpt lat="48.37661" lon="7.2928">
        <ele>581.80004882812</ele>
        <time>2023-01-29T15:35:17.000Z</time>
      </trkpt>
      <trkpt lat="48.37664" lon="7.29282">
        <ele>582.59997558594</ele>
        <time>2023-01-29T15:35:20.000Z</time>
      </trkpt>
      <trkpt lat="48.37664" lon="7.29283">
        <ele>582.80004882812</ele>
        <time>2023-01-29T15:35:21.000Z</time>
      </trkpt>
      <trkpt lat="48.37662" lon="7.29281">
        <ele>583</ele>
        <time>2023-01-29T15:35:25.000Z</time>
      </trkpt>
      <trkpt lat="48.37661" lon="7.2928">
        <ele>583.19995117188</ele>
        <time>2023-01-29T15:35:31.000Z</time>
      </trkpt>
      <trkpt lat="48.37661" lon="7.2928">
        <ele>583.19995117188</ele>
        <time>2023-01-29T15:35:32.000Z</time>
      </trkpt>
      <trkpt lat="48.37661" lon="7.2928">
        <ele>583.19995117188</ele>
        <time>2023-01-29T15:35:47.000Z</time>
      </trkpt>
      <trkpt lat="48.37661" lon="7.2928">
        <ele>583</ele>
        <time>2023-01-29T15:35:50.000Z</time>
      </trkpt>
      <trkpt lat="48.37661" lon="7.2928">
        <ele>583</ele>
        <time>2023-01-29T15:35:51.000Z</time>
      </trkpt>
      <trkpt lat="48.37662" lon="7.2928">
        <ele>583</ele>
        <time>2023-01-29T15:35:54.000Z</time>
      </trkpt>
      <trkpt lat="48.3766" lon="7.2928">
        <ele>583</ele>
        <time>2023-01-29T15:36:15.000Z</time>
      </trkpt>
      <trkpt lat="48.3766" lon="7.2928">
        <ele>583</ele>
        <time>2023-01-29T15:36:22.000Z</time>
      </trkpt>
      <trkpt lat="48.37659" lon="7.2928">
        <ele>583</ele>
        <time>2023-01-29T15:36:24.000Z</time>
      </trkpt>
      <trkpt lat="48.37659" lon="7.2928">
        <ele>583.19995117188</ele>
        <time>2023-01-29T15:36:28.000Z</time>
      </trkpt>
      <trkpt lat="48.37663" lon="7.29275">
        <ele>583.80004882812</ele>
        <time>2023-01-29T15:36:33.000Z</time>
      </trkpt>
      <trkpt lat="48.37671" lon="7.29267">
        <ele>584.80004882812</ele>
        <time>2023-01-29T15:36:40.000Z</time>
      </trkpt>
      <trkpt lat="48.37672" lon="7.29266">
        <ele>585</ele>
        <time>2023-01-29T15:36:41.000Z</time>
      </trkpt>
      <trkpt lat="48.37676" lon="7.29263">
        <ele>585.40002441406</ele>
        <time>2023-01-29T15:36:45.000Z</time>
      </trkpt>
      <trkpt lat="48.37678" lon="7.2926">
        <ele>586</ele>
        <time>2023-01-29T15:36:48.000Z</time>
      </trkpt>
      <trkpt lat="48.37681" lon="7.29256">
        <ele>586.80004882812</ele>
        <time>2023-01-29T15:36:54.000Z</time>
      </trkpt>
      <trkpt lat="48.37683" lon="7.29255">
        <ele>587</ele>
        <time>2023-01-29T15:36:55.000Z</time>
      </trkpt>
      <trkpt lat="48.37686" lon="7.29251">
        <ele>587.80004882812</ele>
        <time>2023-01-29T15:36:59.000Z</time>
      </trkpt>
      <trkpt lat="48.37687" lon="7.29249">
        <ele>588</ele>
        <time>2023-01-29T15:37:01.000Z</time>
      </trkpt>
      <trkpt lat="48.37688" lon="7.29248">
        <ele>588.19995117188</ele>
        <time>2023-01-29T15:37:02.000Z</time>
      </trkpt>
      <trkpt lat="48.37689" lon="7.29248">
        <ele>588.19995117188</ele>
        <time>2023-01-29T15:37:03.000Z</time>
      </trkpt>
      <trkpt lat="48.37693" lon="7.29243">
        <ele>589.19995117188</ele>
        <time>2023-01-29T15:37:09.000Z</time>
      </trkpt>
      <trkpt lat="48.37697" lon="7.29239">
        <ele>590.19995117188</ele>
        <time>2023-01-29T15:37:15.000Z</time>
      </trkpt>
      <trkpt lat="48.37699" lon="7.29238">
        <ele>591</ele>
        <time>2023-01-29T15:37:20.000Z</time>
      </trkpt>
      <trkpt lat="48.377" lon="7.29238">
        <ele>591.19995117188</ele>
        <time>2023-01-29T15:37:22.000Z</time>
      </trkpt>
      <trkpt lat="48.37701" lon="7.29236">
        <ele>591.59997558594</ele>
        <time>2023-01-29T15:37:26.000Z</time>
      </trkpt>
      <trkpt lat="48.37704" lon="7.29238">
        <ele>591.59997558594</ele>
        <time>2023-01-29T15:37:30.000Z</time>
      </trkpt>
      <trkpt lat="48.37703" lon="7.29238">
        <ele>591.59997558594</ele>
        <time>2023-01-29T15:37:34.000Z</time>
      </trkpt>
      <trkpt lat="48.37703" lon="7.29237">
        <ele>591.59997558594</ele>
        <time>2023-01-29T15:37:38.000Z</time>
      </trkpt>
      <trkpt lat="48.37703" lon="7.29237">
        <ele>591.59997558594</ele>
        <time>2023-01-29T15:37:42.000Z</time>
      </trkpt>
      <trkpt lat="48.37703" lon="7.29237">
        <ele>591.40002441406</ele>
        <time>2023-01-29T15:37:49.000Z</time>
      </trkpt>
      <trkpt lat="48.37704" lon="7.29235">
        <ele>591.40002441406</ele>
        <time>2023-01-29T15:38:01.000Z</time>
      </trkpt>
      <trkpt lat="48.37706" lon="7.29232">
        <ele>591.80004882812</ele>
        <time>2023-01-29T15:38:19.000Z</time>
      </trkpt>
      <trkpt lat="48.3771" lon="7.29229">
        <ele>592.40002441406</ele>
        <time>2023-01-29T15:38:24.000Z</time>
      </trkpt>
      <trkpt lat="48.37712" lon="7.29227">
        <ele>593</ele>
        <time>2023-01-29T15:38:27.000Z</time>
      </trkpt>
      <trkpt lat="48.37714" lon="7.29225">
        <ele>593.40002441406</ele>
        <time>2023-01-29T15:38:30.000Z</time>
      </trkpt>
      <trkpt lat="48.37717" lon="7.2922">
        <ele>594.40002441406</ele>
        <time>2023-01-29T15:38:35.000Z</time>
      </trkpt>
      <trkpt lat="48.37718" lon="7.2922">
        <ele>594.40002441406</ele>
        <time>2023-01-29T15:38:36.000Z</time>
      </trkpt>
      <trkpt lat="48.37722" lon="7.29215">
        <ele>595.40002441406</ele>
        <time>2023-01-29T15:38:42.000Z</time>
      </trkpt>
      <trkpt lat="48.37727" lon="7.2921">
        <ele>596.59997558594</ele>
        <time>2023-01-29T15:38:49.000Z</time>
      </trkpt>
      <trkpt lat="48.37728" lon="7.29209">
        <ele>596.80004882812</ele>
        <time>2023-01-29T15:38:50.000Z</time>
      </trkpt>
      <trkpt lat="48.37732" lon="7.29205">
        <ele>597.59997558594</ele>
        <time>2023-01-29T15:38:56.000Z</time>
      </trkpt>
      <trkpt lat="48.37732" lon="7.29206">
        <ele>598</ele>
        <time>2023-01-29T15:38:57.000Z</time>
      </trkpt>
      <trkpt lat="48.37734" lon="7.29208">
        <ele>598.40002441406</ele>
        <time>2023-01-29T15:39:07.000Z</time>
      </trkpt>
      <trkpt lat="48.37734" lon="7.29207">
        <ele>598.40002441406</ele>
        <time>2023-01-29T15:39:16.000Z</time>
      </trkpt>
      <trkpt lat="48.37734" lon="7.29207">
        <ele>598.59997558594</ele>
        <time>2023-01-29T15:39:19.000Z</time>
      </trkpt>
      <trkpt lat="48.37734" lon="7.29207">
        <ele>598.80004882812</ele>
        <time>2023-01-29T15:39:22.000Z</time>
      </trkpt>
      <trkpt lat="48.37736" lon="7.29201">
        <ele>599.80004882812</ele>
        <time>2023-01-29T15:39:27.000Z</time>
      </trkpt>
      <trkpt lat="48.37737" lon="7.29199">
        <ele>600</ele>
        <time>2023-01-29T15:39:28.000Z</time>
      </trkpt>
      <trkpt lat="48.3774" lon="7.29192">
        <ele>601</ele>
        <time>2023-01-29T15:39:33.000Z</time>
      </trkpt>
      <trkpt lat="48.37742" lon="7.2919">
        <ele>601.59997558594</ele>
        <time>2023-01-29T15:39:36.000Z</time>
      </trkpt>
      <trkpt lat="48.37743" lon="7.29187">
        <ele>602.19995117188</ele>
        <time>2023-01-29T15:39:38.000Z</time>
      </trkpt>
      <trkpt lat="48.37745" lon="7.29186">
        <ele>602.40002441406</ele>
        <time>2023-01-29T15:39:40.000Z</time>
      </trkpt>
      <trkpt lat="48.37748" lon="7.29184">
        <ele>603.19995117188</ele>
        <time>2023-01-29T15:39:43.000Z</time>
      </trkpt>
      <trkpt lat="48.37749" lon="7.29184">
        <ele>603.40002441406</ele>
        <time>2023-01-29T15:39:44.000Z</time>
      </trkpt>
      <trkpt lat="48.37752" lon="7.29182">
        <ele>604.40002441406</ele>
        <time>2023-01-29T15:39:48.000Z</time>
      </trkpt>
      <trkpt lat="48.37754" lon="7.29182">
        <ele>604.59997558594</ele>
        <time>2023-01-29T15:39:50.000Z</time>
      </trkpt>
      <trkpt lat="48.37752" lon="7.29182">
        <ele>604.80004882812</ele>
        <time>2023-01-29T15:39:55.000Z</time>
      </trkpt>
      <trkpt lat="48.37751" lon="7.29185">
        <ele>605</ele>
        <time>2023-01-29T15:40:02.000Z</time>
      </trkpt>
      <trkpt lat="48.37751" lon="7.29185">
        <ele>605</ele>
        <time>2023-01-29T15:40:07.000Z</time>
      </trkpt>
      <trkpt lat="48.3775" lon="7.29185">
        <ele>605</ele>
        <time>2023-01-29T15:40:21.000Z</time>
      </trkpt>
      <trkpt lat="48.37754" lon="7.29187">
        <ele>605.40002441406</ele>
        <time>2023-01-29T15:40:25.000Z</time>
      </trkpt>
      <trkpt lat="48.37755" lon="7.29187">
        <ele>605.40002441406</ele>
        <time>2023-01-29T15:40:26.000Z</time>
      </trkpt>
      <trkpt lat="48.37763" lon="7.2919">
        <ele>606.40002441406</ele>
        <time>2023-01-29T15:40:32.000Z</time>
      </trkpt>
      <trkpt lat="48.37765" lon="7.29191">
        <ele>606.80004882812</ele>
        <time>2023-01-29T15:40:35.000Z</time>
      </trkpt>
      <trkpt lat="48.37767" lon="7.29192">
        <ele>607.59997558594</ele>
        <time>2023-01-29T15:40:39.000Z</time>
      </trkpt>
      <trkpt lat="48.37769" lon="7.29194">
        <ele>607.80004882812</ele>
        <time>2023-01-29T15:40:41.000Z</time>
      </trkpt>
      <trkpt lat="48.37775" lon="7.29197">
        <ele>608.59997558594</ele>
        <time>2023-01-29T15:40:45.000Z</time>
      </trkpt>
      <trkpt lat="48.37777" lon="7.29199">
        <ele>608.80004882812</ele>
        <time>2023-01-29T15:40:47.000Z</time>
      </trkpt>
      <trkpt lat="48.3778" lon="7.29202">
        <ele>609.19995117188</ele>
        <time>2023-01-29T15:40:51.000Z</time>
      </trkpt>
      <trkpt lat="48.37782" lon="7.29203">
        <ele>609.59997558594</ele>
        <time>2023-01-29T15:40:53.000Z</time>
      </trkpt>
      <trkpt lat="48.37783" lon="7.29204">
        <ele>610</ele>
        <time>2023-01-29T15:40:54.000Z</time>
      </trkpt>
      <trkpt lat="48.37783" lon="7.29205">
        <ele>610.19995117188</ele>
        <time>2023-01-29T15:40:56.000Z</time>
      </trkpt>
      <trkpt lat="48.37782" lon="7.29205">
        <ele>610.40002441406</ele>
        <time>2023-01-29T15:40:58.000Z</time>
      </trkpt>
      <trkpt lat="48.37783" lon="7.29206">
        <ele>611</ele>
        <time>2023-01-29T15:41:00.000Z</time>
      </trkpt>
      <trkpt lat="48.37785" lon="7.29209">
        <ele>611.40002441406</ele>
        <time>2023-01-29T15:41:03.000Z</time>
      </trkpt>
      <trkpt lat="48.3779" lon="7.29215">
        <ele>612</ele>
        <time>2023-01-29T15:41:09.000Z</time>
      </trkpt>
      <trkpt lat="48.37793" lon="7.29218">
        <ele>612.40002441406</ele>
        <time>2023-01-29T15:41:14.000Z</time>
      </trkpt>
      <trkpt lat="48.37793" lon="7.29219">
        <ele>612.80004882812</ele>
        <time>2023-01-29T15:41:16.000Z</time>
      </trkpt>
      <trkpt lat="48.37795" lon="7.29219">
        <ele>613</ele>
        <time>2023-01-29T15:41:18.000Z</time>
      </trkpt>
      <trkpt lat="48.37803" lon="7.29227">
        <ele>614.19995117188</ele>
        <time>2023-01-29T15:41:26.000Z</time>
      </trkpt>
      <trkpt lat="48.37807" lon="7.2923">
        <ele>614.80004882812</ele>
        <time>2023-01-29T15:41:30.000Z</time>
      </trkpt>
      <trkpt lat="48.3781" lon="7.29233">
        <ele>615.19995117188</ele>
        <time>2023-01-29T15:41:34.000Z</time>
      </trkpt>
      <trkpt lat="48.37813" lon="7.29237">
        <ele>616.40002441406</ele>
        <time>2023-01-29T15:41:42.000Z</time>
      </trkpt>
      <trkpt lat="48.37813" lon="7.29237">
        <ele>616.59997558594</ele>
        <time>2023-01-29T15:41:47.000Z</time>
      </trkpt>
      <trkpt lat="48.37812" lon="7.29236">
        <ele>617</ele>
        <time>2023-01-29T15:41:54.000Z</time>
      </trkpt>
      <trkpt lat="48.37812" lon="7.29236">
        <ele>616.80004882812</ele>
        <time>2023-01-29T15:42:00.000Z</time>
      </trkpt>
      <trkpt lat="48.37812" lon="7.29236">
        <ele>616.80004882812</ele>
        <time>2023-01-29T15:42:06.000Z</time>
      </trkpt>
      <trkpt lat="48.37812" lon="7.29236">
        <ele>616.80004882812</ele>
        <time>2023-01-29T15:42:08.000Z</time>
      </trkpt>
      <trkpt lat="48.3781" lon="7.29235">
        <ele>616.59997558594</ele>
        <time>2023-01-29T15:42:13.000Z</time>
      </trkpt>
      <trkpt lat="48.3781" lon="7.29235">
        <ele>616.40002441406</ele>
        <time>2023-01-29T15:42:14.000Z</time>
      </trkpt>
      <trkpt lat="48.3781" lon="7.29235">
        <ele>616.40002441406</ele>
        <time>2023-01-29T15:42:18.000Z</time>
      </trkpt>
      <trkpt lat="48.3781" lon="7.29235">
        <ele>616.40002441406</ele>
        <time>2023-01-29T15:42:27.000Z</time>
      </trkpt>
      <trkpt lat="48.3781" lon="7.29235">
        <ele>616.19995117188</ele>
        <time>2023-01-29T15:42:30.000Z</time>
      </trkpt>
      <trkpt lat="48.37814" lon="7.29234">
        <ele>616.19995117188</ele>
        <time>2023-01-29T15:42:43.000Z</time>
      </trkpt>
      <trkpt lat="48.37814" lon="7.29234">
        <ele>616.19995117188</ele>
        <time>2023-01-29T15:42:46.000Z</time>
      </trkpt>
      <trkpt lat="48.37812" lon="7.29233">
        <ele>616.19995117188</ele>
        <time>2023-01-29T15:43:05.000Z</time>
      </trkpt>
      <trkpt lat="48.3781" lon="7.29235">
        <ele>615.80004882812</ele>
        <time>2023-01-29T15:43:18.000Z</time>
      </trkpt>
      <trkpt lat="48.3781" lon="7.29235">
        <ele>615.80004882812</ele>
        <time>2023-01-29T15:43:21.000Z</time>
      </trkpt>
      <trkpt lat="48.37812" lon="7.29236">
        <ele>615.80004882812</ele>
        <time>2023-01-29T15:43:32.000Z</time>
      </trkpt>
      <trkpt lat="48.37813" lon="7.29236">
        <ele>615.80004882812</ele>
        <time>2023-01-29T15:43:34.000Z</time>
      </trkpt>
      <trkpt lat="48.37813" lon="7.29235">
        <ele>615.80004882812</ele>
        <time>2023-01-29T15:43:39.000Z</time>
      </trkpt>
      <trkpt lat="48.37814" lon="7.29236">
        <ele>615.59997558594</ele>
        <time>2023-01-29T15:43:45.000Z</time>
      </trkpt>
      <trkpt lat="48.37814" lon="7.29236">
        <ele>615.59997558594</ele>
        <time>2023-01-29T15:43:46.000Z</time>
      </trkpt>
      <trkpt lat="48.37816" lon="7.29237">
        <ele>615.59997558594</ele>
        <time>2023-01-29T15:43:49.000Z</time>
      </trkpt>
      <trkpt lat="48.37816" lon="7.29237">
        <ele>615.59997558594</ele>
        <time>2023-01-29T15:43:50.000Z</time>
      </trkpt>
      <trkpt lat="48.37816" lon="7.29237">
        <ele>616</ele>
        <time>2023-01-29T15:43:59.000Z</time>
      </trkpt>
      <trkpt lat="48.37815" lon="7.29237">
        <ele>616</ele>
        <time>2023-01-29T15:44:06.000Z</time>
      </trkpt>
      <trkpt lat="48.37815" lon="7.29237">
        <ele>616</ele>
        <time>2023-01-29T15:44:09.000Z</time>
      </trkpt>
      <trkpt lat="48.37811" lon="7.29236">
        <ele>616.19995117188</ele>
        <time>2023-01-29T15:44:34.000Z</time>
      </trkpt>
      <trkpt lat="48.37811" lon="7.29236">
        <ele>616</ele>
        <time>2023-01-29T15:44:38.000Z</time>
      </trkpt>
      <trkpt lat="48.37811" lon="7.29236">
        <ele>616</ele>
        <time>2023-01-29T15:44:41.000Z</time>
      </trkpt>
      <trkpt lat="48.37811" lon="7.29236">
        <ele>616.19995117188</ele>
        <time>2023-01-29T15:44:46.000Z</time>
      </trkpt>
      <trkpt lat="48.37817" lon="7.2924">
        <ele>617.40002441406</ele>
        <time>2023-01-29T15:45:02.000Z</time>
      </trkpt>
      <trkpt lat="48.37819" lon="7.29241">
        <ele>617.59997558594</ele>
        <time>2023-01-29T15:45:03.000Z</time>
      </trkpt>
      <trkpt lat="48.37823" lon="7.29241">
        <ele>618.59997558594</ele>
        <time>2023-01-29T15:45:08.000Z</time>
      </trkpt>
      <trkpt lat="48.37826" lon="7.2924">
        <ele>619.59997558594</ele>
        <time>2023-01-29T15:45:14.000Z</time>
      </trkpt>
      <trkpt lat="48.37827" lon="7.29241">
        <ele>619.80004882812</ele>
        <time>2023-01-29T15:45:15.000Z</time>
      </trkpt>
      <trkpt lat="48.37831" lon="7.29243">
        <ele>620.19995117188</ele>
        <time>2023-01-29T15:45:18.000Z</time>
      </trkpt>
      <trkpt lat="48.37836" lon="7.29244">
        <ele>620.59997558594</ele>
        <time>2023-01-29T15:45:22.000Z</time>
      </trkpt>
      <trkpt lat="48.37839" lon="7.29245">
        <ele>620.80004882812</ele>
        <time>2023-01-29T15:45:24.000Z</time>
      </trkpt>
      <trkpt lat="48.37846" lon="7.29246">
        <ele>621.59997558594</ele>
        <time>2023-01-29T15:45:29.000Z</time>
      </trkpt>
      <trkpt lat="48.37848" lon="7.29246">
        <ele>621.80004882812</ele>
        <time>2023-01-29T15:45:31.000Z</time>
      </trkpt>
      <trkpt lat="48.37851" lon="7.29246">
        <ele>622.19995117188</ele>
        <time>2023-01-29T15:45:35.000Z</time>
      </trkpt>
      <trkpt lat="48.3785" lon="7.29246">
        <ele>622.19995117188</ele>
        <time>2023-01-29T15:45:38.000Z</time>
      </trkpt>
      <trkpt lat="48.37851" lon="7.29246">
        <ele>622.19995117188</ele>
        <time>2023-01-29T15:45:41.000Z</time>
      </trkpt>
      <trkpt lat="48.3785" lon="7.29246">
        <ele>622.19995117188</ele>
        <time>2023-01-29T15:45:44.000Z</time>
      </trkpt>
      <trkpt lat="48.37849" lon="7.29247">
        <ele>622.19995117188</ele>
        <time>2023-01-29T15:45:45.000Z</time>
      </trkpt>
      <trkpt lat="48.37851" lon="7.29247">
        <ele>622.59997558594</ele>
        <time>2023-01-29T15:45:55.000Z</time>
      </trkpt>
      <trkpt lat="48.37856" lon="7.29249">
        <ele>622.80004882812</ele>
        <time>2023-01-29T15:45:58.000Z</time>
      </trkpt>
      <trkpt lat="48.37864" lon="7.29252">
        <ele>623.59997558594</ele>
        <time>2023-01-29T15:46:03.000Z</time>
      </trkpt>
      <trkpt lat="48.37869" lon="7.29253">
        <ele>624</ele>
        <time>2023-01-29T15:46:07.000Z</time>
      </trkpt>
      <trkpt lat="48.37871" lon="7.29253">
        <ele>624.40002441406</ele>
        <time>2023-01-29T15:46:10.000Z</time>
      </trkpt>
      <trkpt lat="48.37876" lon="7.29252">
        <ele>625</ele>
        <time>2023-01-29T15:46:15.000Z</time>
      </trkpt>
      <trkpt lat="48.37878" lon="7.2925">
        <ele>625.80004882812</ele>
        <time>2023-01-29T15:46:19.000Z</time>
      </trkpt>
      <trkpt lat="48.3788" lon="7.2925">
        <ele>626.19995117188</ele>
        <time>2023-01-29T15:46:21.000Z</time>
      </trkpt>
      <trkpt lat="48.37886" lon="7.29252">
        <ele>627</ele>
        <time>2023-01-29T15:46:26.000Z</time>
      </trkpt>
      <trkpt lat="48.37888" lon="7.29252">
        <ele>627.19995117188</ele>
        <time>2023-01-29T15:46:27.000Z</time>
      </trkpt>
      <trkpt lat="48.37894" lon="7.29253">
        <ele>628</ele>
        <time>2023-01-29T15:46:32.000Z</time>
      </trkpt>
      <trkpt lat="48.37895" lon="7.29253">
        <ele>628.40002441406</ele>
        <time>2023-01-29T15:46:34.000Z</time>
      </trkpt>
      <trkpt lat="48.37896" lon="7.29254">
        <ele>628.40002441406</ele>
        <time>2023-01-29T15:46:35.000Z</time>
      </trkpt>
      <trkpt lat="48.37902" lon="7.29252">
        <ele>629</ele>
        <time>2023-01-29T15:46:39.000Z</time>
      </trkpt>
      <trkpt lat="48.37902" lon="7.29249">
        <ele>629.40002441406</ele>
        <time>2023-01-29T15:46:41.000Z</time>
      </trkpt>
      <trkpt lat="48.37908" lon="7.29249">
        <ele>630.19995117188</ele>
        <time>2023-01-29T15:46:46.000Z</time>
      </trkpt>
      <trkpt lat="48.3791" lon="7.29249">
        <ele>630.40002441406</ele>
        <time>2023-01-29T15:46:48.000Z</time>
      </trkpt>
      <trkpt lat="48.37915" lon="7.29248">
        <ele>631.19995117188</ele>
        <time>2023-01-29T15:46:54.000Z</time>
      </trkpt>
      <trkpt lat="48.37918" lon="7.29248">
        <ele>631.59997558594</ele>
        <time>2023-01-29T15:46:56.000Z</time>
      </trkpt>
      <trkpt lat="48.37918" lon="7.29249">
        <ele>632.19995117188</ele>
        <time>2023-01-29T15:47:01.000Z</time>
      </trkpt>
      <trkpt lat="48.37918" lon="7.29247">
        <ele>632.19995117188</ele>
        <time>2023-01-29T15:47:06.000Z</time>
      </trkpt>
      <trkpt lat="48.37916" lon="7.29249">
        <ele>632.19995117188</ele>
        <time>2023-01-29T15:47:14.000Z</time>
      </trkpt>
      <trkpt lat="48.37914" lon="7.2925">
        <ele>632.19995117188</ele>
        <time>2023-01-29T15:47:21.000Z</time>
      </trkpt>
      <trkpt lat="48.37912" lon="7.29249">
        <ele>632.19995117188</ele>
        <time>2023-01-29T15:47:29.000Z</time>
      </trkpt>
      <trkpt lat="48.37912" lon="7.29249">
        <ele>632.59997558594</ele>
        <time>2023-01-29T15:47:43.000Z</time>
      </trkpt>
      <trkpt lat="48.37912" lon="7.29249">
        <ele>632.59997558594</ele>
        <time>2023-01-29T15:47:47.000Z</time>
      </trkpt>
      <trkpt lat="48.37912" lon="7.29248">
        <ele>632.59997558594</ele>
        <time>2023-01-29T15:47:49.000Z</time>
      </trkpt>
      <trkpt lat="48.37917" lon="7.29247">
        <ele>633.40002441406</ele>
        <time>2023-01-29T15:47:58.000Z</time>
      </trkpt>
      <trkpt lat="48.37918" lon="7.29247">
        <ele>633.59997558594</ele>
        <time>2023-01-29T15:47:59.000Z</time>
      </trkpt>
      <trkpt lat="48.37926" lon="7.29243">
        <ele>634</ele>
        <time>2023-01-29T15:48:05.000Z</time>
      </trkpt>
      <trkpt lat="48.37933" lon="7.29244">
        <ele>634.80004882812</ele>
        <time>2023-01-29T15:48:10.000Z</time>
      </trkpt>
      <trkpt lat="48.37937" lon="7.29244">
        <ele>635.19995117188</ele>
        <time>2023-01-29T15:48:13.000Z</time>
      </trkpt>
      <trkpt lat="48.37939" lon="7.29244">
        <ele>635.40002441406</ele>
        <time>2023-01-29T15:48:15.000Z</time>
      </trkpt>
      <trkpt lat="48.3794" lon="7.29244">
        <ele>635.40002441406</ele>
        <time>2023-01-29T15:48:16.000Z</time>
      </trkpt>
      <trkpt lat="48.37942" lon="7.29244">
        <ele>635.80004882812</ele>
        <time>2023-01-29T15:48:17.000Z</time>
      </trkpt>
      <trkpt lat="48.37948" lon="7.29244">
        <ele>636.40002441406</ele>
        <time>2023-01-29T15:48:23.000Z</time>
      </trkpt>
      <trkpt lat="48.37949" lon="7.29243">
        <ele>636.80004882812</ele>
        <time>2023-01-29T15:48:26.000Z</time>
      </trkpt>
      <trkpt lat="48.37949" lon="7.29243">
        <ele>636.80004882812</ele>
        <time>2023-01-29T15:48:27.000Z</time>
      </trkpt>
      <trkpt lat="48.37948" lon="7.29242">
        <ele>636.80004882812</ele>
        <time>2023-01-29T15:48:30.000Z</time>
      </trkpt>
      <trkpt lat="48.37945" lon="7.29239">
        <ele>637.19995117188</ele>
        <time>2023-01-29T15:48:38.000Z</time>
      </trkpt>
      <trkpt lat="48.37943" lon="7.29236">
        <ele>637.19995117188</ele>
        <time>2023-01-29T15:48:45.000Z</time>
      </trkpt>
      <trkpt lat="48.37943" lon="7.29236">
        <ele>637.19995117188</ele>
        <time>2023-01-29T15:48:47.000Z</time>
      </trkpt>
      <trkpt lat="48.37943" lon="7.29236">
        <ele>637.19995117188</ele>
        <time>2023-01-29T15:48:55.000Z</time>
      </trkpt>
      <trkpt lat="48.37943" lon="7.29235">
        <ele>637.19995117188</ele>
        <time>2023-01-29T15:49:00.000Z</time>
      </trkpt>
      <trkpt lat="48.37943" lon="7.29235">
        <ele>637.19995117188</ele>
        <time>2023-01-29T15:49:02.000Z</time>
      </trkpt>
      <trkpt lat="48.37943" lon="7.29235">
        <ele>637.19995117188</ele>
        <time>2023-01-29T15:49:03.000Z</time>
      </trkpt>
      <trkpt lat="48.37943" lon="7.29235">
        <ele>637.40002441406</ele>
        <time>2023-01-29T15:49:04.000Z</time>
      </trkpt>
      <trkpt lat="48.37943" lon="7.29234">
        <ele>637.59997558594</ele>
        <time>2023-01-29T15:49:14.000Z</time>
      </trkpt>
      <trkpt lat="48.37947" lon="7.29234">
        <ele>637.80004882812</ele>
        <time>2023-01-29T15:49:16.000Z</time>
      </trkpt>
      <trkpt lat="48.3795" lon="7.29235">
        <ele>638</ele>
        <time>2023-01-29T15:49:18.000Z</time>
      </trkpt>
      <trkpt lat="48.37958" lon="7.29238">
        <ele>638.59997558594</ele>
        <time>2023-01-29T15:49:23.000Z</time>
      </trkpt>
      <trkpt lat="48.3796" lon="7.29239">
        <ele>639</ele>
        <time>2023-01-29T15:49:25.000Z</time>
      </trkpt>
      <trkpt lat="48.37962" lon="7.29239">
        <ele>639</ele>
        <time>2023-01-29T15:49:26.000Z</time>
      </trkpt>
      <trkpt lat="48.37964" lon="7.29239">
        <ele>639.19995117188</ele>
        <time>2023-01-29T15:49:28.000Z</time>
      </trkpt>
      <trkpt lat="48.3797" lon="7.29241">
        <ele>640</ele>
        <time>2023-01-29T15:49:32.000Z</time>
      </trkpt>
      <trkpt lat="48.37973" lon="7.29241">
        <ele>640.19995117188</ele>
        <time>2023-01-29T15:49:34.000Z</time>
      </trkpt>
      <trkpt lat="48.37975" lon="7.29241">
        <ele>640.40002441406</ele>
        <time>2023-01-29T15:49:36.000Z</time>
      </trkpt>
      <trkpt lat="48.37977" lon="7.29241">
        <ele>641</ele>
        <time>2023-01-29T15:49:38.000Z</time>
      </trkpt>
      <trkpt lat="48.37979" lon="7.29241">
        <ele>641.19995117188</ele>
        <time>2023-01-29T15:49:39.000Z</time>
      </trkpt>
      <trkpt lat="48.37982" lon="7.29242">
        <ele>641.59997558594</ele>
        <time>2023-01-29T15:49:42.000Z</time>
      </trkpt>
      <trkpt lat="48.37985" lon="7.29241">
        <ele>642.40002441406</ele>
        <time>2023-01-29T15:49:45.000Z</time>
      </trkpt>
      <trkpt lat="48.37989" lon="7.29242">
        <ele>642.59997558594</ele>
        <time>2023-01-29T15:49:48.000Z</time>
      </trkpt>
      <trkpt lat="48.37993" lon="7.29243">
        <ele>643.40002441406</ele>
        <time>2023-01-29T15:49:52.000Z</time>
      </trkpt>
      <trkpt lat="48.37996" lon="7.29243">
        <ele>643.80004882812</ele>
        <time>2023-01-29T15:49:54.000Z</time>
      </trkpt>
      <trkpt lat="48.37998" lon="7.29243">
        <ele>644</ele>
        <time>2023-01-29T15:49:56.000Z</time>
      </trkpt>
      <trkpt lat="48.38001" lon="7.29244">
        <ele>644.40002441406</ele>
        <time>2023-01-29T15:49:59.000Z</time>
      </trkpt>
      <trkpt lat="48.38007" lon="7.29245">
        <ele>645.40002441406</ele>
        <time>2023-01-29T15:50:04.000Z</time>
      </trkpt>
      <trkpt lat="48.38008" lon="7.29245">
        <ele>645.40002441406</ele>
        <time>2023-01-29T15:50:05.000Z</time>
      </trkpt>
      <trkpt lat="48.38012" lon="7.29245">
        <ele>646.19995117188</ele>
        <time>2023-01-29T15:50:12.000Z</time>
      </trkpt>
      <trkpt lat="48.38015" lon="7.29245">
        <ele>646.59997558594</ele>
        <time>2023-01-29T15:50:15.000Z</time>
      </trkpt>
      <trkpt lat="48.38018" lon="7.29243">
        <ele>647</ele>
        <time>2023-01-29T15:50:20.000Z</time>
      </trkpt>
      <trkpt lat="48.38023" lon="7.29245">
        <ele>647.40002441406</ele>
        <time>2023-01-29T15:50:23.000Z</time>
      </trkpt>
      <trkpt lat="48.38027" lon="7.29246">
        <ele>647.59997558594</ele>
        <time>2023-01-29T15:50:25.000Z</time>
      </trkpt>
      <trkpt lat="48.38028" lon="7.29246">
        <ele>647.80004882812</ele>
        <time>2023-01-29T15:50:27.000Z</time>
      </trkpt>
      <trkpt lat="48.3803" lon="7.29246">
        <ele>648.19995117188</ele>
        <time>2023-01-29T15:50:33.000Z</time>
      </trkpt>
      <trkpt lat="48.38037" lon="7.29248">
        <ele>648.59997558594</ele>
        <time>2023-01-29T15:50:39.000Z</time>
      </trkpt>
      <trkpt lat="48.38037" lon="7.29248">
        <ele>648.59997558594</ele>
        <time>2023-01-29T15:50:40.000Z</time>
      </trkpt>
      <trkpt lat="48.3804" lon="7.29248">
        <ele>648.80004882812</ele>
        <time>2023-01-29T15:50:47.000Z</time>
      </trkpt>
      <trkpt lat="48.38038" lon="7.29242">
        <ele>648.80004882812</ele>
        <time>2023-01-29T15:50:54.000Z</time>
      </trkpt>
      <trkpt lat="48.38039" lon="7.29242">
        <ele>648.80004882812</ele>
        <time>2023-01-29T15:51:07.000Z</time>
      </trkpt>
      <trkpt lat="48.38038" lon="7.2924">
        <ele>648.80004882812</ele>
        <time>2023-01-29T15:51:29.000Z</time>
      </trkpt>
      <trkpt lat="48.38038" lon="7.29241">
        <ele>648.80004882812</ele>
        <time>2023-01-29T15:51:37.000Z</time>
      </trkpt>
      <trkpt lat="48.38038" lon="7.29242">
        <ele>649</ele>
        <time>2023-01-29T15:51:42.000Z</time>
      </trkpt>
      <trkpt lat="48.38041" lon="7.29245">
        <ele>649.40002441406</ele>
        <time>2023-01-29T15:51:46.000Z</time>
      </trkpt>
      <trkpt lat="48.38042" lon="7.29246">
        <ele>649.40002441406</ele>
        <time>2023-01-29T15:51:47.000Z</time>
      </trkpt>
      <trkpt lat="48.38044" lon="7.2925">
        <ele>649.59997558594</ele>
        <time>2023-01-29T15:51:50.000Z</time>
      </trkpt>
      <trkpt lat="48.38046" lon="7.29251">
        <ele>649.80004882812</ele>
        <time>2023-01-29T15:51:53.000Z</time>
      </trkpt>
      <trkpt lat="48.38052" lon="7.29255">
        <ele>650.59997558594</ele>
        <time>2023-01-29T15:52:00.000Z</time>
      </trkpt>
      <trkpt lat="48.38053" lon="7.29256">
        <ele>650.80004882812</ele>
        <time>2023-01-29T15:52:01.000Z</time>
      </trkpt>
      <trkpt lat="48.38062" lon="7.29264">
        <ele>651.19995117188</ele>
        <time>2023-01-29T15:52:09.000Z</time>
      </trkpt>
      <trkpt lat="48.38068" lon="7.29268">
        <ele>651.59997558594</ele>
        <time>2023-01-29T15:52:16.000Z</time>
      </trkpt>
      <trkpt lat="48.38068" lon="7.29268">
        <ele>651.80004882812</ele>
        <time>2023-01-29T15:52:17.000Z</time>
      </trkpt>
      <trkpt lat="48.38069" lon="7.29268">
        <ele>652</ele>
        <time>2023-01-29T15:52:19.000Z</time>
      </trkpt>
      <trkpt lat="48.3807" lon="7.29268">
        <ele>652.19995117188</ele>
        <time>2023-01-29T15:52:22.000Z</time>
      </trkpt>
      <trkpt lat="48.38072" lon="7.29271">
        <ele>652.40002441406</ele>
        <time>2023-01-29T15:52:28.000Z</time>
      </trkpt>
      <trkpt lat="48.38075" lon="7.29272">
        <ele>652.80004882812</ele>
        <time>2023-01-29T15:52:32.000Z</time>
      </trkpt>
      <trkpt lat="48.38078" lon="7.29275">
        <ele>653</ele>
        <time>2023-01-29T15:52:35.000Z</time>
      </trkpt>
      <trkpt lat="48.38081" lon="7.29277">
        <ele>653.40002441406</ele>
        <time>2023-01-29T15:52:39.000Z</time>
      </trkpt>
      <trkpt lat="48.38083" lon="7.2928">
        <ele>653.80004882812</ele>
        <time>2023-01-29T15:52:42.000Z</time>
      </trkpt>
      <trkpt lat="48.38085" lon="7.2928">
        <ele>654.19995117188</ele>
        <time>2023-01-29T15:52:45.000Z</time>
      </trkpt>
      <trkpt lat="48.3809" lon="7.29282">
        <ele>654.80004882812</ele>
        <time>2023-01-29T15:52:54.000Z</time>
      </trkpt>
      <trkpt lat="48.3809" lon="7.29283">
        <ele>654.80004882812</ele>
        <time>2023-01-29T15:52:55.000Z</time>
      </trkpt>
      <trkpt lat="48.38094" lon="7.29288">
        <ele>655</ele>
        <time>2023-01-29T15:52:59.000Z</time>
      </trkpt>
      <trkpt lat="48.38096" lon="7.2929">
        <ele>655.40002441406</ele>
        <time>2023-01-29T15:53:04.000Z</time>
      </trkpt>
      <trkpt lat="48.38101" lon="7.29292">
        <ele>655.59997558594</ele>
        <time>2023-01-29T15:53:10.000Z</time>
      </trkpt>
      <trkpt lat="48.38104" lon="7.29293">
        <ele>655.80004882812</ele>
        <time>2023-01-29T15:53:15.000Z</time>
      </trkpt>
      <trkpt lat="48.38106" lon="7.29292">
        <ele>656</ele>
        <time>2023-01-29T15:53:17.000Z</time>
      </trkpt>
      <trkpt lat="48.38109" lon="7.29293">
        <ele>656.19995117188</ele>
        <time>2023-01-29T15:53:19.000Z</time>
      </trkpt>
      <trkpt lat="48.38111" lon="7.29294">
        <ele>656.40002441406</ele>
        <time>2023-01-29T15:53:22.000Z</time>
      </trkpt>
      <trkpt lat="48.38112" lon="7.29295">
        <ele>656.40002441406</ele>
        <time>2023-01-29T15:53:23.000Z</time>
      </trkpt>
      <trkpt lat="48.38114" lon="7.29297">
        <ele>656.80004882812</ele>
        <time>2023-01-29T15:53:27.000Z</time>
      </trkpt>
      <trkpt lat="48.38116" lon="7.29299">
        <ele>657.19995117188</ele>
        <time>2023-01-29T15:53:29.000Z</time>
      </trkpt>
      <trkpt lat="48.38117" lon="7.293">
        <ele>657.19995117188</ele>
        <time>2023-01-29T15:53:30.000Z</time>
      </trkpt>
      <trkpt lat="48.38119" lon="7.29302">
        <ele>657.40002441406</ele>
        <time>2023-01-29T15:53:34.000Z</time>
      </trkpt>
      <trkpt lat="48.38119" lon="7.29302">
        <ele>657.40002441406</ele>
        <time>2023-01-29T15:53:37.000Z</time>
      </trkpt>
      <trkpt lat="48.38121" lon="7.29302">
        <ele>657.59997558594</ele>
        <time>2023-01-29T15:53:41.000Z</time>
      </trkpt>
      <trkpt lat="48.38122" lon="7.29303">
        <ele>657.59997558594</ele>
        <time>2023-01-29T15:53:45.000Z</time>
      </trkpt>
      <trkpt lat="48.38125" lon="7.29306">
        <ele>658</ele>
        <time>2023-01-29T15:53:49.000Z</time>
      </trkpt>
      <trkpt lat="48.38125" lon="7.29306">
        <ele>658.19995117188</ele>
        <time>2023-01-29T15:53:51.000Z</time>
      </trkpt>
      <trkpt lat="48.38126" lon="7.29307">
        <ele>658.59997558594</ele>
        <time>2023-01-29T15:53:54.000Z</time>
      </trkpt>
      <trkpt lat="48.38127" lon="7.29307">
        <ele>658.59997558594</ele>
        <time>2023-01-29T15:53:56.000Z</time>
      </trkpt>
      <trkpt lat="48.38127" lon="7.29306">
        <ele>658.80004882812</ele>
        <time>2023-01-29T15:53:58.000Z</time>
      </trkpt>
      <trkpt lat="48.38127" lon="7.29304">
        <ele>659.19995117188</ele>
        <time>2023-01-29T15:54:02.000Z</time>
      </trkpt>
      <trkpt lat="48.38127" lon="7.29304">
        <ele>659.19995117188</ele>
        <time>2023-01-29T15:54:04.000Z</time>
      </trkpt>
      <trkpt lat="48.38127" lon="7.29304">
        <ele>659.40002441406</ele>
        <time>2023-01-29T15:54:07.000Z</time>
      </trkpt>
      <trkpt lat="48.3813" lon="7.29308">
        <ele>660.19995117188</ele>
        <time>2023-01-29T15:54:23.000Z</time>
      </trkpt>
      <trkpt lat="48.38133" lon="7.29311">
        <ele>660.59997558594</ele>
        <time>2023-01-29T15:54:26.000Z</time>
      </trkpt>
      <trkpt lat="48.38139" lon="7.29314">
        <ele>660.80004882812</ele>
        <time>2023-01-29T15:54:29.000Z</time>
      </trkpt>
      <trkpt lat="48.38145" lon="7.29316">
        <ele>661.19995117188</ele>
        <time>2023-01-29T15:54:35.000Z</time>
      </trkpt>
      <trkpt lat="48.38148" lon="7.29315">
        <ele>661.59997558594</ele>
        <time>2023-01-29T15:54:41.000Z</time>
      </trkpt>
      <trkpt lat="48.38152" lon="7.29314">
        <ele>662</ele>
        <time>2023-01-29T15:54:45.000Z</time>
      </trkpt>
      <trkpt lat="48.38158" lon="7.29318">
        <ele>662.19995117188</ele>
        <time>2023-01-29T15:54:48.000Z</time>
      </trkpt>
      <trkpt lat="48.38158" lon="7.29319">
        <ele>662.40002441406</ele>
        <time>2023-01-29T15:54:50.000Z</time>
      </trkpt>
      <trkpt lat="48.38161" lon="7.29324">
        <ele>662.59997558594</ele>
        <time>2023-01-29T15:54:55.000Z</time>
      </trkpt>
      <trkpt lat="48.38162" lon="7.29325">
        <ele>662.80004882812</ele>
        <time>2023-01-29T15:54:58.000Z</time>
      </trkpt>
      <trkpt lat="48.38165" lon="7.29324">
        <ele>663</ele>
        <time>2023-01-29T15:55:04.000Z</time>
      </trkpt>
      <trkpt lat="48.38171" lon="7.29329">
        <ele>663.40002441406</ele>
        <time>2023-01-29T15:55:09.000Z</time>
      </trkpt>
      <trkpt lat="48.38172" lon="7.29328">
        <ele>663.40002441406</ele>
        <time>2023-01-29T15:55:10.000Z</time>
      </trkpt>
      <trkpt lat="48.38176" lon="7.29326">
        <ele>663.80004882812</ele>
        <time>2023-01-29T15:55:15.000Z</time>
      </trkpt>
      <trkpt lat="48.38176" lon="7.29325">
        <ele>664</ele>
        <time>2023-01-29T15:55:16.000Z</time>
      </trkpt>
      <trkpt lat="48.38177" lon="7.29326">
        <ele>664.19995117188</ele>
        <time>2023-01-29T15:55:19.000Z</time>
      </trkpt>
      <trkpt lat="48.38178" lon="7.29327">
        <ele>664.19995117188</ele>
        <time>2023-01-29T15:55:20.000Z</time>
      </trkpt>
      <trkpt lat="48.38182" lon="7.29328">
        <ele>664.40002441406</ele>
        <time>2023-01-29T15:55:22.000Z</time>
      </trkpt>
      <trkpt lat="48.38183" lon="7.29327">
        <ele>664.40002441406</ele>
        <time>2023-01-29T15:55:23.000Z</time>
      </trkpt>
      <trkpt lat="48.38183" lon="7.29326">
        <ele>664.59997558594</ele>
        <time>2023-01-29T15:55:24.000Z</time>
      </trkpt>
      <trkpt lat="48.38185" lon="7.29326">
        <ele>664.59997558594</ele>
        <time>2023-01-29T15:55:26.000Z</time>
      </trkpt>
      <trkpt lat="48.38185" lon="7.29325">
        <ele>664.80004882812</ele>
        <time>2023-01-29T15:55:27.000Z</time>
      </trkpt>
      <trkpt lat="48.38184" lon="7.29324">
        <ele>665</ele>
        <time>2023-01-29T15:55:30.000Z</time>
      </trkpt>
      <trkpt lat="48.38185" lon="7.2932">
        <ele>665.19995117188</ele>
        <time>2023-01-29T15:55:35.000Z</time>
      </trkpt>
      <trkpt lat="48.3819" lon="7.29322">
        <ele>665.40002441406</ele>
        <time>2023-01-29T15:55:39.000Z</time>
      </trkpt>
      <trkpt lat="48.38196" lon="7.29324">
        <ele>665.80004882812</ele>
        <time>2023-01-29T15:55:43.000Z</time>
      </trkpt>
      <trkpt lat="48.38198" lon="7.29323">
        <ele>666.19995117188</ele>
        <time>2023-01-29T15:55:48.000Z</time>
      </trkpt>
      <trkpt lat="48.38198" lon="7.2932">
        <ele>666.59997558594</ele>
        <time>2023-01-29T15:55:51.000Z</time>
      </trkpt>
      <trkpt lat="48.38199" lon="7.2932">
        <ele>666.80004882812</ele>
        <time>2023-01-29T15:55:53.000Z</time>
      </trkpt>
      <trkpt lat="48.382" lon="7.29322">
        <ele>667.19995117188</ele>
        <time>2023-01-29T15:56:00.000Z</time>
      </trkpt>
      <trkpt lat="48.38201" lon="7.29323">
        <ele>667.19995117188</ele>
        <time>2023-01-29T15:56:06.000Z</time>
      </trkpt>
      <trkpt lat="48.38202" lon="7.29325">
        <ele>667.19995117188</ele>
        <time>2023-01-29T15:56:11.000Z</time>
      </trkpt>
      <trkpt lat="48.38202" lon="7.29325">
        <ele>667.19995117188</ele>
        <time>2023-01-29T15:56:12.000Z</time>
      </trkpt>
      <trkpt lat="48.38203" lon="7.29326">
        <ele>667</ele>
        <time>2023-01-29T15:56:18.000Z</time>
      </trkpt>
      <trkpt lat="48.38206" lon="7.29326">
        <ele>667.19995117188</ele>
        <time>2023-01-29T15:56:23.000Z</time>
      </trkpt>
      <trkpt lat="48.38212" lon="7.29331">
        <ele>667.59997558594</ele>
        <time>2023-01-29T15:56:28.000Z</time>
      </trkpt>
      <trkpt lat="48.38213" lon="7.29333">
        <ele>667.80004882812</ele>
        <time>2023-01-29T15:56:29.000Z</time>
      </trkpt>
      <trkpt lat="48.38219" lon="7.29338">
        <ele>668.59997558594</ele>
        <time>2023-01-29T15:56:35.000Z</time>
      </trkpt>
      <trkpt lat="48.3822" lon="7.29339">
        <ele>668.80004882812</ele>
        <time>2023-01-29T15:56:37.000Z</time>
      </trkpt>
      <trkpt lat="48.38221" lon="7.29339">
        <ele>669</ele>
        <time>2023-01-29T15:56:39.000Z</time>
      </trkpt>
      <trkpt lat="48.38222" lon="7.2934">
        <ele>669</ele>
        <time>2023-01-29T15:56:40.000Z</time>
      </trkpt>
      <trkpt lat="48.38226" lon="7.2934">
        <ele>669.59997558594</ele>
        <time>2023-01-29T15:56:45.000Z</time>
      </trkpt>
      <trkpt lat="48.3823" lon="7.29334">
        <ele>670</ele>
        <time>2023-01-29T15:56:48.000Z</time>
      </trkpt>
      <trkpt lat="48.38232" lon="7.29334">
        <ele>670.40002441406</ele>
        <time>2023-01-29T15:56:51.000Z</time>
      </trkpt>
      <trkpt lat="48.38238" lon="7.2934">
        <ele>671.19995117188</ele>
        <time>2023-01-29T15:56:57.000Z</time>
      </trkpt>
      <trkpt lat="48.38238" lon="7.2934">
        <ele>671.40002441406</ele>
        <time>2023-01-29T15:56:58.000Z</time>
      </trkpt>
      <trkpt lat="48.38238" lon="7.2934">
        <ele>671.40002441406</ele>
        <time>2023-01-29T15:56:59.000Z</time>
      </trkpt>
      <trkpt lat="48.38241" lon="7.29341">
        <ele>672.40002441406</ele>
        <time>2023-01-29T15:57:05.000Z</time>
      </trkpt>
      <trkpt lat="48.38242" lon="7.29341">
        <ele>672.59997558594</ele>
        <time>2023-01-29T15:57:07.000Z</time>
      </trkpt>
      <trkpt lat="48.38244" lon="7.29342">
        <ele>673.40002441406</ele>
        <time>2023-01-29T15:57:12.000Z</time>
      </trkpt>
      <trkpt lat="48.38245" lon="7.29343">
        <ele>673.59997558594</ele>
        <time>2023-01-29T15:57:13.000Z</time>
      </trkpt>
      <trkpt lat="48.38249" lon="7.29345">
        <ele>674</ele>
        <time>2023-01-29T15:57:16.000Z</time>
      </trkpt>
      <trkpt lat="48.38249" lon="7.29347">
        <ele>674.40002441406</ele>
        <time>2023-01-29T15:57:18.000Z</time>
      </trkpt>
      <trkpt lat="48.3825" lon="7.2935">
        <ele>674.59997558594</ele>
        <time>2023-01-29T15:57:20.000Z</time>
      </trkpt>
      <trkpt lat="48.3825" lon="7.29351">
        <ele>674.59997558594</ele>
        <time>2023-01-29T15:57:22.000Z</time>
      </trkpt>
      <trkpt lat="48.3825" lon="7.29353">
        <ele>674.80004882812</ele>
        <time>2023-01-29T15:57:28.000Z</time>
      </trkpt>
      <trkpt lat="48.3825" lon="7.29353">
        <ele>675</ele>
        <time>2023-01-29T15:57:42.000Z</time>
      </trkpt>
      <trkpt lat="48.38249" lon="7.29353">
        <ele>674.80004882812</ele>
        <time>2023-01-29T15:57:54.000Z</time>
      </trkpt>
      <trkpt lat="48.38249" lon="7.29355">
        <ele>675</ele>
        <time>2023-01-29T15:58:05.000Z</time>
      </trkpt>
      <trkpt lat="48.38247" lon="7.29357">
        <ele>675.19995117188</ele>
        <time>2023-01-29T15:58:09.000Z</time>
      </trkpt>
      <trkpt lat="48.38244" lon="7.29359">
        <ele>675.40002441406</ele>
        <time>2023-01-29T15:58:12.000Z</time>
      </trkpt>
      <trkpt lat="48.38238" lon="7.29364">
        <ele>675.59997558594</ele>
        <time>2023-01-29T15:58:18.000Z</time>
      </trkpt>
      <trkpt lat="48.38237" lon="7.29363">
        <ele>675.80004882812</ele>
        <time>2023-01-29T15:58:19.000Z</time>
      </trkpt>
      <trkpt lat="48.38231" lon="7.2936">
        <ele>675.80004882812</ele>
        <time>2023-01-29T15:58:26.000Z</time>
      </trkpt>
      <trkpt lat="48.38229" lon="7.2936">
        <ele>676</ele>
        <time>2023-01-29T15:58:29.000Z</time>
      </trkpt>
      <trkpt lat="48.38226" lon="7.29359">
        <ele>676</ele>
        <time>2023-01-29T15:58:31.000Z</time>
      </trkpt>
      <trkpt lat="48.38223" lon="7.29361">
        <ele>676.19995117188</ele>
        <time>2023-01-29T15:58:37.000Z</time>
      </trkpt>
      <trkpt lat="48.38222" lon="7.29362">
        <ele>676.40002441406</ele>
        <time>2023-01-29T15:58:39.000Z</time>
      </trkpt>
      <trkpt lat="48.38217" lon="7.29364">
        <ele>676.59997558594</ele>
        <time>2023-01-29T15:58:45.000Z</time>
      </trkpt>
      <trkpt lat="48.38214" lon="7.29364">
        <ele>676.59997558594</ele>
        <time>2023-01-29T15:58:47.000Z</time>
      </trkpt>
      <trkpt lat="48.38212" lon="7.29362">
        <ele>676.80004882812</ele>
        <time>2023-01-29T15:58:52.000Z</time>
      </trkpt>
      <trkpt lat="48.3821" lon="7.29362">
        <ele>676.80004882812</ele>
        <time>2023-01-29T15:58:58.000Z</time>
      </trkpt>
      <trkpt lat="48.38205" lon="7.29362">
        <ele>676.80004882812</ele>
        <time>2023-01-29T15:59:01.000Z</time>
      </trkpt>
      <trkpt lat="48.38204" lon="7.29362">
        <ele>676.80004882812</ele>
        <time>2023-01-29T15:59:03.000Z</time>
      </trkpt>
      <trkpt lat="48.38201" lon="7.29362">
        <ele>677</ele>
        <time>2023-01-29T15:59:09.000Z</time>
      </trkpt>
      <trkpt lat="48.38195" lon="7.29368">
        <ele>677</ele>
        <time>2023-01-29T15:59:16.000Z</time>
      </trkpt>
      <trkpt lat="48.3819" lon="7.29371">
        <ele>677.19995117188</ele>
        <time>2023-01-29T15:59:24.000Z</time>
      </trkpt>
      <trkpt lat="48.38187" lon="7.2937">
        <ele>677.40002441406</ele>
        <time>2023-01-29T15:59:26.000Z</time>
      </trkpt>
      <trkpt lat="48.38184" lon="7.29374">
        <ele>677.59997558594</ele>
        <time>2023-01-29T15:59:31.000Z</time>
      </trkpt>
      <trkpt lat="48.38185" lon="7.29375">
        <ele>677.59997558594</ele>
        <time>2023-01-29T15:59:32.000Z</time>
      </trkpt>
      <trkpt lat="48.38186" lon="7.29375">
        <ele>677.80004882812</ele>
        <time>2023-01-29T15:59:33.000Z</time>
      </trkpt>
      <trkpt lat="48.38188" lon="7.29374">
        <ele>678</ele>
        <time>2023-01-29T15:59:36.000Z</time>
      </trkpt>
      <trkpt lat="48.38188" lon="7.29371">
        <ele>678.59997558594</ele>
        <time>2023-01-29T15:59:40.000Z</time>
      </trkpt>
      <trkpt lat="48.3819" lon="7.29372">
        <ele>679.40002441406</ele>
        <time>2023-01-29T15:59:45.000Z</time>
      </trkpt>
      <trkpt lat="48.38192" lon="7.29372">
        <ele>679.59997558594</ele>
        <time>2023-01-29T15:59:48.000Z</time>
      </trkpt>
      <trkpt lat="48.38192" lon="7.29371">
        <ele>680.19995117188</ele>
        <time>2023-01-29T15:59:50.000Z</time>
      </trkpt>
      <trkpt lat="48.38193" lon="7.29371">
        <ele>680.59997558594</ele>
        <time>2023-01-29T15:59:54.000Z</time>
      </trkpt>
      <trkpt lat="48.38194" lon="7.29371">
        <ele>680.80004882812</ele>
        <time>2023-01-29T15:59:55.000Z</time>
      </trkpt>
      <trkpt lat="48.38201" lon="7.29375">
        <ele>681.19995117188</ele>
        <time>2023-01-29T16:00:00.000Z</time>
      </trkpt>
      <trkpt lat="48.38201" lon="7.29377">
        <ele>681.19995117188</ele>
        <time>2023-01-29T16:00:06.000Z</time>
      </trkpt>
      <trkpt lat="48.38201" lon="7.29378">
        <ele>681.19995117188</ele>
        <time>2023-01-29T16:00:12.000Z</time>
      </trkpt>
      <trkpt lat="48.38201" lon="7.29375">
        <ele>681.19995117188</ele>
        <time>2023-01-29T16:00:20.000Z</time>
      </trkpt>
      <trkpt lat="48.38201" lon="7.29375">
        <ele>681.19995117188</ele>
        <time>2023-01-29T16:00:25.000Z</time>
      </trkpt>
      <trkpt lat="48.38201" lon="7.29375">
        <ele>681</ele>
        <time>2023-01-29T16:00:30.000Z</time>
      </trkpt>
      <trkpt lat="48.38203" lon="7.29377">
        <ele>681.19995117188</ele>
        <time>2023-01-29T16:00:41.000Z</time>
      </trkpt>
      <trkpt lat="48.38208" lon="7.29374">
        <ele>681.80004882812</ele>
        <time>2023-01-29T16:00:46.000Z</time>
      </trkpt>
      <trkpt lat="48.3821" lon="7.29374">
        <ele>682.19995117188</ele>
        <time>2023-01-29T16:00:48.000Z</time>
      </trkpt>
      <trkpt lat="48.38213" lon="7.29374">
        <ele>682.40002441406</ele>
        <time>2023-01-29T16:00:50.000Z</time>
      </trkpt>
      <trkpt lat="48.38216" lon="7.29372">
        <ele>682.59997558594</ele>
        <time>2023-01-29T16:00:54.000Z</time>
      </trkpt>
      <trkpt lat="48.38215" lon="7.29368">
        <ele>683</ele>
        <time>2023-01-29T16:00:58.000Z</time>
      </trkpt>
      <trkpt lat="48.38215" lon="7.29366">
        <ele>683.19995117188</ele>
        <time>2023-01-29T16:01:00.000Z</time>
      </trkpt>
      <trkpt lat="48.38213" lon="7.29367">
        <ele>683.80004882812</ele>
        <time>2023-01-29T16:01:07.000Z</time>
      </trkpt>
      <trkpt lat="48.38213" lon="7.29366">
        <ele>684</ele>
        <time>2023-01-29T16:01:12.000Z</time>
      </trkpt>
      <trkpt lat="48.38214" lon="7.29367">
        <ele>684.19995117188</ele>
        <time>2023-01-29T16:01:14.000Z</time>
      </trkpt>
      <trkpt lat="48.38222" lon="7.29372">
        <ele>684.59997558594</ele>
        <time>2023-01-29T16:01:22.000Z</time>
      </trkpt>
      <trkpt lat="48.38226" lon="7.29376">
        <ele>685</ele>
        <time>2023-01-29T16:01:27.000Z</time>
      </trkpt>
      <trkpt lat="48.3823" lon="7.29378">
        <ele>685.40002441406</ele>
        <time>2023-01-29T16:01:29.000Z</time>
      </trkpt>
      <trkpt lat="48.38233" lon="7.2938">
        <ele>686.19995117188</ele>
        <time>2023-01-29T16:01:34.000Z</time>
      </trkpt>
      <trkpt lat="48.38235" lon="7.29383">
        <ele>686.80004882812</ele>
        <time>2023-01-29T16:01:37.000Z</time>
      </trkpt>
      <trkpt lat="48.38237" lon="7.29385">
        <ele>687</ele>
        <time>2023-01-29T16:01:40.000Z</time>
      </trkpt>
      <trkpt lat="48.3824" lon="7.29389">
        <ele>687.19995117188</ele>
        <time>2023-01-29T16:01:43.000Z</time>
      </trkpt>
      <trkpt lat="48.38241" lon="7.29389">
        <ele>687.40002441406</ele>
        <time>2023-01-29T16:01:44.000Z</time>
      </trkpt>
      <trkpt lat="48.38243" lon="7.29391">
        <ele>688.19995117188</ele>
        <time>2023-01-29T16:01:49.000Z</time>
      </trkpt>
      <trkpt lat="48.38244" lon="7.29392">
        <ele>688.40002441406</ele>
        <time>2023-01-29T16:01:50.000Z</time>
      </trkpt>
      <trkpt lat="48.38246" lon="7.29394">
        <ele>688.80004882812</ele>
        <time>2023-01-29T16:01:53.000Z</time>
      </trkpt>
      <trkpt lat="48.38245" lon="7.29396">
        <ele>689</ele>
        <time>2023-01-29T16:01:56.000Z</time>
      </trkpt>
      <trkpt lat="48.38244" lon="7.29396">
        <ele>689</ele>
        <time>2023-01-29T16:01:57.000Z</time>
      </trkpt>
      <trkpt lat="48.38243" lon="7.294">
        <ele>689.19995117188</ele>
        <time>2023-01-29T16:02:05.000Z</time>
      </trkpt>
      <trkpt lat="48.3824" lon="7.29403">
        <ele>689.19995117188</ele>
        <time>2023-01-29T16:02:12.000Z</time>
      </trkpt>
      <trkpt lat="48.3824" lon="7.29403">
        <ele>689.19995117188</ele>
        <time>2023-01-29T16:02:15.000Z</time>
      </trkpt>
      <trkpt lat="48.38241" lon="7.29404">
        <ele>689.40002441406</ele>
        <time>2023-01-29T16:02:29.000Z</time>
      </trkpt>
      <trkpt lat="48.38241" lon="7.29404">
        <ele>689.59997558594</ele>
        <time>2023-01-29T16:02:33.000Z</time>
      </trkpt>
      <trkpt lat="48.38241" lon="7.29404">
        <ele>689.59997558594</ele>
        <time>2023-01-29T16:02:36.000Z</time>
      </trkpt>
      <trkpt lat="48.38241" lon="7.29404">
        <ele>689.59997558594</ele>
        <time>2023-01-29T16:02:40.000Z</time>
      </trkpt>
      <trkpt lat="48.38244" lon="7.29405">
        <ele>690.40002441406</ele>
        <time>2023-01-29T16:02:48.000Z</time>
      </trkpt>
      <trkpt lat="48.38251" lon="7.29411">
        <ele>690.80004882812</ele>
        <time>2023-01-29T16:02:53.000Z</time>
      </trkpt>
      <trkpt lat="48.38257" lon="7.29413">
        <ele>691.40002441406</ele>
        <time>2023-01-29T16:02:57.000Z</time>
      </trkpt>
      <trkpt lat="48.38259" lon="7.29416">
        <ele>691.59997558594</ele>
        <time>2023-01-29T16:02:59.000Z</time>
      </trkpt>
      <trkpt lat="48.38264" lon="7.29417">
        <ele>692.40002441406</ele>
        <time>2023-01-29T16:03:04.000Z</time>
      </trkpt>
      <trkpt lat="48.38265" lon="7.29418">
        <ele>692.59997558594</ele>
        <time>2023-01-29T16:03:06.000Z</time>
      </trkpt>
      <trkpt lat="48.38269" lon="7.29422">
        <ele>693.59997558594</ele>
        <time>2023-01-29T16:03:14.000Z</time>
      </trkpt>
      <trkpt lat="48.38271" lon="7.29422">
        <ele>694.40002441406</ele>
        <time>2023-01-29T16:03:21.000Z</time>
      </trkpt>
      <trkpt lat="48.3827" lon="7.29422">
        <ele>694.59997558594</ele>
        <time>2023-01-29T16:03:22.000Z</time>
      </trkpt>
      <trkpt lat="48.38272" lon="7.29422">
        <ele>695</ele>
        <time>2023-01-29T16:03:26.000Z</time>
      </trkpt>
      <trkpt lat="48.38273" lon="7.2942">
        <ele>695.59997558594</ele>
        <time>2023-01-29T16:03:30.000Z</time>
      </trkpt>
      <trkpt lat="48.38273" lon="7.29418">
        <ele>695.80004882812</ele>
        <time>2023-01-29T16:03:32.000Z</time>
      </trkpt>
      <trkpt lat="48.38275" lon="7.29417">
        <ele>696.59997558594</ele>
        <time>2023-01-29T16:03:38.000Z</time>
      </trkpt>
      <trkpt lat="48.38275" lon="7.29416">
        <ele>696.80004882812</ele>
        <time>2023-01-29T16:03:39.000Z</time>
      </trkpt>
      <trkpt lat="48.38276" lon="7.29415">
        <ele>696.80004882812</ele>
        <time>2023-01-29T16:03:40.000Z</time>
      </trkpt>
      <trkpt lat="48.38279" lon="7.2941">
        <ele>697.80004882812</ele>
        <time>2023-01-29T16:03:46.000Z</time>
      </trkpt>
      <trkpt lat="48.38279" lon="7.29409">
        <ele>697.80004882812</ele>
        <time>2023-01-29T16:03:47.000Z</time>
      </trkpt>
      <trkpt lat="48.38282" lon="7.29406">
        <ele>698.80004882812</ele>
        <time>2023-01-29T16:03:53.000Z</time>
      </trkpt>
      <trkpt lat="48.38283" lon="7.29406">
        <ele>699</ele>
        <time>2023-01-29T16:03:54.000Z</time>
      </trkpt>
      <trkpt lat="48.38287" lon="7.29402">
        <ele>699.80004882812</ele>
        <time>2023-01-29T16:04:01.000Z</time>
      </trkpt>
      <trkpt lat="48.38289" lon="7.29399">
        <ele>700.59997558594</ele>
        <time>2023-01-29T16:04:05.000Z</time>
      </trkpt>
      <trkpt lat="48.3829" lon="7.29398">
        <ele>700.80004882812</ele>
        <time>2023-01-29T16:04:06.000Z</time>
      </trkpt>
      <trkpt lat="48.38293" lon="7.29396">
        <ele>701.80004882812</ele>
        <time>2023-01-29T16:04:12.000Z</time>
      </trkpt>
      <trkpt lat="48.38294" lon="7.29394">
        <ele>702</ele>
        <time>2023-01-29T16:04:14.000Z</time>
      </trkpt>
      <trkpt lat="48.383" lon="7.29391">
        <ele>703.19995117188</ele>
        <time>2023-01-29T16:04:21.000Z</time>
      </trkpt>
      <trkpt lat="48.38304" lon="7.29389">
        <ele>704.40002441406</ele>
        <time>2023-01-29T16:04:27.000Z</time>
      </trkpt>
      <trkpt lat="48.38305" lon="7.29389">
        <ele>704.59997558594</ele>
        <time>2023-01-29T16:04:29.000Z</time>
      </trkpt>
      <trkpt lat="48.38306" lon="7.29392">
        <ele>705</ele>
        <time>2023-01-29T16:04:35.000Z</time>
      </trkpt>
      <trkpt lat="48.38306" lon="7.29391">
        <ele>705.19995117188</ele>
        <time>2023-01-29T16:04:54.000Z</time>
      </trkpt>
      <trkpt lat="48.38306" lon="7.29391">
        <ele>705.19995117188</ele>
        <time>2023-01-29T16:04:55.000Z</time>
      </trkpt>
      <trkpt lat="48.38304" lon="7.29387">
        <ele>705</ele>
        <time>2023-01-29T16:05:18.000Z</time>
      </trkpt>
      <trkpt lat="48.38303" lon="7.29387">
        <ele>705</ele>
        <time>2023-01-29T16:05:24.000Z</time>
      </trkpt>
      <trkpt lat="48.38303" lon="7.2939">
        <ele>704.80004882812</ele>
        <time>2023-01-29T16:05:34.000Z</time>
      </trkpt>
      <trkpt lat="48.38302" lon="7.2939">
        <ele>704.80004882812</ele>
        <time>2023-01-29T16:05:37.000Z</time>
      </trkpt>
      <trkpt lat="48.38302" lon="7.29392">
        <ele>704.80004882812</ele>
        <time>2023-01-29T16:05:50.000Z</time>
      </trkpt>
      <trkpt lat="48.38302" lon="7.29392">
        <ele>705.40002441406</ele>
        <time>2023-01-29T16:06:03.000Z</time>
      </trkpt>
      <trkpt lat="48.38302" lon="7.29392">
        <ele>705.80004882812</ele>
        <time>2023-01-29T16:06:08.000Z</time>
      </trkpt>
      <trkpt lat="48.38306" lon="7.29391">
        <ele>706.59997558594</ele>
        <time>2023-01-29T16:06:15.000Z</time>
      </trkpt>
      <trkpt lat="48.38314" lon="7.29389">
        <ele>707.59997558594</ele>
        <time>2023-01-29T16:06:22.000Z</time>
      </trkpt>
      <trkpt lat="48.38315" lon="7.29388">
        <ele>707.59997558594</ele>
        <time>2023-01-29T16:06:23.000Z</time>
      </trkpt>
      <trkpt lat="48.3832" lon="7.29384">
        <ele>708.40002441406</ele>
        <time>2023-01-29T16:06:27.000Z</time>
      </trkpt>
      <trkpt lat="48.38324" lon="7.29384">
        <ele>708.80004882812</ele>
        <time>2023-01-29T16:06:30.000Z</time>
      </trkpt>
      <trkpt lat="48.38324" lon="7.29385">
        <ele>709</ele>
        <time>2023-01-29T16:06:31.000Z</time>
      </trkpt>
      <trkpt lat="48.38326" lon="7.29385">
        <ele>709.40002441406</ele>
        <time>2023-01-29T16:06:33.000Z</time>
      </trkpt>
      <trkpt lat="48.38327" lon="7.29385">
        <ele>709.59997558594</ele>
        <time>2023-01-29T16:06:35.000Z</time>
      </trkpt>
      <trkpt lat="48.38327" lon="7.29385">
        <ele>709.80004882812</ele>
        <time>2023-01-29T16:06:36.000Z</time>
      </trkpt>
      <trkpt lat="48.3833" lon="7.29385">
        <ele>710.19995117188</ele>
        <time>2023-01-29T16:06:40.000Z</time>
      </trkpt>
      <trkpt lat="48.38334" lon="7.29386">
        <ele>710.80004882812</ele>
        <time>2023-01-29T16:06:45.000Z</time>
      </trkpt>
      <trkpt lat="48.38336" lon="7.29386">
        <ele>711.40002441406</ele>
        <time>2023-01-29T16:06:48.000Z</time>
      </trkpt>
      <trkpt lat="48.38338" lon="7.29386">
        <ele>712</ele>
        <time>2023-01-29T16:06:51.000Z</time>
      </trkpt>
      <trkpt lat="48.38341" lon="7.29385">
        <ele>712.80004882812</ele>
        <time>2023-01-29T16:06:56.000Z</time>
      </trkpt>
      <trkpt lat="48.38342" lon="7.29385">
        <ele>713</ele>
        <time>2023-01-29T16:06:57.000Z</time>
      </trkpt>
      <trkpt lat="48.38348" lon="7.29385">
        <ele>714.19995117188</ele>
        <time>2023-01-29T16:07:04.000Z</time>
      </trkpt>
      <trkpt lat="48.38352" lon="7.29386">
        <ele>715.19995117188</ele>
        <time>2023-01-29T16:07:09.000Z</time>
      </trkpt>
      <trkpt lat="48.38354" lon="7.29385">
        <ele>715.59997558594</ele>
        <time>2023-01-29T16:07:11.000Z</time>
      </trkpt>
      <trkpt lat="48.38356" lon="7.29385">
        <ele>716.19995117188</ele>
        <time>2023-01-29T16:07:15.000Z</time>
      </trkpt>
      <trkpt lat="48.38361" lon="7.29385">
        <ele>717.19995117188</ele>
        <time>2023-01-29T16:07:20.000Z</time>
      </trkpt>
      <trkpt lat="48.38362" lon="7.29385">
        <ele>717.40002441406</ele>
        <time>2023-01-29T16:07:21.000Z</time>
      </trkpt>
      <trkpt lat="48.38363" lon="7.29383">
        <ele>717.80004882812</ele>
        <time>2023-01-29T16:07:24.000Z</time>
      </trkpt>
      <trkpt lat="48.38366" lon="7.29383">
        <ele>718.40002441406</ele>
        <time>2023-01-29T16:07:27.000Z</time>
      </trkpt>
      <trkpt lat="48.38367" lon="7.29383">
        <ele>718.80004882812</ele>
        <time>2023-01-29T16:07:29.000Z</time>
      </trkpt>
      <trkpt lat="48.38372" lon="7.29385">
        <ele>719.59997558594</ele>
        <time>2023-01-29T16:07:34.000Z</time>
      </trkpt>
      <trkpt lat="48.38373" lon="7.29386">
        <ele>719.80004882812</ele>
        <time>2023-01-29T16:07:36.000Z</time>
      </trkpt>
      <trkpt lat="48.38376" lon="7.29386">
        <ele>720.59997558594</ele>
        <time>2023-01-29T16:07:40.000Z</time>
      </trkpt>
      <trkpt lat="48.38378" lon="7.29387">
        <ele>721.19995117188</ele>
        <time>2023-01-29T16:07:44.000Z</time>
      </trkpt>
      <trkpt lat="48.38379" lon="7.29388">
        <ele>721.59997558594</ele>
        <time>2023-01-29T16:07:51.000Z</time>
      </trkpt>
      <trkpt lat="48.38379" lon="7.2939">
        <ele>721.59997558594</ele>
        <time>2023-01-29T16:07:55.000Z</time>
      </trkpt>
      <trkpt lat="48.38379" lon="7.2939">
        <ele>721.80004882812</ele>
        <time>2023-01-29T16:07:59.000Z</time>
      </trkpt>
      <trkpt lat="48.38379" lon="7.2939">
        <ele>721.80004882812</ele>
        <time>2023-01-29T16:08:03.000Z</time>
      </trkpt>
      <trkpt lat="48.38376" lon="7.29389">
        <ele>721.80004882812</ele>
        <time>2023-01-29T16:08:22.000Z</time>
      </trkpt>
      <trkpt lat="48.38375" lon="7.29388">
        <ele>721.80004882812</ele>
        <time>2023-01-29T16:08:26.000Z</time>
      </trkpt>
      <trkpt lat="48.38375" lon="7.29388">
        <ele>722</ele>
        <time>2023-01-29T16:08:34.000Z</time>
      </trkpt>
      <trkpt lat="48.38375" lon="7.29388">
        <ele>722</ele>
        <time>2023-01-29T16:08:38.000Z</time>
      </trkpt>
      <trkpt lat="48.38375" lon="7.29388">
        <ele>722</ele>
        <time>2023-01-29T16:08:40.000Z</time>
      </trkpt>
      <trkpt lat="48.38373" lon="7.29388">
        <ele>722</ele>
        <time>2023-01-29T16:08:55.000Z</time>
      </trkpt>
      <trkpt lat="48.38375" lon="7.29383">
        <ele>722.80004882812</ele>
        <time>2023-01-29T16:09:02.000Z</time>
      </trkpt>
      <trkpt lat="48.38375" lon="7.29383">
        <ele>722.80004882812</ele>
        <time>2023-01-29T16:09:03.000Z</time>
      </trkpt>
      <trkpt lat="48.38381" lon="7.29385">
        <ele>723.80004882812</ele>
        <time>2023-01-29T16:09:13.000Z</time>
      </trkpt>
      <trkpt lat="48.38383" lon="7.29386">
        <ele>724.19995117188</ele>
        <time>2023-01-29T16:09:16.000Z</time>
      </trkpt>
      <trkpt lat="48.38384" lon="7.29386">
        <ele>724.40002441406</ele>
        <time>2023-01-29T16:09:18.000Z</time>
      </trkpt>
      <trkpt lat="48.38389" lon="7.29389">
        <ele>725</ele>
        <time>2023-01-29T16:09:22.000Z</time>
      </trkpt>
      <trkpt lat="48.38393" lon="7.29389">
        <ele>725.59997558594</ele>
        <time>2023-01-29T16:09:27.000Z</time>
      </trkpt>
      <trkpt lat="48.38394" lon="7.2939">
        <ele>726</ele>
        <time>2023-01-29T16:09:31.000Z</time>
      </trkpt>
      <trkpt lat="48.38398" lon="7.29389">
        <ele>726.80004882812</ele>
        <time>2023-01-29T16:09:37.000Z</time>
      </trkpt>
      <trkpt lat="48.38399" lon="7.29389">
        <ele>727</ele>
        <time>2023-01-29T16:09:38.000Z</time>
      </trkpt>
      <trkpt lat="48.384" lon="7.29389">
        <ele>727.19995117188</ele>
        <time>2023-01-29T16:09:39.000Z</time>
      </trkpt>
      <trkpt lat="48.38401" lon="7.29389">
        <ele>727.80004882812</ele>
        <time>2023-01-29T16:09:43.000Z</time>
      </trkpt>
      <trkpt lat="48.38403" lon="7.2939">
        <ele>728.19995117188</ele>
        <time>2023-01-29T16:09:46.000Z</time>
      </trkpt>
      <trkpt lat="48.38406" lon="7.29391">
        <ele>728.80004882812</ele>
        <time>2023-01-29T16:09:50.000Z</time>
      </trkpt>
      <trkpt lat="48.38407" lon="7.29392">
        <ele>729</ele>
        <time>2023-01-29T16:09:51.000Z</time>
      </trkpt>
      <trkpt lat="48.38409" lon="7.29392">
        <ele>729.19995117188</ele>
        <time>2023-01-29T16:09:53.000Z</time>
      </trkpt>
      <trkpt lat="48.38412" lon="7.29393">
        <ele>730</ele>
        <time>2023-01-29T16:09:57.000Z</time>
      </trkpt>
      <trkpt lat="48.38413" lon="7.29393">
        <ele>730.40002441406</ele>
        <time>2023-01-29T16:09:59.000Z</time>
      </trkpt>
      <trkpt lat="48.38413" lon="7.29389">
        <ele>731</ele>
        <time>2023-01-29T16:10:02.000Z</time>
      </trkpt>
      <trkpt lat="48.38415" lon="7.2939">
        <ele>731.40002441406</ele>
        <time>2023-01-29T16:10:05.000Z</time>
      </trkpt>
      <trkpt lat="48.38417" lon="7.29391">
        <ele>732</ele>
        <time>2023-01-29T16:10:08.000Z</time>
      </trkpt>
      <trkpt lat="48.3842" lon="7.29395">
        <ele>732.59997558594</ele>
        <time>2023-01-29T16:10:13.000Z</time>
      </trkpt>
      <trkpt lat="48.38422" lon="7.29396">
        <ele>733</ele>
        <time>2023-01-29T16:10:16.000Z</time>
      </trkpt>
      <trkpt lat="48.38427" lon="7.29397">
        <ele>733.59997558594</ele>
        <time>2023-01-29T16:10:20.000Z</time>
      </trkpt>
      <trkpt lat="48.38428" lon="7.29397">
        <ele>734.59997558594</ele>
        <time>2023-01-29T16:10:24.000Z</time>
      </trkpt>
      <trkpt lat="48.38427" lon="7.29397">
        <ele>734.80004882812</ele>
        <time>2023-01-29T16:10:25.000Z</time>
      </trkpt>
      <trkpt lat="48.38429" lon="7.29398">
        <ele>735.19995117188</ele>
        <time>2023-01-29T16:10:29.000Z</time>
      </trkpt>
      <trkpt lat="48.38431" lon="7.29399">
        <ele>735.80004882812</ele>
        <time>2023-01-29T16:10:32.000Z</time>
      </trkpt>
      <trkpt lat="48.38435" lon="7.29401">
        <ele>736.80004882812</ele>
        <time>2023-01-29T16:10:38.000Z</time>
      </trkpt>
      <trkpt lat="48.38437" lon="7.29401">
        <ele>738</ele>
        <time>2023-01-29T16:10:44.000Z</time>
      </trkpt>
      <trkpt lat="48.38437" lon="7.294">
        <ele>738.19995117188</ele>
        <time>2023-01-29T16:10:45.000Z</time>
      </trkpt>
      <trkpt lat="48.38439" lon="7.29402">
        <ele>739</ele>
        <time>2023-01-29T16:10:49.000Z</time>
      </trkpt>
      <trkpt lat="48.38438" lon="7.29403">
        <ele>739.19995117188</ele>
        <time>2023-01-29T16:10:51.000Z</time>
      </trkpt>
      <trkpt lat="48.38437" lon="7.29407">
        <ele>739.40002441406</ele>
        <time>2023-01-29T16:10:58.000Z</time>
      </trkpt>
      <trkpt lat="48.38435" lon="7.29406">
        <ele>739.19995117188</ele>
        <time>2023-01-29T16:11:12.000Z</time>
      </trkpt>
      <trkpt lat="48.38435" lon="7.29407">
        <ele>739.19995117188</ele>
        <time>2023-01-29T16:11:16.000Z</time>
      </trkpt>
      <trkpt lat="48.38432" lon="7.29408">
        <ele>739.40002441406</ele>
        <time>2023-01-29T16:11:23.000Z</time>
      </trkpt>
      <trkpt lat="48.38431" lon="7.29408">
        <ele>739.19995117188</ele>
        <time>2023-01-29T16:11:38.000Z</time>
      </trkpt>
      <trkpt lat="48.38432" lon="7.29408">
        <ele>739</ele>
        <time>2023-01-29T16:11:51.000Z</time>
      </trkpt>
      <trkpt lat="48.38432" lon="7.29407">
        <ele>739</ele>
        <time>2023-01-29T16:11:56.000Z</time>
      </trkpt>
      <trkpt lat="48.38432" lon="7.29405">
        <ele>739.19995117188</ele>
        <time>2023-01-29T16:12:04.000Z</time>
      </trkpt>
      <trkpt lat="48.38432" lon="7.29404">
        <ele>739.40002441406</ele>
        <time>2023-01-29T16:12:07.000Z</time>
      </trkpt>
      <trkpt lat="48.38432" lon="7.29402">
        <ele>739.59997558594</ele>
        <time>2023-01-29T16:12:15.000Z</time>
      </trkpt>
      <trkpt lat="48.38436" lon="7.294">
        <ele>739.80004882812</ele>
        <time>2023-01-29T16:12:32.000Z</time>
      </trkpt>
      <trkpt lat="48.38436" lon="7.294">
        <ele>740.19995117188</ele>
        <time>2023-01-29T16:12:33.000Z</time>
      </trkpt>
      <trkpt lat="48.38436" lon="7.294">
        <ele>740.19995117188</ele>
        <time>2023-01-29T16:12:34.000Z</time>
      </trkpt>
      <trkpt lat="48.38436" lon="7.294">
        <ele>740.40002441406</ele>
        <time>2023-01-29T16:12:35.000Z</time>
      </trkpt>
      <trkpt lat="48.38438" lon="7.294">
        <ele>741.19995117188</ele>
        <time>2023-01-29T16:12:40.000Z</time>
      </trkpt>
      <trkpt lat="48.38445" lon="7.29405">
        <ele>742.40002441406</ele>
        <time>2023-01-29T16:12:45.000Z</time>
      </trkpt>
      <trkpt lat="48.38449" lon="7.29407">
        <ele>742.59997558594</ele>
        <time>2023-01-29T16:12:47.000Z</time>
      </trkpt>
      <trkpt lat="48.38458" lon="7.29412">
        <ele>743.40002441406</ele>
        <time>2023-01-29T16:12:51.000Z</time>
      </trkpt>
      <trkpt lat="48.3846" lon="7.29414">
        <ele>743.80004882812</ele>
        <time>2023-01-29T16:12:54.000Z</time>
      </trkpt>
      <trkpt lat="48.38462" lon="7.29415">
        <ele>744.19995117188</ele>
        <time>2023-01-29T16:12:57.000Z</time>
      </trkpt>
      <trkpt lat="48.38463" lon="7.29415">
        <ele>744.40002441406</ele>
        <time>2023-01-29T16:12:58.000Z</time>
      </trkpt>
      <trkpt lat="48.38466" lon="7.2942">
        <ele>745.40002441406</ele>
        <time>2023-01-29T16:13:03.000Z</time>
      </trkpt>
      <trkpt lat="48.38467" lon="7.2942">
        <ele>745.59997558594</ele>
        <time>2023-01-29T16:13:04.000Z</time>
      </trkpt>
      <trkpt lat="48.38471" lon="7.2942">
        <ele>746.59997558594</ele>
        <time>2023-01-29T16:13:09.000Z</time>
      </trkpt>
      <trkpt lat="48.38474" lon="7.29422">
        <ele>747.40002441406</ele>
        <time>2023-01-29T16:13:13.000Z</time>
      </trkpt>
      <trkpt lat="48.38476" lon="7.29423">
        <ele>747.59997558594</ele>
        <time>2023-01-29T16:13:15.000Z</time>
      </trkpt>
      <trkpt lat="48.38481" lon="7.29425">
        <ele>748.80004882812</ele>
        <time>2023-01-29T16:13:21.000Z</time>
      </trkpt>
      <trkpt lat="48.38482" lon="7.29426">
        <ele>749.19995117188</ele>
        <time>2023-01-29T16:13:24.000Z</time>
      </trkpt>
      <trkpt lat="48.38482" lon="7.29426">
        <ele>749.80004882812</ele>
        <time>2023-01-29T16:13:27.000Z</time>
      </trkpt>
      <trkpt lat="48.38482" lon="7.29425">
        <ele>750</ele>
        <time>2023-01-29T16:13:29.000Z</time>
      </trkpt>
      <trkpt lat="48.38483" lon="7.29427">
        <ele>750</ele>
        <time>2023-01-29T16:13:36.000Z</time>
      </trkpt>
      <trkpt lat="48.38483" lon="7.29427">
        <ele>750</ele>
        <time>2023-01-29T16:13:43.000Z</time>
      </trkpt>
      <trkpt lat="48.38485" lon="7.29431">
        <ele>751</ele>
        <time>2023-01-29T16:13:50.000Z</time>
      </trkpt>
      <trkpt lat="48.38487" lon="7.29434">
        <ele>751.40002441406</ele>
        <time>2023-01-29T16:13:53.000Z</time>
      </trkpt>
      <trkpt lat="48.38487" lon="7.29438">
        <ele>751.80004882812</ele>
        <time>2023-01-29T16:13:58.000Z</time>
      </trkpt>
      <trkpt lat="48.38485" lon="7.29441">
        <ele>752</ele>
        <time>2023-01-29T16:14:03.000Z</time>
      </trkpt>
      <trkpt lat="48.38485" lon="7.29441">
        <ele>752</ele>
        <time>2023-01-29T16:14:04.000Z</time>
      </trkpt>
      <trkpt lat="48.38483" lon="7.29445">
        <ele>752</ele>
        <time>2023-01-29T16:14:11.000Z</time>
      </trkpt>
      <trkpt lat="48.38482" lon="7.29445">
        <ele>752</ele>
        <time>2023-01-29T16:14:12.000Z</time>
      </trkpt>
      <trkpt lat="48.38482" lon="7.29445">
        <ele>752.40002441406</ele>
        <time>2023-01-29T16:14:29.000Z</time>
      </trkpt>
      <trkpt lat="48.3848" lon="7.29439">
        <ele>752.40002441406</ele>
        <time>2023-01-29T16:14:46.000Z</time>
      </trkpt>
      <trkpt lat="48.3848" lon="7.29438">
        <ele>752.59997558594</ele>
        <time>2023-01-29T16:14:49.000Z</time>
      </trkpt>
      <trkpt lat="48.38481" lon="7.29438">
        <ele>753</ele>
        <time>2023-01-29T16:14:53.000Z</time>
      </trkpt>
      <trkpt lat="48.38482" lon="7.29437">
        <ele>753.19995117188</ele>
        <time>2023-01-29T16:14:58.000Z</time>
      </trkpt>
      <trkpt lat="48.38485" lon="7.29434">
        <ele>754</ele>
        <time>2023-01-29T16:15:05.000Z</time>
      </trkpt>
      <trkpt lat="48.38491" lon="7.29432">
        <ele>755</ele>
        <time>2023-01-29T16:15:25.000Z</time>
      </trkpt>
      <trkpt lat="48.38492" lon="7.29432">
        <ele>755.19995117188</ele>
        <time>2023-01-29T16:15:31.000Z</time>
      </trkpt>
      <trkpt lat="48.38492" lon="7.29432">
        <ele>755.59997558594</ele>
        <time>2023-01-29T16:15:38.000Z</time>
      </trkpt>
      <trkpt lat="48.38494" lon="7.29433">
        <ele>755.40002441406</ele>
        <time>2023-01-29T16:15:46.000Z</time>
      </trkpt>
      <trkpt lat="48.38494" lon="7.29438">
        <ele>756.19995117188</ele>
        <time>2023-01-29T16:16:09.000Z</time>
      </trkpt>
      <trkpt lat="48.38501" lon="7.29442">
        <ele>757.19995117188</ele>
        <time>2023-01-29T16:16:15.000Z</time>
      </trkpt>
      <trkpt lat="48.38509" lon="7.29449">
        <ele>758.40002441406</ele>
        <time>2023-01-29T16:16:22.000Z</time>
      </trkpt>
      <trkpt lat="48.38508" lon="7.2945">
        <ele>759.40002441406</ele>
        <time>2023-01-29T16:16:29.000Z</time>
      </trkpt>
      <trkpt lat="48.38508" lon="7.29453">
        <ele>759.19995117188</ele>
        <time>2023-01-29T16:16:36.000Z</time>
      </trkpt>
      <trkpt lat="48.38508" lon="7.29454">
        <ele>759.19995117188</ele>
        <time>2023-01-29T16:16:37.000Z</time>
      </trkpt>
      <trkpt lat="48.38508" lon="7.29454">
        <ele>759.19995117188</ele>
        <time>2023-01-29T16:16:50.000Z</time>
      </trkpt>
      <trkpt lat="48.38507" lon="7.29452">
        <ele>759.40002441406</ele>
        <time>2023-01-29T16:17:13.000Z</time>
      </trkpt>
      <trkpt lat="48.3851" lon="7.29454">
        <ele>760.59997558594</ele>
        <time>2023-01-29T16:17:22.000Z</time>
      </trkpt>
      <trkpt lat="48.38516" lon="7.29458">
        <ele>761.19995117188</ele>
        <time>2023-01-29T16:17:26.000Z</time>
      </trkpt>
      <trkpt lat="48.38518" lon="7.29458">
        <ele>761.40002441406</ele>
        <time>2023-01-29T16:17:27.000Z</time>
      </trkpt>
      <trkpt lat="48.38521" lon="7.29459">
        <ele>761.59997558594</ele>
        <time>2023-01-29T16:17:29.000Z</time>
      </trkpt>
      <trkpt lat="48.38525" lon="7.29461">
        <ele>762.80004882812</ele>
        <time>2023-01-29T16:17:36.000Z</time>
      </trkpt>
      <trkpt lat="48.38527" lon="7.29462">
        <ele>763.59997558594</ele>
        <time>2023-01-29T16:17:42.000Z</time>
      </trkpt>
      <trkpt lat="48.38529" lon="7.29463">
        <ele>764</ele>
        <time>2023-01-29T16:17:45.000Z</time>
      </trkpt>
      <trkpt lat="48.38531" lon="7.29464">
        <ele>764.80004882812</ele>
        <time>2023-01-29T16:17:49.000Z</time>
      </trkpt>
      <trkpt lat="48.38532" lon="7.29464">
        <ele>765</ele>
        <time>2023-01-29T16:17:51.000Z</time>
      </trkpt>
      <trkpt lat="48.38533" lon="7.29464">
        <ele>765.40002441406</ele>
        <time>2023-01-29T16:17:55.000Z</time>
      </trkpt>
      <trkpt lat="48.38536" lon="7.29466">
        <ele>766.19995117188</ele>
        <time>2023-01-29T16:18:00.000Z</time>
      </trkpt>
      <trkpt lat="48.38538" lon="7.29465">
        <ele>766.59997558594</ele>
        <time>2023-01-29T16:18:04.000Z</time>
      </trkpt>
      <trkpt lat="48.38542" lon="7.29467">
        <ele>767.19995117188</ele>
        <time>2023-01-29T16:18:09.000Z</time>
      </trkpt>
      <trkpt lat="48.38543" lon="7.29468">
        <ele>767.40002441406</ele>
        <time>2023-01-29T16:18:10.000Z</time>
      </trkpt>
      <trkpt lat="48.38547" lon="7.29471">
        <ele>768.40002441406</ele>
        <time>2023-01-29T16:18:17.000Z</time>
      </trkpt>
      <trkpt lat="48.38549" lon="7.29471">
        <ele>768.80004882812</ele>
        <time>2023-01-29T16:18:20.000Z</time>
      </trkpt>
      <trkpt lat="48.3855" lon="7.29471">
        <ele>769.19995117188</ele>
        <time>2023-01-29T16:18:23.000Z</time>
      </trkpt>
      <trkpt lat="48.38552" lon="7.29472">
        <ele>769.59997558594</ele>
        <time>2023-01-29T16:18:26.000Z</time>
      </trkpt>
      <trkpt lat="48.38554" lon="7.29473">
        <ele>770</ele>
        <time>2023-01-29T16:18:30.000Z</time>
      </trkpt>
      <trkpt lat="48.38556" lon="7.29475">
        <ele>770.59997558594</ele>
        <time>2023-01-29T16:18:35.000Z</time>
      </trkpt>
      <trkpt lat="48.38558" lon="7.29477">
        <ele>771</ele>
        <time>2023-01-29T16:18:37.000Z</time>
      </trkpt>
      <trkpt lat="48.3856" lon="7.29479">
        <ele>771.59997558594</ele>
        <time>2023-01-29T16:18:42.000Z</time>
      </trkpt>
      <trkpt lat="48.38561" lon="7.29479">
        <ele>772.19995117188</ele>
        <time>2023-01-29T16:18:45.000Z</time>
      </trkpt>
      <trkpt lat="48.38562" lon="7.29476">
        <ele>772.59997558594</ele>
        <time>2023-01-29T16:18:51.000Z</time>
      </trkpt>
      <trkpt lat="48.38564" lon="7.2948">
        <ele>772.80004882812</ele>
        <time>2023-01-29T16:18:56.000Z</time>
      </trkpt>
      <trkpt lat="48.38565" lon="7.2948">
        <ele>773</ele>
        <time>2023-01-29T16:18:59.000Z</time>
      </trkpt>
      <trkpt lat="48.38569" lon="7.29482">
        <ele>773.80004882812</ele>
        <time>2023-01-29T16:19:06.000Z</time>
      </trkpt>
      <trkpt lat="48.3857" lon="7.29483">
        <ele>774</ele>
        <time>2023-01-29T16:19:08.000Z</time>
      </trkpt>
      <trkpt lat="48.38574" lon="7.29485">
        <ele>774.80004882812</ele>
        <time>2023-01-29T16:19:14.000Z</time>
      </trkpt>
      <trkpt lat="48.38575" lon="7.29486">
        <ele>775</ele>
        <time>2023-01-29T16:19:16.000Z</time>
      </trkpt>
      <trkpt lat="48.38577" lon="7.29489">
        <ele>775.80004882812</ele>
        <time>2023-01-29T16:19:23.000Z</time>
      </trkpt>
      <trkpt lat="48.38581" lon="7.29493">
        <ele>776.80004882812</ele>
        <time>2023-01-29T16:19:31.000Z</time>
      </trkpt>
      <trkpt lat="48.38582" lon="7.29494">
        <ele>777</ele>
        <time>2023-01-29T16:19:33.000Z</time>
      </trkpt>
      <trkpt lat="48.38585" lon="7.29497">
        <ele>777.40002441406</ele>
        <time>2023-01-29T16:19:37.000Z</time>
      </trkpt>
      <trkpt lat="48.38586" lon="7.29498">
        <ele>778</ele>
        <time>2023-01-29T16:19:40.000Z</time>
      </trkpt>
      <trkpt lat="48.3859" lon="7.295">
        <ele>778.40002441406</ele>
        <time>2023-01-29T16:19:44.000Z</time>
      </trkpt>
      <trkpt lat="48.38593" lon="7.29503">
        <ele>779</ele>
        <time>2023-01-29T16:19:49.000Z</time>
      </trkpt>
      <trkpt lat="48.38595" lon="7.29504">
        <ele>779.40002441406</ele>
        <time>2023-01-29T16:19:53.000Z</time>
      </trkpt>
      <trkpt lat="48.38598" lon="7.29505">
        <ele>780</ele>
        <time>2023-01-29T16:19:56.000Z</time>
      </trkpt>
      <trkpt lat="48.38598" lon="7.29506">
        <ele>780</ele>
        <time>2023-01-29T16:19:57.000Z</time>
      </trkpt>
      <trkpt lat="48.38601" lon="7.29508">
        <ele>780.59997558594</ele>
        <time>2023-01-29T16:20:02.000Z</time>
      </trkpt>
      <trkpt lat="48.38603" lon="7.29509">
        <ele>781</ele>
        <time>2023-01-29T16:20:05.000Z</time>
      </trkpt>
      <trkpt lat="48.38604" lon="7.29509">
        <ele>781</ele>
        <time>2023-01-29T16:20:06.000Z</time>
      </trkpt>
      <trkpt lat="48.38604" lon="7.2951">
        <ele>781.19995117188</ele>
        <time>2023-01-29T16:20:08.000Z</time>
      </trkpt>
      <trkpt lat="48.38603" lon="7.29511">
        <ele>781.40002441406</ele>
        <time>2023-01-29T16:20:11.000Z</time>
      </trkpt>
      <trkpt lat="48.38602" lon="7.29512">
        <ele>781.59997558594</ele>
        <time>2023-01-29T16:20:17.000Z</time>
      </trkpt>
      <trkpt lat="48.38602" lon="7.29514">
        <ele>781.59997558594</ele>
        <time>2023-01-29T16:20:26.000Z</time>
      </trkpt>
      <trkpt lat="48.38602" lon="7.29514">
        <ele>781.59997558594</ele>
        <time>2023-01-29T16:20:31.000Z</time>
      </trkpt>
      <trkpt lat="48.38602" lon="7.29514">
        <ele>781.59997558594</ele>
        <time>2023-01-29T16:20:38.000Z</time>
      </trkpt>
      <trkpt lat="48.38602" lon="7.29514">
        <ele>781.59997558594</ele>
        <time>2023-01-29T16:20:44.000Z</time>
      </trkpt>
      <trkpt lat="48.38601" lon="7.29515">
        <ele>781.59997558594</ele>
        <time>2023-01-29T16:20:51.000Z</time>
      </trkpt>
      <trkpt lat="48.38601" lon="7.29515">
        <ele>781.80004882812</ele>
        <time>2023-01-29T16:21:05.000Z</time>
      </trkpt>
      <trkpt lat="48.386" lon="7.29515">
        <ele>781.80004882812</ele>
        <time>2023-01-29T16:21:08.000Z</time>
      </trkpt>
      <trkpt lat="48.386" lon="7.29515">
        <ele>781.80004882812</ele>
        <time>2023-01-29T16:21:11.000Z</time>
      </trkpt>
      <trkpt lat="48.386" lon="7.29514">
        <ele>781.80004882812</ele>
        <time>2023-01-29T16:21:31.000Z</time>
      </trkpt>
      <trkpt lat="48.386" lon="7.29515">
        <ele>781.80004882812</ele>
        <time>2023-01-29T16:21:34.000Z</time>
      </trkpt>
      <trkpt lat="48.386" lon="7.29515">
        <ele>781.80004882812</ele>
        <time>2023-01-29T16:21:36.000Z</time>
      </trkpt>
      <trkpt lat="48.38601" lon="7.29515">
        <ele>782</ele>
        <time>2023-01-29T16:21:45.000Z</time>
      </trkpt>
      <trkpt lat="48.38602" lon="7.29515">
        <ele>782</ele>
        <time>2023-01-29T16:21:52.000Z</time>
      </trkpt>
      <trkpt lat="48.3861" lon="7.29524">
        <ele>782</ele>
        <time>2023-01-29T16:22:20.000Z</time>
      </trkpt>
      <trkpt lat="48.3862" lon="7.29532">
        <ele>782</ele>
        <time>2023-01-29T16:22:28.000Z</time>
      </trkpt>
      <trkpt lat="48.38621" lon="7.29534">
        <ele>782</ele>
        <time>2023-01-29T16:22:32.000Z</time>
      </trkpt>
      <trkpt lat="48.38622" lon="7.29536">
        <ele>782</ele>
        <time>2023-01-29T16:22:35.000Z</time>
      </trkpt>
      <trkpt lat="48.38626" lon="7.29538">
        <ele>784.59997558594</ele>
        <time>2023-01-29T16:22:39.000Z</time>
      </trkpt>
      <trkpt lat="48.38629" lon="7.2954">
        <ele>784.59997558594</ele>
        <time>2023-01-29T16:22:42.000Z</time>
      </trkpt>
      <trkpt lat="48.3863" lon="7.29541">
        <ele>784.59997558594</ele>
        <time>2023-01-29T16:22:48.000Z</time>
      </trkpt>
      <trkpt lat="48.3863" lon="7.29541">
        <ele>784.59997558594</ele>
        <time>2023-01-29T16:23:17.000Z</time>
      </trkpt>
      <trkpt lat="48.38639" lon="7.29546">
        <ele>784.80004882812</ele>
        <time>2023-01-29T16:23:32.000Z</time>
      </trkpt>
      <trkpt lat="48.38642" lon="7.29548">
        <ele>784.80004882812</ele>
        <time>2023-01-29T16:23:35.000Z</time>
      </trkpt>
      <trkpt lat="48.38649" lon="7.29553">
        <ele>784.59997558594</ele>
        <time>2023-01-29T16:23:43.000Z</time>
      </trkpt>
      <trkpt lat="48.38651" lon="7.29554">
        <ele>784.59997558594</ele>
        <time>2023-01-29T16:23:45.000Z</time>
      </trkpt>
      <trkpt lat="48.38655" lon="7.29555">
        <ele>784.59997558594</ele>
        <time>2023-01-29T16:23:50.000Z</time>
      </trkpt>
      <trkpt lat="48.38656" lon="7.29556">
        <ele>784.59997558594</ele>
        <time>2023-01-29T16:23:51.000Z</time>
      </trkpt>
      <trkpt lat="48.38656" lon="7.29556">
        <ele>784.59997558594</ele>
        <time>2023-01-29T16:23:52.000Z</time>
      </trkpt>
      <trkpt lat="48.38662" lon="7.29557">
        <ele>784.59997558594</ele>
        <time>2023-01-29T16:23:59.000Z</time>
      </trkpt>
      <trkpt lat="48.38664" lon="7.29565">
        <ele>784.59997558594</ele>
        <time>2023-01-29T16:24:06.000Z</time>
      </trkpt>
      <trkpt lat="48.38666" lon="7.29565">
        <ele>784.59997558594</ele>
        <time>2023-01-29T16:24:14.000Z</time>
      </trkpt>
      <trkpt lat="48.38667" lon="7.29565">
        <ele>784.59997558594</ele>
        <time>2023-01-29T16:24:15.000Z</time>
      </trkpt>
      <trkpt lat="48.38669" lon="7.29564">
        <ele>784.59997558594</ele>
        <time>2023-01-29T16:24:17.000Z</time>
      </trkpt>
      <trkpt lat="48.38672" lon="7.29563">
        <ele>784.59997558594</ele>
        <time>2023-01-29T16:24:21.000Z</time>
      </trkpt>
      <trkpt lat="48.3867" lon="7.29565">
        <ele>784.59997558594</ele>
        <time>2023-01-29T16:24:26.000Z</time>
      </trkpt>
      <trkpt lat="48.38668" lon="7.29565">
        <ele>784.59997558594</ele>
        <time>2023-01-29T16:24:29.000Z</time>
      </trkpt>
      <trkpt lat="48.38672" lon="7.29561">
        <ele>784.59997558594</ele>
        <time>2023-01-29T16:24:34.000Z</time>
      </trkpt>
      <trkpt lat="48.38676" lon="7.2956">
        <ele>784.59997558594</ele>
        <time>2023-01-29T16:24:40.000Z</time>
      </trkpt>
      <trkpt lat="48.38676" lon="7.29562">
        <ele>784.59997558594</ele>
        <time>2023-01-29T16:24:41.000Z</time>
      </trkpt>
      <trkpt lat="48.38679" lon="7.29561">
        <ele>784.59997558594</ele>
        <time>2023-01-29T16:24:47.000Z</time>
      </trkpt>
      <trkpt lat="48.38688" lon="7.29562">
        <ele>784.59997558594</ele>
        <time>2023-01-29T16:24:55.000Z</time>
      </trkpt>
      <trkpt lat="48.38689" lon="7.29562">
        <ele>784.59997558594</ele>
        <time>2023-01-29T16:24:56.000Z</time>
      </trkpt>
      <trkpt lat="48.38691" lon="7.29561">
        <ele>784.59997558594</ele>
        <time>2023-01-29T16:24:58.000Z</time>
      </trkpt>
      <trkpt lat="48.38693" lon="7.2956">
        <ele>784.59997558594</ele>
        <time>2023-01-29T16:25:00.000Z</time>
      </trkpt>
      <trkpt lat="48.38694" lon="7.29558">
        <ele>784.59997558594</ele>
        <time>2023-01-29T16:25:02.000Z</time>
      </trkpt>
      <trkpt lat="48.38695" lon="7.29557">
        <ele>784.59997558594</ele>
        <time>2023-01-29T16:25:04.000Z</time>
      </trkpt>
      <trkpt lat="48.38697" lon="7.29556">
        <ele>784.59997558594</ele>
        <time>2023-01-29T16:25:06.000Z</time>
      </trkpt>
      <trkpt lat="48.38698" lon="7.29554">
        <ele>784.59997558594</ele>
        <time>2023-01-29T16:25:08.000Z</time>
      </trkpt>
      <trkpt lat="48.387" lon="7.2955">
        <ele>784.59997558594</ele>
        <time>2023-01-29T16:25:12.000Z</time>
      </trkpt>
      <trkpt lat="48.38702" lon="7.29541">
        <ele>784.59997558594</ele>
        <time>2023-01-29T16:25:20.000Z</time>
      </trkpt>
      <trkpt lat="48.38702" lon="7.29539">
        <ele>784.59997558594</ele>
        <time>2023-01-29T16:25:21.000Z</time>
      </trkpt>
      <trkpt lat="48.38705" lon="7.2953">
        <ele>784.59997558594</ele>
        <time>2023-01-29T16:25:28.000Z</time>
      </trkpt>
      <trkpt lat="48.38707" lon="7.29525">
        <ele>784.59997558594</ele>
        <time>2023-01-29T16:25:33.000Z</time>
      </trkpt>
      <trkpt lat="48.38707" lon="7.29522">
        <ele>784.59997558594</ele>
        <time>2023-01-29T16:25:36.000Z</time>
      </trkpt>
      <trkpt lat="48.38707" lon="7.29519">
        <ele>784.59997558594</ele>
        <time>2023-01-29T16:25:38.000Z</time>
      </trkpt>
      <trkpt lat="48.38707" lon="7.29515">
        <ele>784.59997558594</ele>
        <time>2023-01-29T16:25:41.000Z</time>
      </trkpt>
      <trkpt lat="48.38708" lon="7.29514">
        <ele>784.59997558594</ele>
        <time>2023-01-29T16:25:42.000Z</time>
      </trkpt>
      <trkpt lat="48.3871" lon="7.29511">
        <ele>784.59997558594</ele>
        <time>2023-01-29T16:25:45.000Z</time>
      </trkpt>
      <trkpt lat="48.3871" lon="7.2951">
        <ele>784.59997558594</ele>
        <time>2023-01-29T16:25:46.000Z</time>
      </trkpt>
      <trkpt lat="48.38712" lon="7.2951">
        <ele>784.59997558594</ele>
        <time>2023-01-29T16:25:48.000Z</time>
      </trkpt>
      <trkpt lat="48.38713" lon="7.29512">
        <ele>784.59997558594</ele>
        <time>2023-01-29T16:25:52.000Z</time>
      </trkpt>
      <trkpt lat="48.38714" lon="7.29512">
        <ele>784.59997558594</ele>
        <time>2023-01-29T16:25:55.000Z</time>
      </trkpt>
      <trkpt lat="48.38712" lon="7.29512">
        <ele>784.59997558594</ele>
        <time>2023-01-29T16:26:04.000Z</time>
      </trkpt>
      <trkpt lat="48.38711" lon="7.29511">
        <ele>784.59997558594</ele>
        <time>2023-01-29T16:26:23.000Z</time>
      </trkpt>
      <trkpt lat="48.38714" lon="7.29504">
        <ele>784.59997558594</ele>
        <time>2023-01-29T16:26:35.000Z</time>
      </trkpt>
      <trkpt lat="48.38718" lon="7.29494">
        <ele>784.59997558594</ele>
        <time>2023-01-29T16:26:42.000Z</time>
      </trkpt>
      <trkpt lat="48.38718" lon="7.29492">
        <ele>784.59997558594</ele>
        <time>2023-01-29T16:26:44.000Z</time>
      </trkpt>
      <trkpt lat="48.3872" lon="7.29486">
        <ele>784.59997558594</ele>
        <time>2023-01-29T16:26:49.000Z</time>
      </trkpt>
      <trkpt lat="48.38723" lon="7.29478">
        <ele>784.59997558594</ele>
        <time>2023-01-29T16:26:55.000Z</time>
      </trkpt>
      <trkpt lat="48.38723" lon="7.29478">
        <ele>784.59997558594</ele>
        <time>2023-01-29T16:27:00.000Z</time>
      </trkpt>
      <trkpt lat="48.38725" lon="7.29471">
        <ele>784.59997558594</ele>
        <time>2023-01-29T16:27:06.000Z</time>
      </trkpt>
      <trkpt lat="48.38728" lon="7.29467">
        <ele>784.59997558594</ele>
        <time>2023-01-29T16:27:14.000Z</time>
      </trkpt>
      <trkpt lat="48.38728" lon="7.29467">
        <ele>784.59997558594</ele>
        <time>2023-01-29T16:27:36.000Z</time>
      </trkpt>
      <trkpt lat="48.38731" lon="7.29461">
        <ele>784.59997558594</ele>
        <time>2023-01-29T16:27:41.000Z</time>
      </trkpt>
      <trkpt lat="48.38733" lon="7.29453">
        <ele>784.59997558594</ele>
        <time>2023-01-29T16:27:48.000Z</time>
      </trkpt>
      <trkpt lat="48.38739" lon="7.29448">
        <ele>784.59997558594</ele>
        <time>2023-01-29T16:27:55.000Z</time>
      </trkpt>
      <trkpt lat="48.38739" lon="7.29447">
        <ele>784.59997558594</ele>
        <time>2023-01-29T16:27:56.000Z</time>
      </trkpt>
      <trkpt lat="48.38743" lon="7.29443">
        <ele>784.59997558594</ele>
        <time>2023-01-29T16:28:02.000Z</time>
      </trkpt>
      <trkpt lat="48.38747" lon="7.2944">
        <ele>784.59997558594</ele>
        <time>2023-01-29T16:28:09.000Z</time>
      </trkpt>
      <trkpt lat="48.38747" lon="7.2944">
        <ele>784.59997558594</ele>
        <time>2023-01-29T16:28:12.000Z</time>
      </trkpt>
      <trkpt lat="48.38751" lon="7.29436">
        <ele>784.59997558594</ele>
        <time>2023-01-29T16:28:56.000Z</time>
      </trkpt>
      <trkpt lat="48.38751" lon="7.29437">
        <ele>784.59997558594</ele>
        <time>2023-01-29T16:29:03.000Z</time>
      </trkpt>
      <trkpt lat="48.38751" lon="7.29437">
        <ele>784.59997558594</ele>
        <time>2023-01-29T16:29:10.000Z</time>
      </trkpt>
      <trkpt lat="48.3875" lon="7.29437">
        <ele>784.59997558594</ele>
        <time>2023-01-29T16:29:12.000Z</time>
      </trkpt>
      <trkpt lat="48.3875" lon="7.29437">
        <ele>784.59997558594</ele>
        <time>2023-01-29T16:29:14.000Z</time>
      </trkpt>
      <trkpt lat="48.3875" lon="7.29437">
        <ele>784.59997558594</ele>
        <time>2023-01-29T16:29:17.000Z</time>
      </trkpt>
      <trkpt lat="48.38752" lon="7.29429">
        <ele>784.59997558594</ele>
        <time>2023-01-29T16:29:24.000Z</time>
      </trkpt>
      <trkpt lat="48.38756" lon="7.29417">
        <ele>784.59997558594</ele>
        <time>2023-01-29T16:29:34.000Z</time>
      </trkpt>
      <trkpt lat="48.38757" lon="7.29418">
        <ele>787.59997558594</ele>
        <time>2023-01-29T16:29:46.000Z</time>
      </trkpt>
      <trkpt lat="48.38764" lon="7.29409">
        <ele>788</ele>
        <time>2023-01-29T16:29:57.000Z</time>
      </trkpt>
      <trkpt lat="48.38767" lon="7.29406">
        <ele>788.19995117188</ele>
        <time>2023-01-29T16:29:59.000Z</time>
      </trkpt>
      <trkpt lat="48.38771" lon="7.294">
        <ele>788.59997558594</ele>
        <time>2023-01-29T16:30:04.000Z</time>
      </trkpt>
      <trkpt lat="48.38772" lon="7.29399">
        <ele>788.80004882812</ele>
        <time>2023-01-29T16:30:05.000Z</time>
      </trkpt>
      <trkpt lat="48.38775" lon="7.29394">
        <ele>789.19995117188</ele>
        <time>2023-01-29T16:30:10.000Z</time>
      </trkpt>
      <trkpt lat="48.38778" lon="7.29388">
        <ele>789.59997558594</ele>
        <time>2023-01-29T16:30:15.000Z</time>
      </trkpt>
      <trkpt lat="48.38778" lon="7.29387">
        <ele>789.80004882812</ele>
        <time>2023-01-29T16:30:16.000Z</time>
      </trkpt>
      <trkpt lat="48.38782" lon="7.29377">
        <ele>790.40002441406</ele>
        <time>2023-01-29T16:30:24.000Z</time>
      </trkpt>
      <trkpt lat="48.38784" lon="7.29371">
        <ele>790.59997558594</ele>
        <time>2023-01-29T16:30:28.000Z</time>
      </trkpt>
      <trkpt lat="48.38788" lon="7.29365">
        <ele>791.40002441406</ele>
        <time>2023-01-29T16:30:34.000Z</time>
      </trkpt>
      <trkpt lat="48.38789" lon="7.29362">
        <ele>791.80004882812</ele>
        <time>2023-01-29T16:30:37.000Z</time>
      </trkpt>
      <trkpt lat="48.38792" lon="7.29354">
        <ele>792.59997558594</ele>
        <time>2023-01-29T16:30:43.000Z</time>
      </trkpt>
      <trkpt lat="48.38796" lon="7.29349">
        <ele>793</ele>
        <time>2023-01-29T16:30:48.000Z</time>
      </trkpt>
      <trkpt lat="48.38797" lon="7.29348">
        <ele>793.40002441406</ele>
        <time>2023-01-29T16:30:53.000Z</time>
      </trkpt>
      <trkpt lat="48.38799" lon="7.29349">
        <ele>793.59997558594</ele>
        <time>2023-01-29T16:31:08.000Z</time>
      </trkpt>
      <trkpt lat="48.38799" lon="7.29349">
        <ele>793.59997558594</ele>
        <time>2023-01-29T16:31:11.000Z</time>
      </trkpt>
      <trkpt lat="48.38801" lon="7.29345">
        <ele>794</ele>
        <time>2023-01-29T16:31:14.000Z</time>
      </trkpt>
      <trkpt lat="48.38801" lon="7.29341">
        <ele>794.19995117188</ele>
        <time>2023-01-29T16:31:16.000Z</time>
      </trkpt>
      <trkpt lat="48.38804" lon="7.29325">
        <ele>794.80004882812</ele>
        <time>2023-01-29T16:31:27.000Z</time>
      </trkpt>
      <trkpt lat="48.38805" lon="7.29323">
        <ele>795</ele>
        <time>2023-01-29T16:31:30.000Z</time>
      </trkpt>
      <trkpt lat="48.38806" lon="7.29321">
        <ele>795.19995117188</ele>
        <time>2023-01-29T16:31:33.000Z</time>
      </trkpt>
      <trkpt lat="48.38808" lon="7.29319">
        <ele>795.40002441406</ele>
        <time>2023-01-29T16:31:36.000Z</time>
      </trkpt>
      <trkpt lat="48.3881" lon="7.29315">
        <ele>795.80004882812</ele>
        <time>2023-01-29T16:31:40.000Z</time>
      </trkpt>
      <trkpt lat="48.38811" lon="7.29313">
        <ele>796</ele>
        <time>2023-01-29T16:31:43.000Z</time>
      </trkpt>
      <trkpt lat="48.38814" lon="7.29307">
        <ele>796.80004882812</ele>
        <time>2023-01-29T16:31:50.000Z</time>
      </trkpt>
      <trkpt lat="48.38815" lon="7.29305">
        <ele>797.19995117188</ele>
        <time>2023-01-29T16:31:56.000Z</time>
      </trkpt>
      <trkpt lat="48.38817" lon="7.29302">
        <ele>797.19995117188</ele>
        <time>2023-01-29T16:31:59.000Z</time>
      </trkpt>
      <trkpt lat="48.38821" lon="7.29297">
        <ele>797.80004882812</ele>
        <time>2023-01-29T16:32:06.000Z</time>
      </trkpt>
      <trkpt lat="48.38824" lon="7.29294">
        <ele>798.19995117188</ele>
        <time>2023-01-29T16:32:09.000Z</time>
      </trkpt>
      <trkpt lat="48.38825" lon="7.29293">
        <ele>798.40002441406</ele>
        <time>2023-01-29T16:32:11.000Z</time>
      </trkpt>
      <trkpt lat="48.38827" lon="7.29293">
        <ele>799</ele>
        <time>2023-01-29T16:32:16.000Z</time>
      </trkpt>
      <trkpt lat="48.38828" lon="7.29293">
        <ele>799</ele>
        <time>2023-01-29T16:32:18.000Z</time>
      </trkpt>
      <trkpt lat="48.38827" lon="7.29296">
        <ele>799.19995117188</ele>
        <time>2023-01-29T16:32:22.000Z</time>
      </trkpt>
      <trkpt lat="48.38826" lon="7.29296">
        <ele>799.19995117188</ele>
        <time>2023-01-29T16:32:24.000Z</time>
      </trkpt>
      <trkpt lat="48.38826" lon="7.29296">
        <ele>799.19995117188</ele>
        <time>2023-01-29T16:32:30.000Z</time>
      </trkpt>
      <trkpt lat="48.38827" lon="7.29292">
        <ele>799.40002441406</ele>
        <time>2023-01-29T16:32:37.000Z</time>
      </trkpt>
      <trkpt lat="48.38828" lon="7.29292">
        <ele>799</ele>
        <time>2023-01-29T16:32:42.000Z</time>
      </trkpt>
      <trkpt lat="48.38828" lon="7.29296">
        <ele>799</ele>
        <time>2023-01-29T16:32:52.000Z</time>
      </trkpt>
      <trkpt lat="48.3883" lon="7.29298">
        <ele>798.59997558594</ele>
        <time>2023-01-29T16:33:33.000Z</time>
      </trkpt>
      <trkpt lat="48.38827" lon="7.29297">
        <ele>798.59997558594</ele>
        <time>2023-01-29T16:33:46.000Z</time>
      </trkpt>
      <trkpt lat="48.38827" lon="7.29294">
        <ele>799</ele>
        <time>2023-01-29T16:34:19.000Z</time>
      </trkpt>
      <trkpt lat="48.38827" lon="7.29293">
        <ele>799</ele>
        <time>2023-01-29T16:34:28.000Z</time>
      </trkpt>
      <trkpt lat="48.38828" lon="7.29295">
        <ele>799</ele>
        <time>2023-01-29T16:34:42.000Z</time>
      </trkpt>
      <trkpt lat="48.38832" lon="7.29303">
        <ele>799</ele>
        <time>2023-01-29T16:35:02.000Z</time>
      </trkpt>
      <trkpt lat="48.38831" lon="7.29304">
        <ele>799</ele>
        <time>2023-01-29T16:35:35.000Z</time>
      </trkpt>
      <trkpt lat="48.38831" lon="7.29304">
        <ele>799</ele>
        <time>2023-01-29T16:35:36.000Z</time>
      </trkpt>
      <trkpt lat="48.3883" lon="7.29303">
        <ele>799</ele>
        <time>2023-01-29T16:35:40.000Z</time>
      </trkpt>
      <trkpt lat="48.38828" lon="7.29302">
        <ele>799</ele>
        <time>2023-01-29T16:35:52.000Z</time>
      </trkpt>
      <trkpt lat="48.38828" lon="7.29302">
        <ele>799</ele>
        <time>2023-01-29T16:35:57.000Z</time>
      </trkpt>
      <trkpt lat="48.38827" lon="7.29302">
        <ele>799</ele>
        <time>2023-01-29T16:36:36.000Z</time>
      </trkpt>
      <trkpt lat="48.38827" lon="7.29301">
        <ele>799</ele>
        <time>2023-01-29T16:37:16.000Z</time>
      </trkpt>
    </trkseg>
  </trk>
</gpx>